<?xml version="1.0" encoding="UTF-8" standalone="no" ?>
<gpx xmlns="http://www.topografix.com/GPX/1/1" xmlns:xsi="http://www.w3.org/2001/XMLSchema-instance" xsi:schemaLocation="http://www.topografix.com/GPX/1/1 http://www.topografix.com/GPX/1/1/gpx.xsd" version="1.1" creator="VisuGPX - https://www.visugpx.com">
  <metadata>
    <name>ST_RAD - CAMBOULAS 34KM  -1000M</name>
    <desc><![CDATA[SORTIE 34 KM  -1000M]]></desc>
  </metadata>
  <trk>
    <name><![CDATA[st RA-CANB 34km]]></name>
    <trkseg>
      <trkpt lat="44.33566" lon="2.62926">
        <ele>648.5463867</ele>
        <time>2014-05-25T05:08:46Z</time>
      </trkpt>
      <trkpt lat="44.33565" lon="2.62929">
        <ele>649.0270996</ele>
        <time>2014-05-25T05:08:47Z</time>
      </trkpt>
      <trkpt lat="44.33565" lon="2.6295">
        <ele>649.5078125</ele>
        <time>2014-05-25T05:08:52Z</time>
      </trkpt>
      <trkpt lat="44.33568" lon="2.62966">
        <ele>647.5852051</ele>
        <time>2014-05-25T05:08:57Z</time>
      </trkpt>
      <trkpt lat="44.3357" lon="2.62981">
        <ele>646.6240234</ele>
        <time>2014-05-25T05:09:01Z</time>
      </trkpt>
      <trkpt lat="44.33572" lon="2.63006">
        <ele>646.1433105</ele>
        <time>2014-05-25T05:09:07Z</time>
      </trkpt>
      <trkpt lat="44.33574" lon="2.63022">
        <ele>644.7011719</ele>
        <time>2014-05-25T05:09:12Z</time>
      </trkpt>
      <trkpt lat="44.33574" lon="2.6303">
        <ele>644.7011719</ele>
        <time>2014-05-25T05:09:14Z</time>
      </trkpt>
      <trkpt lat="44.33566" lon="2.63041">
        <ele>641.8173828</ele>
        <time>2014-05-25T05:09:19Z</time>
      </trkpt>
      <trkpt lat="44.33564" lon="2.63054">
        <ele>641.8173828</ele>
        <time>2014-05-25T05:09:23Z</time>
      </trkpt>
      <trkpt lat="44.33564" lon="2.63061">
        <ele>642.2980957</ele>
        <time>2014-05-25T05:09:25Z</time>
      </trkpt>
      <trkpt lat="44.3356" lon="2.63081">
        <ele>640.855957</ele>
        <time>2014-05-25T05:09:30Z</time>
      </trkpt>
      <trkpt lat="44.33558" lon="2.631">
        <ele>639.4140625</ele>
        <time>2014-05-25T05:09:35Z</time>
      </trkpt>
      <trkpt lat="44.33553" lon="2.63117">
        <ele>639.8947754</ele>
        <time>2014-05-25T05:09:40Z</time>
      </trkpt>
      <trkpt lat="44.33545" lon="2.63134">
        <ele>641.3366699</ele>
        <time>2014-05-25T05:09:45Z</time>
      </trkpt>
      <trkpt lat="44.33538" lon="2.6315">
        <ele>641.8173828</ele>
        <time>2014-05-25T05:09:50Z</time>
      </trkpt>
      <trkpt lat="44.33535" lon="2.6316">
        <ele>642.2980957</ele>
        <time>2014-05-25T05:09:55Z</time>
      </trkpt>
      <trkpt lat="44.33534" lon="2.6316">
        <ele>644.7011719</ele>
        <time>2014-05-25T05:10:15Z</time>
      </trkpt>
      <trkpt lat="44.33532" lon="2.63169">
        <ele>646.6240234</ele>
        <time>2014-05-25T05:10:30Z</time>
      </trkpt>
      <trkpt lat="44.33526" lon="2.63194">
        <ele>644.2207031</ele>
        <time>2014-05-25T05:10:37Z</time>
      </trkpt>
      <trkpt lat="44.33522" lon="2.63214">
        <ele>642.2980957</ele>
        <time>2014-05-25T05:10:42Z</time>
      </trkpt>
      <trkpt lat="44.33517" lon="2.63238">
        <ele>641.3366699</ele>
        <time>2014-05-25T05:10:48Z</time>
      </trkpt>
      <trkpt lat="44.33511" lon="2.63257">
        <ele>641.3366699</ele>
        <time>2014-05-25T05:10:54Z</time>
      </trkpt>
      <trkpt lat="44.33504" lon="2.63277">
        <ele>640.3754883</ele>
        <time>2014-05-25T05:11:00Z</time>
      </trkpt>
      <trkpt lat="44.335" lon="2.63293">
        <ele>640.855957</ele>
        <time>2014-05-25T05:11:04Z</time>
      </trkpt>
      <trkpt lat="44.33495" lon="2.63314">
        <ele>640.3754883</ele>
        <time>2014-05-25T05:11:10Z</time>
      </trkpt>
      <trkpt lat="44.33491" lon="2.6333">
        <ele>639.8947754</ele>
        <time>2014-05-25T05:11:14Z</time>
      </trkpt>
      <trkpt lat="44.33489" lon="2.63345">
        <ele>639.4140625</ele>
        <time>2014-05-25T05:11:18Z</time>
      </trkpt>
      <trkpt lat="44.33486" lon="2.63362">
        <ele>638.9335938</ele>
        <time>2014-05-25T05:11:23Z</time>
      </trkpt>
      <trkpt lat="44.33486" lon="2.63364">
        <ele>637.4914551</ele>
        <time>2014-05-25T05:11:27Z</time>
      </trkpt>
      <trkpt lat="44.33486" lon="2.63365">
        <ele>637.4914551</ele>
        <time>2014-05-25T05:11:28Z</time>
      </trkpt>
      <trkpt lat="44.33484" lon="2.63381">
        <ele>637.4914551</ele>
        <time>2014-05-25T05:11:33Z</time>
      </trkpt>
      <trkpt lat="44.33483" lon="2.63394">
        <ele>637.0107422</ele>
        <time>2014-05-25T05:11:36Z</time>
      </trkpt>
      <trkpt lat="44.33482" lon="2.63418">
        <ele>636.5302734</ele>
        <time>2014-05-25T05:11:42Z</time>
      </trkpt>
      <trkpt lat="44.33479" lon="2.63438">
        <ele>636.5302734</ele>
        <time>2014-05-25T05:11:48Z</time>
      </trkpt>
      <trkpt lat="44.33474" lon="2.63455">
        <ele>637.0107422</ele>
        <time>2014-05-25T05:11:53Z</time>
      </trkpt>
      <trkpt lat="44.33468" lon="2.63474">
        <ele>637.4914551</ele>
        <time>2014-05-25T05:11:59Z</time>
      </trkpt>
      <trkpt lat="44.33462" lon="2.63483">
        <ele>636.0495605</ele>
        <time>2014-05-25T05:12:04Z</time>
      </trkpt>
      <trkpt lat="44.33459" lon="2.63495">
        <ele>636.5302734</ele>
        <time>2014-05-25T05:12:09Z</time>
      </trkpt>
      <trkpt lat="44.33458" lon="2.63499">
        <ele>636.5302734</ele>
        <time>2014-05-25T05:12:10Z</time>
      </trkpt>
      <trkpt lat="44.3345" lon="2.63525">
        <ele>635.0881348</ele>
        <time>2014-05-25T05:12:17Z</time>
      </trkpt>
      <trkpt lat="44.33449" lon="2.63545">
        <ele>633.6459961</ele>
        <time>2014-05-25T05:12:22Z</time>
      </trkpt>
      <trkpt lat="44.33447" lon="2.63566">
        <ele>633.1652832</ele>
        <time>2014-05-25T05:12:27Z</time>
      </trkpt>
      <trkpt lat="44.33443" lon="2.63578">
        <ele>632.6848145</ele>
        <time>2014-05-25T05:12:31Z</time>
      </trkpt>
      <trkpt lat="44.33433" lon="2.63593">
        <ele>631.7233887</ele>
        <time>2014-05-25T05:12:36Z</time>
      </trkpt>
      <trkpt lat="44.33424" lon="2.63603">
        <ele>631.2429199</ele>
        <time>2014-05-25T05:12:41Z</time>
      </trkpt>
      <trkpt lat="44.33416" lon="2.63611">
        <ele>631.2429199</ele>
        <time>2014-05-25T05:12:46Z</time>
      </trkpt>
      <trkpt lat="44.33408" lon="2.6362">
        <ele>631.2429199</ele>
        <time>2014-05-25T05:12:51Z</time>
      </trkpt>
      <trkpt lat="44.33407" lon="2.63622">
        <ele>631.7233887</ele>
        <time>2014-05-25T05:12:52Z</time>
      </trkpt>
      <trkpt lat="44.33401" lon="2.6363">
        <ele>633.6459961</ele>
        <time>2014-05-25T05:12:56Z</time>
      </trkpt>
      <trkpt lat="44.33392" lon="2.63643">
        <ele>636.0495605</ele>
        <time>2014-05-25T05:13:03Z</time>
      </trkpt>
      <trkpt lat="44.33385" lon="2.63655">
        <ele>637.4914551</ele>
        <time>2014-05-25T05:13:10Z</time>
      </trkpt>
      <trkpt lat="44.33379" lon="2.63665">
        <ele>639.4140625</ele>
        <time>2014-05-25T05:13:15Z</time>
      </trkpt>
      <trkpt lat="44.33372" lon="2.63677">
        <ele>642.7788086</ele>
        <time>2014-05-25T05:13:21Z</time>
      </trkpt>
      <trkpt lat="44.33365" lon="2.63691">
        <ele>644.2207031</ele>
        <time>2014-05-25T05:13:27Z</time>
      </trkpt>
      <trkpt lat="44.33359" lon="2.63705">
        <ele>646.6240234</ele>
        <time>2014-05-25T05:13:33Z</time>
      </trkpt>
      <trkpt lat="44.33356" lon="2.6372">
        <ele>649.0270996</ele>
        <time>2014-05-25T05:13:39Z</time>
      </trkpt>
      <trkpt lat="44.33356" lon="2.63723">
        <ele>649.9885254</ele>
        <time>2014-05-25T05:13:43Z</time>
      </trkpt>
      <trkpt lat="44.33354" lon="2.63732">
        <ele>651.4304199</ele>
        <time>2014-05-25T05:13:47Z</time>
      </trkpt>
      <trkpt lat="44.33349" lon="2.63747">
        <ele>654.3146973</ele>
        <time>2014-05-25T05:13:52Z</time>
      </trkpt>
      <trkpt lat="44.33346" lon="2.63758">
        <ele>655.2758789</ele>
        <time>2014-05-25T05:13:56Z</time>
      </trkpt>
      <trkpt lat="44.33342" lon="2.63773">
        <ele>655.2758789</ele>
        <time>2014-05-25T05:14:02Z</time>
      </trkpt>
      <trkpt lat="44.33337" lon="2.63789">
        <ele>655.2758789</ele>
        <time>2014-05-25T05:14:08Z</time>
      </trkpt>
      <trkpt lat="44.33332" lon="2.63804">
        <ele>654.795166</ele>
        <time>2014-05-25T05:14:14Z</time>
      </trkpt>
      <trkpt lat="44.33326" lon="2.6382">
        <ele>654.795166</ele>
        <time>2014-05-25T05:14:20Z</time>
      </trkpt>
      <trkpt lat="44.33323" lon="2.63835">
        <ele>654.3146973</ele>
        <time>2014-05-25T05:14:26Z</time>
      </trkpt>
      <trkpt lat="44.33321" lon="2.63845">
        <ele>653.8339844</ele>
        <time>2014-05-25T05:14:30Z</time>
      </trkpt>
      <trkpt lat="44.33317" lon="2.63863">
        <ele>657.1984863</ele>
        <time>2014-05-25T05:14:36Z</time>
      </trkpt>
      <trkpt lat="44.33314" lon="2.6388">
        <ele>658.6403809</ele>
        <time>2014-05-25T05:14:42Z</time>
      </trkpt>
      <trkpt lat="44.33308" lon="2.639">
        <ele>659.6018066</ele>
        <time>2014-05-25T05:14:49Z</time>
      </trkpt>
      <trkpt lat="44.33303" lon="2.6392">
        <ele>660.5629883</ele>
        <time>2014-05-25T05:14:56Z</time>
      </trkpt>
      <trkpt lat="44.33299" lon="2.6394">
        <ele>662.005127</ele>
        <time>2014-05-25T05:15:03Z</time>
      </trkpt>
      <trkpt lat="44.33297" lon="2.63959">
        <ele>661.0437012</ele>
        <time>2014-05-25T05:15:09Z</time>
      </trkpt>
      <trkpt lat="44.33295" lon="2.63976">
        <ele>662.005127</ele>
        <time>2014-05-25T05:15:15Z</time>
      </trkpt>
      <trkpt lat="44.33292" lon="2.63995">
        <ele>663.4470215</ele>
        <time>2014-05-25T05:15:21Z</time>
      </trkpt>
      <trkpt lat="44.33287" lon="2.64014">
        <ele>664.4082031</ele>
        <time>2014-05-25T05:15:27Z</time>
      </trkpt>
      <trkpt lat="44.33282" lon="2.64035">
        <ele>665.3696289</ele>
        <time>2014-05-25T05:15:34Z</time>
      </trkpt>
      <trkpt lat="44.3328" lon="2.64052">
        <ele>666.3308105</ele>
        <time>2014-05-25T05:15:39Z</time>
      </trkpt>
      <trkpt lat="44.33279" lon="2.64072">
        <ele>666.3308105</ele>
        <time>2014-05-25T05:15:45Z</time>
      </trkpt>
      <trkpt lat="44.33276" lon="2.64092">
        <ele>667.2922363</ele>
        <time>2014-05-25T05:15:51Z</time>
      </trkpt>
      <trkpt lat="44.33273" lon="2.64108">
        <ele>667.7727051</ele>
        <time>2014-05-25T05:15:56Z</time>
      </trkpt>
      <trkpt lat="44.33269" lon="2.64126">
        <ele>666.8115234</ele>
        <time>2014-05-25T05:16:02Z</time>
      </trkpt>
      <trkpt lat="44.33266" lon="2.64141">
        <ele>667.2922363</ele>
        <time>2014-05-25T05:16:07Z</time>
      </trkpt>
      <trkpt lat="44.33262" lon="2.64158">
        <ele>667.2922363</ele>
        <time>2014-05-25T05:16:12Z</time>
      </trkpt>
      <trkpt lat="44.33258" lon="2.64177">
        <ele>667.7727051</ele>
        <time>2014-05-25T05:16:18Z</time>
      </trkpt>
      <trkpt lat="44.33252" lon="2.64195">
        <ele>667.7727051</ele>
        <time>2014-05-25T05:16:24Z</time>
      </trkpt>
      <trkpt lat="44.33245" lon="2.64212">
        <ele>669.2150879</ele>
        <time>2014-05-25T05:16:30Z</time>
      </trkpt>
      <trkpt lat="44.33238" lon="2.64232">
        <ele>670.6569824</ele>
        <time>2014-05-25T05:16:37Z</time>
      </trkpt>
      <trkpt lat="44.33233" lon="2.64246">
        <ele>671.6181641</ele>
        <time>2014-05-25T05:16:42Z</time>
      </trkpt>
      <trkpt lat="44.33226" lon="2.64263">
        <ele>671.6181641</ele>
        <time>2014-05-25T05:16:48Z</time>
      </trkpt>
      <trkpt lat="44.33218" lon="2.64282">
        <ele>672.098877</ele>
        <time>2014-05-25T05:16:55Z</time>
      </trkpt>
      <trkpt lat="44.33211" lon="2.64299">
        <ele>674.0214844</ele>
        <time>2014-05-25T05:17:01Z</time>
      </trkpt>
      <trkpt lat="44.332" lon="2.64327">
        <ele>675.4633789</ele>
        <time>2014-05-25T05:17:10Z</time>
      </trkpt>
      <trkpt lat="44.33192" lon="2.64347">
        <ele>674.9829102</ele>
        <time>2014-05-25T05:17:17Z</time>
      </trkpt>
      <trkpt lat="44.33186" lon="2.64363">
        <ele>674.9829102</ele>
        <time>2014-05-25T05:17:22Z</time>
      </trkpt>
      <trkpt lat="44.33179" lon="2.64386">
        <ele>676.4248047</ele>
        <time>2014-05-25T05:17:29Z</time>
      </trkpt>
      <trkpt lat="44.3317" lon="2.64415">
        <ele>675.9440918</ele>
        <time>2014-05-25T05:17:38Z</time>
      </trkpt>
      <trkpt lat="44.33165" lon="2.64438">
        <ele>676.4248047</ele>
        <time>2014-05-25T05:17:45Z</time>
      </trkpt>
      <trkpt lat="44.33162" lon="2.64455">
        <ele>676.4248047</ele>
        <time>2014-05-25T05:17:50Z</time>
      </trkpt>
      <trkpt lat="44.33156" lon="2.64474">
        <ele>676.9055176</ele>
        <time>2014-05-25T05:17:56Z</time>
      </trkpt>
      <trkpt lat="44.33145" lon="2.64498">
        <ele>677.3862305</ele>
        <time>2014-05-25T05:18:04Z</time>
      </trkpt>
      <trkpt lat="44.33138" lon="2.64517">
        <ele>677.8666992</ele>
        <time>2014-05-25T05:18:10Z</time>
      </trkpt>
      <trkpt lat="44.33131" lon="2.64537">
        <ele>678.3474121</ele>
        <time>2014-05-25T05:18:16Z</time>
      </trkpt>
      <trkpt lat="44.33123" lon="2.64559">
        <ele>678.828125</ele>
        <time>2014-05-25T05:18:23Z</time>
      </trkpt>
      <trkpt lat="44.33116" lon="2.64573">
        <ele>678.828125</ele>
        <time>2014-05-25T05:18:28Z</time>
      </trkpt>
      <trkpt lat="44.33108" lon="2.64591">
        <ele>678.3474121</ele>
        <time>2014-05-25T05:18:34Z</time>
      </trkpt>
      <trkpt lat="44.33106" lon="2.64613">
        <ele>679.3085938</ele>
        <time>2014-05-25T05:18:40Z</time>
      </trkpt>
      <trkpt lat="44.33104" lon="2.64631">
        <ele>679.3085938</ele>
        <time>2014-05-25T05:18:45Z</time>
      </trkpt>
      <trkpt lat="44.33099" lon="2.64651">
        <ele>679.3085938</ele>
        <time>2014-05-25T05:18:51Z</time>
      </trkpt>
      <trkpt lat="44.33096" lon="2.64673">
        <ele>678.3474121</ele>
        <time>2014-05-25T05:18:57Z</time>
      </trkpt>
      <trkpt lat="44.33093" lon="2.64694">
        <ele>676.9055176</ele>
        <time>2014-05-25T05:19:03Z</time>
      </trkpt>
      <trkpt lat="44.33089" lon="2.64712">
        <ele>675.4633789</ele>
        <time>2014-05-25T05:19:08Z</time>
      </trkpt>
      <trkpt lat="44.33084" lon="2.64727">
        <ele>674.5021973</ele>
        <time>2014-05-25T05:19:13Z</time>
      </trkpt>
      <trkpt lat="44.33079" lon="2.64752">
        <ele>671.6181641</ele>
        <time>2014-05-25T05:19:20Z</time>
      </trkpt>
      <trkpt lat="44.33076" lon="2.64768">
        <ele>669.6958008</ele>
        <time>2014-05-25T05:19:24Z</time>
      </trkpt>
      <trkpt lat="44.33075" lon="2.64791">
        <ele>667.7727051</ele>
        <time>2014-05-25T05:19:30Z</time>
      </trkpt>
      <trkpt lat="44.33072" lon="2.6481">
        <ele>666.3308105</ele>
        <time>2014-05-25T05:19:35Z</time>
      </trkpt>
      <trkpt lat="44.3307" lon="2.64832">
        <ele>664.888916</ele>
        <time>2014-05-25T05:19:41Z</time>
      </trkpt>
      <trkpt lat="44.33067" lon="2.64842">
        <ele>663.9274902</ele>
        <time>2014-05-25T05:19:44Z</time>
      </trkpt>
      <trkpt lat="44.33052" lon="2.64851">
        <ele>662.4855957</ele>
        <time>2014-05-25T05:19:50Z</time>
      </trkpt>
      <trkpt lat="44.33044" lon="2.6485">
        <ele>662.005127</ele>
        <time>2014-05-25T05:19:53Z</time>
      </trkpt>
      <trkpt lat="44.33026" lon="2.64846">
        <ele>662.005127</ele>
        <time>2014-05-25T05:20:00Z</time>
      </trkpt>
      <trkpt lat="44.33012" lon="2.64843">
        <ele>662.005127</ele>
        <time>2014-05-25T05:20:05Z</time>
      </trkpt>
      <trkpt lat="44.33001" lon="2.6484">
        <ele>662.005127</ele>
        <time>2014-05-25T05:20:09Z</time>
      </trkpt>
      <trkpt lat="44.32981" lon="2.64833">
        <ele>662.005127</ele>
        <time>2014-05-25T05:20:17Z</time>
      </trkpt>
      <trkpt lat="44.32964" lon="2.64826">
        <ele>662.4855957</ele>
        <time>2014-05-25T05:20:24Z</time>
      </trkpt>
      <trkpt lat="44.3295" lon="2.64822">
        <ele>661.5244141</ele>
        <time>2014-05-25T05:20:29Z</time>
      </trkpt>
      <trkpt lat="44.32935" lon="2.6482">
        <ele>661.5244141</ele>
        <time>2014-05-25T05:20:35Z</time>
      </trkpt>
      <trkpt lat="44.32917" lon="2.64816">
        <ele>661.0437012</ele>
        <time>2014-05-25T05:20:42Z</time>
      </trkpt>
      <trkpt lat="44.32899" lon="2.64812">
        <ele>660.5629883</ele>
        <time>2014-05-25T05:20:49Z</time>
      </trkpt>
      <trkpt lat="44.32883" lon="2.64808">
        <ele>659.1210938</ele>
        <time>2014-05-25T05:20:55Z</time>
      </trkpt>
      <trkpt lat="44.32867" lon="2.64805">
        <ele>658.1599121</ele>
        <time>2014-05-25T05:21:01Z</time>
      </trkpt>
      <trkpt lat="44.32852" lon="2.64803">
        <ele>657.1984863</ele>
        <time>2014-05-25T05:21:07Z</time>
      </trkpt>
      <trkpt lat="44.32839" lon="2.648">
        <ele>656.2370605</ele>
        <time>2014-05-25T05:21:12Z</time>
      </trkpt>
      <trkpt lat="44.32824" lon="2.64799">
        <ele>655.7565918</ele>
        <time>2014-05-25T05:21:18Z</time>
      </trkpt>
      <trkpt lat="44.32806" lon="2.64792">
        <ele>654.3146973</ele>
        <time>2014-05-25T05:21:25Z</time>
      </trkpt>
      <trkpt lat="44.32792" lon="2.64789">
        <ele>653.3532715</ele>
        <time>2014-05-25T05:21:30Z</time>
      </trkpt>
      <trkpt lat="44.32776" lon="2.64789">
        <ele>650.949707</ele>
        <time>2014-05-25T05:21:36Z</time>
      </trkpt>
      <trkpt lat="44.32762" lon="2.64789">
        <ele>648.5463867</ele>
        <time>2014-05-25T05:21:41Z</time>
      </trkpt>
      <trkpt lat="44.32748" lon="2.64787">
        <ele>647.1044922</ele>
        <time>2014-05-25T05:21:46Z</time>
      </trkpt>
      <trkpt lat="44.32736" lon="2.64785">
        <ele>645.6625977</ele>
        <time>2014-05-25T05:21:50Z</time>
      </trkpt>
      <trkpt lat="44.32724" lon="2.64788">
        <ele>644.7011719</ele>
        <time>2014-05-25T05:21:55Z</time>
      </trkpt>
      <trkpt lat="44.32723" lon="2.6479">
        <ele>644.7011719</ele>
        <time>2014-05-25T05:21:56Z</time>
      </trkpt>
      <trkpt lat="44.32722" lon="2.64792">
        <ele>644.2207031</ele>
        <time>2014-05-25T05:21:58Z</time>
      </trkpt>
      <trkpt lat="44.32722" lon="2.64796">
        <ele>643.2592773</ele>
        <time>2014-05-25T05:22:02Z</time>
      </trkpt>
      <trkpt lat="44.32722" lon="2.64799">
        <ele>643.2592773</ele>
        <time>2014-05-25T05:22:09Z</time>
      </trkpt>
      <trkpt lat="44.32723" lon="2.64798">
        <ele>644.7011719</ele>
        <time>2014-05-25T05:22:18Z</time>
      </trkpt>
      <trkpt lat="44.32723" lon="2.648">
        <ele>644.2207031</ele>
        <time>2014-05-25T05:22:28Z</time>
      </trkpt>
      <trkpt lat="44.32723" lon="2.64799">
        <ele>643.7399902</ele>
        <time>2014-05-25T05:22:34Z</time>
      </trkpt>
      <trkpt lat="44.32721" lon="2.648">
        <ele>650.4692383</ele>
        <time>2014-05-25T05:23:01Z</time>
      </trkpt>
      <trkpt lat="44.32721" lon="2.64801">
        <ele>649.9885254</ele>
        <time>2014-05-25T05:23:23Z</time>
      </trkpt>
      <trkpt lat="44.32719" lon="2.648">
        <ele>642.7788086</ele>
        <time>2014-05-25T05:23:33Z</time>
      </trkpt>
      <trkpt lat="44.3272" lon="2.64801">
        <ele>643.2592773</ele>
        <time>2014-05-25T05:23:42Z</time>
      </trkpt>
      <trkpt lat="44.32718" lon="2.64799">
        <ele>642.2980957</ele>
        <time>2014-05-25T05:23:50Z</time>
      </trkpt>
      <trkpt lat="44.32718" lon="2.64798">
        <ele>644.2207031</ele>
        <time>2014-05-25T05:24:17Z</time>
      </trkpt>
      <trkpt lat="44.32719" lon="2.64798">
        <ele>644.2207031</ele>
        <time>2014-05-25T05:24:22Z</time>
      </trkpt>
      <trkpt lat="44.32719" lon="2.64793">
        <ele>644.2207031</ele>
        <time>2014-05-25T05:24:27Z</time>
      </trkpt>
      <trkpt lat="44.32717" lon="2.64789">
        <ele>644.7011719</ele>
        <time>2014-05-25T05:24:31Z</time>
      </trkpt>
      <trkpt lat="44.32714" lon="2.64784">
        <ele>643.7399902</ele>
        <time>2014-05-25T05:24:36Z</time>
      </trkpt>
      <trkpt lat="44.32713" lon="2.64784">
        <ele>643.7399902</ele>
        <time>2014-05-25T05:24:37Z</time>
      </trkpt>
      <trkpt lat="44.32705" lon="2.64781">
        <ele>644.2207031</ele>
        <time>2014-05-25T05:24:44Z</time>
      </trkpt>
      <trkpt lat="44.32703" lon="2.6478">
        <ele>644.2207031</ele>
        <time>2014-05-25T05:24:46Z</time>
      </trkpt>
      <trkpt lat="44.32696" lon="2.64779">
        <ele>643.2592773</ele>
        <time>2014-05-25T05:24:50Z</time>
      </trkpt>
      <trkpt lat="44.32687" lon="2.64778">
        <ele>642.2980957</ele>
        <time>2014-05-25T05:24:54Z</time>
      </trkpt>
      <trkpt lat="44.32677" lon="2.64779">
        <ele>642.7788086</ele>
        <time>2014-05-25T05:24:58Z</time>
      </trkpt>
      <trkpt lat="44.32664" lon="2.64778">
        <ele>641.8173828</ele>
        <time>2014-05-25T05:25:03Z</time>
      </trkpt>
      <trkpt lat="44.32651" lon="2.64779">
        <ele>641.8173828</ele>
        <time>2014-05-25T05:25:08Z</time>
      </trkpt>
      <trkpt lat="44.32649" lon="2.6478">
        <ele>642.2980957</ele>
        <time>2014-05-25T05:25:09Z</time>
      </trkpt>
      <trkpt lat="44.32631" lon="2.64789">
        <ele>644.2207031</ele>
        <time>2014-05-25T05:25:16Z</time>
      </trkpt>
      <trkpt lat="44.32617" lon="2.64796">
        <ele>644.7011719</ele>
        <time>2014-05-25T05:25:22Z</time>
      </trkpt>
      <trkpt lat="44.32607" lon="2.64799">
        <ele>644.7011719</ele>
        <time>2014-05-25T05:25:27Z</time>
      </trkpt>
      <trkpt lat="44.32593" lon="2.64796">
        <ele>646.6240234</ele>
        <time>2014-05-25T05:25:33Z</time>
      </trkpt>
      <trkpt lat="44.3258" lon="2.64799">
        <ele>647.5852051</ele>
        <time>2014-05-25T05:25:39Z</time>
      </trkpt>
      <trkpt lat="44.32569" lon="2.648">
        <ele>647.5852051</ele>
        <time>2014-05-25T05:25:44Z</time>
      </trkpt>
      <trkpt lat="44.32559" lon="2.64798">
        <ele>647.1044922</ele>
        <time>2014-05-25T05:25:49Z</time>
      </trkpt>
      <trkpt lat="44.32546" lon="2.64797">
        <ele>648.5463867</ele>
        <time>2014-05-25T05:25:55Z</time>
      </trkpt>
      <trkpt lat="44.3253" lon="2.64798">
        <ele>650.4692383</ele>
        <time>2014-05-25T05:26:02Z</time>
      </trkpt>
      <trkpt lat="44.32517" lon="2.64796">
        <ele>651.9111328</ele>
        <time>2014-05-25T05:26:08Z</time>
      </trkpt>
      <trkpt lat="44.32503" lon="2.64794">
        <ele>654.795166</ele>
        <time>2014-05-25T05:26:15Z</time>
      </trkpt>
      <trkpt lat="44.32491" lon="2.6479">
        <ele>657.1984863</ele>
        <time>2014-05-25T05:26:21Z</time>
      </trkpt>
      <trkpt lat="44.32477" lon="2.64784">
        <ele>660.0822754</ele>
        <time>2014-05-25T05:26:28Z</time>
      </trkpt>
      <trkpt lat="44.32457" lon="2.64775">
        <ele>662.9663086</ele>
        <time>2014-05-25T05:26:37Z</time>
      </trkpt>
      <trkpt lat="44.32444" lon="2.6477">
        <ele>662.9663086</ele>
        <time>2014-05-25T05:26:43Z</time>
      </trkpt>
      <trkpt lat="44.32429" lon="2.64763">
        <ele>664.888916</ele>
        <time>2014-05-25T05:26:50Z</time>
      </trkpt>
      <trkpt lat="44.32414" lon="2.64755">
        <ele>666.3308105</ele>
        <time>2014-05-25T05:26:57Z</time>
      </trkpt>
      <trkpt lat="44.32399" lon="2.64747">
        <ele>668.2536621</ele>
        <time>2014-05-25T05:27:04Z</time>
      </trkpt>
      <trkpt lat="44.32381" lon="2.64742">
        <ele>668.734375</ele>
        <time>2014-05-25T05:27:12Z</time>
      </trkpt>
      <trkpt lat="44.32367" lon="2.64742">
        <ele>668.734375</ele>
        <time>2014-05-25T05:27:18Z</time>
      </trkpt>
      <trkpt lat="44.32353" lon="2.64746">
        <ele>669.2150879</ele>
        <time>2014-05-25T05:27:24Z</time>
      </trkpt>
      <trkpt lat="44.3234" lon="2.64755">
        <ele>669.2150879</ele>
        <time>2014-05-25T05:27:30Z</time>
      </trkpt>
      <trkpt lat="44.32332" lon="2.64765">
        <ele>668.734375</ele>
        <time>2014-05-25T05:27:35Z</time>
      </trkpt>
      <trkpt lat="44.32324" lon="2.6478">
        <ele>669.2150879</ele>
        <time>2014-05-25T05:27:40Z</time>
      </trkpt>
      <trkpt lat="44.32315" lon="2.64797">
        <ele>671.1376953</ele>
        <time>2014-05-25T05:27:46Z</time>
      </trkpt>
      <trkpt lat="44.32307" lon="2.64813">
        <ele>673.0603027</ele>
        <time>2014-05-25T05:27:52Z</time>
      </trkpt>
      <trkpt lat="44.32306" lon="2.64816">
        <ele>673.5410156</ele>
        <time>2014-05-25T05:27:53Z</time>
      </trkpt>
      <trkpt lat="44.32298" lon="2.64817">
        <ele>675.4633789</ele>
        <time>2014-05-25T05:27:57Z</time>
      </trkpt>
      <trkpt lat="44.32297" lon="2.64815">
        <ele>675.4633789</ele>
        <time>2014-05-25T05:27:58Z</time>
      </trkpt>
      <trkpt lat="44.32288" lon="2.64796">
        <ele>675.9440918</ele>
        <time>2014-05-25T05:28:05Z</time>
      </trkpt>
      <trkpt lat="44.32281" lon="2.64778">
        <ele>676.9055176</ele>
        <time>2014-05-25T05:28:11Z</time>
      </trkpt>
      <trkpt lat="44.32276" lon="2.6476">
        <ele>677.3862305</ele>
        <time>2014-05-25T05:28:17Z</time>
      </trkpt>
      <trkpt lat="44.3227" lon="2.64733">
        <ele>678.3474121</ele>
        <time>2014-05-25T05:28:25Z</time>
      </trkpt>
      <trkpt lat="44.32264" lon="2.64711">
        <ele>679.3085938</ele>
        <time>2014-05-25T05:28:32Z</time>
      </trkpt>
      <trkpt lat="44.32256" lon="2.64696">
        <ele>680.2700195</ele>
        <time>2014-05-25T05:28:38Z</time>
      </trkpt>
      <trkpt lat="44.32243" lon="2.64678">
        <ele>680.7507324</ele>
        <time>2014-05-25T05:28:46Z</time>
      </trkpt>
      <trkpt lat="44.32233" lon="2.64669">
        <ele>681.2314453</ele>
        <time>2014-05-25T05:28:52Z</time>
      </trkpt>
      <trkpt lat="44.32221" lon="2.64662">
        <ele>681.7119141</ele>
        <time>2014-05-25T05:28:58Z</time>
      </trkpt>
      <trkpt lat="44.32205" lon="2.64655">
        <ele>683.6345215</ele>
        <time>2014-05-25T05:29:06Z</time>
      </trkpt>
      <trkpt lat="44.32189" lon="2.6465">
        <ele>685.557373</ele>
        <time>2014-05-25T05:29:14Z</time>
      </trkpt>
      <trkpt lat="44.32175" lon="2.64647">
        <ele>684.5961914</ele>
        <time>2014-05-25T05:29:20Z</time>
      </trkpt>
      <trkpt lat="44.32159" lon="2.64644">
        <ele>684.5961914</ele>
        <time>2014-05-25T05:29:27Z</time>
      </trkpt>
      <trkpt lat="44.32145" lon="2.64641">
        <ele>685.0769043</ele>
        <time>2014-05-25T05:29:33Z</time>
      </trkpt>
      <trkpt lat="44.3213" lon="2.64639">
        <ele>683.6345215</ele>
        <time>2014-05-25T05:29:39Z</time>
      </trkpt>
      <trkpt lat="44.32117" lon="2.64636">
        <ele>683.1538086</ele>
        <time>2014-05-25T05:29:44Z</time>
      </trkpt>
      <trkpt lat="44.321" lon="2.64633">
        <ele>682.192627</ele>
        <time>2014-05-25T05:29:50Z</time>
      </trkpt>
      <trkpt lat="44.32081" lon="2.64629">
        <ele>680.2700195</ele>
        <time>2014-05-25T05:29:57Z</time>
      </trkpt>
      <trkpt lat="44.32066" lon="2.64626">
        <ele>678.3474121</ele>
        <time>2014-05-25T05:30:02Z</time>
      </trkpt>
      <trkpt lat="44.32052" lon="2.64622">
        <ele>676.4248047</ele>
        <time>2014-05-25T05:30:07Z</time>
      </trkpt>
      <trkpt lat="44.32035" lon="2.6462">
        <ele>675.4633789</ele>
        <time>2014-05-25T05:30:13Z</time>
      </trkpt>
      <trkpt lat="44.32017" lon="2.64622">
        <ele>674.5021973</ele>
        <time>2014-05-25T05:30:19Z</time>
      </trkpt>
      <trkpt lat="44.32006" lon="2.64623">
        <ele>673.5410156</ele>
        <time>2014-05-25T05:30:23Z</time>
      </trkpt>
      <trkpt lat="44.31993" lon="2.64619">
        <ele>671.1376953</ele>
        <time>2014-05-25T05:30:28Z</time>
      </trkpt>
      <trkpt lat="44.3198" lon="2.64615">
        <ele>669.2150879</ele>
        <time>2014-05-25T05:30:33Z</time>
      </trkpt>
      <trkpt lat="44.31961" lon="2.6461">
        <ele>666.8115234</ele>
        <time>2014-05-25T05:30:40Z</time>
      </trkpt>
      <trkpt lat="44.31948" lon="2.64608">
        <ele>664.888916</ele>
        <time>2014-05-25T05:30:45Z</time>
      </trkpt>
      <trkpt lat="44.31933" lon="2.64607">
        <ele>662.005127</ele>
        <time>2014-05-25T05:30:50Z</time>
      </trkpt>
      <trkpt lat="44.31921" lon="2.6461">
        <ele>660.5629883</ele>
        <time>2014-05-25T05:30:54Z</time>
      </trkpt>
      <trkpt lat="44.31907" lon="2.64613">
        <ele>660.5629883</ele>
        <time>2014-05-25T05:30:59Z</time>
      </trkpt>
      <trkpt lat="44.3189" lon="2.64617">
        <ele>661.0437012</ele>
        <time>2014-05-25T05:31:05Z</time>
      </trkpt>
      <trkpt lat="44.31876" lon="2.64617">
        <ele>661.0437012</ele>
        <time>2014-05-25T05:31:10Z</time>
      </trkpt>
      <trkpt lat="44.31864" lon="2.64612">
        <ele>660.5629883</ele>
        <time>2014-05-25T05:31:15Z</time>
      </trkpt>
      <trkpt lat="44.31856" lon="2.64603">
        <ele>660.5629883</ele>
        <time>2014-05-25T05:31:19Z</time>
      </trkpt>
      <trkpt lat="44.31847" lon="2.64586">
        <ele>661.0437012</ele>
        <time>2014-05-25T05:31:25Z</time>
      </trkpt>
      <trkpt lat="44.31838" lon="2.64569">
        <ele>661.5244141</ele>
        <time>2014-05-25T05:31:31Z</time>
      </trkpt>
      <trkpt lat="44.31829" lon="2.64556">
        <ele>662.005127</ele>
        <time>2014-05-25T05:31:36Z</time>
      </trkpt>
      <trkpt lat="44.31817" lon="2.64542">
        <ele>662.005127</ele>
        <time>2014-05-25T05:31:42Z</time>
      </trkpt>
      <trkpt lat="44.31807" lon="2.64535">
        <ele>661.5244141</ele>
        <time>2014-05-25T05:31:46Z</time>
      </trkpt>
      <trkpt lat="44.31799" lon="2.64527">
        <ele>661.0437012</ele>
        <time>2014-05-25T05:31:50Z</time>
      </trkpt>
      <trkpt lat="44.31783" lon="2.64517">
        <ele>659.1210938</ele>
        <time>2014-05-25T05:31:57Z</time>
      </trkpt>
      <trkpt lat="44.3177" lon="2.64512">
        <ele>657.6791992</ele>
        <time>2014-05-25T05:32:02Z</time>
      </trkpt>
      <trkpt lat="44.31757" lon="2.64512">
        <ele>656.2370605</ele>
        <time>2014-05-25T05:32:07Z</time>
      </trkpt>
      <trkpt lat="44.31739" lon="2.64512">
        <ele>654.3146973</ele>
        <time>2014-05-25T05:32:14Z</time>
      </trkpt>
      <trkpt lat="44.31719" lon="2.64511">
        <ele>653.3532715</ele>
        <time>2014-05-25T05:32:21Z</time>
      </trkpt>
      <trkpt lat="44.317" lon="2.6451">
        <ele>651.4304199</ele>
        <time>2014-05-25T05:32:28Z</time>
      </trkpt>
      <trkpt lat="44.31685" lon="2.6451">
        <ele>650.949707</ele>
        <time>2014-05-25T05:32:33Z</time>
      </trkpt>
      <trkpt lat="44.31668" lon="2.64506">
        <ele>649.9885254</ele>
        <time>2014-05-25T05:32:39Z</time>
      </trkpt>
      <trkpt lat="44.31654" lon="2.64492">
        <ele>646.6240234</ele>
        <time>2014-05-25T05:32:45Z</time>
      </trkpt>
      <trkpt lat="44.31641" lon="2.6448">
        <ele>644.7011719</ele>
        <time>2014-05-25T05:32:50Z</time>
      </trkpt>
      <trkpt lat="44.31629" lon="2.64487">
        <ele>643.2592773</ele>
        <time>2014-05-25T05:32:55Z</time>
      </trkpt>
      <trkpt lat="44.31622" lon="2.64501">
        <ele>641.8173828</ele>
        <time>2014-05-25T05:32:59Z</time>
      </trkpt>
      <trkpt lat="44.31619" lon="2.64508">
        <ele>641.3366699</ele>
        <time>2014-05-25T05:33:01Z</time>
      </trkpt>
      <trkpt lat="44.31613" lon="2.64517">
        <ele>639.8947754</ele>
        <time>2014-05-25T05:33:04Z</time>
      </trkpt>
      <trkpt lat="44.31605" lon="2.64516">
        <ele>638.9335938</ele>
        <time>2014-05-25T05:33:08Z</time>
      </trkpt>
      <trkpt lat="44.31605" lon="2.64512">
        <ele>638.4528809</ele>
        <time>2014-05-25T05:33:09Z</time>
      </trkpt>
      <trkpt lat="44.31606" lon="2.64487">
        <ele>637.4914551</ele>
        <time>2014-05-25T05:33:16Z</time>
      </trkpt>
      <trkpt lat="44.31605" lon="2.64464">
        <ele>637.4914551</ele>
        <time>2014-05-25T05:33:22Z</time>
      </trkpt>
      <trkpt lat="44.31605" lon="2.64438">
        <ele>636.0495605</ele>
        <time>2014-05-25T05:33:29Z</time>
      </trkpt>
      <trkpt lat="44.31609" lon="2.64421">
        <ele>635.0881348</ele>
        <time>2014-05-25T05:33:34Z</time>
      </trkpt>
      <trkpt lat="44.31615" lon="2.64404">
        <ele>634.126709</ele>
        <time>2014-05-25T05:33:39Z</time>
      </trkpt>
      <trkpt lat="44.31615" lon="2.64388">
        <ele>634.126709</ele>
        <time>2014-05-25T05:33:43Z</time>
      </trkpt>
      <trkpt lat="44.3162" lon="2.6437">
        <ele>633.6459961</ele>
        <time>2014-05-25T05:33:48Z</time>
      </trkpt>
      <trkpt lat="44.31629" lon="2.64349">
        <ele>630.2814941</ele>
        <time>2014-05-25T05:33:54Z</time>
      </trkpt>
      <trkpt lat="44.31626" lon="2.64332">
        <ele>627.3977051</ele>
        <time>2014-05-25T05:33:59Z</time>
      </trkpt>
      <trkpt lat="44.31617" lon="2.64315">
        <ele>627.3977051</ele>
        <time>2014-05-25T05:34:05Z</time>
      </trkpt>
      <trkpt lat="44.31613" lon="2.64302">
        <ele>626.9169922</ele>
        <time>2014-05-25T05:34:09Z</time>
      </trkpt>
      <trkpt lat="44.31607" lon="2.64279">
        <ele>625.9555664</ele>
        <time>2014-05-25T05:34:16Z</time>
      </trkpt>
      <trkpt lat="44.31601" lon="2.64261">
        <ele>624.9943848</ele>
        <time>2014-05-25T05:34:21Z</time>
      </trkpt>
      <trkpt lat="44.31596" lon="2.64237">
        <ele>624.9943848</ele>
        <time>2014-05-25T05:34:27Z</time>
      </trkpt>
      <trkpt lat="44.31588" lon="2.6422">
        <ele>626.4362793</ele>
        <time>2014-05-25T05:34:32Z</time>
      </trkpt>
      <trkpt lat="44.31576" lon="2.64204">
        <ele>626.4362793</ele>
        <time>2014-05-25T05:34:38Z</time>
      </trkpt>
      <trkpt lat="44.31565" lon="2.64187">
        <ele>625.4748535</ele>
        <time>2014-05-25T05:34:44Z</time>
      </trkpt>
      <trkpt lat="44.31554" lon="2.64171">
        <ele>624.5136719</ele>
        <time>2014-05-25T05:34:50Z</time>
      </trkpt>
      <trkpt lat="44.31546" lon="2.64159">
        <ele>622.1103516</ele>
        <time>2014-05-25T05:34:55Z</time>
      </trkpt>
      <trkpt lat="44.31534" lon="2.6414">
        <ele>620.1877441</ele>
        <time>2014-05-25T05:35:01Z</time>
      </trkpt>
      <trkpt lat="44.31529" lon="2.64122">
        <ele>621.1491699</ele>
        <time>2014-05-25T05:35:06Z</time>
      </trkpt>
      <trkpt lat="44.31528" lon="2.64106">
        <ele>622.5910645</ele>
        <time>2014-05-25T05:35:11Z</time>
      </trkpt>
      <trkpt lat="44.31528" lon="2.64103">
        <ele>623.5524902</ele>
        <time>2014-05-25T05:35:17Z</time>
      </trkpt>
      <trkpt lat="44.31528" lon="2.64092">
        <ele>623.0717773</ele>
        <time>2014-05-25T05:35:23Z</time>
      </trkpt>
      <trkpt lat="44.31527" lon="2.64083">
        <ele>623.5524902</ele>
        <time>2014-05-25T05:35:26Z</time>
      </trkpt>
      <trkpt lat="44.31525" lon="2.64066">
        <ele>622.5910645</ele>
        <time>2014-05-25T05:35:32Z</time>
      </trkpt>
      <trkpt lat="44.31521" lon="2.64046">
        <ele>621.1491699</ele>
        <time>2014-05-25T05:35:38Z</time>
      </trkpt>
      <trkpt lat="44.31514" lon="2.64033">
        <ele>621.1491699</ele>
        <time>2014-05-25T05:35:43Z</time>
      </trkpt>
      <trkpt lat="44.31504" lon="2.6402">
        <ele>617.3037109</ele>
        <time>2014-05-25T05:35:49Z</time>
      </trkpt>
      <trkpt lat="44.31489" lon="2.64007">
        <ele>617.3037109</ele>
        <time>2014-05-25T05:35:55Z</time>
      </trkpt>
      <trkpt lat="44.3148" lon="2.63997">
        <ele>618.2648926</ele>
        <time>2014-05-25T05:35:59Z</time>
      </trkpt>
      <trkpt lat="44.31468" lon="2.63984">
        <ele>618.2648926</ele>
        <time>2014-05-25T05:36:05Z</time>
      </trkpt>
      <trkpt lat="44.31461" lon="2.63974">
        <ele>616.3422852</ele>
        <time>2014-05-25T05:36:09Z</time>
      </trkpt>
      <trkpt lat="44.3145" lon="2.63959">
        <ele>616.3422852</ele>
        <time>2014-05-25T05:36:15Z</time>
      </trkpt>
      <trkpt lat="44.31442" lon="2.63947">
        <ele>615.3811035</ele>
        <time>2014-05-25T05:36:19Z</time>
      </trkpt>
      <trkpt lat="44.31435" lon="2.63934">
        <ele>614.9003906</ele>
        <time>2014-05-25T05:36:24Z</time>
      </trkpt>
      <trkpt lat="44.31428" lon="2.63915">
        <ele>614.9003906</ele>
        <time>2014-05-25T05:36:30Z</time>
      </trkpt>
      <trkpt lat="44.31421" lon="2.639">
        <ele>616.3422852</ele>
        <time>2014-05-25T05:36:35Z</time>
      </trkpt>
      <trkpt lat="44.31415" lon="2.63885">
        <ele>616.822998</ele>
        <time>2014-05-25T05:36:40Z</time>
      </trkpt>
      <trkpt lat="44.3141" lon="2.6387">
        <ele>617.7841797</ele>
        <time>2014-05-25T05:36:45Z</time>
      </trkpt>
      <trkpt lat="44.31404" lon="2.63855">
        <ele>618.7456055</ele>
        <time>2014-05-25T05:36:51Z</time>
      </trkpt>
      <trkpt lat="44.31398" lon="2.63839">
        <ele>623.5524902</ele>
        <time>2014-05-25T05:36:57Z</time>
      </trkpt>
      <trkpt lat="44.31397" lon="2.63836">
        <ele>624.5136719</ele>
        <time>2014-05-25T05:36:58Z</time>
      </trkpt>
      <trkpt lat="44.31391" lon="2.63813">
        <ele>629.3200684</ele>
        <time>2014-05-25T05:37:05Z</time>
      </trkpt>
      <trkpt lat="44.31392" lon="2.63795">
        <ele>628.3588867</ele>
        <time>2014-05-25T05:37:11Z</time>
      </trkpt>
      <trkpt lat="44.31393" lon="2.63781">
        <ele>627.3977051</ele>
        <time>2014-05-25T05:37:16Z</time>
      </trkpt>
      <trkpt lat="44.31394" lon="2.63768">
        <ele>627.8781738</ele>
        <time>2014-05-25T05:37:20Z</time>
      </trkpt>
      <trkpt lat="44.31399" lon="2.6375">
        <ele>627.3977051</ele>
        <time>2014-05-25T05:37:27Z</time>
      </trkpt>
      <trkpt lat="44.31405" lon="2.63734">
        <ele>624.032959</ele>
        <time>2014-05-25T05:37:33Z</time>
      </trkpt>
      <trkpt lat="44.3141" lon="2.63721">
        <ele>623.0717773</ele>
        <time>2014-05-25T05:37:37Z</time>
      </trkpt>
      <trkpt lat="44.31415" lon="2.63707">
        <ele>622.1103516</ele>
        <time>2014-05-25T05:37:43Z</time>
      </trkpt>
      <trkpt lat="44.31417" lon="2.63702">
        <ele>622.5910645</ele>
        <time>2014-05-25T05:37:45Z</time>
      </trkpt>
      <trkpt lat="44.31421" lon="2.63688">
        <ele>622.5910645</ele>
        <time>2014-05-25T05:37:50Z</time>
      </trkpt>
      <trkpt lat="44.31423" lon="2.63681">
        <ele>623.5524902</ele>
        <time>2014-05-25T05:37:53Z</time>
      </trkpt>
      <trkpt lat="44.31422" lon="2.63676">
        <ele>624.5136719</ele>
        <time>2014-05-25T05:37:55Z</time>
      </trkpt>
      <trkpt lat="44.31415" lon="2.63664">
        <ele>624.5136719</ele>
        <time>2014-05-25T05:38:01Z</time>
      </trkpt>
      <trkpt lat="44.31409" lon="2.63651">
        <ele>625.4748535</ele>
        <time>2014-05-25T05:38:06Z</time>
      </trkpt>
      <trkpt lat="44.31404" lon="2.63636">
        <ele>627.3977051</ele>
        <time>2014-05-25T05:38:12Z</time>
      </trkpt>
      <trkpt lat="44.31404" lon="2.63622">
        <ele>630.762207</ele>
        <time>2014-05-25T05:38:18Z</time>
      </trkpt>
      <trkpt lat="44.31407" lon="2.63605">
        <ele>631.2429199</ele>
        <time>2014-05-25T05:38:25Z</time>
      </trkpt>
      <trkpt lat="44.31406" lon="2.63599">
        <ele>631.2429199</ele>
        <time>2014-05-25T05:38:27Z</time>
      </trkpt>
      <trkpt lat="44.31406" lon="2.63579">
        <ele>633.1652832</ele>
        <time>2014-05-25T05:38:34Z</time>
      </trkpt>
      <trkpt lat="44.31405" lon="2.63572">
        <ele>632.6848145</ele>
        <time>2014-05-25T05:38:37Z</time>
      </trkpt>
      <trkpt lat="44.31405" lon="2.6356">
        <ele>631.7233887</ele>
        <time>2014-05-25T05:38:41Z</time>
      </trkpt>
      <trkpt lat="44.31403" lon="2.6354">
        <ele>634.126709</ele>
        <time>2014-05-25T05:38:47Z</time>
      </trkpt>
      <trkpt lat="44.31401" lon="2.63523">
        <ele>638.9335938</ele>
        <time>2014-05-25T05:38:53Z</time>
      </trkpt>
      <trkpt lat="44.31402" lon="2.63503">
        <ele>641.3366699</ele>
        <time>2014-05-25T05:38:59Z</time>
      </trkpt>
      <trkpt lat="44.31397" lon="2.63483">
        <ele>644.2207031</ele>
        <time>2014-05-25T05:39:05Z</time>
      </trkpt>
      <trkpt lat="44.3139" lon="2.63464">
        <ele>645.6625977</ele>
        <time>2014-05-25T05:39:11Z</time>
      </trkpt>
      <trkpt lat="44.31386" lon="2.6345">
        <ele>645.6625977</ele>
        <time>2014-05-25T05:39:16Z</time>
      </trkpt>
      <trkpt lat="44.31386" lon="2.63448">
        <ele>646.1433105</ele>
        <time>2014-05-25T05:39:21Z</time>
      </trkpt>
      <trkpt lat="44.31387" lon="2.63448">
        <ele>649.9885254</ele>
        <time>2014-05-25T05:39:34Z</time>
      </trkpt>
      <trkpt lat="44.31383" lon="2.63447">
        <ele>650.4692383</ele>
        <time>2014-05-25T05:39:40Z</time>
      </trkpt>
      <trkpt lat="44.31375" lon="2.63438">
        <ele>650.949707</ele>
        <time>2014-05-25T05:39:49Z</time>
      </trkpt>
      <trkpt lat="44.31367" lon="2.63429">
        <ele>650.4692383</ele>
        <time>2014-05-25T05:39:53Z</time>
      </trkpt>
      <trkpt lat="44.31355" lon="2.63412">
        <ele>649.5078125</ele>
        <time>2014-05-25T05:39:59Z</time>
      </trkpt>
      <trkpt lat="44.31347" lon="2.6339">
        <ele>649.5078125</ele>
        <time>2014-05-25T05:40:05Z</time>
      </trkpt>
      <trkpt lat="44.31345" lon="2.63369">
        <ele>649.5078125</ele>
        <time>2014-05-25T05:40:10Z</time>
      </trkpt>
      <trkpt lat="44.31345" lon="2.63342">
        <ele>648.5463867</ele>
        <time>2014-05-25T05:40:17Z</time>
      </trkpt>
      <trkpt lat="44.31345" lon="2.63319">
        <ele>646.6240234</ele>
        <time>2014-05-25T05:40:23Z</time>
      </trkpt>
      <trkpt lat="44.31347" lon="2.63298">
        <ele>646.1433105</ele>
        <time>2014-05-25T05:40:28Z</time>
      </trkpt>
      <trkpt lat="44.31354" lon="2.63278">
        <ele>646.1433105</ele>
        <time>2014-05-25T05:40:34Z</time>
      </trkpt>
      <trkpt lat="44.31362" lon="2.63261">
        <ele>646.1433105</ele>
        <time>2014-05-25T05:40:39Z</time>
      </trkpt>
      <trkpt lat="44.31369" lon="2.63244">
        <ele>644.2207031</ele>
        <time>2014-05-25T05:40:44Z</time>
      </trkpt>
      <trkpt lat="44.31371" lon="2.63225">
        <ele>643.2592773</ele>
        <time>2014-05-25T05:40:48Z</time>
      </trkpt>
      <trkpt lat="44.31374" lon="2.63202">
        <ele>640.855957</ele>
        <time>2014-05-25T05:40:54Z</time>
      </trkpt>
      <trkpt lat="44.31376" lon="2.63178">
        <ele>637.4914551</ele>
        <time>2014-05-25T05:41:00Z</time>
      </trkpt>
      <trkpt lat="44.31378" lon="2.63153">
        <ele>632.6848145</ele>
        <time>2014-05-25T05:41:06Z</time>
      </trkpt>
      <trkpt lat="44.31379" lon="2.63137">
        <ele>629.3200684</ele>
        <time>2014-05-25T05:41:10Z</time>
      </trkpt>
      <trkpt lat="44.31379" lon="2.63114">
        <ele>624.5136719</ele>
        <time>2014-05-25T05:41:16Z</time>
      </trkpt>
      <trkpt lat="44.31376" lon="2.63091">
        <ele>622.1103516</ele>
        <time>2014-05-25T05:41:22Z</time>
      </trkpt>
      <trkpt lat="44.31366" lon="2.63076">
        <ele>621.1491699</ele>
        <time>2014-05-25T05:41:27Z</time>
      </trkpt>
      <trkpt lat="44.31355" lon="2.63061">
        <ele>619.7070313</ele>
        <time>2014-05-25T05:41:32Z</time>
      </trkpt>
      <trkpt lat="44.31344" lon="2.63059">
        <ele>618.2648926</ele>
        <time>2014-05-25T05:41:36Z</time>
      </trkpt>
      <trkpt lat="44.31333" lon="2.6306">
        <ele>617.3037109</ele>
        <time>2014-05-25T05:41:40Z</time>
      </trkpt>
      <trkpt lat="44.31327" lon="2.63052">
        <ele>616.822998</ele>
        <time>2014-05-25T05:41:44Z</time>
      </trkpt>
      <trkpt lat="44.31326" lon="2.63037">
        <ele>616.3422852</ele>
        <time>2014-05-25T05:41:48Z</time>
      </trkpt>
      <trkpt lat="44.31326" lon="2.63009">
        <ele>613.4584961</ele>
        <time>2014-05-25T05:41:55Z</time>
      </trkpt>
      <trkpt lat="44.31325" lon="2.62995">
        <ele>612.0166016</ele>
        <time>2014-05-25T05:41:58Z</time>
      </trkpt>
      <trkpt lat="44.31327" lon="2.62978">
        <ele>610.5744629</ele>
        <time>2014-05-25T05:42:02Z</time>
      </trkpt>
      <trkpt lat="44.3133" lon="2.62959">
        <ele>607.6906738</ele>
        <time>2014-05-25T05:42:07Z</time>
      </trkpt>
      <trkpt lat="44.31329" lon="2.6295">
        <ele>606.729248</ele>
        <time>2014-05-25T05:42:09Z</time>
      </trkpt>
      <trkpt lat="44.31336" lon="2.62926">
        <ele>603.364502</ele>
        <time>2014-05-25T05:42:15Z</time>
      </trkpt>
      <trkpt lat="44.31343" lon="2.62912">
        <ele>602.8837891</ele>
        <time>2014-05-25T05:42:19Z</time>
      </trkpt>
      <trkpt lat="44.31349" lon="2.62894">
        <ele>602.4030762</ele>
        <time>2014-05-25T05:42:24Z</time>
      </trkpt>
      <trkpt lat="44.31356" lon="2.62879">
        <ele>602.4030762</ele>
        <time>2014-05-25T05:42:29Z</time>
      </trkpt>
      <trkpt lat="44.31364" lon="2.62858">
        <ele>601.9226074</ele>
        <time>2014-05-25T05:42:35Z</time>
      </trkpt>
      <trkpt lat="44.3137" lon="2.62845">
        <ele>601.9226074</ele>
        <time>2014-05-25T05:42:39Z</time>
      </trkpt>
      <trkpt lat="44.31372" lon="2.62842">
        <ele>602.4030762</ele>
        <time>2014-05-25T05:42:40Z</time>
      </trkpt>
      <trkpt lat="44.31371" lon="2.62826">
        <ele>601.9226074</ele>
        <time>2014-05-25T05:42:45Z</time>
      </trkpt>
      <trkpt lat="44.31363" lon="2.6281">
        <ele>600.9611816</ele>
        <time>2014-05-25T05:42:51Z</time>
      </trkpt>
      <trkpt lat="44.3136" lon="2.62807">
        <ele>600.4807129</ele>
        <time>2014-05-25T05:42:57Z</time>
      </trkpt>
      <trkpt lat="44.31357" lon="2.62798">
        <ele>600.4807129</ele>
        <time>2014-05-25T05:43:02Z</time>
      </trkpt>
      <trkpt lat="44.31355" lon="2.62795">
        <ele>600.4807129</ele>
        <time>2014-05-25T05:43:03Z</time>
      </trkpt>
      <trkpt lat="44.31346" lon="2.62776">
        <ele>601.4418945</ele>
        <time>2014-05-25T05:43:10Z</time>
      </trkpt>
      <trkpt lat="44.31341" lon="2.62771">
        <ele>602.4030762</ele>
        <time>2014-05-25T05:43:13Z</time>
      </trkpt>
      <trkpt lat="44.31332" lon="2.62778">
        <ele>600.9611816</ele>
        <time>2014-05-25T05:43:18Z</time>
      </trkpt>
      <trkpt lat="44.31326" lon="2.6279">
        <ele>600.4807129</ele>
        <time>2014-05-25T05:43:23Z</time>
      </trkpt>
      <trkpt lat="44.31319" lon="2.62805">
        <ele>601.9226074</ele>
        <time>2014-05-25T05:43:29Z</time>
      </trkpt>
      <trkpt lat="44.31317" lon="2.62807">
        <ele>601.9226074</ele>
        <time>2014-05-25T05:43:30Z</time>
      </trkpt>
      <trkpt lat="44.31309" lon="2.62821">
        <ele>602.8837891</ele>
        <time>2014-05-25T05:43:36Z</time>
      </trkpt>
      <trkpt lat="44.313" lon="2.62836">
        <ele>603.364502</ele>
        <time>2014-05-25T05:43:42Z</time>
      </trkpt>
      <trkpt lat="44.31291" lon="2.62854">
        <ele>602.8837891</ele>
        <time>2014-05-25T05:43:48Z</time>
      </trkpt>
      <trkpt lat="44.31283" lon="2.62871">
        <ele>602.4030762</ele>
        <time>2014-05-25T05:43:54Z</time>
      </trkpt>
      <trkpt lat="44.31276" lon="2.62887">
        <ele>603.364502</ele>
        <time>2014-05-25T05:43:59Z</time>
      </trkpt>
      <trkpt lat="44.31267" lon="2.62901">
        <ele>603.364502</ele>
        <time>2014-05-25T05:44:05Z</time>
      </trkpt>
      <trkpt lat="44.31258" lon="2.62913">
        <ele>602.4030762</ele>
        <time>2014-05-25T05:44:10Z</time>
      </trkpt>
      <trkpt lat="44.31248" lon="2.62926">
        <ele>603.8452148</ele>
        <time>2014-05-25T05:44:17Z</time>
      </trkpt>
      <trkpt lat="44.31237" lon="2.62937">
        <ele>603.8452148</ele>
        <time>2014-05-25T05:44:23Z</time>
      </trkpt>
      <trkpt lat="44.31228" lon="2.62946">
        <ele>605.2873535</ele>
        <time>2014-05-25T05:44:28Z</time>
      </trkpt>
      <trkpt lat="44.31216" lon="2.62957">
        <ele>607.6906738</ele>
        <time>2014-05-25T05:44:35Z</time>
      </trkpt>
      <trkpt lat="44.31204" lon="2.62969">
        <ele>609.6132813</ele>
        <time>2014-05-25T05:44:42Z</time>
      </trkpt>
      <trkpt lat="44.31196" lon="2.62977">
        <ele>610.5744629</ele>
        <time>2014-05-25T05:44:47Z</time>
      </trkpt>
      <trkpt lat="44.31184" lon="2.62994">
        <ele>612.9777832</ele>
        <time>2014-05-25T05:44:55Z</time>
      </trkpt>
      <trkpt lat="44.31175" lon="2.63005">
        <ele>614.4196777</ele>
        <time>2014-05-25T05:45:01Z</time>
      </trkpt>
      <trkpt lat="44.31168" lon="2.6301">
        <ele>616.3422852</ele>
        <time>2014-05-25T05:45:06Z</time>
      </trkpt>
      <trkpt lat="44.31158" lon="2.63019">
        <ele>617.7841797</ele>
        <time>2014-05-25T05:45:12Z</time>
      </trkpt>
      <trkpt lat="44.3115" lon="2.63029">
        <ele>619.7070313</ele>
        <time>2014-05-25T05:45:18Z</time>
      </trkpt>
      <trkpt lat="44.31144" lon="2.63039">
        <ele>619.7070313</ele>
        <time>2014-05-25T05:45:23Z</time>
      </trkpt>
      <trkpt lat="44.31136" lon="2.63046">
        <ele>620.1877441</ele>
        <time>2014-05-25T05:45:28Z</time>
      </trkpt>
      <trkpt lat="44.31135" lon="2.63047">
        <ele>620.1877441</ele>
        <time>2014-05-25T05:45:29Z</time>
      </trkpt>
      <trkpt lat="44.31127" lon="2.63055">
        <ele>621.1491699</ele>
        <time>2014-05-25T05:45:36Z</time>
      </trkpt>
      <trkpt lat="44.3112" lon="2.6307">
        <ele>622.1103516</ele>
        <time>2014-05-25T05:45:43Z</time>
      </trkpt>
      <trkpt lat="44.31108" lon="2.63088">
        <ele>623.0717773</ele>
        <time>2014-05-25T05:45:50Z</time>
      </trkpt>
      <trkpt lat="44.31106" lon="2.6309">
        <ele>623.0717773</ele>
        <time>2014-05-25T05:45:51Z</time>
      </trkpt>
      <trkpt lat="44.31099" lon="2.631">
        <ele>624.5136719</ele>
        <time>2014-05-25T05:45:55Z</time>
      </trkpt>
      <trkpt lat="44.31092" lon="2.63108">
        <ele>624.5136719</ele>
        <time>2014-05-25T05:45:59Z</time>
      </trkpt>
      <trkpt lat="44.31082" lon="2.63114">
        <ele>624.5136719</ele>
        <time>2014-05-25T05:46:04Z</time>
      </trkpt>
      <trkpt lat="44.31076" lon="2.63117">
        <ele>625.4748535</ele>
        <time>2014-05-25T05:46:07Z</time>
      </trkpt>
      <trkpt lat="44.31067" lon="2.63125">
        <ele>625.4748535</ele>
        <time>2014-05-25T05:46:13Z</time>
      </trkpt>
      <trkpt lat="44.31058" lon="2.63135">
        <ele>626.4362793</ele>
        <time>2014-05-25T05:46:19Z</time>
      </trkpt>
      <trkpt lat="44.31053" lon="2.63147">
        <ele>626.9169922</ele>
        <time>2014-05-25T05:46:24Z</time>
      </trkpt>
      <trkpt lat="44.31047" lon="2.63167">
        <ele>626.9169922</ele>
        <time>2014-05-25T05:46:30Z</time>
      </trkpt>
      <trkpt lat="44.31045" lon="2.63172">
        <ele>627.3977051</ele>
        <time>2014-05-25T05:46:32Z</time>
      </trkpt>
      <trkpt lat="44.31036" lon="2.63189">
        <ele>626.9169922</ele>
        <time>2014-05-25T05:46:38Z</time>
      </trkpt>
      <trkpt lat="44.31028" lon="2.63204">
        <ele>627.3977051</ele>
        <time>2014-05-25T05:46:44Z</time>
      </trkpt>
      <trkpt lat="44.31023" lon="2.63215">
        <ele>628.8395996</ele>
        <time>2014-05-25T05:46:48Z</time>
      </trkpt>
      <trkpt lat="44.31015" lon="2.63227">
        <ele>628.8395996</ele>
        <time>2014-05-25T05:46:53Z</time>
      </trkpt>
      <trkpt lat="44.31007" lon="2.63238">
        <ele>629.8007813</ele>
        <time>2014-05-25T05:46:58Z</time>
      </trkpt>
      <trkpt lat="44.30997" lon="2.63252">
        <ele>630.762207</ele>
        <time>2014-05-25T05:47:04Z</time>
      </trkpt>
      <trkpt lat="44.30988" lon="2.63262">
        <ele>631.7233887</ele>
        <time>2014-05-25T05:47:09Z</time>
      </trkpt>
      <trkpt lat="44.30978" lon="2.63274">
        <ele>631.7233887</ele>
        <time>2014-05-25T05:47:14Z</time>
      </trkpt>
      <trkpt lat="44.30969" lon="2.63287">
        <ele>633.6459961</ele>
        <time>2014-05-25T05:47:20Z</time>
      </trkpt>
      <trkpt lat="44.30959" lon="2.63303">
        <ele>634.126709</ele>
        <time>2014-05-25T05:47:26Z</time>
      </trkpt>
      <trkpt lat="44.30947" lon="2.63324">
        <ele>635.0881348</ele>
        <time>2014-05-25T05:47:33Z</time>
      </trkpt>
      <trkpt lat="44.30939" lon="2.63338">
        <ele>635.0881348</ele>
        <time>2014-05-25T05:47:38Z</time>
      </trkpt>
      <trkpt lat="44.30927" lon="2.63353">
        <ele>635.0881348</ele>
        <time>2014-05-25T05:47:44Z</time>
      </trkpt>
      <trkpt lat="44.30914" lon="2.63366">
        <ele>634.6074219</ele>
        <time>2014-05-25T05:47:50Z</time>
      </trkpt>
      <trkpt lat="44.30903" lon="2.63378">
        <ele>635.0881348</ele>
        <time>2014-05-25T05:47:55Z</time>
      </trkpt>
      <trkpt lat="44.30892" lon="2.63393">
        <ele>636.0495605</ele>
        <time>2014-05-25T05:48:01Z</time>
      </trkpt>
      <trkpt lat="44.30879" lon="2.63409">
        <ele>637.0107422</ele>
        <time>2014-05-25T05:48:08Z</time>
      </trkpt>
      <trkpt lat="44.30869" lon="2.63419">
        <ele>635.5686035</ele>
        <time>2014-05-25T05:48:13Z</time>
      </trkpt>
      <trkpt lat="44.30857" lon="2.63434">
        <ele>636.5302734</ele>
        <time>2014-05-25T05:48:19Z</time>
      </trkpt>
      <trkpt lat="44.30846" lon="2.63448">
        <ele>635.5686035</ele>
        <time>2014-05-25T05:48:25Z</time>
      </trkpt>
      <trkpt lat="44.30845" lon="2.63451">
        <ele>635.5686035</ele>
        <time>2014-05-25T05:48:31Z</time>
      </trkpt>
      <trkpt lat="44.30845" lon="2.63451">
        <ele>636.0495605</ele>
        <time>2014-05-25T05:48:36Z</time>
      </trkpt>
      <trkpt lat="44.30843" lon="2.63452">
        <ele>635.5686035</ele>
        <time>2014-05-25T05:48:38Z</time>
      </trkpt>
      <trkpt lat="44.30833" lon="2.63464">
        <ele>635.0881348</ele>
        <time>2014-05-25T05:48:44Z</time>
      </trkpt>
      <trkpt lat="44.30822" lon="2.63485">
        <ele>636.0495605</ele>
        <time>2014-05-25T05:48:51Z</time>
      </trkpt>
      <trkpt lat="44.30816" lon="2.63495">
        <ele>636.0495605</ele>
        <time>2014-05-25T05:48:55Z</time>
      </trkpt>
      <trkpt lat="44.3081" lon="2.63507">
        <ele>636.0495605</ele>
        <time>2014-05-25T05:49:00Z</time>
      </trkpt>
      <trkpt lat="44.30809" lon="2.63509">
        <ele>636.0495605</ele>
        <time>2014-05-25T05:49:01Z</time>
      </trkpt>
      <trkpt lat="44.30807" lon="2.63516">
        <ele>635.0881348</ele>
        <time>2014-05-25T05:49:08Z</time>
      </trkpt>
      <trkpt lat="44.30807" lon="2.63516">
        <ele>634.6074219</ele>
        <time>2014-05-25T05:49:14Z</time>
      </trkpt>
      <trkpt lat="44.30807" lon="2.63516">
        <ele>634.6074219</ele>
        <time>2014-05-25T05:49:24Z</time>
      </trkpt>
      <trkpt lat="44.30808" lon="2.63516">
        <ele>635.0881348</ele>
        <time>2014-05-25T05:49:31Z</time>
      </trkpt>
      <trkpt lat="44.30808" lon="2.63517">
        <ele>636.0495605</ele>
        <time>2014-05-25T05:49:37Z</time>
      </trkpt>
      <trkpt lat="44.30808" lon="2.63517">
        <ele>637.0107422</ele>
        <time>2014-05-25T05:49:46Z</time>
      </trkpt>
      <trkpt lat="44.30808" lon="2.63516">
        <ele>637.0107422</ele>
        <time>2014-05-25T05:49:53Z</time>
      </trkpt>
      <trkpt lat="44.30807" lon="2.63517">
        <ele>636.5302734</ele>
        <time>2014-05-25T05:49:58Z</time>
      </trkpt>
      <trkpt lat="44.30807" lon="2.63517">
        <ele>635.0881348</ele>
        <time>2014-05-25T05:50:19Z</time>
      </trkpt>
      <trkpt lat="44.30807" lon="2.63516">
        <ele>634.6074219</ele>
        <time>2014-05-25T05:50:25Z</time>
      </trkpt>
      <trkpt lat="44.30808" lon="2.63515">
        <ele>632.6848145</ele>
        <time>2014-05-25T05:50:38Z</time>
      </trkpt>
      <trkpt lat="44.30808" lon="2.63515">
        <ele>634.126709</ele>
        <time>2014-05-25T05:50:47Z</time>
      </trkpt>
      <trkpt lat="44.30808" lon="2.63516">
        <ele>634.6074219</ele>
        <time>2014-05-25T05:50:53Z</time>
      </trkpt>
      <trkpt lat="44.30806" lon="2.63516">
        <ele>635.5686035</ele>
        <time>2014-05-25T05:50:59Z</time>
      </trkpt>
      <trkpt lat="44.30805" lon="2.63518">
        <ele>636.0495605</ele>
        <time>2014-05-25T05:51:05Z</time>
      </trkpt>
      <trkpt lat="44.30804" lon="2.63519">
        <ele>636.0495605</ele>
        <time>2014-05-25T05:51:11Z</time>
      </trkpt>
      <trkpt lat="44.308" lon="2.63525">
        <ele>635.5686035</ele>
        <time>2014-05-25T05:51:16Z</time>
      </trkpt>
      <trkpt lat="44.30797" lon="2.63529">
        <ele>635.5686035</ele>
        <time>2014-05-25T05:51:20Z</time>
      </trkpt>
      <trkpt lat="44.30791" lon="2.63539">
        <ele>635.0881348</ele>
        <time>2014-05-25T05:51:30Z</time>
      </trkpt>
      <trkpt lat="44.30786" lon="2.63549">
        <ele>635.5686035</ele>
        <time>2014-05-25T05:51:36Z</time>
      </trkpt>
      <trkpt lat="44.30778" lon="2.6356">
        <ele>634.6074219</ele>
        <time>2014-05-25T05:51:40Z</time>
      </trkpt>
      <trkpt lat="44.30769" lon="2.63576">
        <ele>635.0881348</ele>
        <time>2014-05-25T05:51:45Z</time>
      </trkpt>
      <trkpt lat="44.30763" lon="2.63588">
        <ele>636.0495605</ele>
        <time>2014-05-25T05:51:49Z</time>
      </trkpt>
      <trkpt lat="44.30753" lon="2.63604">
        <ele>636.0495605</ele>
        <time>2014-05-25T05:51:55Z</time>
      </trkpt>
      <trkpt lat="44.30743" lon="2.63623">
        <ele>636.0495605</ele>
        <time>2014-05-25T05:52:01Z</time>
      </trkpt>
      <trkpt lat="44.30734" lon="2.63637">
        <ele>636.0495605</ele>
        <time>2014-05-25T05:52:06Z</time>
      </trkpt>
      <trkpt lat="44.30726" lon="2.63651">
        <ele>636.0495605</ele>
        <time>2014-05-25T05:52:11Z</time>
      </trkpt>
      <trkpt lat="44.30716" lon="2.63669">
        <ele>636.5302734</ele>
        <time>2014-05-25T05:52:17Z</time>
      </trkpt>
      <trkpt lat="44.30705" lon="2.63686">
        <ele>636.0495605</ele>
        <time>2014-05-25T05:52:23Z</time>
      </trkpt>
      <trkpt lat="44.30692" lon="2.63705">
        <ele>633.6459961</ele>
        <time>2014-05-25T05:52:30Z</time>
      </trkpt>
      <trkpt lat="44.30682" lon="2.63717">
        <ele>633.1652832</ele>
        <time>2014-05-25T05:52:35Z</time>
      </trkpt>
      <trkpt lat="44.30671" lon="2.63731">
        <ele>632.2041016</ele>
        <time>2014-05-25T05:52:41Z</time>
      </trkpt>
      <trkpt lat="44.30661" lon="2.63744">
        <ele>630.2814941</ele>
        <time>2014-05-25T05:52:46Z</time>
      </trkpt>
      <trkpt lat="44.3065" lon="2.63754">
        <ele>629.8007813</ele>
        <time>2014-05-25T05:52:50Z</time>
      </trkpt>
      <trkpt lat="44.3064" lon="2.63766">
        <ele>629.3200684</ele>
        <time>2014-05-25T05:52:55Z</time>
      </trkpt>
      <trkpt lat="44.30631" lon="2.63777">
        <ele>629.8007813</ele>
        <time>2014-05-25T05:52:59Z</time>
      </trkpt>
      <trkpt lat="44.30623" lon="2.63788">
        <ele>630.2814941</ele>
        <time>2014-05-25T05:53:03Z</time>
      </trkpt>
      <trkpt lat="44.30608" lon="2.63805">
        <ele>630.2814941</ele>
        <time>2014-05-25T05:53:10Z</time>
      </trkpt>
      <trkpt lat="44.30599" lon="2.63818">
        <ele>631.2429199</ele>
        <time>2014-05-25T05:53:15Z</time>
      </trkpt>
      <trkpt lat="44.30589" lon="2.63835">
        <ele>632.2041016</ele>
        <time>2014-05-25T05:53:21Z</time>
      </trkpt>
      <trkpt lat="44.3058" lon="2.63854">
        <ele>632.6848145</ele>
        <time>2014-05-25T05:53:27Z</time>
      </trkpt>
      <trkpt lat="44.3057" lon="2.63872">
        <ele>633.6459961</ele>
        <time>2014-05-25T05:53:33Z</time>
      </trkpt>
      <trkpt lat="44.30561" lon="2.63891">
        <ele>634.126709</ele>
        <time>2014-05-25T05:53:39Z</time>
      </trkpt>
      <trkpt lat="44.30553" lon="2.63906">
        <ele>634.126709</ele>
        <time>2014-05-25T05:53:44Z</time>
      </trkpt>
      <trkpt lat="44.30544" lon="2.6392">
        <ele>633.6459961</ele>
        <time>2014-05-25T05:53:49Z</time>
      </trkpt>
      <trkpt lat="44.30535" lon="2.63937">
        <ele>633.1652832</ele>
        <time>2014-05-25T05:53:55Z</time>
      </trkpt>
      <trkpt lat="44.30528" lon="2.63952">
        <ele>633.6459961</ele>
        <time>2014-05-25T05:54:00Z</time>
      </trkpt>
      <trkpt lat="44.3052" lon="2.63967">
        <ele>634.126709</ele>
        <time>2014-05-25T05:54:05Z</time>
      </trkpt>
      <trkpt lat="44.3051" lon="2.63983">
        <ele>634.126709</ele>
        <time>2014-05-25T05:54:11Z</time>
      </trkpt>
      <trkpt lat="44.30498" lon="2.63997">
        <ele>634.126709</ele>
        <time>2014-05-25T05:54:17Z</time>
      </trkpt>
      <trkpt lat="44.30488" lon="2.64014">
        <ele>634.126709</ele>
        <time>2014-05-25T05:54:23Z</time>
      </trkpt>
      <trkpt lat="44.30477" lon="2.64035">
        <ele>633.6459961</ele>
        <time>2014-05-25T05:54:31Z</time>
      </trkpt>
      <trkpt lat="44.30467" lon="2.64049">
        <ele>633.1652832</ele>
        <time>2014-05-25T05:54:37Z</time>
      </trkpt>
      <trkpt lat="44.30458" lon="2.6406">
        <ele>633.1652832</ele>
        <time>2014-05-25T05:54:43Z</time>
      </trkpt>
      <trkpt lat="44.30452" lon="2.6407">
        <ele>634.6074219</ele>
        <time>2014-05-25T05:54:47Z</time>
      </trkpt>
      <trkpt lat="44.30444" lon="2.64081">
        <ele>635.0881348</ele>
        <time>2014-05-25T05:54:52Z</time>
      </trkpt>
      <trkpt lat="44.30436" lon="2.64094">
        <ele>634.126709</ele>
        <time>2014-05-25T05:54:58Z</time>
      </trkpt>
      <trkpt lat="44.30428" lon="2.6411">
        <ele>634.126709</ele>
        <time>2014-05-25T05:55:04Z</time>
      </trkpt>
      <trkpt lat="44.3042" lon="2.64126">
        <ele>635.5686035</ele>
        <time>2014-05-25T05:55:10Z</time>
      </trkpt>
      <trkpt lat="44.30418" lon="2.64134">
        <ele>637.4914551</ele>
        <time>2014-05-25T05:55:12Z</time>
      </trkpt>
      <trkpt lat="44.30408" lon="2.64152">
        <ele>637.4914551</ele>
        <time>2014-05-25T05:55:19Z</time>
      </trkpt>
      <trkpt lat="44.30403" lon="2.64162">
        <ele>637.4914551</ele>
        <time>2014-05-25T05:55:23Z</time>
      </trkpt>
      <trkpt lat="44.30396" lon="2.64172">
        <ele>636.5302734</ele>
        <time>2014-05-25T05:55:28Z</time>
      </trkpt>
      <trkpt lat="44.3039" lon="2.64184">
        <ele>637.0107422</ele>
        <time>2014-05-25T05:55:33Z</time>
      </trkpt>
      <trkpt lat="44.30382" lon="2.64203">
        <ele>637.972168</ele>
        <time>2014-05-25T05:55:39Z</time>
      </trkpt>
      <trkpt lat="44.30373" lon="2.64223">
        <ele>640.3754883</ele>
        <time>2014-05-25T05:55:45Z</time>
      </trkpt>
      <trkpt lat="44.30366" lon="2.64241">
        <ele>642.2980957</ele>
        <time>2014-05-25T05:55:51Z</time>
      </trkpt>
      <trkpt lat="44.30361" lon="2.64254">
        <ele>644.2207031</ele>
        <time>2014-05-25T05:55:56Z</time>
      </trkpt>
      <trkpt lat="44.30353" lon="2.64275">
        <ele>644.2207031</ele>
        <time>2014-05-25T05:56:03Z</time>
      </trkpt>
      <trkpt lat="44.30346" lon="2.64291">
        <ele>643.7399902</ele>
        <time>2014-05-25T05:56:09Z</time>
      </trkpt>
      <trkpt lat="44.3034" lon="2.6431">
        <ele>645.1818848</ele>
        <time>2014-05-25T05:56:15Z</time>
      </trkpt>
      <trkpt lat="44.30334" lon="2.64325">
        <ele>646.6240234</ele>
        <time>2014-05-25T05:56:20Z</time>
      </trkpt>
      <trkpt lat="44.30328" lon="2.6434">
        <ele>647.5852051</ele>
        <time>2014-05-25T05:56:25Z</time>
      </trkpt>
      <trkpt lat="44.30319" lon="2.64357">
        <ele>647.5852051</ele>
        <time>2014-05-25T05:56:32Z</time>
      </trkpt>
      <trkpt lat="44.30307" lon="2.64373">
        <ele>645.6625977</ele>
        <time>2014-05-25T05:56:39Z</time>
      </trkpt>
      <trkpt lat="44.30296" lon="2.64391">
        <ele>645.1818848</ele>
        <time>2014-05-25T05:56:46Z</time>
      </trkpt>
      <trkpt lat="44.30284" lon="2.64408">
        <ele>645.6625977</ele>
        <time>2014-05-25T05:56:53Z</time>
      </trkpt>
      <trkpt lat="44.30274" lon="2.64419">
        <ele>647.1044922</ele>
        <time>2014-05-25T05:56:59Z</time>
      </trkpt>
      <trkpt lat="44.30262" lon="2.64435">
        <ele>648.5463867</ele>
        <time>2014-05-25T05:57:06Z</time>
      </trkpt>
      <trkpt lat="44.30253" lon="2.64453">
        <ele>649.0270996</ele>
        <time>2014-05-25T05:57:13Z</time>
      </trkpt>
      <trkpt lat="44.30246" lon="2.64471">
        <ele>651.9111328</ele>
        <time>2014-05-25T05:57:19Z</time>
      </trkpt>
      <trkpt lat="44.30238" lon="2.64491">
        <ele>652.8725586</ele>
        <time>2014-05-25T05:57:26Z</time>
      </trkpt>
      <trkpt lat="44.30231" lon="2.64508">
        <ele>653.3532715</ele>
        <time>2014-05-25T05:57:32Z</time>
      </trkpt>
      <trkpt lat="44.30224" lon="2.64524">
        <ele>653.8339844</ele>
        <time>2014-05-25T05:57:37Z</time>
      </trkpt>
      <trkpt lat="44.30215" lon="2.64541">
        <ele>655.7565918</ele>
        <time>2014-05-25T05:57:43Z</time>
      </trkpt>
      <trkpt lat="44.30205" lon="2.64553">
        <ele>657.6791992</ele>
        <time>2014-05-25T05:57:48Z</time>
      </trkpt>
      <trkpt lat="44.30192" lon="2.64561">
        <ele>657.6791992</ele>
        <time>2014-05-25T05:57:53Z</time>
      </trkpt>
      <trkpt lat="44.3018" lon="2.64563">
        <ele>658.1599121</ele>
        <time>2014-05-25T05:57:58Z</time>
      </trkpt>
      <trkpt lat="44.30167" lon="2.64559">
        <ele>657.6791992</ele>
        <time>2014-05-25T05:58:03Z</time>
      </trkpt>
      <trkpt lat="44.30153" lon="2.64554">
        <ele>659.1210938</ele>
        <time>2014-05-25T05:58:09Z</time>
      </trkpt>
      <trkpt lat="44.30139" lon="2.64549">
        <ele>661.0437012</ele>
        <time>2014-05-25T05:58:15Z</time>
      </trkpt>
      <trkpt lat="44.30125" lon="2.64544">
        <ele>662.005127</ele>
        <time>2014-05-25T05:58:21Z</time>
      </trkpt>
      <trkpt lat="44.30113" lon="2.64543">
        <ele>661.5244141</ele>
        <time>2014-05-25T05:58:26Z</time>
      </trkpt>
      <trkpt lat="44.30101" lon="2.64541">
        <ele>660.5629883</ele>
        <time>2014-05-25T05:58:31Z</time>
      </trkpt>
      <trkpt lat="44.30087" lon="2.64543">
        <ele>659.6018066</ele>
        <time>2014-05-25T05:58:36Z</time>
      </trkpt>
      <trkpt lat="44.30077" lon="2.64544">
        <ele>658.6403809</ele>
        <time>2014-05-25T05:58:40Z</time>
      </trkpt>
      <trkpt lat="44.30064" lon="2.64545">
        <ele>658.6403809</ele>
        <time>2014-05-25T05:58:45Z</time>
      </trkpt>
      <trkpt lat="44.3005" lon="2.64548">
        <ele>658.1599121</ele>
        <time>2014-05-25T05:58:50Z</time>
      </trkpt>
      <trkpt lat="44.30039" lon="2.64549">
        <ele>657.1984863</ele>
        <time>2014-05-25T05:58:54Z</time>
      </trkpt>
      <trkpt lat="44.30026" lon="2.64551">
        <ele>657.1984863</ele>
        <time>2014-05-25T05:58:59Z</time>
      </trkpt>
      <trkpt lat="44.30011" lon="2.64553">
        <ele>656.2370605</ele>
        <time>2014-05-25T05:59:05Z</time>
      </trkpt>
      <trkpt lat="44.29994" lon="2.64559">
        <ele>655.7565918</ele>
        <time>2014-05-25T05:59:11Z</time>
      </trkpt>
      <trkpt lat="44.29984" lon="2.64565">
        <ele>656.2370605</ele>
        <time>2014-05-25T05:59:15Z</time>
      </trkpt>
      <trkpt lat="44.2997" lon="2.64576">
        <ele>655.7565918</ele>
        <time>2014-05-25T05:59:21Z</time>
      </trkpt>
      <trkpt lat="44.29954" lon="2.64593">
        <ele>656.2370605</ele>
        <time>2014-05-25T05:59:28Z</time>
      </trkpt>
      <trkpt lat="44.29948" lon="2.64607">
        <ele>655.2758789</ele>
        <time>2014-05-25T05:59:32Z</time>
      </trkpt>
      <trkpt lat="44.29945" lon="2.64624">
        <ele>654.3146973</ele>
        <time>2014-05-25T05:59:36Z</time>
      </trkpt>
      <trkpt lat="44.29941" lon="2.6464">
        <ele>653.8339844</ele>
        <time>2014-05-25T05:59:40Z</time>
      </trkpt>
      <trkpt lat="44.29927" lon="2.64655">
        <ele>652.3918457</ele>
        <time>2014-05-25T05:59:46Z</time>
      </trkpt>
      <trkpt lat="44.29916" lon="2.64665">
        <ele>650.4692383</ele>
        <time>2014-05-25T05:59:51Z</time>
      </trkpt>
      <trkpt lat="44.29902" lon="2.6468">
        <ele>648.5463867</ele>
        <time>2014-05-25T05:59:57Z</time>
      </trkpt>
      <trkpt lat="44.2989" lon="2.64697">
        <ele>646.6240234</ele>
        <time>2014-05-25T06:00:03Z</time>
      </trkpt>
      <trkpt lat="44.29882" lon="2.64714">
        <ele>647.1044922</ele>
        <time>2014-05-25T06:00:08Z</time>
      </trkpt>
      <trkpt lat="44.29875" lon="2.64728">
        <ele>647.5852051</ele>
        <time>2014-05-25T06:00:12Z</time>
      </trkpt>
      <trkpt lat="44.29868" lon="2.64741">
        <ele>648.065918</ele>
        <time>2014-05-25T06:00:17Z</time>
      </trkpt>
      <trkpt lat="44.29855" lon="2.64761">
        <ele>648.065918</ele>
        <time>2014-05-25T06:00:24Z</time>
      </trkpt>
      <trkpt lat="44.29844" lon="2.64771">
        <ele>648.065918</ele>
        <time>2014-05-25T06:00:29Z</time>
      </trkpt>
      <trkpt lat="44.29832" lon="2.64789">
        <ele>647.5852051</ele>
        <time>2014-05-25T06:00:36Z</time>
      </trkpt>
      <trkpt lat="44.29818" lon="2.64803">
        <ele>648.5463867</ele>
        <time>2014-05-25T06:00:43Z</time>
      </trkpt>
      <trkpt lat="44.29805" lon="2.64812">
        <ele>647.5852051</ele>
        <time>2014-05-25T06:00:49Z</time>
      </trkpt>
      <trkpt lat="44.29793" lon="2.6482">
        <ele>645.1818848</ele>
        <time>2014-05-25T06:00:54Z</time>
      </trkpt>
      <trkpt lat="44.29778" lon="2.64828">
        <ele>644.2207031</ele>
        <time>2014-05-25T06:01:00Z</time>
      </trkpt>
      <trkpt lat="44.29764" lon="2.64837">
        <ele>643.2592773</ele>
        <time>2014-05-25T06:01:06Z</time>
      </trkpt>
      <trkpt lat="44.29749" lon="2.64846">
        <ele>642.7788086</ele>
        <time>2014-05-25T06:01:12Z</time>
      </trkpt>
      <trkpt lat="44.29735" lon="2.64857">
        <ele>641.3366699</ele>
        <time>2014-05-25T06:01:18Z</time>
      </trkpt>
      <trkpt lat="44.29728" lon="2.64862">
        <ele>641.3366699</ele>
        <time>2014-05-25T06:01:21Z</time>
      </trkpt>
      <trkpt lat="44.29716" lon="2.64875">
        <ele>640.3754883</ele>
        <time>2014-05-25T06:01:26Z</time>
      </trkpt>
      <trkpt lat="44.29703" lon="2.64893">
        <ele>640.3754883</ele>
        <time>2014-05-25T06:01:32Z</time>
      </trkpt>
      <trkpt lat="44.29694" lon="2.64911">
        <ele>640.855957</ele>
        <time>2014-05-25T06:01:37Z</time>
      </trkpt>
      <trkpt lat="44.29687" lon="2.64928">
        <ele>641.3366699</ele>
        <time>2014-05-25T06:01:42Z</time>
      </trkpt>
      <trkpt lat="44.29681" lon="2.6495">
        <ele>639.8947754</ele>
        <time>2014-05-25T06:01:48Z</time>
      </trkpt>
      <trkpt lat="44.29677" lon="2.64968">
        <ele>638.9335938</ele>
        <time>2014-05-25T06:01:53Z</time>
      </trkpt>
      <trkpt lat="44.29674" lon="2.6498">
        <ele>638.9335938</ele>
        <time>2014-05-25T06:01:57Z</time>
      </trkpt>
      <trkpt lat="44.29668" lon="2.64996">
        <ele>638.9335938</ele>
        <time>2014-05-25T06:02:02Z</time>
      </trkpt>
      <trkpt lat="44.29659" lon="2.65021">
        <ele>639.4140625</ele>
        <time>2014-05-25T06:02:09Z</time>
      </trkpt>
      <trkpt lat="44.29649" lon="2.65041">
        <ele>638.9335938</ele>
        <time>2014-05-25T06:02:16Z</time>
      </trkpt>
      <trkpt lat="44.29639" lon="2.65055">
        <ele>638.9335938</ele>
        <time>2014-05-25T06:02:21Z</time>
      </trkpt>
      <trkpt lat="44.29623" lon="2.65076">
        <ele>639.8947754</ele>
        <time>2014-05-25T06:02:29Z</time>
      </trkpt>
      <trkpt lat="44.29611" lon="2.65084">
        <ele>639.8947754</ele>
        <time>2014-05-25T06:02:34Z</time>
      </trkpt>
      <trkpt lat="44.29597" lon="2.65089">
        <ele>638.9335938</ele>
        <time>2014-05-25T06:02:40Z</time>
      </trkpt>
      <trkpt lat="44.29593" lon="2.6509">
        <ele>638.4528809</ele>
        <time>2014-05-25T06:02:42Z</time>
      </trkpt>
      <trkpt lat="44.29591" lon="2.65096">
        <ele>637.972168</ele>
        <time>2014-05-25T06:02:46Z</time>
      </trkpt>
      <trkpt lat="44.296" lon="2.65111">
        <ele>637.972168</ele>
        <time>2014-05-25T06:02:52Z</time>
      </trkpt>
      <trkpt lat="44.29612" lon="2.65129">
        <ele>637.972168</ele>
        <time>2014-05-25T06:02:59Z</time>
      </trkpt>
      <trkpt lat="44.29623" lon="2.65145">
        <ele>638.4528809</ele>
        <time>2014-05-25T06:03:05Z</time>
      </trkpt>
      <trkpt lat="44.29635" lon="2.6516">
        <ele>639.4140625</ele>
        <time>2014-05-25T06:03:11Z</time>
      </trkpt>
      <trkpt lat="44.29647" lon="2.65174">
        <ele>640.3754883</ele>
        <time>2014-05-25T06:03:17Z</time>
      </trkpt>
      <trkpt lat="44.29661" lon="2.65189">
        <ele>641.8173828</ele>
        <time>2014-05-25T06:03:24Z</time>
      </trkpt>
      <trkpt lat="44.29672" lon="2.65201">
        <ele>642.2980957</ele>
        <time>2014-05-25T06:03:30Z</time>
      </trkpt>
      <trkpt lat="44.29683" lon="2.65212">
        <ele>643.7399902</ele>
        <time>2014-05-25T06:03:36Z</time>
      </trkpt>
      <trkpt lat="44.29694" lon="2.65225">
        <ele>643.2592773</ele>
        <time>2014-05-25T06:03:43Z</time>
      </trkpt>
      <trkpt lat="44.29705" lon="2.65238">
        <ele>645.6625977</ele>
        <time>2014-05-25T06:03:49Z</time>
      </trkpt>
      <trkpt lat="44.29719" lon="2.6525">
        <ele>649.5078125</ele>
        <time>2014-05-25T06:03:56Z</time>
      </trkpt>
      <trkpt lat="44.2973" lon="2.65261">
        <ele>650.4692383</ele>
        <time>2014-05-25T06:04:02Z</time>
      </trkpt>
      <trkpt lat="44.29743" lon="2.65271">
        <ele>651.9111328</ele>
        <time>2014-05-25T06:04:09Z</time>
      </trkpt>
      <trkpt lat="44.29756" lon="2.65277">
        <ele>653.3532715</ele>
        <time>2014-05-25T06:04:15Z</time>
      </trkpt>
      <trkpt lat="44.29769" lon="2.65282">
        <ele>656.2370605</ele>
        <time>2014-05-25T06:04:21Z</time>
      </trkpt>
      <trkpt lat="44.29779" lon="2.65286">
        <ele>658.1599121</ele>
        <time>2014-05-25T06:04:26Z</time>
      </trkpt>
      <trkpt lat="44.29792" lon="2.6529">
        <ele>659.6018066</ele>
        <time>2014-05-25T06:04:32Z</time>
      </trkpt>
      <trkpt lat="44.29805" lon="2.65294">
        <ele>661.0437012</ele>
        <time>2014-05-25T06:04:38Z</time>
      </trkpt>
      <trkpt lat="44.2982" lon="2.65299">
        <ele>661.0437012</ele>
        <time>2014-05-25T06:04:45Z</time>
      </trkpt>
      <trkpt lat="44.29834" lon="2.65303">
        <ele>661.0437012</ele>
        <time>2014-05-25T06:04:51Z</time>
      </trkpt>
      <trkpt lat="44.29848" lon="2.65306">
        <ele>661.5244141</ele>
        <time>2014-05-25T06:04:57Z</time>
      </trkpt>
      <trkpt lat="44.29865" lon="2.65308">
        <ele>663.4470215</ele>
        <time>2014-05-25T06:05:04Z</time>
      </trkpt>
      <trkpt lat="44.29882" lon="2.65311">
        <ele>665.3696289</ele>
        <time>2014-05-25T06:05:11Z</time>
      </trkpt>
      <trkpt lat="44.29896" lon="2.65313">
        <ele>665.3696289</ele>
        <time>2014-05-25T06:05:17Z</time>
      </trkpt>
      <trkpt lat="44.29913" lon="2.65311">
        <ele>666.3308105</ele>
        <time>2014-05-25T06:05:24Z</time>
      </trkpt>
      <trkpt lat="44.29926" lon="2.65309">
        <ele>667.2922363</ele>
        <time>2014-05-25T06:05:30Z</time>
      </trkpt>
      <trkpt lat="44.29938" lon="2.65302">
        <ele>666.8115234</ele>
        <time>2014-05-25T06:05:36Z</time>
      </trkpt>
      <trkpt lat="44.29952" lon="2.65289">
        <ele>667.7727051</ele>
        <time>2014-05-25T06:05:43Z</time>
      </trkpt>
      <trkpt lat="44.29965" lon="2.65283">
        <ele>669.6958008</ele>
        <time>2014-05-25T06:05:49Z</time>
      </trkpt>
      <trkpt lat="44.29976" lon="2.65283">
        <ele>670.6569824</ele>
        <time>2014-05-25T06:05:54Z</time>
      </trkpt>
      <trkpt lat="44.29989" lon="2.65287">
        <ele>672.098877</ele>
        <time>2014-05-25T06:06:00Z</time>
      </trkpt>
      <trkpt lat="44.29997" lon="2.65296">
        <ele>673.0603027</ele>
        <time>2014-05-25T06:06:05Z</time>
      </trkpt>
      <trkpt lat="44.29997" lon="2.65312">
        <ele>673.5410156</ele>
        <time>2014-05-25T06:06:10Z</time>
      </trkpt>
      <trkpt lat="44.29994" lon="2.65334">
        <ele>673.5410156</ele>
        <time>2014-05-25T06:06:17Z</time>
      </trkpt>
      <trkpt lat="44.29991" lon="2.6535">
        <ele>673.5410156</ele>
        <time>2014-05-25T06:06:22Z</time>
      </trkpt>
      <trkpt lat="44.29986" lon="2.65373">
        <ele>674.5021973</ele>
        <time>2014-05-25T06:06:30Z</time>
      </trkpt>
      <trkpt lat="44.2998" lon="2.65397">
        <ele>675.4633789</ele>
        <time>2014-05-25T06:06:38Z</time>
      </trkpt>
      <trkpt lat="44.29974" lon="2.65415">
        <ele>676.4248047</ele>
        <time>2014-05-25T06:06:44Z</time>
      </trkpt>
      <trkpt lat="44.29969" lon="2.65432">
        <ele>677.3862305</ele>
        <time>2014-05-25T06:06:50Z</time>
      </trkpt>
      <trkpt lat="44.29965" lon="2.65446">
        <ele>677.8666992</ele>
        <time>2014-05-25T06:06:55Z</time>
      </trkpt>
      <trkpt lat="44.29959" lon="2.65462">
        <ele>679.3085938</ele>
        <time>2014-05-25T06:07:00Z</time>
      </trkpt>
      <trkpt lat="44.29953" lon="2.65476">
        <ele>680.7507324</ele>
        <time>2014-05-25T06:07:05Z</time>
      </trkpt>
      <trkpt lat="44.29946" lon="2.65492">
        <ele>682.192627</ele>
        <time>2014-05-25T06:07:11Z</time>
      </trkpt>
      <trkpt lat="44.29937" lon="2.65507">
        <ele>681.7119141</ele>
        <time>2014-05-25T06:07:17Z</time>
      </trkpt>
      <trkpt lat="44.29924" lon="2.65526">
        <ele>683.1538086</ele>
        <time>2014-05-25T06:07:25Z</time>
      </trkpt>
      <trkpt lat="44.29912" lon="2.65539">
        <ele>683.6345215</ele>
        <time>2014-05-25T06:07:31Z</time>
      </trkpt>
      <trkpt lat="44.29902" lon="2.65547">
        <ele>684.1154785</ele>
        <time>2014-05-25T06:07:36Z</time>
      </trkpt>
      <trkpt lat="44.29888" lon="2.65558">
        <ele>684.1154785</ele>
        <time>2014-05-25T06:07:43Z</time>
      </trkpt>
      <trkpt lat="44.29876" lon="2.65566">
        <ele>684.5961914</ele>
        <time>2014-05-25T06:07:49Z</time>
      </trkpt>
      <trkpt lat="44.29864" lon="2.65575">
        <ele>685.557373</ele>
        <time>2014-05-25T06:07:55Z</time>
      </trkpt>
      <trkpt lat="44.29852" lon="2.65584">
        <ele>686.0380859</ele>
        <time>2014-05-25T06:08:01Z</time>
      </trkpt>
      <trkpt lat="44.29836" lon="2.65597">
        <ele>686.0380859</ele>
        <time>2014-05-25T06:08:09Z</time>
      </trkpt>
      <trkpt lat="44.29826" lon="2.65605">
        <ele>686.0380859</ele>
        <time>2014-05-25T06:08:15Z</time>
      </trkpt>
      <trkpt lat="44.29816" lon="2.65614">
        <ele>686.9992676</ele>
        <time>2014-05-25T06:08:20Z</time>
      </trkpt>
      <trkpt lat="44.29808" lon="2.65621">
        <ele>687.9606934</ele>
        <time>2014-05-25T06:08:25Z</time>
      </trkpt>
      <trkpt lat="44.29801" lon="2.65628">
        <ele>688.4414063</ele>
        <time>2014-05-25T06:08:32Z</time>
      </trkpt>
      <trkpt lat="44.29791" lon="2.65636">
        <ele>690.8444824</ele>
        <time>2014-05-25T06:08:38Z</time>
      </trkpt>
      <trkpt lat="44.2978" lon="2.65644">
        <ele>692.2866211</ele>
        <time>2014-05-25T06:08:44Z</time>
      </trkpt>
      <trkpt lat="44.29769" lon="2.65648">
        <ele>695.1704102</ele>
        <time>2014-05-25T06:08:50Z</time>
      </trkpt>
      <trkpt lat="44.29759" lon="2.65649">
        <ele>696.1318359</ele>
        <time>2014-05-25T06:08:56Z</time>
      </trkpt>
      <trkpt lat="44.29751" lon="2.65649">
        <ele>696.6125488</ele>
        <time>2014-05-25T06:09:02Z</time>
      </trkpt>
      <trkpt lat="44.29739" lon="2.65655">
        <ele>699.015625</ele>
        <time>2014-05-25T06:09:10Z</time>
      </trkpt>
      <trkpt lat="44.29736" lon="2.65656">
        <ele>699.9770508</ele>
        <time>2014-05-25T06:09:13Z</time>
      </trkpt>
      <trkpt lat="44.29729" lon="2.65658">
        <ele>700.4580078</ele>
        <time>2014-05-25T06:09:19Z</time>
      </trkpt>
      <trkpt lat="44.29724" lon="2.65663">
        <ele>702.3803711</ele>
        <time>2014-05-25T06:09:24Z</time>
      </trkpt>
      <trkpt lat="44.29717" lon="2.65669">
        <ele>704.3032227</ele>
        <time>2014-05-25T06:09:31Z</time>
      </trkpt>
      <trkpt lat="44.2971" lon="2.65681">
        <ele>707.6677246</ele>
        <time>2014-05-25T06:09:37Z</time>
      </trkpt>
      <trkpt lat="44.29704" lon="2.65692">
        <ele>709.590332</ele>
        <time>2014-05-25T06:09:43Z</time>
      </trkpt>
      <trkpt lat="44.29697" lon="2.657">
        <ele>710.0708008</ele>
        <time>2014-05-25T06:09:50Z</time>
      </trkpt>
      <trkpt lat="44.29692" lon="2.65706">
        <ele>711.5129395</ele>
        <time>2014-05-25T06:09:55Z</time>
      </trkpt>
      <trkpt lat="44.29691" lon="2.65709">
        <ele>711.5129395</ele>
        <time>2014-05-25T06:09:57Z</time>
      </trkpt>
      <trkpt lat="44.29685" lon="2.65719">
        <ele>713.9160156</ele>
        <time>2014-05-25T06:10:03Z</time>
      </trkpt>
      <trkpt lat="44.29678" lon="2.65724">
        <ele>715.3581543</ele>
        <time>2014-05-25T06:10:09Z</time>
      </trkpt>
      <trkpt lat="44.29674" lon="2.65725">
        <ele>715.8388672</ele>
        <time>2014-05-25T06:10:11Z</time>
      </trkpt>
      <trkpt lat="44.29669" lon="2.65729">
        <ele>717.7614746</ele>
        <time>2014-05-25T06:10:15Z</time>
      </trkpt>
      <trkpt lat="44.29662" lon="2.6573">
        <ele>719.2036133</ele>
        <time>2014-05-25T06:10:21Z</time>
      </trkpt>
      <trkpt lat="44.29659" lon="2.65729">
        <ele>719.6843262</ele>
        <time>2014-05-25T06:10:22Z</time>
      </trkpt>
      <trkpt lat="44.29648" lon="2.65721">
        <ele>720.1647949</ele>
        <time>2014-05-25T06:10:27Z</time>
      </trkpt>
      <trkpt lat="44.29639" lon="2.65721">
        <ele>719.6843262</ele>
        <time>2014-05-25T06:10:31Z</time>
      </trkpt>
      <trkpt lat="44.29628" lon="2.6573">
        <ele>718.2421875</ele>
        <time>2014-05-25T06:10:37Z</time>
      </trkpt>
      <trkpt lat="44.29614" lon="2.65741">
        <ele>717.2810059</ele>
        <time>2014-05-25T06:10:44Z</time>
      </trkpt>
      <trkpt lat="44.296" lon="2.65751">
        <ele>716.3195801</ele>
        <time>2014-05-25T06:10:51Z</time>
      </trkpt>
      <trkpt lat="44.29591" lon="2.65758">
        <ele>714.8774414</ele>
        <time>2014-05-25T06:10:56Z</time>
      </trkpt>
      <trkpt lat="44.29582" lon="2.65762">
        <ele>715.3581543</ele>
        <time>2014-05-25T06:11:01Z</time>
      </trkpt>
      <trkpt lat="44.29577" lon="2.65764">
        <ele>716.3195801</ele>
        <time>2014-05-25T06:11:06Z</time>
      </trkpt>
      <trkpt lat="44.29575" lon="2.65765">
        <ele>718.7229004</ele>
        <time>2014-05-25T06:11:12Z</time>
      </trkpt>
      <trkpt lat="44.29569" lon="2.65766">
        <ele>718.7229004</ele>
        <time>2014-05-25T06:11:16Z</time>
      </trkpt>
      <trkpt lat="44.2956" lon="2.65768">
        <ele>717.2810059</ele>
        <time>2014-05-25T06:11:21Z</time>
      </trkpt>
      <trkpt lat="44.29558" lon="2.65769">
        <ele>717.2810059</ele>
        <time>2014-05-25T06:11:22Z</time>
      </trkpt>
      <trkpt lat="44.29551" lon="2.65776">
        <ele>717.2810059</ele>
        <time>2014-05-25T06:11:27Z</time>
      </trkpt>
      <trkpt lat="44.29535" lon="2.65788">
        <ele>716.800293</ele>
        <time>2014-05-25T06:11:33Z</time>
      </trkpt>
      <trkpt lat="44.29524" lon="2.65793">
        <ele>715.8388672</ele>
        <time>2014-05-25T06:11:37Z</time>
      </trkpt>
      <trkpt lat="44.29515" lon="2.65797">
        <ele>714.3967285</ele>
        <time>2014-05-25T06:11:41Z</time>
      </trkpt>
      <trkpt lat="44.29503" lon="2.65798">
        <ele>712.4741211</ele>
        <time>2014-05-25T06:11:46Z</time>
      </trkpt>
      <trkpt lat="44.29492" lon="2.65803">
        <ele>710.5515137</ele>
        <time>2014-05-25T06:11:50Z</time>
      </trkpt>
      <trkpt lat="44.29478" lon="2.6581">
        <ele>709.590332</ele>
        <time>2014-05-25T06:11:55Z</time>
      </trkpt>
      <trkpt lat="44.29468" lon="2.65812">
        <ele>710.5515137</ele>
        <time>2014-05-25T06:11:59Z</time>
      </trkpt>
      <trkpt lat="44.29455" lon="2.65823">
        <ele>710.0708008</ele>
        <time>2014-05-25T06:12:05Z</time>
      </trkpt>
      <trkpt lat="44.29447" lon="2.65832">
        <ele>708.6289063</ele>
        <time>2014-05-25T06:12:09Z</time>
      </trkpt>
      <trkpt lat="44.2944" lon="2.65841">
        <ele>709.1096191</ele>
        <time>2014-05-25T06:12:14Z</time>
      </trkpt>
      <trkpt lat="44.29432" lon="2.65853">
        <ele>711.0322266</ele>
        <time>2014-05-25T06:12:19Z</time>
      </trkpt>
      <trkpt lat="44.29429" lon="2.65856">
        <ele>711.9936523</ele>
        <time>2014-05-25T06:12:21Z</time>
      </trkpt>
      <trkpt lat="44.29423" lon="2.65864">
        <ele>711.9936523</ele>
        <time>2014-05-25T06:12:27Z</time>
      </trkpt>
      <trkpt lat="44.29412" lon="2.65874">
        <ele>711.9936523</ele>
        <time>2014-05-25T06:12:32Z</time>
      </trkpt>
      <trkpt lat="44.2941" lon="2.65874">
        <ele>711.9936523</ele>
        <time>2014-05-25T06:12:33Z</time>
      </trkpt>
      <trkpt lat="44.29397" lon="2.65885">
        <ele>712.4741211</ele>
        <time>2014-05-25T06:12:38Z</time>
      </trkpt>
      <trkpt lat="44.29376" lon="2.65893">
        <ele>710.0708008</ele>
        <time>2014-05-25T06:12:46Z</time>
      </trkpt>
      <trkpt lat="44.29362" lon="2.65898">
        <ele>709.1096191</ele>
        <time>2014-05-25T06:12:51Z</time>
      </trkpt>
      <trkpt lat="44.29355" lon="2.65901">
        <ele>709.1096191</ele>
        <time>2014-05-25T06:12:55Z</time>
      </trkpt>
      <trkpt lat="44.29348" lon="2.65902">
        <ele>708.1484375</ele>
        <time>2014-05-25T06:12:59Z</time>
      </trkpt>
      <trkpt lat="44.29333" lon="2.65902">
        <ele>707.6677246</ele>
        <time>2014-05-25T06:13:06Z</time>
      </trkpt>
      <trkpt lat="44.29318" lon="2.65901">
        <ele>710.5515137</ele>
        <time>2014-05-25T06:13:12Z</time>
      </trkpt>
      <trkpt lat="44.29308" lon="2.65905">
        <ele>711.5129395</ele>
        <time>2014-05-25T06:13:17Z</time>
      </trkpt>
      <trkpt lat="44.29299" lon="2.65909">
        <ele>711.5129395</ele>
        <time>2014-05-25T06:13:22Z</time>
      </trkpt>
      <trkpt lat="44.2929" lon="2.65918">
        <ele>711.0322266</ele>
        <time>2014-05-25T06:13:27Z</time>
      </trkpt>
      <trkpt lat="44.29278" lon="2.65936">
        <ele>710.0708008</ele>
        <time>2014-05-25T06:13:33Z</time>
      </trkpt>
      <trkpt lat="44.29268" lon="2.65951">
        <ele>710.0708008</ele>
        <time>2014-05-25T06:13:40Z</time>
      </trkpt>
      <trkpt lat="44.29262" lon="2.65958">
        <ele>710.5515137</ele>
        <time>2014-05-25T06:13:43Z</time>
      </trkpt>
      <trkpt lat="44.29252" lon="2.6598">
        <ele>714.8774414</ele>
        <time>2014-05-25T06:13:49Z</time>
      </trkpt>
      <trkpt lat="44.29248" lon="2.65996">
        <ele>716.3195801</ele>
        <time>2014-05-25T06:13:54Z</time>
      </trkpt>
      <trkpt lat="44.2924" lon="2.66014">
        <ele>720.1647949</ele>
        <time>2014-05-25T06:14:00Z</time>
      </trkpt>
      <trkpt lat="44.29235" lon="2.66033">
        <ele>719.2036133</ele>
        <time>2014-05-25T06:14:06Z</time>
      </trkpt>
      <trkpt lat="44.29231" lon="2.66052">
        <ele>720.1647949</ele>
        <time>2014-05-25T06:14:12Z</time>
      </trkpt>
      <trkpt lat="44.2923" lon="2.66055">
        <ele>719.6843262</ele>
        <time>2014-05-25T06:14:13Z</time>
      </trkpt>
      <trkpt lat="44.29226" lon="2.66075">
        <ele>720.6455078</ele>
        <time>2014-05-25T06:14:19Z</time>
      </trkpt>
      <trkpt lat="44.29226" lon="2.66095">
        <ele>720.1647949</ele>
        <time>2014-05-25T06:14:24Z</time>
      </trkpt>
      <trkpt lat="44.29224" lon="2.66113">
        <ele>719.6843262</ele>
        <time>2014-05-25T06:14:30Z</time>
      </trkpt>
      <trkpt lat="44.29223" lon="2.66118">
        <ele>718.2421875</ele>
        <time>2014-05-25T06:14:31Z</time>
      </trkpt>
      <trkpt lat="44.2922" lon="2.66135">
        <ele>711.9936523</ele>
        <time>2014-05-25T06:14:37Z</time>
      </trkpt>
      <trkpt lat="44.29216" lon="2.66149">
        <ele>708.6289063</ele>
        <time>2014-05-25T06:14:42Z</time>
      </trkpt>
      <trkpt lat="44.29212" lon="2.66166">
        <ele>707.6677246</ele>
        <time>2014-05-25T06:14:46Z</time>
      </trkpt>
      <trkpt lat="44.29207" lon="2.66179">
        <ele>707.1870117</ele>
        <time>2014-05-25T06:14:50Z</time>
      </trkpt>
      <trkpt lat="44.29196" lon="2.66192">
        <ele>704.7836914</ele>
        <time>2014-05-25T06:14:55Z</time>
      </trkpt>
      <trkpt lat="44.29189" lon="2.66201">
        <ele>702.861084</ele>
        <time>2014-05-25T06:14:59Z</time>
      </trkpt>
      <trkpt lat="44.29179" lon="2.66212">
        <ele>701.4191895</ele>
        <time>2014-05-25T06:15:04Z</time>
      </trkpt>
      <trkpt lat="44.29171" lon="2.66222">
        <ele>700.4580078</ele>
        <time>2014-05-25T06:15:08Z</time>
      </trkpt>
      <trkpt lat="44.29157" lon="2.66234">
        <ele>699.4963379</ele>
        <time>2014-05-25T06:15:14Z</time>
      </trkpt>
      <trkpt lat="44.29147" lon="2.66247">
        <ele>699.9770508</ele>
        <time>2014-05-25T06:15:19Z</time>
      </trkpt>
      <trkpt lat="44.2914" lon="2.6626">
        <ele>699.4963379</ele>
        <time>2014-05-25T06:15:24Z</time>
      </trkpt>
      <trkpt lat="44.29135" lon="2.66274">
        <ele>699.4963379</ele>
        <time>2014-05-25T06:15:29Z</time>
      </trkpt>
      <trkpt lat="44.29127" lon="2.66292">
        <ele>699.4963379</ele>
        <time>2014-05-25T06:15:34Z</time>
      </trkpt>
      <trkpt lat="44.29123" lon="2.66305">
        <ele>698.5349121</ele>
        <time>2014-05-25T06:15:38Z</time>
      </trkpt>
      <trkpt lat="44.29117" lon="2.66318">
        <ele>697.5737305</ele>
        <time>2014-05-25T06:15:42Z</time>
      </trkpt>
      <trkpt lat="44.29111" lon="2.66337">
        <ele>698.0544434</ele>
        <time>2014-05-25T06:15:47Z</time>
      </trkpt>
      <trkpt lat="44.29103" lon="2.66357">
        <ele>696.6125488</ele>
        <time>2014-05-25T06:15:53Z</time>
      </trkpt>
      <trkpt lat="44.29096" lon="2.66374">
        <ele>697.0930176</ele>
        <time>2014-05-25T06:15:59Z</time>
      </trkpt>
      <trkpt lat="44.29086" lon="2.66382">
        <ele>697.5737305</ele>
        <time>2014-05-25T06:16:04Z</time>
      </trkpt>
      <trkpt lat="44.29078" lon="2.66385">
        <ele>696.6125488</ele>
        <time>2014-05-25T06:16:08Z</time>
      </trkpt>
      <trkpt lat="44.29077" lon="2.66385">
        <ele>696.1318359</ele>
        <time>2014-05-25T06:16:09Z</time>
      </trkpt>
      <trkpt lat="44.29063" lon="2.66396">
        <ele>697.5737305</ele>
        <time>2014-05-25T06:16:15Z</time>
      </trkpt>
      <trkpt lat="44.29046" lon="2.66407">
        <ele>696.1318359</ele>
        <time>2014-05-25T06:16:21Z</time>
      </trkpt>
      <trkpt lat="44.29038" lon="2.66411">
        <ele>694.6896973</ele>
        <time>2014-05-25T06:16:26Z</time>
      </trkpt>
      <trkpt lat="44.29036" lon="2.66413">
        <ele>695.1704102</ele>
        <time>2014-05-25T06:16:28Z</time>
      </trkpt>
      <trkpt lat="44.29025" lon="2.66417">
        <ele>696.1318359</ele>
        <time>2014-05-25T06:16:36Z</time>
      </trkpt>
      <trkpt lat="44.29024" lon="2.66418">
        <ele>696.6125488</ele>
        <time>2014-05-25T06:16:37Z</time>
      </trkpt>
      <trkpt lat="44.2902" lon="2.66418">
        <ele>697.0930176</ele>
        <time>2014-05-25T06:16:40Z</time>
      </trkpt>
      <trkpt lat="44.29013" lon="2.66418">
        <ele>698.0544434</ele>
        <time>2014-05-25T06:16:46Z</time>
      </trkpt>
      <trkpt lat="44.29006" lon="2.66414">
        <ele>699.9770508</ele>
        <time>2014-05-25T06:16:52Z</time>
      </trkpt>
      <trkpt lat="44.29002" lon="2.66412">
        <ele>699.9770508</ele>
        <time>2014-05-25T06:16:55Z</time>
      </trkpt>
      <trkpt lat="44.28992" lon="2.66409">
        <ele>700.4580078</ele>
        <time>2014-05-25T06:17:02Z</time>
      </trkpt>
      <trkpt lat="44.28989" lon="2.66408">
        <ele>700.9384766</ele>
        <time>2014-05-25T06:17:04Z</time>
      </trkpt>
      <trkpt lat="44.28984" lon="2.66407">
        <ele>701.4191895</ele>
        <time>2014-05-25T06:17:08Z</time>
      </trkpt>
      <trkpt lat="44.28978" lon="2.66405">
        <ele>702.861084</ele>
        <time>2014-05-25T06:17:13Z</time>
      </trkpt>
      <trkpt lat="44.28968" lon="2.66398">
        <ele>703.3417969</ele>
        <time>2014-05-25T06:17:22Z</time>
      </trkpt>
      <trkpt lat="44.28961" lon="2.6639">
        <ele>707.1870117</ele>
        <time>2014-05-25T06:17:30Z</time>
      </trkpt>
      <trkpt lat="44.28956" lon="2.66385">
        <ele>709.1096191</ele>
        <time>2014-05-25T06:17:35Z</time>
      </trkpt>
      <trkpt lat="44.2895" lon="2.66378">
        <ele>711.9936523</ele>
        <time>2014-05-25T06:17:42Z</time>
      </trkpt>
      <trkpt lat="44.28946" lon="2.66376">
        <ele>711.9936523</ele>
        <time>2014-05-25T06:17:46Z</time>
      </trkpt>
      <trkpt lat="44.28936" lon="2.66369">
        <ele>714.8774414</ele>
        <time>2014-05-25T06:17:55Z</time>
      </trkpt>
      <trkpt lat="44.28932" lon="2.66364">
        <ele>714.3967285</ele>
        <time>2014-05-25T06:18:01Z</time>
      </trkpt>
      <trkpt lat="44.28928" lon="2.66364">
        <ele>714.8774414</ele>
        <time>2014-05-25T06:18:06Z</time>
      </trkpt>
      <trkpt lat="44.28925" lon="2.66363">
        <ele>715.3581543</ele>
        <time>2014-05-25T06:18:08Z</time>
      </trkpt>
      <trkpt lat="44.28916" lon="2.66358">
        <ele>717.2810059</ele>
        <time>2014-05-25T06:18:16Z</time>
      </trkpt>
      <trkpt lat="44.28915" lon="2.66357">
        <ele>717.2810059</ele>
        <time>2014-05-25T06:18:17Z</time>
      </trkpt>
      <trkpt lat="44.28908" lon="2.6635">
        <ele>718.2421875</ele>
        <time>2014-05-25T06:18:24Z</time>
      </trkpt>
      <trkpt lat="44.28901" lon="2.66343">
        <ele>718.7229004</ele>
        <time>2014-05-25T06:18:31Z</time>
      </trkpt>
      <trkpt lat="44.28894" lon="2.66336">
        <ele>718.7229004</ele>
        <time>2014-05-25T06:18:38Z</time>
      </trkpt>
      <trkpt lat="44.2889" lon="2.66328">
        <ele>721.1262207</ele>
        <time>2014-05-25T06:18:43Z</time>
      </trkpt>
      <trkpt lat="44.28881" lon="2.66315">
        <ele>724.9714355</ele>
        <time>2014-05-25T06:18:52Z</time>
      </trkpt>
      <trkpt lat="44.28874" lon="2.66303">
        <ele>725.4519043</ele>
        <time>2014-05-25T06:19:00Z</time>
      </trkpt>
      <trkpt lat="44.28869" lon="2.66294">
        <ele>727.8552246</ele>
        <time>2014-05-25T06:19:06Z</time>
      </trkpt>
      <trkpt lat="44.28868" lon="2.66285">
        <ele>728.3359375</ele>
        <time>2014-05-25T06:19:10Z</time>
      </trkpt>
      <trkpt lat="44.28872" lon="2.66272">
        <ele>730.7392578</ele>
        <time>2014-05-25T06:19:16Z</time>
      </trkpt>
      <trkpt lat="44.28879" lon="2.66265">
        <ele>731.7004395</ele>
        <time>2014-05-25T06:19:23Z</time>
      </trkpt>
      <trkpt lat="44.28887" lon="2.66257">
        <ele>732.6621094</ele>
        <time>2014-05-25T06:19:29Z</time>
      </trkpt>
      <trkpt lat="44.28894" lon="2.66247">
        <ele>731.2199707</ele>
        <time>2014-05-25T06:19:35Z</time>
      </trkpt>
      <trkpt lat="44.28901" lon="2.66235">
        <ele>730.2585449</ele>
        <time>2014-05-25T06:19:40Z</time>
      </trkpt>
      <trkpt lat="44.28904" lon="2.6623">
        <ele>729.777832</ele>
        <time>2014-05-25T06:19:42Z</time>
      </trkpt>
      <trkpt lat="44.28908" lon="2.66217">
        <ele>729.777832</ele>
        <time>2014-05-25T06:19:47Z</time>
      </trkpt>
      <trkpt lat="44.28909" lon="2.66214">
        <ele>730.2585449</ele>
        <time>2014-05-25T06:19:48Z</time>
      </trkpt>
      <trkpt lat="44.28912" lon="2.66195">
        <ele>733.623291</ele>
        <time>2014-05-25T06:19:54Z</time>
      </trkpt>
      <trkpt lat="44.28912" lon="2.66177">
        <ele>736.5073242</ele>
        <time>2014-05-25T06:19:59Z</time>
      </trkpt>
      <trkpt lat="44.2891" lon="2.66161">
        <ele>739.3911133</ele>
        <time>2014-05-25T06:20:04Z</time>
      </trkpt>
      <trkpt lat="44.28904" lon="2.66146">
        <ele>741.3137207</ele>
        <time>2014-05-25T06:20:09Z</time>
      </trkpt>
      <trkpt lat="44.28896" lon="2.66139">
        <ele>742.2751465</ele>
        <time>2014-05-25T06:20:13Z</time>
      </trkpt>
      <trkpt lat="44.28883" lon="2.66138">
        <ele>741.3137207</ele>
        <time>2014-05-25T06:20:19Z</time>
      </trkpt>
      <trkpt lat="44.28871" lon="2.6614">
        <ele>740.8330078</ele>
        <time>2014-05-25T06:20:24Z</time>
      </trkpt>
      <trkpt lat="44.2886" lon="2.66147">
        <ele>741.3137207</ele>
        <time>2014-05-25T06:20:29Z</time>
      </trkpt>
      <trkpt lat="44.28852" lon="2.66153">
        <ele>742.2751465</ele>
        <time>2014-05-25T06:20:34Z</time>
      </trkpt>
      <trkpt lat="44.28841" lon="2.66164">
        <ele>742.2751465</ele>
        <time>2014-05-25T06:20:40Z</time>
      </trkpt>
      <trkpt lat="44.28831" lon="2.66175">
        <ele>742.7558594</ele>
        <time>2014-05-25T06:20:45Z</time>
      </trkpt>
      <trkpt lat="44.28819" lon="2.6619">
        <ele>743.2363281</ele>
        <time>2014-05-25T06:20:51Z</time>
      </trkpt>
      <trkpt lat="44.28811" lon="2.66198">
        <ele>742.2751465</ele>
        <time>2014-05-25T06:20:56Z</time>
      </trkpt>
      <trkpt lat="44.28807" lon="2.66203">
        <ele>741.7944336</ele>
        <time>2014-05-25T06:20:59Z</time>
      </trkpt>
      <trkpt lat="44.28797" lon="2.66224">
        <ele>742.2751465</ele>
        <time>2014-05-25T06:21:05Z</time>
      </trkpt>
      <trkpt lat="44.2879" lon="2.66248">
        <ele>743.717041</ele>
        <time>2014-05-25T06:21:12Z</time>
      </trkpt>
      <trkpt lat="44.28784" lon="2.66269">
        <ele>744.1977539</ele>
        <time>2014-05-25T06:21:18Z</time>
      </trkpt>
      <trkpt lat="44.28778" lon="2.66288">
        <ele>743.717041</ele>
        <time>2014-05-25T06:21:24Z</time>
      </trkpt>
      <trkpt lat="44.28772" lon="2.66306">
        <ele>742.7558594</ele>
        <time>2014-05-25T06:21:29Z</time>
      </trkpt>
      <trkpt lat="44.28766" lon="2.66323">
        <ele>741.7944336</ele>
        <time>2014-05-25T06:21:34Z</time>
      </trkpt>
      <trkpt lat="44.2876" lon="2.66339">
        <ele>739.8718262</ele>
        <time>2014-05-25T06:21:39Z</time>
      </trkpt>
      <trkpt lat="44.28754" lon="2.66357">
        <ele>739.3911133</ele>
        <time>2014-05-25T06:21:44Z</time>
      </trkpt>
      <trkpt lat="44.28748" lon="2.66375">
        <ele>738.4299316</ele>
        <time>2014-05-25T06:21:49Z</time>
      </trkpt>
      <trkpt lat="44.28742" lon="2.66392">
        <ele>737.4685059</ele>
        <time>2014-05-25T06:21:54Z</time>
      </trkpt>
      <trkpt lat="44.28739" lon="2.6641">
        <ele>736.0266113</ele>
        <time>2014-05-25T06:21:59Z</time>
      </trkpt>
      <trkpt lat="44.28731" lon="2.66434">
        <ele>734.5847168</ele>
        <time>2014-05-25T06:22:05Z</time>
      </trkpt>
      <trkpt lat="44.28726" lon="2.66452">
        <ele>732.6621094</ele>
        <time>2014-05-25T06:22:10Z</time>
      </trkpt>
      <trkpt lat="44.28721" lon="2.66471">
        <ele>732.1813965</ele>
        <time>2014-05-25T06:22:15Z</time>
      </trkpt>
      <trkpt lat="44.28716" lon="2.66489">
        <ele>730.2585449</ele>
        <time>2014-05-25T06:22:20Z</time>
      </trkpt>
      <trkpt lat="44.28709" lon="2.66504">
        <ele>729.777832</ele>
        <time>2014-05-25T06:22:25Z</time>
      </trkpt>
      <trkpt lat="44.287" lon="2.66516">
        <ele>727.3747559</ele>
        <time>2014-05-25T06:22:30Z</time>
      </trkpt>
      <trkpt lat="44.28689" lon="2.66522">
        <ele>725.4519043</ele>
        <time>2014-05-25T06:22:34Z</time>
      </trkpt>
      <trkpt lat="44.28678" lon="2.66528">
        <ele>723.529541</ele>
        <time>2014-05-25T06:22:39Z</time>
      </trkpt>
      <trkpt lat="44.28671" lon="2.66535">
        <ele>724.0100098</ele>
        <time>2014-05-25T06:22:44Z</time>
      </trkpt>
      <trkpt lat="44.28665" lon="2.66541">
        <ele>724.4907227</ele>
        <time>2014-05-25T06:22:49Z</time>
      </trkpt>
      <trkpt lat="44.28658" lon="2.66554">
        <ele>727.3747559</ele>
        <time>2014-05-25T06:22:55Z</time>
      </trkpt>
      <trkpt lat="44.28657" lon="2.66556">
        <ele>727.8552246</ele>
        <time>2014-05-25T06:22:56Z</time>
      </trkpt>
      <trkpt lat="44.28653" lon="2.66562">
        <ele>728.8166504</ele>
        <time>2014-05-25T06:23:00Z</time>
      </trkpt>
      <trkpt lat="44.28645" lon="2.66572">
        <ele>727.8552246</ele>
        <time>2014-05-25T06:23:06Z</time>
      </trkpt>
      <trkpt lat="44.28644" lon="2.66576">
        <ele>729.2971191</ele>
        <time>2014-05-25T06:23:09Z</time>
      </trkpt>
      <trkpt lat="44.28633" lon="2.6659">
        <ele>730.7392578</ele>
        <time>2014-05-25T06:23:15Z</time>
      </trkpt>
      <trkpt lat="44.2863" lon="2.66595">
        <ele>731.2199707</ele>
        <time>2014-05-25T06:23:17Z</time>
      </trkpt>
      <trkpt lat="44.2863" lon="2.66598">
        <ele>731.2199707</ele>
        <time>2014-05-25T06:23:20Z</time>
      </trkpt>
      <trkpt lat="44.28629" lon="2.66605">
        <ele>732.1813965</ele>
        <time>2014-05-25T06:23:23Z</time>
      </trkpt>
      <trkpt lat="44.28626" lon="2.66615">
        <ele>732.1813965</ele>
        <time>2014-05-25T06:23:28Z</time>
      </trkpt>
      <trkpt lat="44.28623" lon="2.66623">
        <ele>732.1813965</ele>
        <time>2014-05-25T06:23:31Z</time>
      </trkpt>
      <trkpt lat="44.28617" lon="2.66635">
        <ele>732.6621094</ele>
        <time>2014-05-25T06:23:38Z</time>
      </trkpt>
      <trkpt lat="44.28613" lon="2.66642">
        <ele>733.1425781</ele>
        <time>2014-05-25T06:23:44Z</time>
      </trkpt>
      <trkpt lat="44.2861" lon="2.66648">
        <ele>732.6621094</ele>
        <time>2014-05-25T06:23:50Z</time>
      </trkpt>
      <trkpt lat="44.28603" lon="2.6666">
        <ele>733.623291</ele>
        <time>2014-05-25T06:23:55Z</time>
      </trkpt>
      <trkpt lat="44.28596" lon="2.66675">
        <ele>733.623291</ele>
        <time>2014-05-25T06:24:01Z</time>
      </trkpt>
      <trkpt lat="44.28595" lon="2.66678">
        <ele>734.1040039</ele>
        <time>2014-05-25T06:24:03Z</time>
      </trkpt>
      <trkpt lat="44.28591" lon="2.66688">
        <ele>736.0266113</ele>
        <time>2014-05-25T06:24:09Z</time>
      </trkpt>
      <trkpt lat="44.28589" lon="2.667">
        <ele>736.987793</ele>
        <time>2014-05-25T06:24:16Z</time>
      </trkpt>
      <trkpt lat="44.28586" lon="2.6671">
        <ele>737.4685059</ele>
        <time>2014-05-25T06:24:21Z</time>
      </trkpt>
      <trkpt lat="44.28585" lon="2.66712">
        <ele>738.4299316</ele>
        <time>2014-05-25T06:24:22Z</time>
      </trkpt>
      <trkpt lat="44.2858" lon="2.66721">
        <ele>737.9492188</ele>
        <time>2014-05-25T06:24:28Z</time>
      </trkpt>
      <trkpt lat="44.28571" lon="2.6673">
        <ele>738.9106445</ele>
        <time>2014-05-25T06:24:33Z</time>
      </trkpt>
      <trkpt lat="44.2857" lon="2.66731">
        <ele>739.3911133</ele>
        <time>2014-05-25T06:24:34Z</time>
      </trkpt>
      <trkpt lat="44.28557" lon="2.66752">
        <ele>740.8330078</ele>
        <time>2014-05-25T06:24:40Z</time>
      </trkpt>
      <trkpt lat="44.28551" lon="2.66761">
        <ele>741.7944336</ele>
        <time>2014-05-25T06:24:45Z</time>
      </trkpt>
      <trkpt lat="44.28543" lon="2.66769">
        <ele>742.7558594</ele>
        <time>2014-05-25T06:24:51Z</time>
      </trkpt>
      <trkpt lat="44.28536" lon="2.66774">
        <ele>743.717041</ele>
        <time>2014-05-25T06:24:57Z</time>
      </trkpt>
      <trkpt lat="44.28534" lon="2.66776">
        <ele>744.1977539</ele>
        <time>2014-05-25T06:25:00Z</time>
      </trkpt>
      <trkpt lat="44.28527" lon="2.6678">
        <ele>748.0432129</ele>
        <time>2014-05-25T06:25:08Z</time>
      </trkpt>
      <trkpt lat="44.28515" lon="2.66789">
        <ele>748.0432129</ele>
        <time>2014-05-25T06:25:15Z</time>
      </trkpt>
      <trkpt lat="44.28506" lon="2.66797">
        <ele>748.5236816</ele>
        <time>2014-05-25T06:25:20Z</time>
      </trkpt>
      <trkpt lat="44.28502" lon="2.66803">
        <ele>750.4465332</ele>
        <time>2014-05-25T06:25:26Z</time>
      </trkpt>
      <trkpt lat="44.28499" lon="2.66806">
        <ele>751.4077148</ele>
        <time>2014-05-25T06:25:30Z</time>
      </trkpt>
      <trkpt lat="44.28492" lon="2.66815">
        <ele>752.3688965</ele>
        <time>2014-05-25T06:25:37Z</time>
      </trkpt>
      <trkpt lat="44.28485" lon="2.66823">
        <ele>751.8884277</ele>
        <time>2014-05-25T06:25:43Z</time>
      </trkpt>
      <trkpt lat="44.28475" lon="2.66839">
        <ele>753.3303223</ele>
        <time>2014-05-25T06:25:50Z</time>
      </trkpt>
      <trkpt lat="44.28466" lon="2.66853">
        <ele>754.291748</ele>
        <time>2014-05-25T06:25:56Z</time>
      </trkpt>
      <trkpt lat="44.28462" lon="2.66859">
        <ele>755.2529297</ele>
        <time>2014-05-25T06:26:02Z</time>
      </trkpt>
      <trkpt lat="44.28461" lon="2.66861">
        <ele>755.2529297</ele>
        <time>2014-05-25T06:26:03Z</time>
      </trkpt>
      <trkpt lat="44.28451" lon="2.66877">
        <ele>757.65625</ele>
        <time>2014-05-25T06:26:09Z</time>
      </trkpt>
      <trkpt lat="44.28444" lon="2.66888">
        <ele>759.5788574</ele>
        <time>2014-05-25T06:26:14Z</time>
      </trkpt>
      <trkpt lat="44.28439" lon="2.66896">
        <ele>761.020752</ele>
        <time>2014-05-25T06:26:19Z</time>
      </trkpt>
      <trkpt lat="44.28431" lon="2.6691">
        <ele>760.5400391</ele>
        <time>2014-05-25T06:26:23Z</time>
      </trkpt>
      <trkpt lat="44.28421" lon="2.66926">
        <ele>761.020752</ele>
        <time>2014-05-25T06:26:29Z</time>
      </trkpt>
      <trkpt lat="44.28412" lon="2.66939">
        <ele>761.5014648</ele>
        <time>2014-05-25T06:26:34Z</time>
      </trkpt>
      <trkpt lat="44.28406" lon="2.6695">
        <ele>763.904541</ele>
        <time>2014-05-25T06:26:40Z</time>
      </trkpt>
      <trkpt lat="44.28405" lon="2.66952">
        <ele>763.904541</ele>
        <time>2014-05-25T06:26:41Z</time>
      </trkpt>
      <trkpt lat="44.28394" lon="2.66974">
        <ele>765.8276367</ele>
        <time>2014-05-25T06:26:49Z</time>
      </trkpt>
      <trkpt lat="44.28387" lon="2.66987">
        <ele>766.7888184</ele>
        <time>2014-05-25T06:26:55Z</time>
      </trkpt>
      <trkpt lat="44.28379" lon="2.67005">
        <ele>769.1921387</ele>
        <time>2014-05-25T06:27:01Z</time>
      </trkpt>
      <trkpt lat="44.28371" lon="2.67023">
        <ele>771.5952148</ele>
        <time>2014-05-25T06:27:07Z</time>
      </trkpt>
      <trkpt lat="44.28364" lon="2.67039">
        <ele>773.9985352</ele>
        <time>2014-05-25T06:27:13Z</time>
      </trkpt>
      <trkpt lat="44.28356" lon="2.67055">
        <ele>775.9211426</ele>
        <time>2014-05-25T06:27:19Z</time>
      </trkpt>
      <trkpt lat="44.28348" lon="2.6707">
        <ele>776.8825684</ele>
        <time>2014-05-25T06:27:25Z</time>
      </trkpt>
      <trkpt lat="44.28339" lon="2.67079">
        <ele>775.9211426</ele>
        <time>2014-05-25T06:27:29Z</time>
      </trkpt>
      <trkpt lat="44.2833" lon="2.67084">
        <ele>775.9211426</ele>
        <time>2014-05-25T06:27:34Z</time>
      </trkpt>
      <trkpt lat="44.28321" lon="2.67086">
        <ele>775.9211426</ele>
        <time>2014-05-25T06:27:39Z</time>
      </trkpt>
      <trkpt lat="44.28305" lon="2.67093">
        <ele>776.8825684</ele>
        <time>2014-05-25T06:27:46Z</time>
      </trkpt>
      <trkpt lat="44.28294" lon="2.67098">
        <ele>776.8825684</ele>
        <time>2014-05-25T06:27:51Z</time>
      </trkpt>
      <trkpt lat="44.28281" lon="2.67104">
        <ele>776.8825684</ele>
        <time>2014-05-25T06:27:56Z</time>
      </trkpt>
      <trkpt lat="44.28267" lon="2.6711">
        <ele>776.4018555</ele>
        <time>2014-05-25T06:28:02Z</time>
      </trkpt>
      <trkpt lat="44.28255" lon="2.67115">
        <ele>776.4018555</ele>
        <time>2014-05-25T06:28:07Z</time>
      </trkpt>
      <trkpt lat="44.28237" lon="2.67123">
        <ele>775.9211426</ele>
        <time>2014-05-25T06:28:15Z</time>
      </trkpt>
      <trkpt lat="44.28224" lon="2.67129">
        <ele>775.4404297</ele>
        <time>2014-05-25T06:28:20Z</time>
      </trkpt>
      <trkpt lat="44.2821" lon="2.67137">
        <ele>774.9599609</ele>
        <time>2014-05-25T06:28:26Z</time>
      </trkpt>
      <trkpt lat="44.28199" lon="2.67148">
        <ele>773.5180664</ele>
        <time>2014-05-25T06:28:31Z</time>
      </trkpt>
      <trkpt lat="44.28187" lon="2.67163">
        <ele>771.5952148</ele>
        <time>2014-05-25T06:28:36Z</time>
      </trkpt>
      <trkpt lat="44.28181" lon="2.67171">
        <ele>770.6340332</ele>
        <time>2014-05-25T06:28:39Z</time>
      </trkpt>
      <trkpt lat="44.28171" lon="2.67185">
        <ele>768.7114258</ele>
        <time>2014-05-25T06:28:45Z</time>
      </trkpt>
      <trkpt lat="44.28158" lon="2.672">
        <ele>768.2307129</ele>
        <time>2014-05-25T06:28:51Z</time>
      </trkpt>
      <trkpt lat="44.28146" lon="2.67212">
        <ele>768.7114258</ele>
        <time>2014-05-25T06:28:57Z</time>
      </trkpt>
      <trkpt lat="44.28136" lon="2.67219">
        <ele>769.1921387</ele>
        <time>2014-05-25T06:29:02Z</time>
      </trkpt>
      <trkpt lat="44.28124" lon="2.67234">
        <ele>769.6728516</ele>
        <time>2014-05-25T06:29:09Z</time>
      </trkpt>
      <trkpt lat="44.2811" lon="2.67257">
        <ele>771.1147461</ele>
        <time>2014-05-25T06:29:16Z</time>
      </trkpt>
      <trkpt lat="44.281" lon="2.67276">
        <ele>771.5952148</ele>
        <time>2014-05-25T06:29:22Z</time>
      </trkpt>
      <trkpt lat="44.28091" lon="2.6729">
        <ele>771.1147461</ele>
        <time>2014-05-25T06:29:27Z</time>
      </trkpt>
      <trkpt lat="44.28082" lon="2.67306">
        <ele>770.1533203</ele>
        <time>2014-05-25T06:29:33Z</time>
      </trkpt>
      <trkpt lat="44.28073" lon="2.67322">
        <ele>769.6728516</ele>
        <time>2014-05-25T06:29:38Z</time>
      </trkpt>
      <trkpt lat="44.28062" lon="2.67343">
        <ele>768.2307129</ele>
        <time>2014-05-25T06:29:45Z</time>
      </trkpt>
      <trkpt lat="44.28052" lon="2.67359">
        <ele>767.75</ele>
        <time>2014-05-25T06:29:50Z</time>
      </trkpt>
      <trkpt lat="44.28043" lon="2.67378">
        <ele>768.2307129</ele>
        <time>2014-05-25T06:29:56Z</time>
      </trkpt>
      <trkpt lat="44.28035" lon="2.67398">
        <ele>766.7888184</ele>
        <time>2014-05-25T06:30:02Z</time>
      </trkpt>
      <trkpt lat="44.2803" lon="2.67419">
        <ele>765.3469238</ele>
        <time>2014-05-25T06:30:08Z</time>
      </trkpt>
      <trkpt lat="44.28023" lon="2.67433">
        <ele>763.4240723</ele>
        <time>2014-05-25T06:30:13Z</time>
      </trkpt>
      <trkpt lat="44.28012" lon="2.67437">
        <ele>761.020752</ele>
        <time>2014-05-25T06:30:17Z</time>
      </trkpt>
      <trkpt lat="44.28002" lon="2.67433">
        <ele>759.0981445</ele>
        <time>2014-05-25T06:30:21Z</time>
      </trkpt>
      <trkpt lat="44.27987" lon="2.67422">
        <ele>757.65625</ele>
        <time>2014-05-25T06:30:27Z</time>
      </trkpt>
      <trkpt lat="44.27985" lon="2.6742">
        <ele>757.65625</ele>
        <time>2014-05-25T06:30:28Z</time>
      </trkpt>
      <trkpt lat="44.27971" lon="2.67407">
        <ele>756.6948242</ele>
        <time>2014-05-25T06:30:34Z</time>
      </trkpt>
      <trkpt lat="44.27962" lon="2.67399">
        <ele>755.7336426</ele>
        <time>2014-05-25T06:30:38Z</time>
      </trkpt>
      <trkpt lat="44.27951" lon="2.67387">
        <ele>753.8110352</ele>
        <time>2014-05-25T06:30:43Z</time>
      </trkpt>
      <trkpt lat="44.27936" lon="2.67378">
        <ele>751.8884277</ele>
        <time>2014-05-25T06:30:49Z</time>
      </trkpt>
      <trkpt lat="44.27925" lon="2.67372">
        <ele>751.4077148</ele>
        <time>2014-05-25T06:30:53Z</time>
      </trkpt>
      <trkpt lat="44.27916" lon="2.67365">
        <ele>749.9658203</ele>
        <time>2014-05-25T06:30:57Z</time>
      </trkpt>
      <trkpt lat="44.27901" lon="2.67355">
        <ele>748.0432129</ele>
        <time>2014-05-25T06:31:03Z</time>
      </trkpt>
      <trkpt lat="44.27892" lon="2.67347">
        <ele>746.6010742</ele>
        <time>2014-05-25T06:31:07Z</time>
      </trkpt>
      <trkpt lat="44.27878" lon="2.67333">
        <ele>745.1589355</ele>
        <time>2014-05-25T06:31:13Z</time>
      </trkpt>
      <trkpt lat="44.27871" lon="2.67316">
        <ele>744.6782227</ele>
        <time>2014-05-25T06:31:18Z</time>
      </trkpt>
      <trkpt lat="44.27866" lon="2.67299">
        <ele>745.1589355</ele>
        <time>2014-05-25T06:31:23Z</time>
      </trkpt>
      <trkpt lat="44.27862" lon="2.67283">
        <ele>745.1589355</ele>
        <time>2014-05-25T06:31:28Z</time>
      </trkpt>
      <trkpt lat="44.27858" lon="2.67263">
        <ele>744.6782227</ele>
        <time>2014-05-25T06:31:34Z</time>
      </trkpt>
      <trkpt lat="44.27854" lon="2.67241">
        <ele>744.1977539</ele>
        <time>2014-05-25T06:31:40Z</time>
      </trkpt>
      <trkpt lat="44.27852" lon="2.67214">
        <ele>741.7944336</ele>
        <time>2014-05-25T06:31:48Z</time>
      </trkpt>
      <trkpt lat="44.27851" lon="2.67197">
        <ele>740.8330078</ele>
        <time>2014-05-25T06:31:53Z</time>
      </trkpt>
      <trkpt lat="44.27839" lon="2.67195">
        <ele>738.4299316</ele>
        <time>2014-05-25T06:31:58Z</time>
      </trkpt>
      <trkpt lat="44.27836" lon="2.672">
        <ele>738.4299316</ele>
        <time>2014-05-25T06:32:00Z</time>
      </trkpt>
      <trkpt lat="44.27824" lon="2.67219">
        <ele>736.987793</ele>
        <time>2014-05-25T06:32:07Z</time>
      </trkpt>
      <trkpt lat="44.27814" lon="2.67236">
        <ele>735.5458984</ele>
        <time>2014-05-25T06:32:13Z</time>
      </trkpt>
      <trkpt lat="44.27804" lon="2.67254">
        <ele>735.0654297</ele>
        <time>2014-05-25T06:32:19Z</time>
      </trkpt>
      <trkpt lat="44.27796" lon="2.67266">
        <ele>733.1425781</ele>
        <time>2014-05-25T06:32:24Z</time>
      </trkpt>
      <trkpt lat="44.27787" lon="2.67276">
        <ele>732.1813965</ele>
        <time>2014-05-25T06:32:28Z</time>
      </trkpt>
      <trkpt lat="44.27775" lon="2.67288">
        <ele>730.7392578</ele>
        <time>2014-05-25T06:32:34Z</time>
      </trkpt>
      <trkpt lat="44.27762" lon="2.67301">
        <ele>729.777832</ele>
        <time>2014-05-25T06:32:40Z</time>
      </trkpt>
      <trkpt lat="44.27748" lon="2.67318">
        <ele>728.8166504</ele>
        <time>2014-05-25T06:32:47Z</time>
      </trkpt>
      <trkpt lat="44.2774" lon="2.6733">
        <ele>727.8552246</ele>
        <time>2014-05-25T06:32:52Z</time>
      </trkpt>
      <trkpt lat="44.27731" lon="2.67323">
        <ele>725.4519043</ele>
        <time>2014-05-25T06:32:57Z</time>
      </trkpt>
      <trkpt lat="44.27725" lon="2.67315">
        <ele>724.4907227</ele>
        <time>2014-05-25T06:33:01Z</time>
      </trkpt>
      <trkpt lat="44.27717" lon="2.67311">
        <ele>724.4907227</ele>
        <time>2014-05-25T06:33:08Z</time>
      </trkpt>
      <trkpt lat="44.27714" lon="2.67314">
        <ele>724.0100098</ele>
        <time>2014-05-25T06:33:10Z</time>
      </trkpt>
      <trkpt lat="44.27711" lon="2.67317">
        <ele>723.529541</ele>
        <time>2014-05-25T06:33:13Z</time>
      </trkpt>
      <trkpt lat="44.27705" lon="2.67325">
        <ele>721.6066895</ele>
        <time>2014-05-25T06:33:18Z</time>
      </trkpt>
      <trkpt lat="44.277" lon="2.67335">
        <ele>721.1262207</ele>
        <time>2014-05-25T06:33:24Z</time>
      </trkpt>
      <trkpt lat="44.27698" lon="2.67341">
        <ele>720.6455078</ele>
        <time>2014-05-25T06:33:26Z</time>
      </trkpt>
      <trkpt lat="44.2769" lon="2.6736">
        <ele>717.2810059</ele>
        <time>2014-05-25T06:33:34Z</time>
      </trkpt>
      <trkpt lat="44.27686" lon="2.67371">
        <ele>714.8774414</ele>
        <time>2014-05-25T06:33:39Z</time>
      </trkpt>
      <trkpt lat="44.27685" lon="2.67375">
        <ele>715.3581543</ele>
        <time>2014-05-25T06:33:42Z</time>
      </trkpt>
      <trkpt lat="44.27683" lon="2.6738">
        <ele>715.3581543</ele>
        <time>2014-05-25T06:33:48Z</time>
      </trkpt>
      <trkpt lat="44.27682" lon="2.67382">
        <ele>715.8388672</ele>
        <time>2014-05-25T06:33:52Z</time>
      </trkpt>
      <trkpt lat="44.27681" lon="2.67385">
        <ele>717.2810059</ele>
        <time>2014-05-25T06:33:59Z</time>
      </trkpt>
      <trkpt lat="44.27681" lon="2.67387">
        <ele>718.2421875</ele>
        <time>2014-05-25T06:34:09Z</time>
      </trkpt>
      <trkpt lat="44.27681" lon="2.6739">
        <ele>714.8774414</ele>
        <time>2014-05-25T06:34:16Z</time>
      </trkpt>
      <trkpt lat="44.2768" lon="2.67392">
        <ele>715.8388672</ele>
        <time>2014-05-25T06:34:22Z</time>
      </trkpt>
      <trkpt lat="44.27681" lon="2.67392">
        <ele>716.3195801</ele>
        <time>2014-05-25T06:34:35Z</time>
      </trkpt>
      <trkpt lat="44.27678" lon="2.67391">
        <ele>714.8774414</ele>
        <time>2014-05-25T06:34:44Z</time>
      </trkpt>
      <trkpt lat="44.2768" lon="2.67385">
        <ele>714.8774414</ele>
        <time>2014-05-25T06:34:50Z</time>
      </trkpt>
      <trkpt lat="44.27682" lon="2.67378">
        <ele>716.3195801</ele>
        <time>2014-05-25T06:34:55Z</time>
      </trkpt>
      <trkpt lat="44.27687" lon="2.6736">
        <ele>719.6843262</ele>
        <time>2014-05-25T06:35:03Z</time>
      </trkpt>
      <trkpt lat="44.27692" lon="2.67349">
        <ele>720.1647949</ele>
        <time>2014-05-25T06:35:08Z</time>
      </trkpt>
      <trkpt lat="44.27698" lon="2.67336">
        <ele>719.6843262</ele>
        <time>2014-05-25T06:35:14Z</time>
      </trkpt>
      <trkpt lat="44.27704" lon="2.67324">
        <ele>721.1262207</ele>
        <time>2014-05-25T06:35:20Z</time>
      </trkpt>
      <trkpt lat="44.27709" lon="2.67319">
        <ele>722.5681152</ele>
        <time>2014-05-25T06:35:24Z</time>
      </trkpt>
      <trkpt lat="44.27718" lon="2.67313">
        <ele>723.0488281</ele>
        <time>2014-05-25T06:35:30Z</time>
      </trkpt>
      <trkpt lat="44.27721" lon="2.67318">
        <ele>723.529541</ele>
        <time>2014-05-25T06:35:33Z</time>
      </trkpt>
      <trkpt lat="44.2773" lon="2.67329">
        <ele>725.4519043</ele>
        <time>2014-05-25T06:35:39Z</time>
      </trkpt>
      <trkpt lat="44.27735" lon="2.67336">
        <ele>728.3359375</ele>
        <time>2014-05-25T06:35:43Z</time>
      </trkpt>
      <trkpt lat="44.2773" lon="2.67355">
        <ele>729.777832</ele>
        <time>2014-05-25T06:35:50Z</time>
      </trkpt>
      <trkpt lat="44.27726" lon="2.67376">
        <ele>730.2585449</ele>
        <time>2014-05-25T06:35:56Z</time>
      </trkpt>
      <trkpt lat="44.27726" lon="2.67387">
        <ele>730.2585449</ele>
        <time>2014-05-25T06:35:59Z</time>
      </trkpt>
      <trkpt lat="44.27733" lon="2.67413">
        <ele>726.894043</ele>
        <time>2014-05-25T06:36:07Z</time>
      </trkpt>
      <trkpt lat="44.2774" lon="2.67433">
        <ele>724.4907227</ele>
        <time>2014-05-25T06:36:13Z</time>
      </trkpt>
      <trkpt lat="44.27745" lon="2.67448">
        <ele>722.5681152</ele>
        <time>2014-05-25T06:36:17Z</time>
      </trkpt>
      <trkpt lat="44.27752" lon="2.67467">
        <ele>721.6066895</ele>
        <time>2014-05-25T06:36:23Z</time>
      </trkpt>
      <trkpt lat="44.27759" lon="2.67483">
        <ele>720.1647949</ele>
        <time>2014-05-25T06:36:28Z</time>
      </trkpt>
      <trkpt lat="44.2777" lon="2.67496">
        <ele>718.7229004</ele>
        <time>2014-05-25T06:36:33Z</time>
      </trkpt>
      <trkpt lat="44.27781" lon="2.67514">
        <ele>717.2810059</ele>
        <time>2014-05-25T06:36:39Z</time>
      </trkpt>
      <trkpt lat="44.27792" lon="2.67532">
        <ele>719.2036133</ele>
        <time>2014-05-25T06:36:45Z</time>
      </trkpt>
      <trkpt lat="44.27799" lon="2.67543">
        <ele>719.6843262</ele>
        <time>2014-05-25T06:36:49Z</time>
      </trkpt>
      <trkpt lat="44.27809" lon="2.67556">
        <ele>717.7614746</ele>
        <time>2014-05-25T06:36:54Z</time>
      </trkpt>
      <trkpt lat="44.27819" lon="2.67568">
        <ele>716.800293</ele>
        <time>2014-05-25T06:36:59Z</time>
      </trkpt>
      <trkpt lat="44.27826" lon="2.67577">
        <ele>716.3195801</ele>
        <time>2014-05-25T06:37:03Z</time>
      </trkpt>
      <trkpt lat="44.27836" lon="2.67589">
        <ele>714.3967285</ele>
        <time>2014-05-25T06:37:08Z</time>
      </trkpt>
      <trkpt lat="44.27844" lon="2.67614">
        <ele>712.4741211</ele>
        <time>2014-05-25T06:37:15Z</time>
      </trkpt>
      <trkpt lat="44.27849" lon="2.67638">
        <ele>711.0322266</ele>
        <time>2014-05-25T06:37:22Z</time>
      </trkpt>
      <trkpt lat="44.27853" lon="2.67659">
        <ele>710.0708008</ele>
        <time>2014-05-25T06:37:28Z</time>
      </trkpt>
      <trkpt lat="44.27857" lon="2.67682">
        <ele>709.1096191</ele>
        <time>2014-05-25T06:37:34Z</time>
      </trkpt>
      <trkpt lat="44.27854" lon="2.67696">
        <ele>711.0322266</ele>
        <time>2014-05-25T06:37:38Z</time>
      </trkpt>
      <trkpt lat="44.27847" lon="2.67703">
        <ele>712.954834</ele>
        <time>2014-05-25T06:37:42Z</time>
      </trkpt>
      <trkpt lat="44.27837" lon="2.67704">
        <ele>714.3967285</ele>
        <time>2014-05-25T06:37:46Z</time>
      </trkpt>
      <trkpt lat="44.27824" lon="2.67703">
        <ele>712.4741211</ele>
        <time>2014-05-25T06:37:51Z</time>
      </trkpt>
      <trkpt lat="44.2781" lon="2.67703">
        <ele>709.590332</ele>
        <time>2014-05-25T06:37:56Z</time>
      </trkpt>
      <trkpt lat="44.27798" lon="2.67708">
        <ele>710.0708008</ele>
        <time>2014-05-25T06:38:01Z</time>
      </trkpt>
      <trkpt lat="44.27786" lon="2.67721">
        <ele>709.1096191</ele>
        <time>2014-05-25T06:38:07Z</time>
      </trkpt>
      <trkpt lat="44.27776" lon="2.67733">
        <ele>708.1484375</ele>
        <time>2014-05-25T06:38:12Z</time>
      </trkpt>
      <trkpt lat="44.27763" lon="2.67746">
        <ele>706.7062988</ele>
        <time>2014-05-25T06:38:18Z</time>
      </trkpt>
      <trkpt lat="44.27755" lon="2.67754">
        <ele>705.7451172</ele>
        <time>2014-05-25T06:38:22Z</time>
      </trkpt>
      <trkpt lat="44.27747" lon="2.67768">
        <ele>705.7451172</ele>
        <time>2014-05-25T06:38:27Z</time>
      </trkpt>
      <trkpt lat="44.27738" lon="2.67783">
        <ele>705.7451172</ele>
        <time>2014-05-25T06:38:32Z</time>
      </trkpt>
      <trkpt lat="44.2773" lon="2.67802">
        <ele>705.7451172</ele>
        <time>2014-05-25T06:38:38Z</time>
      </trkpt>
      <trkpt lat="44.27725" lon="2.67819">
        <ele>705.7451172</ele>
        <time>2014-05-25T06:38:43Z</time>
      </trkpt>
      <trkpt lat="44.27719" lon="2.6784">
        <ele>703.3417969</ele>
        <time>2014-05-25T06:38:49Z</time>
      </trkpt>
      <trkpt lat="44.27713" lon="2.67857">
        <ele>699.9770508</ele>
        <time>2014-05-25T06:38:54Z</time>
      </trkpt>
      <trkpt lat="44.27708" lon="2.67871">
        <ele>698.5349121</ele>
        <time>2014-05-25T06:38:58Z</time>
      </trkpt>
      <trkpt lat="44.27704" lon="2.67886">
        <ele>696.1318359</ele>
        <time>2014-05-25T06:39:02Z</time>
      </trkpt>
      <trkpt lat="44.27699" lon="2.67904">
        <ele>693.2478027</ele>
        <time>2014-05-25T06:39:07Z</time>
      </trkpt>
      <trkpt lat="44.27694" lon="2.67924">
        <ele>690.8444824</ele>
        <time>2014-05-25T06:39:12Z</time>
      </trkpt>
      <trkpt lat="44.27689" lon="2.67942">
        <ele>690.3640137</ele>
        <time>2014-05-25T06:39:17Z</time>
      </trkpt>
      <trkpt lat="44.27685" lon="2.67964">
        <ele>688.4414063</ele>
        <time>2014-05-25T06:39:22Z</time>
      </trkpt>
      <trkpt lat="44.27678" lon="2.67981">
        <ele>689.4025879</ele>
        <time>2014-05-25T06:39:27Z</time>
      </trkpt>
      <trkpt lat="44.27669" lon="2.67994">
        <ele>689.8833008</ele>
        <time>2014-05-25T06:39:32Z</time>
      </trkpt>
      <trkpt lat="44.2765" lon="2.68001">
        <ele>687.4799805</ele>
        <time>2014-05-25T06:39:39Z</time>
      </trkpt>
      <trkpt lat="44.27636" lon="2.68006">
        <ele>687.4799805</ele>
        <time>2014-05-25T06:39:44Z</time>
      </trkpt>
      <trkpt lat="44.27633" lon="2.68007">
        <ele>688.4414063</ele>
        <time>2014-05-25T06:39:48Z</time>
      </trkpt>
      <trkpt lat="44.27632" lon="2.68012">
        <ele>687.9606934</ele>
        <time>2014-05-25T06:40:10Z</time>
      </trkpt>
      <trkpt lat="44.27617" lon="2.68014">
        <ele>686.5187988</ele>
        <time>2014-05-25T06:40:16Z</time>
      </trkpt>
      <trkpt lat="44.27605" lon="2.68017">
        <ele>682.6733398</ele>
        <time>2014-05-25T06:40:21Z</time>
      </trkpt>
      <trkpt lat="44.27589" lon="2.6802">
        <ele>680.2700195</ele>
        <time>2014-05-25T06:40:27Z</time>
      </trkpt>
      <trkpt lat="44.27587" lon="2.68026">
        <ele>681.2314453</ele>
        <time>2014-05-25T06:40:32Z</time>
      </trkpt>
      <trkpt lat="44.27583" lon="2.68033">
        <ele>682.6733398</ele>
        <time>2014-05-25T06:40:41Z</time>
      </trkpt>
      <trkpt lat="44.2758" lon="2.68041">
        <ele>680.2700195</ele>
        <time>2014-05-25T06:40:53Z</time>
      </trkpt>
      <trkpt lat="44.27582" lon="2.6803">
        <ele>677.8666992</ele>
        <time>2014-05-25T06:40:58Z</time>
      </trkpt>
      <trkpt lat="44.27571" lon="2.68025">
        <ele>678.828125</ele>
        <time>2014-05-25T06:41:02Z</time>
      </trkpt>
      <trkpt lat="44.27568" lon="2.68024">
        <ele>679.3085938</ele>
        <time>2014-05-25T06:41:03Z</time>
      </trkpt>
      <trkpt lat="44.27551" lon="2.68022">
        <ele>679.7893066</ele>
        <time>2014-05-25T06:41:09Z</time>
      </trkpt>
      <trkpt lat="44.2754" lon="2.68029">
        <ele>679.7893066</ele>
        <time>2014-05-25T06:41:14Z</time>
      </trkpt>
      <trkpt lat="44.27534" lon="2.68045">
        <ele>680.2700195</ele>
        <time>2014-05-25T06:41:19Z</time>
      </trkpt>
      <trkpt lat="44.27532" lon="2.68072">
        <ele>677.8666992</ele>
        <time>2014-05-25T06:41:26Z</time>
      </trkpt>
      <trkpt lat="44.27529" lon="2.68085">
        <ele>677.8666992</ele>
        <time>2014-05-25T06:41:30Z</time>
      </trkpt>
      <trkpt lat="44.27526" lon="2.68104">
        <ele>678.3474121</ele>
        <time>2014-05-25T06:41:35Z</time>
      </trkpt>
      <trkpt lat="44.27523" lon="2.68126">
        <ele>678.828125</ele>
        <time>2014-05-25T06:41:41Z</time>
      </trkpt>
      <trkpt lat="44.2752" lon="2.68142">
        <ele>677.3862305</ele>
        <time>2014-05-25T06:41:46Z</time>
      </trkpt>
      <trkpt lat="44.27519" lon="2.68149">
        <ele>675.9440918</ele>
        <time>2014-05-25T06:41:48Z</time>
      </trkpt>
      <trkpt lat="44.27513" lon="2.68156">
        <ele>672.098877</ele>
        <time>2014-05-25T06:41:52Z</time>
      </trkpt>
      <trkpt lat="44.2751" lon="2.68155">
        <ele>670.1762695</ele>
        <time>2014-05-25T06:41:53Z</time>
      </trkpt>
      <trkpt lat="44.27506" lon="2.68136">
        <ele>664.888916</ele>
        <time>2014-05-25T06:41:59Z</time>
      </trkpt>
      <trkpt lat="44.2751" lon="2.68116">
        <ele>661.0437012</ele>
        <time>2014-05-25T06:42:05Z</time>
      </trkpt>
      <trkpt lat="44.27513" lon="2.68096">
        <ele>658.1599121</ele>
        <time>2014-05-25T06:42:10Z</time>
      </trkpt>
      <trkpt lat="44.27514" lon="2.68078">
        <ele>656.2370605</ele>
        <time>2014-05-25T06:42:15Z</time>
      </trkpt>
      <trkpt lat="44.27516" lon="2.68056">
        <ele>653.3532715</ele>
        <time>2014-05-25T06:42:21Z</time>
      </trkpt>
      <trkpt lat="44.27518" lon="2.68038">
        <ele>651.4304199</ele>
        <time>2014-05-25T06:42:26Z</time>
      </trkpt>
      <trkpt lat="44.2752" lon="2.68024">
        <ele>649.9885254</ele>
        <time>2014-05-25T06:42:30Z</time>
      </trkpt>
      <trkpt lat="44.2752" lon="2.67997">
        <ele>649.5078125</ele>
        <time>2014-05-25T06:42:37Z</time>
      </trkpt>
      <trkpt lat="44.2752" lon="2.67976">
        <ele>648.5463867</ele>
        <time>2014-05-25T06:42:43Z</time>
      </trkpt>
      <trkpt lat="44.27517" lon="2.67957">
        <ele>648.065918</ele>
        <time>2014-05-25T06:42:48Z</time>
      </trkpt>
      <trkpt lat="44.27514" lon="2.67936">
        <ele>646.1433105</ele>
        <time>2014-05-25T06:42:54Z</time>
      </trkpt>
      <trkpt lat="44.27512" lon="2.67919">
        <ele>643.2592773</ele>
        <time>2014-05-25T06:42:59Z</time>
      </trkpt>
      <trkpt lat="44.27516" lon="2.67896">
        <ele>641.3366699</ele>
        <time>2014-05-25T06:43:05Z</time>
      </trkpt>
      <trkpt lat="44.27523" lon="2.67876">
        <ele>639.4140625</ele>
        <time>2014-05-25T06:43:11Z</time>
      </trkpt>
      <trkpt lat="44.27522" lon="2.67853">
        <ele>638.4528809</ele>
        <time>2014-05-25T06:43:17Z</time>
      </trkpt>
      <trkpt lat="44.27513" lon="2.67838">
        <ele>638.4528809</ele>
        <time>2014-05-25T06:43:22Z</time>
      </trkpt>
      <trkpt lat="44.27503" lon="2.67827">
        <ele>637.972168</ele>
        <time>2014-05-25T06:43:27Z</time>
      </trkpt>
      <trkpt lat="44.27499" lon="2.67823">
        <ele>637.972168</ele>
        <time>2014-05-25T06:43:29Z</time>
      </trkpt>
      <trkpt lat="44.2748" lon="2.67823">
        <ele>638.9335938</ele>
        <time>2014-05-25T06:43:36Z</time>
      </trkpt>
      <trkpt lat="44.27477" lon="2.67824">
        <ele>638.9335938</ele>
        <time>2014-05-25T06:43:37Z</time>
      </trkpt>
      <trkpt lat="44.27468" lon="2.67825">
        <ele>638.9335938</ele>
        <time>2014-05-25T06:43:41Z</time>
      </trkpt>
      <trkpt lat="44.27466" lon="2.67825">
        <ele>638.9335938</ele>
        <time>2014-05-25T06:43:42Z</time>
      </trkpt>
      <trkpt lat="44.27456" lon="2.67817">
        <ele>639.4140625</ele>
        <time>2014-05-25T06:43:47Z</time>
      </trkpt>
      <trkpt lat="44.27451" lon="2.67814">
        <ele>638.9335938</ele>
        <time>2014-05-25T06:43:51Z</time>
      </trkpt>
      <trkpt lat="44.27435" lon="2.67815">
        <ele>634.126709</ele>
        <time>2014-05-25T06:43:56Z</time>
      </trkpt>
      <trkpt lat="44.27427" lon="2.67813">
        <ele>641.3366699</ele>
        <time>2014-05-25T06:44:00Z</time>
      </trkpt>
      <trkpt lat="44.27422" lon="2.67813">
        <ele>640.3754883</ele>
        <time>2014-05-25T06:44:02Z</time>
      </trkpt>
      <trkpt lat="44.27415" lon="2.67811">
        <ele>636.0495605</ele>
        <time>2014-05-25T06:44:05Z</time>
      </trkpt>
      <trkpt lat="44.27406" lon="2.67821">
        <ele>629.3200684</ele>
        <time>2014-05-25T06:44:10Z</time>
      </trkpt>
      <trkpt lat="44.27407" lon="2.67838">
        <ele>623.0717773</ele>
        <time>2014-05-25T06:44:15Z</time>
      </trkpt>
      <trkpt lat="44.27408" lon="2.67841">
        <ele>622.1103516</ele>
        <time>2014-05-25T06:44:16Z</time>
      </trkpt>
      <trkpt lat="44.27412" lon="2.67854">
        <ele>617.3037109</ele>
        <time>2014-05-25T06:44:20Z</time>
      </trkpt>
      <trkpt lat="44.27423" lon="2.67877">
        <ele>612.0166016</ele>
        <time>2014-05-25T06:44:27Z</time>
      </trkpt>
      <trkpt lat="44.27427" lon="2.67883">
        <ele>611.0551758</ele>
        <time>2014-05-25T06:44:29Z</time>
      </trkpt>
      <trkpt lat="44.27436" lon="2.67904">
        <ele>606.2485352</ele>
        <time>2014-05-25T06:44:36Z</time>
      </trkpt>
      <trkpt lat="44.27437" lon="2.67919">
        <ele>602.4030762</ele>
        <time>2014-05-25T06:44:41Z</time>
      </trkpt>
      <trkpt lat="44.27439" lon="2.67932">
        <ele>600.4807129</ele>
        <time>2014-05-25T06:44:45Z</time>
      </trkpt>
      <trkpt lat="44.27445" lon="2.67948">
        <ele>599.5192871</ele>
        <time>2014-05-25T06:44:50Z</time>
      </trkpt>
      <trkpt lat="44.27448" lon="2.67954">
        <ele>599.5192871</ele>
        <time>2014-05-25T06:44:52Z</time>
      </trkpt>
      <trkpt lat="44.27447" lon="2.67964">
        <ele>599.5192871</ele>
        <time>2014-05-25T06:44:55Z</time>
      </trkpt>
      <trkpt lat="44.27434" lon="2.67973">
        <ele>599.5192871</ele>
        <time>2014-05-25T06:45:00Z</time>
      </trkpt>
      <trkpt lat="44.27423" lon="2.67974">
        <ele>597.5966797</ele>
        <time>2014-05-25T06:45:05Z</time>
      </trkpt>
      <trkpt lat="44.27421" lon="2.67973">
        <ele>597.5966797</ele>
        <time>2014-05-25T06:45:06Z</time>
      </trkpt>
      <trkpt lat="44.27407" lon="2.67974">
        <ele>594.2321777</ele>
        <time>2014-05-25T06:45:11Z</time>
      </trkpt>
      <trkpt lat="44.27394" lon="2.6797">
        <ele>597.1159668</ele>
        <time>2014-05-25T06:45:16Z</time>
      </trkpt>
      <trkpt lat="44.27386" lon="2.67969">
        <ele>598.0773926</ele>
        <time>2014-05-25T06:45:20Z</time>
      </trkpt>
      <trkpt lat="44.27377" lon="2.67968">
        <ele>599.0385742</ele>
        <time>2014-05-25T06:45:26Z</time>
      </trkpt>
      <trkpt lat="44.27375" lon="2.67968">
        <ele>600</ele>
        <time>2014-05-25T06:45:32Z</time>
      </trkpt>
      <trkpt lat="44.27373" lon="2.67968">
        <ele>600.4807129</ele>
        <time>2014-05-25T06:45:33Z</time>
      </trkpt>
      <trkpt lat="44.2736" lon="2.67968">
        <ele>600</ele>
        <time>2014-05-25T06:45:40Z</time>
      </trkpt>
      <trkpt lat="44.27349" lon="2.67962">
        <ele>600</ele>
        <time>2014-05-25T06:45:45Z</time>
      </trkpt>
      <trkpt lat="44.27343" lon="2.67956">
        <ele>600.4807129</ele>
        <time>2014-05-25T06:45:49Z</time>
      </trkpt>
      <trkpt lat="44.27335" lon="2.67947">
        <ele>600.4807129</ele>
        <time>2014-05-25T06:45:54Z</time>
      </trkpt>
      <trkpt lat="44.27325" lon="2.67935">
        <ele>604.8066406</ele>
        <time>2014-05-25T06:46:00Z</time>
      </trkpt>
      <trkpt lat="44.27315" lon="2.67923">
        <ele>607.6906738</ele>
        <time>2014-05-25T06:46:06Z</time>
      </trkpt>
      <trkpt lat="44.27313" lon="2.67919">
        <ele>607.2099609</ele>
        <time>2014-05-25T06:46:08Z</time>
      </trkpt>
      <trkpt lat="44.27307" lon="2.67907">
        <ele>610.09375</ele>
        <time>2014-05-25T06:46:13Z</time>
      </trkpt>
      <trkpt lat="44.27304" lon="2.67902">
        <ele>613.4584961</ele>
        <time>2014-05-25T06:46:17Z</time>
      </trkpt>
      <trkpt lat="44.27303" lon="2.679">
        <ele>613.9389648</ele>
        <time>2014-05-25T06:46:21Z</time>
      </trkpt>
      <trkpt lat="44.27292" lon="2.6789">
        <ele>614.4196777</ele>
        <time>2014-05-25T06:46:27Z</time>
      </trkpt>
      <trkpt lat="44.27283" lon="2.67879">
        <ele>614.9003906</ele>
        <time>2014-05-25T06:46:32Z</time>
      </trkpt>
      <trkpt lat="44.27275" lon="2.67867">
        <ele>615.8618164</ele>
        <time>2014-05-25T06:46:37Z</time>
      </trkpt>
      <trkpt lat="44.27268" lon="2.67854">
        <ele>616.822998</ele>
        <time>2014-05-25T06:46:42Z</time>
      </trkpt>
      <trkpt lat="44.27261" lon="2.67835">
        <ele>617.3037109</ele>
        <time>2014-05-25T06:46:49Z</time>
      </trkpt>
      <trkpt lat="44.27257" lon="2.67825">
        <ele>618.2648926</ele>
        <time>2014-05-25T06:46:53Z</time>
      </trkpt>
      <trkpt lat="44.27254" lon="2.67824">
        <ele>617.7841797</ele>
        <time>2014-05-25T06:46:55Z</time>
      </trkpt>
      <trkpt lat="44.27255" lon="2.67832">
        <ele>618.7456055</ele>
        <time>2014-05-25T06:46:59Z</time>
      </trkpt>
      <trkpt lat="44.27259" lon="2.67851">
        <ele>621.1491699</ele>
        <time>2014-05-25T06:47:06Z</time>
      </trkpt>
      <trkpt lat="44.2726" lon="2.67865">
        <ele>624.032959</ele>
        <time>2014-05-25T06:47:11Z</time>
      </trkpt>
      <trkpt lat="44.2726" lon="2.6788">
        <ele>626.9169922</ele>
        <time>2014-05-25T06:47:17Z</time>
      </trkpt>
      <trkpt lat="44.27263" lon="2.67893">
        <ele>630.762207</ele>
        <time>2014-05-25T06:47:22Z</time>
      </trkpt>
      <trkpt lat="44.27265" lon="2.67899">
        <ele>632.2041016</ele>
        <time>2014-05-25T06:47:25Z</time>
      </trkpt>
      <trkpt lat="44.27269" lon="2.67912">
        <ele>631.2429199</ele>
        <time>2014-05-25T06:47:31Z</time>
      </trkpt>
      <trkpt lat="44.2727" lon="2.67914">
        <ele>630.762207</ele>
        <time>2014-05-25T06:47:32Z</time>
      </trkpt>
      <trkpt lat="44.27278" lon="2.67932">
        <ele>629.3200684</ele>
        <time>2014-05-25T06:47:38Z</time>
      </trkpt>
      <trkpt lat="44.27284" lon="2.67947">
        <ele>627.8781738</ele>
        <time>2014-05-25T06:47:43Z</time>
      </trkpt>
      <trkpt lat="44.2729" lon="2.67958">
        <ele>627.8781738</ele>
        <time>2014-05-25T06:47:47Z</time>
      </trkpt>
      <trkpt lat="44.27297" lon="2.67971">
        <ele>628.8395996</ele>
        <time>2014-05-25T06:47:52Z</time>
      </trkpt>
      <trkpt lat="44.27307" lon="2.67989">
        <ele>629.3200684</ele>
        <time>2014-05-25T06:47:58Z</time>
      </trkpt>
      <trkpt lat="44.27318" lon="2.68004">
        <ele>626.4362793</ele>
        <time>2014-05-25T06:48:03Z</time>
      </trkpt>
      <trkpt lat="44.27326" lon="2.68024">
        <ele>622.5910645</ele>
        <time>2014-05-25T06:48:09Z</time>
      </trkpt>
      <trkpt lat="44.2733" lon="2.68046">
        <ele>620.1877441</ele>
        <time>2014-05-25T06:48:15Z</time>
      </trkpt>
      <trkpt lat="44.27331" lon="2.68064">
        <ele>618.7456055</ele>
        <time>2014-05-25T06:48:20Z</time>
      </trkpt>
      <trkpt lat="44.27329" lon="2.68082">
        <ele>617.3037109</ele>
        <time>2014-05-25T06:48:25Z</time>
      </trkpt>
      <trkpt lat="44.27329" lon="2.68102">
        <ele>618.7456055</ele>
        <time>2014-05-25T06:48:31Z</time>
      </trkpt>
      <trkpt lat="44.27327" lon="2.68122">
        <ele>622.5910645</ele>
        <time>2014-05-25T06:48:37Z</time>
      </trkpt>
      <trkpt lat="44.27323" lon="2.68137">
        <ele>626.9169922</ele>
        <time>2014-05-25T06:48:42Z</time>
      </trkpt>
      <trkpt lat="44.27316" lon="2.68153">
        <ele>629.3200684</ele>
        <time>2014-05-25T06:48:47Z</time>
      </trkpt>
      <trkpt lat="44.27307" lon="2.68174">
        <ele>634.6074219</ele>
        <time>2014-05-25T06:48:54Z</time>
      </trkpt>
      <trkpt lat="44.27301" lon="2.68187">
        <ele>637.972168</ele>
        <time>2014-05-25T06:48:59Z</time>
      </trkpt>
      <trkpt lat="44.27289" lon="2.68207">
        <ele>643.2592773</ele>
        <time>2014-05-25T06:49:07Z</time>
      </trkpt>
      <trkpt lat="44.2728" lon="2.68221">
        <ele>644.7011719</ele>
        <time>2014-05-25T06:49:12Z</time>
      </trkpt>
      <trkpt lat="44.27272" lon="2.68233">
        <ele>645.6625977</ele>
        <time>2014-05-25T06:49:17Z</time>
      </trkpt>
      <trkpt lat="44.27262" lon="2.68252">
        <ele>644.2207031</ele>
        <time>2014-05-25T06:49:24Z</time>
      </trkpt>
      <trkpt lat="44.27257" lon="2.68273">
        <ele>641.3366699</ele>
        <time>2014-05-25T06:49:30Z</time>
      </trkpt>
      <trkpt lat="44.27252" lon="2.68282">
        <ele>642.7788086</ele>
        <time>2014-05-25T06:49:34Z</time>
      </trkpt>
      <trkpt lat="44.27246" lon="2.68291">
        <ele>641.3366699</ele>
        <time>2014-05-25T06:49:39Z</time>
      </trkpt>
      <trkpt lat="44.27244" lon="2.68298">
        <ele>642.2980957</ele>
        <time>2014-05-25T06:49:43Z</time>
      </trkpt>
      <trkpt lat="44.27238" lon="2.68305">
        <ele>644.2207031</ele>
        <time>2014-05-25T06:49:47Z</time>
      </trkpt>
      <trkpt lat="44.27231" lon="2.68314">
        <ele>643.7399902</ele>
        <time>2014-05-25T06:49:53Z</time>
      </trkpt>
      <trkpt lat="44.27224" lon="2.68321">
        <ele>641.3366699</ele>
        <time>2014-05-25T06:49:58Z</time>
      </trkpt>
      <trkpt lat="44.27221" lon="2.68328">
        <ele>640.3754883</ele>
        <time>2014-05-25T06:50:02Z</time>
      </trkpt>
      <trkpt lat="44.2722" lon="2.68336">
        <ele>640.855957</ele>
        <time>2014-05-25T06:50:06Z</time>
      </trkpt>
      <trkpt lat="44.27215" lon="2.68346">
        <ele>645.1818848</ele>
        <time>2014-05-25T06:50:13Z</time>
      </trkpt>
      <trkpt lat="44.2721" lon="2.68356">
        <ele>648.065918</ele>
        <time>2014-05-25T06:50:19Z</time>
      </trkpt>
      <trkpt lat="44.2721" lon="2.68358">
        <ele>648.5463867</ele>
        <time>2014-05-25T06:50:20Z</time>
      </trkpt>
      <trkpt lat="44.27204" lon="2.68372">
        <ele>647.5852051</ele>
        <time>2014-05-25T06:50:26Z</time>
      </trkpt>
      <trkpt lat="44.27201" lon="2.68377">
        <ele>648.065918</ele>
        <time>2014-05-25T06:50:28Z</time>
      </trkpt>
      <trkpt lat="44.27195" lon="2.68394">
        <ele>648.065918</ele>
        <time>2014-05-25T06:50:34Z</time>
      </trkpt>
      <trkpt lat="44.27188" lon="2.68409">
        <ele>644.7011719</ele>
        <time>2014-05-25T06:50:39Z</time>
      </trkpt>
      <trkpt lat="44.27186" lon="2.68422">
        <ele>643.2592773</ele>
        <time>2014-05-25T06:50:43Z</time>
      </trkpt>
      <trkpt lat="44.27182" lon="2.68436">
        <ele>639.8947754</ele>
        <time>2014-05-25T06:50:47Z</time>
      </trkpt>
      <trkpt lat="44.27182" lon="2.68463">
        <ele>640.855957</ele>
        <time>2014-05-25T06:50:54Z</time>
      </trkpt>
      <trkpt lat="44.27182" lon="2.6848">
        <ele>639.4140625</ele>
        <time>2014-05-25T06:50:58Z</time>
      </trkpt>
      <trkpt lat="44.27183" lon="2.68503">
        <ele>638.4528809</ele>
        <time>2014-05-25T06:51:04Z</time>
      </trkpt>
      <trkpt lat="44.27184" lon="2.68516">
        <ele>637.4914551</ele>
        <time>2014-05-25T06:51:09Z</time>
      </trkpt>
      <trkpt lat="44.27186" lon="2.68521">
        <ele>638.4528809</ele>
        <time>2014-05-25T06:51:11Z</time>
      </trkpt>
      <trkpt lat="44.27183" lon="2.68527">
        <ele>637.4914551</ele>
        <time>2014-05-25T06:51:14Z</time>
      </trkpt>
      <trkpt lat="44.27186" lon="2.6854">
        <ele>637.972168</ele>
        <time>2014-05-25T06:51:21Z</time>
      </trkpt>
      <trkpt lat="44.27193" lon="2.68551">
        <ele>635.5686035</ele>
        <time>2014-05-25T06:51:25Z</time>
      </trkpt>
      <trkpt lat="44.27201" lon="2.68561">
        <ele>633.1652832</ele>
        <time>2014-05-25T06:51:30Z</time>
      </trkpt>
      <trkpt lat="44.2721" lon="2.68572">
        <ele>625.9555664</ele>
        <time>2014-05-25T06:51:35Z</time>
      </trkpt>
      <trkpt lat="44.27223" lon="2.68585">
        <ele>616.3422852</ele>
        <time>2014-05-25T06:51:41Z</time>
      </trkpt>
      <trkpt lat="44.27228" lon="2.68588">
        <ele>613.9389648</ele>
        <time>2014-05-25T06:51:43Z</time>
      </trkpt>
      <trkpt lat="44.27238" lon="2.68597">
        <ele>614.4196777</ele>
        <time>2014-05-25T06:51:48Z</time>
      </trkpt>
      <trkpt lat="44.27246" lon="2.68604">
        <ele>610.5744629</ele>
        <time>2014-05-25T06:51:52Z</time>
      </trkpt>
      <trkpt lat="44.27254" lon="2.6861">
        <ele>611.0551758</ele>
        <time>2014-05-25T06:51:58Z</time>
      </trkpt>
      <trkpt lat="44.27257" lon="2.6861">
        <ele>612.9777832</ele>
        <time>2014-05-25T06:52:00Z</time>
      </trkpt>
      <trkpt lat="44.27269" lon="2.68611">
        <ele>614.9003906</ele>
        <time>2014-05-25T06:52:07Z</time>
      </trkpt>
      <trkpt lat="44.27279" lon="2.68611">
        <ele>612.0166016</ele>
        <time>2014-05-25T06:52:12Z</time>
      </trkpt>
      <trkpt lat="44.27289" lon="2.68607">
        <ele>614.9003906</ele>
        <time>2014-05-25T06:52:17Z</time>
      </trkpt>
      <trkpt lat="44.2729" lon="2.68604">
        <ele>616.3422852</ele>
        <time>2014-05-25T06:52:18Z</time>
      </trkpt>
      <trkpt lat="44.27304" lon="2.68592">
        <ele>624.032959</ele>
        <time>2014-05-25T06:52:25Z</time>
      </trkpt>
      <trkpt lat="44.27312" lon="2.68587">
        <ele>626.9169922</ele>
        <time>2014-05-25T06:52:30Z</time>
      </trkpt>
      <trkpt lat="44.27319" lon="2.68586">
        <ele>626.9169922</ele>
        <time>2014-05-25T06:52:35Z</time>
      </trkpt>
      <trkpt lat="44.27325" lon="2.68586">
        <ele>626.9169922</ele>
        <time>2014-05-25T06:52:40Z</time>
      </trkpt>
      <trkpt lat="44.2733" lon="2.68583">
        <ele>627.8781738</ele>
        <time>2014-05-25T06:52:44Z</time>
      </trkpt>
      <trkpt lat="44.27339" lon="2.68583">
        <ele>626.9169922</ele>
        <time>2014-05-25T06:52:52Z</time>
      </trkpt>
      <trkpt lat="44.27345" lon="2.68579">
        <ele>630.762207</ele>
        <time>2014-05-25T06:52:57Z</time>
      </trkpt>
      <trkpt lat="44.2735" lon="2.68575">
        <ele>634.126709</ele>
        <time>2014-05-25T06:53:02Z</time>
      </trkpt>
      <trkpt lat="44.27356" lon="2.68574">
        <ele>631.2429199</ele>
        <time>2014-05-25T06:53:07Z</time>
      </trkpt>
      <trkpt lat="44.2736" lon="2.68575">
        <ele>628.3588867</ele>
        <time>2014-05-25T06:53:09Z</time>
      </trkpt>
      <trkpt lat="44.27362" lon="2.68579">
        <ele>629.3200684</ele>
        <time>2014-05-25T06:53:14Z</time>
      </trkpt>
      <trkpt lat="44.2736" lon="2.68585">
        <ele>628.8395996</ele>
        <time>2014-05-25T06:53:19Z</time>
      </trkpt>
      <trkpt lat="44.27356" lon="2.68589">
        <ele>630.762207</ele>
        <time>2014-05-25T06:53:23Z</time>
      </trkpt>
      <trkpt lat="44.27354" lon="2.68594">
        <ele>632.6848145</ele>
        <time>2014-05-25T06:53:27Z</time>
      </trkpt>
      <trkpt lat="44.27351" lon="2.68601">
        <ele>632.6848145</ele>
        <time>2014-05-25T06:53:31Z</time>
      </trkpt>
      <trkpt lat="44.27347" lon="2.68607">
        <ele>633.1652832</ele>
        <time>2014-05-25T06:53:36Z</time>
      </trkpt>
      <trkpt lat="44.2734" lon="2.68614">
        <ele>636.0495605</ele>
        <time>2014-05-25T06:53:42Z</time>
      </trkpt>
      <trkpt lat="44.27335" lon="2.68619">
        <ele>638.4528809</ele>
        <time>2014-05-25T06:53:46Z</time>
      </trkpt>
      <trkpt lat="44.27331" lon="2.68626">
        <ele>637.972168</ele>
        <time>2014-05-25T06:53:51Z</time>
      </trkpt>
      <trkpt lat="44.27324" lon="2.68635">
        <ele>638.4528809</ele>
        <time>2014-05-25T06:53:58Z</time>
      </trkpt>
      <trkpt lat="44.27315" lon="2.68643">
        <ele>642.7788086</ele>
        <time>2014-05-25T06:54:05Z</time>
      </trkpt>
      <trkpt lat="44.27306" lon="2.68649">
        <ele>643.7399902</ele>
        <time>2014-05-25T06:54:11Z</time>
      </trkpt>
      <trkpt lat="44.27302" lon="2.68652">
        <ele>647.5852051</ele>
        <time>2014-05-25T06:54:14Z</time>
      </trkpt>
      <trkpt lat="44.27298" lon="2.68664">
        <ele>650.4692383</ele>
        <time>2014-05-25T06:54:21Z</time>
      </trkpt>
      <trkpt lat="44.273" lon="2.68666">
        <ele>651.9111328</ele>
        <time>2014-05-25T06:54:25Z</time>
      </trkpt>
      <trkpt lat="44.27303" lon="2.68662">
        <ele>657.1984863</ele>
        <time>2014-05-25T06:54:29Z</time>
      </trkpt>
      <trkpt lat="44.27309" lon="2.68658">
        <ele>659.6018066</ele>
        <time>2014-05-25T06:54:35Z</time>
      </trkpt>
      <trkpt lat="44.27312" lon="2.68655">
        <ele>661.5244141</ele>
        <time>2014-05-25T06:54:39Z</time>
      </trkpt>
      <trkpt lat="44.27317" lon="2.68654">
        <ele>660.5629883</ele>
        <time>2014-05-25T06:54:42Z</time>
      </trkpt>
      <trkpt lat="44.27327" lon="2.68651">
        <ele>658.6403809</ele>
        <time>2014-05-25T06:54:49Z</time>
      </trkpt>
      <trkpt lat="44.27338" lon="2.68644">
        <ele>660.0822754</ele>
        <time>2014-05-25T06:54:55Z</time>
      </trkpt>
      <trkpt lat="44.2735" lon="2.68638">
        <ele>659.6018066</ele>
        <time>2014-05-25T06:55:01Z</time>
      </trkpt>
      <trkpt lat="44.27361" lon="2.68631">
        <ele>662.9663086</ele>
        <time>2014-05-25T06:55:07Z</time>
      </trkpt>
      <trkpt lat="44.27376" lon="2.68623">
        <ele>665.3696289</ele>
        <time>2014-05-25T06:55:15Z</time>
      </trkpt>
      <trkpt lat="44.27385" lon="2.68618">
        <ele>664.4082031</ele>
        <time>2014-05-25T06:55:20Z</time>
      </trkpt>
      <trkpt lat="44.27399" lon="2.68612">
        <ele>662.4855957</ele>
        <time>2014-05-25T06:55:27Z</time>
      </trkpt>
      <trkpt lat="44.2741" lon="2.68607">
        <ele>660.0822754</ele>
        <time>2014-05-25T06:55:32Z</time>
      </trkpt>
      <trkpt lat="44.27421" lon="2.686">
        <ele>658.6403809</ele>
        <time>2014-05-25T06:55:39Z</time>
      </trkpt>
      <trkpt lat="44.27428" lon="2.68591">
        <ele>661.5244141</ele>
        <time>2014-05-25T06:55:43Z</time>
      </trkpt>
      <trkpt lat="44.27438" lon="2.68582">
        <ele>661.5244141</ele>
        <time>2014-05-25T06:55:49Z</time>
      </trkpt>
      <trkpt lat="44.27444" lon="2.68577">
        <ele>659.6018066</ele>
        <time>2014-05-25T06:55:53Z</time>
      </trkpt>
      <trkpt lat="44.27462" lon="2.68572">
        <ele>656.7177734</ele>
        <time>2014-05-25T06:56:01Z</time>
      </trkpt>
      <trkpt lat="44.2747" lon="2.68568">
        <ele>661.0437012</ele>
        <time>2014-05-25T06:56:07Z</time>
      </trkpt>
      <trkpt lat="44.27478" lon="2.68563">
        <ele>664.888916</ele>
        <time>2014-05-25T06:56:13Z</time>
      </trkpt>
      <trkpt lat="44.27479" lon="2.68564">
        <ele>665.3696289</ele>
        <time>2014-05-25T06:56:14Z</time>
      </trkpt>
      <trkpt lat="44.27484" lon="2.68578">
        <ele>667.2922363</ele>
        <time>2014-05-25T06:56:20Z</time>
      </trkpt>
      <trkpt lat="44.27483" lon="2.68589">
        <ele>668.2536621</ele>
        <time>2014-05-25T06:56:24Z</time>
      </trkpt>
      <trkpt lat="44.27489" lon="2.68606">
        <ele>668.734375</ele>
        <time>2014-05-25T06:56:31Z</time>
      </trkpt>
      <trkpt lat="44.27489" lon="2.68622">
        <ele>669.2150879</ele>
        <time>2014-05-25T06:56:37Z</time>
      </trkpt>
      <trkpt lat="44.27487" lon="2.6863">
        <ele>672.5795898</ele>
        <time>2014-05-25T06:56:40Z</time>
      </trkpt>
      <trkpt lat="44.27488" lon="2.68635">
        <ele>674.9829102</ele>
        <time>2014-05-25T06:56:42Z</time>
      </trkpt>
      <trkpt lat="44.27481" lon="2.68644">
        <ele>674.9829102</ele>
        <time>2014-05-25T06:56:48Z</time>
      </trkpt>
      <trkpt lat="44.27474" lon="2.68654">
        <ele>676.4248047</ele>
        <time>2014-05-25T06:56:53Z</time>
      </trkpt>
      <trkpt lat="44.27466" lon="2.68662">
        <ele>679.7893066</ele>
        <time>2014-05-25T06:56:58Z</time>
      </trkpt>
      <trkpt lat="44.27461" lon="2.68665">
        <ele>680.7507324</ele>
        <time>2014-05-25T06:57:02Z</time>
      </trkpt>
      <trkpt lat="44.27451" lon="2.68671">
        <ele>684.1154785</ele>
        <time>2014-05-25T06:57:07Z</time>
      </trkpt>
      <trkpt lat="44.27439" lon="2.68673">
        <ele>683.1538086</ele>
        <time>2014-05-25T06:57:13Z</time>
      </trkpt>
      <trkpt lat="44.27432" lon="2.68677">
        <ele>682.6733398</ele>
        <time>2014-05-25T06:57:18Z</time>
      </trkpt>
      <trkpt lat="44.27425" lon="2.68684">
        <ele>684.1154785</ele>
        <time>2014-05-25T06:57:21Z</time>
      </trkpt>
      <trkpt lat="44.27412" lon="2.68694">
        <ele>683.1538086</ele>
        <time>2014-05-25T06:57:26Z</time>
      </trkpt>
      <trkpt lat="44.27398" lon="2.68701">
        <ele>684.5961914</ele>
        <time>2014-05-25T06:57:32Z</time>
      </trkpt>
      <trkpt lat="44.27389" lon="2.68704">
        <ele>684.1154785</ele>
        <time>2014-05-25T06:57:37Z</time>
      </trkpt>
      <trkpt lat="44.27381" lon="2.6871">
        <ele>685.0769043</ele>
        <time>2014-05-25T06:57:42Z</time>
      </trkpt>
      <trkpt lat="44.2737" lon="2.68718">
        <ele>686.9992676</ele>
        <time>2014-05-25T06:57:47Z</time>
      </trkpt>
      <trkpt lat="44.27365" lon="2.68723">
        <ele>688.4414063</ele>
        <time>2014-05-25T06:57:50Z</time>
      </trkpt>
      <trkpt lat="44.27359" lon="2.68725">
        <ele>688.4414063</ele>
        <time>2014-05-25T06:57:55Z</time>
      </trkpt>
      <trkpt lat="44.27355" lon="2.68728">
        <ele>687.9606934</ele>
        <time>2014-05-25T06:57:57Z</time>
      </trkpt>
      <trkpt lat="44.2734" lon="2.68739">
        <ele>689.4025879</ele>
        <time>2014-05-25T06:58:03Z</time>
      </trkpt>
      <trkpt lat="44.27328" lon="2.68746">
        <ele>691.8059082</ele>
        <time>2014-05-25T06:58:08Z</time>
      </trkpt>
      <trkpt lat="44.2731" lon="2.68751">
        <ele>692.2866211</ele>
        <time>2014-05-25T06:58:15Z</time>
      </trkpt>
      <trkpt lat="44.27297" lon="2.68756">
        <ele>693.2478027</ele>
        <time>2014-05-25T06:58:21Z</time>
      </trkpt>
      <trkpt lat="44.2729" lon="2.68762">
        <ele>694.2092285</ele>
        <time>2014-05-25T06:58:25Z</time>
      </trkpt>
      <trkpt lat="44.27288" lon="2.68769">
        <ele>695.651123</ele>
        <time>2014-05-25T06:58:31Z</time>
      </trkpt>
      <trkpt lat="44.27285" lon="2.68767">
        <ele>696.6125488</ele>
        <time>2014-05-25T06:58:37Z</time>
      </trkpt>
      <trkpt lat="44.27283" lon="2.68767">
        <ele>697.0930176</ele>
        <time>2014-05-25T06:58:38Z</time>
      </trkpt>
      <trkpt lat="44.27274" lon="2.68768">
        <ele>697.0930176</ele>
        <time>2014-05-25T06:58:44Z</time>
      </trkpt>
      <trkpt lat="44.27265" lon="2.68772">
        <ele>697.0930176</ele>
        <time>2014-05-25T06:58:49Z</time>
      </trkpt>
      <trkpt lat="44.27255" lon="2.6878">
        <ele>698.0544434</ele>
        <time>2014-05-25T06:58:55Z</time>
      </trkpt>
      <trkpt lat="44.27246" lon="2.68784">
        <ele>697.5737305</ele>
        <time>2014-05-25T06:59:00Z</time>
      </trkpt>
      <trkpt lat="44.27245" lon="2.68786">
        <ele>697.5737305</ele>
        <time>2014-05-25T06:59:01Z</time>
      </trkpt>
      <trkpt lat="44.27236" lon="2.68786">
        <ele>697.5737305</ele>
        <time>2014-05-25T06:59:06Z</time>
      </trkpt>
      <trkpt lat="44.27223" lon="2.68787">
        <ele>698.5349121</ele>
        <time>2014-05-25T06:59:12Z</time>
      </trkpt>
      <trkpt lat="44.27217" lon="2.68782">
        <ele>699.9770508</ele>
        <time>2014-05-25T06:59:16Z</time>
      </trkpt>
      <trkpt lat="44.27208" lon="2.68778">
        <ele>701.8999023</ele>
        <time>2014-05-25T06:59:22Z</time>
      </trkpt>
      <trkpt lat="44.27203" lon="2.68778">
        <ele>704.7836914</ele>
        <time>2014-05-25T06:59:28Z</time>
      </trkpt>
      <trkpt lat="44.27199" lon="2.68778">
        <ele>706.2255859</ele>
        <time>2014-05-25T06:59:31Z</time>
      </trkpt>
      <trkpt lat="44.27196" lon="2.68786">
        <ele>708.1484375</ele>
        <time>2014-05-25T06:59:37Z</time>
      </trkpt>
      <trkpt lat="44.27195" lon="2.6879">
        <ele>709.1096191</ele>
        <time>2014-05-25T06:59:39Z</time>
      </trkpt>
      <trkpt lat="44.27193" lon="2.68798">
        <ele>711.5129395</ele>
        <time>2014-05-25T06:59:45Z</time>
      </trkpt>
      <trkpt lat="44.27191" lon="2.68802">
        <ele>712.4741211</ele>
        <time>2014-05-25T06:59:47Z</time>
      </trkpt>
      <trkpt lat="44.27186" lon="2.6881">
        <ele>711.5129395</ele>
        <time>2014-05-25T06:59:53Z</time>
      </trkpt>
      <trkpt lat="44.27185" lon="2.68812">
        <ele>711.9936523</ele>
        <time>2014-05-25T06:59:54Z</time>
      </trkpt>
      <trkpt lat="44.27184" lon="2.68817">
        <ele>712.954834</ele>
        <time>2014-05-25T06:59:58Z</time>
      </trkpt>
      <trkpt lat="44.27177" lon="2.68826">
        <ele>716.3195801</ele>
        <time>2014-05-25T07:00:05Z</time>
      </trkpt>
      <trkpt lat="44.27174" lon="2.68829">
        <ele>715.8388672</ele>
        <time>2014-05-25T07:00:07Z</time>
      </trkpt>
      <trkpt lat="44.27169" lon="2.68839">
        <ele>715.3581543</ele>
        <time>2014-05-25T07:00:13Z</time>
      </trkpt>
      <trkpt lat="44.27167" lon="2.68847">
        <ele>715.8388672</ele>
        <time>2014-05-25T07:00:18Z</time>
      </trkpt>
      <trkpt lat="44.27162" lon="2.68858">
        <ele>718.7229004</ele>
        <time>2014-05-25T07:00:24Z</time>
      </trkpt>
      <trkpt lat="44.2716" lon="2.68863">
        <ele>719.6843262</ele>
        <time>2014-05-25T07:00:27Z</time>
      </trkpt>
      <trkpt lat="44.27159" lon="2.68871">
        <ele>722.0874023</ele>
        <time>2014-05-25T07:00:33Z</time>
      </trkpt>
      <trkpt lat="44.27156" lon="2.6888">
        <ele>723.0488281</ele>
        <time>2014-05-25T07:00:40Z</time>
      </trkpt>
      <trkpt lat="44.27155" lon="2.68882">
        <ele>723.529541</ele>
        <time>2014-05-25T07:00:41Z</time>
      </trkpt>
      <trkpt lat="44.27149" lon="2.68893">
        <ele>721.6066895</ele>
        <time>2014-05-25T07:00:48Z</time>
      </trkpt>
      <trkpt lat="44.27147" lon="2.68897">
        <ele>723.0488281</ele>
        <time>2014-05-25T07:00:50Z</time>
      </trkpt>
      <trkpt lat="44.2714" lon="2.68913">
        <ele>731.7004395</ele>
        <time>2014-05-25T07:00:58Z</time>
      </trkpt>
      <trkpt lat="44.27134" lon="2.68922">
        <ele>732.1813965</ele>
        <time>2014-05-25T07:01:03Z</time>
      </trkpt>
      <trkpt lat="44.27132" lon="2.6892">
        <ele>732.1813965</ele>
        <time>2014-05-25T07:01:06Z</time>
      </trkpt>
      <trkpt lat="44.2713" lon="2.68917">
        <ele>732.1813965</ele>
        <time>2014-05-25T07:01:08Z</time>
      </trkpt>
      <trkpt lat="44.27127" lon="2.68907">
        <ele>731.2199707</ele>
        <time>2014-05-25T07:01:14Z</time>
      </trkpt>
      <trkpt lat="44.27125" lon="2.68895">
        <ele>728.8166504</ele>
        <time>2014-05-25T07:01:21Z</time>
      </trkpt>
      <trkpt lat="44.2712" lon="2.68882">
        <ele>725.4519043</ele>
        <time>2014-05-25T07:01:29Z</time>
      </trkpt>
      <trkpt lat="44.27116" lon="2.68865">
        <ele>728.3359375</ele>
        <time>2014-05-25T07:01:38Z</time>
      </trkpt>
      <trkpt lat="44.27116" lon="2.68854">
        <ele>728.8166504</ele>
        <time>2014-05-25T07:01:44Z</time>
      </trkpt>
      <trkpt lat="44.27115" lon="2.68842">
        <ele>729.2971191</ele>
        <time>2014-05-25T07:01:51Z</time>
      </trkpt>
      <trkpt lat="44.27112" lon="2.68837">
        <ele>731.7004395</ele>
        <time>2014-05-25T07:01:54Z</time>
      </trkpt>
      <trkpt lat="44.27106" lon="2.68827">
        <ele>732.6621094</ele>
        <time>2014-05-25T07:02:01Z</time>
      </trkpt>
      <trkpt lat="44.27098" lon="2.68817">
        <ele>738.4299316</ele>
        <time>2014-05-25T07:02:08Z</time>
      </trkpt>
      <trkpt lat="44.27093" lon="2.68808">
        <ele>741.7944336</ele>
        <time>2014-05-25T07:02:14Z</time>
      </trkpt>
      <trkpt lat="44.27086" lon="2.68801">
        <ele>743.2363281</ele>
        <time>2014-05-25T07:02:19Z</time>
      </trkpt>
      <trkpt lat="44.27082" lon="2.68791">
        <ele>744.1977539</ele>
        <time>2014-05-25T07:02:25Z</time>
      </trkpt>
      <trkpt lat="44.27076" lon="2.68781">
        <ele>745.1589355</ele>
        <time>2014-05-25T07:02:31Z</time>
      </trkpt>
      <trkpt lat="44.27068" lon="2.68767">
        <ele>745.6396484</ele>
        <time>2014-05-25T07:02:38Z</time>
      </trkpt>
      <trkpt lat="44.27061" lon="2.68755">
        <ele>744.6782227</ele>
        <time>2014-05-25T07:02:43Z</time>
      </trkpt>
      <trkpt lat="44.27055" lon="2.68745">
        <ele>745.1589355</ele>
        <time>2014-05-25T07:02:47Z</time>
      </trkpt>
      <trkpt lat="44.27041" lon="2.68734">
        <ele>746.6010742</ele>
        <time>2014-05-25T07:02:55Z</time>
      </trkpt>
      <trkpt lat="44.27029" lon="2.68733">
        <ele>747.081543</ele>
        <time>2014-05-25T07:03:01Z</time>
      </trkpt>
      <trkpt lat="44.27018" lon="2.68734">
        <ele>747.5622559</ele>
        <time>2014-05-25T07:03:06Z</time>
      </trkpt>
      <trkpt lat="44.27007" lon="2.68735">
        <ele>749.0043945</ele>
        <time>2014-05-25T07:03:12Z</time>
      </trkpt>
      <trkpt lat="44.26994" lon="2.68734">
        <ele>750.927002</ele>
        <time>2014-05-25T07:03:18Z</time>
      </trkpt>
      <trkpt lat="44.2698" lon="2.68734">
        <ele>752.8496094</ele>
        <time>2014-05-25T07:03:25Z</time>
      </trkpt>
      <trkpt lat="44.26966" lon="2.68734">
        <ele>754.291748</ele>
        <time>2014-05-25T07:03:31Z</time>
      </trkpt>
      <trkpt lat="44.26962" lon="2.68734">
        <ele>755.2529297</ele>
        <time>2014-05-25T07:03:35Z</time>
      </trkpt>
      <trkpt lat="44.26961" lon="2.68735">
        <ele>755.7336426</ele>
        <time>2014-05-25T07:03:36Z</time>
      </trkpt>
      <trkpt lat="44.2695" lon="2.68736">
        <ele>758.1369629</ele>
        <time>2014-05-25T07:03:44Z</time>
      </trkpt>
      <trkpt lat="44.26942" lon="2.68735">
        <ele>761.5014648</ele>
        <time>2014-05-25T07:03:51Z</time>
      </trkpt>
      <trkpt lat="44.26934" lon="2.68736">
        <ele>764.385498</ele>
        <time>2014-05-25T07:03:58Z</time>
      </trkpt>
      <trkpt lat="44.26927" lon="2.68736">
        <ele>765.8276367</ele>
        <time>2014-05-25T07:04:05Z</time>
      </trkpt>
      <trkpt lat="44.26922" lon="2.68737">
        <ele>766.3081055</ele>
        <time>2014-05-25T07:04:09Z</time>
      </trkpt>
      <trkpt lat="44.26915" lon="2.68738">
        <ele>768.2307129</ele>
        <time>2014-05-25T07:04:14Z</time>
      </trkpt>
      <trkpt lat="44.26908" lon="2.68733">
        <ele>770.1533203</ele>
        <time>2014-05-25T07:04:20Z</time>
      </trkpt>
      <trkpt lat="44.26898" lon="2.68724">
        <ele>771.5952148</ele>
        <time>2014-05-25T07:04:25Z</time>
      </trkpt>
      <trkpt lat="44.26889" lon="2.68715">
        <ele>772.0759277</ele>
        <time>2014-05-25T07:04:30Z</time>
      </trkpt>
      <trkpt lat="44.2688" lon="2.68705">
        <ele>773.0373535</ele>
        <time>2014-05-25T07:04:35Z</time>
      </trkpt>
      <trkpt lat="44.26868" lon="2.68693">
        <ele>773.9985352</ele>
        <time>2014-05-25T07:04:41Z</time>
      </trkpt>
      <trkpt lat="44.26858" lon="2.6868">
        <ele>774.9599609</ele>
        <time>2014-05-25T07:04:47Z</time>
      </trkpt>
      <trkpt lat="44.26848" lon="2.68667">
        <ele>776.4018555</ele>
        <time>2014-05-25T07:04:53Z</time>
      </trkpt>
      <trkpt lat="44.26837" lon="2.68648">
        <ele>776.4018555</ele>
        <time>2014-05-25T07:05:00Z</time>
      </trkpt>
      <trkpt lat="44.2683" lon="2.68638">
        <ele>776.4018555</ele>
        <time>2014-05-25T07:05:04Z</time>
      </trkpt>
      <trkpt lat="44.26823" lon="2.68629">
        <ele>776.4018555</ele>
        <time>2014-05-25T07:05:08Z</time>
      </trkpt>
      <trkpt lat="44.26814" lon="2.68619">
        <ele>775.4404297</ele>
        <time>2014-05-25T07:05:13Z</time>
      </trkpt>
      <trkpt lat="44.26804" lon="2.68606">
        <ele>775.4404297</ele>
        <time>2014-05-25T07:05:19Z</time>
      </trkpt>
      <trkpt lat="44.26792" lon="2.68599">
        <ele>776.4018555</ele>
        <time>2014-05-25T07:05:24Z</time>
      </trkpt>
      <trkpt lat="44.26779" lon="2.68588">
        <ele>775.4404297</ele>
        <time>2014-05-25T07:05:30Z</time>
      </trkpt>
      <trkpt lat="44.26765" lon="2.68575">
        <ele>774.479248</ele>
        <time>2014-05-25T07:05:36Z</time>
      </trkpt>
      <trkpt lat="44.26752" lon="2.68563">
        <ele>773.0373535</ele>
        <time>2014-05-25T07:05:42Z</time>
      </trkpt>
      <trkpt lat="44.26743" lon="2.68553">
        <ele>772.0759277</ele>
        <time>2014-05-25T07:05:46Z</time>
      </trkpt>
      <trkpt lat="44.26733" lon="2.68543">
        <ele>771.1147461</ele>
        <time>2014-05-25T07:05:51Z</time>
      </trkpt>
      <trkpt lat="44.26715" lon="2.68537">
        <ele>771.5952148</ele>
        <time>2014-05-25T07:05:59Z</time>
      </trkpt>
      <trkpt lat="44.26711" lon="2.68539">
        <ele>772.0759277</ele>
        <time>2014-05-25T07:06:01Z</time>
      </trkpt>
      <trkpt lat="44.26706" lon="2.68545">
        <ele>773.5180664</ele>
        <time>2014-05-25T07:06:06Z</time>
      </trkpt>
      <trkpt lat="44.26702" lon="2.68554">
        <ele>774.479248</ele>
        <time>2014-05-25T07:06:12Z</time>
      </trkpt>
      <trkpt lat="44.26698" lon="2.68564">
        <ele>777.84375</ele>
        <time>2014-05-25T07:06:20Z</time>
      </trkpt>
      <trkpt lat="44.26695" lon="2.68575">
        <ele>779.2856445</ele>
        <time>2014-05-25T07:06:27Z</time>
      </trkpt>
      <trkpt lat="44.26692" lon="2.68583">
        <ele>780.7280273</ele>
        <time>2014-05-25T07:06:32Z</time>
      </trkpt>
      <trkpt lat="44.26691" lon="2.68592">
        <ele>782.6506348</ele>
        <time>2014-05-25T07:06:37Z</time>
      </trkpt>
      <trkpt lat="44.26689" lon="2.6861">
        <ele>785.5344238</ele>
        <time>2014-05-25T07:06:46Z</time>
      </trkpt>
      <trkpt lat="44.26687" lon="2.68623">
        <ele>786.9763184</ele>
        <time>2014-05-25T07:06:53Z</time>
      </trkpt>
      <trkpt lat="44.26684" lon="2.68635">
        <ele>788.8991699</ele>
        <time>2014-05-25T07:07:00Z</time>
      </trkpt>
      <trkpt lat="44.26682" lon="2.68648">
        <ele>789.3796387</ele>
        <time>2014-05-25T07:07:07Z</time>
      </trkpt>
      <trkpt lat="44.26676" lon="2.68662">
        <ele>791.782959</ele>
        <time>2014-05-25T07:07:15Z</time>
      </trkpt>
      <trkpt lat="44.2667" lon="2.68677">
        <ele>792.2636719</ele>
        <time>2014-05-25T07:07:23Z</time>
      </trkpt>
      <trkpt lat="44.26662" lon="2.68688">
        <ele>793.2248535</ele>
        <time>2014-05-25T07:07:29Z</time>
      </trkpt>
      <trkpt lat="44.26656" lon="2.68696">
        <ele>793.7055664</ele>
        <time>2014-05-25T07:07:33Z</time>
      </trkpt>
      <trkpt lat="44.26646" lon="2.68714">
        <ele>795.6281738</ele>
        <time>2014-05-25T07:07:40Z</time>
      </trkpt>
      <trkpt lat="44.26638" lon="2.68731">
        <ele>796.1091309</ele>
        <time>2014-05-25T07:07:46Z</time>
      </trkpt>
      <trkpt lat="44.26633" lon="2.68743">
        <ele>797.0703125</ele>
        <time>2014-05-25T07:07:51Z</time>
      </trkpt>
      <trkpt lat="44.26632" lon="2.68752">
        <ele>798.0317383</ele>
        <time>2014-05-25T07:07:55Z</time>
      </trkpt>
      <trkpt lat="44.26628" lon="2.68767">
        <ele>798.0317383</ele>
        <time>2014-05-25T07:08:00Z</time>
      </trkpt>
      <trkpt lat="44.26628" lon="2.68777">
        <ele>797.5510254</ele>
        <time>2014-05-25T07:08:05Z</time>
      </trkpt>
      <trkpt lat="44.26627" lon="2.68789">
        <ele>798.9929199</ele>
        <time>2014-05-25T07:08:11Z</time>
      </trkpt>
      <trkpt lat="44.26625" lon="2.68803">
        <ele>798.9929199</ele>
        <time>2014-05-25T07:08:17Z</time>
      </trkpt>
      <trkpt lat="44.26621" lon="2.68818">
        <ele>799.4736328</ele>
        <time>2014-05-25T07:08:22Z</time>
      </trkpt>
      <trkpt lat="44.2662" lon="2.68821">
        <ele>799.4736328</ele>
        <time>2014-05-25T07:08:24Z</time>
      </trkpt>
      <trkpt lat="44.26614" lon="2.68834">
        <ele>801.8769531</ele>
        <time>2014-05-25T07:08:30Z</time>
      </trkpt>
      <trkpt lat="44.26608" lon="2.68846">
        <ele>804.2802734</ele>
        <time>2014-05-25T07:08:35Z</time>
      </trkpt>
      <trkpt lat="44.266" lon="2.68858">
        <ele>805.722168</ele>
        <time>2014-05-25T07:08:40Z</time>
      </trkpt>
      <trkpt lat="44.26594" lon="2.68868">
        <ele>807.1640625</ele>
        <time>2014-05-25T07:08:45Z</time>
      </trkpt>
      <trkpt lat="44.26584" lon="2.68874">
        <ele>807.6447754</ele>
        <time>2014-05-25T07:08:50Z</time>
      </trkpt>
      <trkpt lat="44.26569" lon="2.68884">
        <ele>808.1254883</ele>
        <time>2014-05-25T07:08:57Z</time>
      </trkpt>
      <trkpt lat="44.26556" lon="2.68893">
        <ele>808.1254883</ele>
        <time>2014-05-25T07:09:03Z</time>
      </trkpt>
      <trkpt lat="44.26544" lon="2.68902">
        <ele>809.0866699</ele>
        <time>2014-05-25T07:09:09Z</time>
      </trkpt>
      <trkpt lat="44.26532" lon="2.68909">
        <ele>809.5673828</ele>
        <time>2014-05-25T07:09:15Z</time>
      </trkpt>
      <trkpt lat="44.26521" lon="2.68917">
        <ele>809.5673828</ele>
        <time>2014-05-25T07:09:20Z</time>
      </trkpt>
      <trkpt lat="44.26513" lon="2.68924">
        <ele>809.5673828</ele>
        <time>2014-05-25T07:09:24Z</time>
      </trkpt>
      <trkpt lat="44.26506" lon="2.6893">
        <ele>809.0866699</ele>
        <time>2014-05-25T07:09:28Z</time>
      </trkpt>
      <trkpt lat="44.26499" lon="2.68939">
        <ele>811.0092773</ele>
        <time>2014-05-25T07:09:32Z</time>
      </trkpt>
      <trkpt lat="44.26489" lon="2.68953">
        <ele>811.9707031</ele>
        <time>2014-05-25T07:09:38Z</time>
      </trkpt>
      <trkpt lat="44.26481" lon="2.68967">
        <ele>814.8547363</ele>
        <time>2014-05-25T07:09:43Z</time>
      </trkpt>
      <trkpt lat="44.26474" lon="2.68979">
        <ele>816.7773438</ele>
        <time>2014-05-25T07:09:47Z</time>
      </trkpt>
      <trkpt lat="44.26468" lon="2.68988">
        <ele>817.7385254</ele>
        <time>2014-05-25T07:09:51Z</time>
      </trkpt>
      <trkpt lat="44.26458" lon="2.69003">
        <ele>818.2192383</ele>
        <time>2014-05-25T07:09:57Z</time>
      </trkpt>
      <trkpt lat="44.2645" lon="2.69012">
        <ele>817.7385254</ele>
        <time>2014-05-25T07:10:02Z</time>
      </trkpt>
      <trkpt lat="44.26441" lon="2.69021">
        <ele>816.7773438</ele>
        <time>2014-05-25T07:10:07Z</time>
      </trkpt>
      <trkpt lat="44.26431" lon="2.69032">
        <ele>817.2580566</ele>
        <time>2014-05-25T07:10:12Z</time>
      </trkpt>
      <trkpt lat="44.26421" lon="2.69037">
        <ele>816.2966309</ele>
        <time>2014-05-25T07:10:17Z</time>
      </trkpt>
      <trkpt lat="44.26409" lon="2.69044">
        <ele>815.8161621</ele>
        <time>2014-05-25T07:10:23Z</time>
      </trkpt>
      <trkpt lat="44.26399" lon="2.69051">
        <ele>815.8161621</ele>
        <time>2014-05-25T07:10:28Z</time>
      </trkpt>
      <trkpt lat="44.26387" lon="2.69058">
        <ele>816.7773438</ele>
        <time>2014-05-25T07:10:34Z</time>
      </trkpt>
      <trkpt lat="44.26386" lon="2.69058">
        <ele>816.7773438</ele>
        <time>2014-05-25T07:10:41Z</time>
      </trkpt>
      <trkpt lat="44.26376" lon="2.6906">
        <ele>816.7773438</ele>
        <time>2014-05-25T07:10:47Z</time>
      </trkpt>
      <trkpt lat="44.26368" lon="2.69063">
        <ele>817.2580566</ele>
        <time>2014-05-25T07:10:51Z</time>
      </trkpt>
      <trkpt lat="44.26364" lon="2.69065">
        <ele>817.2580566</ele>
        <time>2014-05-25T07:10:53Z</time>
      </trkpt>
      <trkpt lat="44.26353" lon="2.6907">
        <ele>818.6999512</ele>
        <time>2014-05-25T07:10:58Z</time>
      </trkpt>
      <trkpt lat="44.26344" lon="2.69072">
        <ele>817.7385254</ele>
        <time>2014-05-25T07:11:02Z</time>
      </trkpt>
      <trkpt lat="44.26333" lon="2.69076">
        <ele>817.7385254</ele>
        <time>2014-05-25T07:11:06Z</time>
      </trkpt>
      <trkpt lat="44.26321" lon="2.6908">
        <ele>817.7385254</ele>
        <time>2014-05-25T07:11:11Z</time>
      </trkpt>
      <trkpt lat="44.26307" lon="2.69084">
        <ele>816.2966309</ele>
        <time>2014-05-25T07:11:16Z</time>
      </trkpt>
      <trkpt lat="44.26294" lon="2.6909">
        <ele>817.2580566</ele>
        <time>2014-05-25T07:11:21Z</time>
      </trkpt>
      <trkpt lat="44.26282" lon="2.69092">
        <ele>816.2966309</ele>
        <time>2014-05-25T07:11:26Z</time>
      </trkpt>
      <trkpt lat="44.26271" lon="2.69095">
        <ele>815.8161621</ele>
        <time>2014-05-25T07:11:31Z</time>
      </trkpt>
      <trkpt lat="44.26258" lon="2.69105">
        <ele>816.7773438</ele>
        <time>2014-05-25T07:11:37Z</time>
      </trkpt>
      <trkpt lat="44.26242" lon="2.6912">
        <ele>817.7385254</ele>
        <time>2014-05-25T07:11:43Z</time>
      </trkpt>
      <trkpt lat="44.26228" lon="2.6913">
        <ele>819.661377</ele>
        <time>2014-05-25T07:11:49Z</time>
      </trkpt>
      <trkpt lat="44.26219" lon="2.69138">
        <ele>819.661377</ele>
        <time>2014-05-25T07:11:54Z</time>
      </trkpt>
      <trkpt lat="44.26201" lon="2.69152">
        <ele>820.1418457</ele>
        <time>2014-05-25T07:12:02Z</time>
      </trkpt>
      <trkpt lat="44.26189" lon="2.6916">
        <ele>819.661377</ele>
        <time>2014-05-25T07:12:07Z</time>
      </trkpt>
      <trkpt lat="44.26178" lon="2.69169">
        <ele>821.1032715</ele>
        <time>2014-05-25T07:12:12Z</time>
      </trkpt>
      <trkpt lat="44.26173" lon="2.69173">
        <ele>821.5837402</ele>
        <time>2014-05-25T07:12:15Z</time>
      </trkpt>
      <trkpt lat="44.26158" lon="2.69176">
        <ele>818.6999512</ele>
        <time>2014-05-25T07:12:21Z</time>
      </trkpt>
      <trkpt lat="44.26141" lon="2.69178">
        <ele>817.2580566</ele>
        <time>2014-05-25T07:12:27Z</time>
      </trkpt>
      <trkpt lat="44.26131" lon="2.69184">
        <ele>818.6999512</ele>
        <time>2014-05-25T07:12:33Z</time>
      </trkpt>
      <trkpt lat="44.26118" lon="2.69194">
        <ele>822.0644531</ele>
        <time>2014-05-25T07:12:39Z</time>
      </trkpt>
      <trkpt lat="44.26109" lon="2.69199">
        <ele>823.0258789</ele>
        <time>2014-05-25T07:12:43Z</time>
      </trkpt>
      <trkpt lat="44.26097" lon="2.69211">
        <ele>822.545166</ele>
        <time>2014-05-25T07:12:49Z</time>
      </trkpt>
      <trkpt lat="44.26096" lon="2.69215">
        <ele>823.0258789</ele>
        <time>2014-05-25T07:12:50Z</time>
      </trkpt>
      <trkpt lat="44.261" lon="2.69236">
        <ele>822.545166</ele>
        <time>2014-05-25T07:12:56Z</time>
      </trkpt>
      <trkpt lat="44.26111" lon="2.69256">
        <ele>820.6225586</ele>
        <time>2014-05-25T07:13:03Z</time>
      </trkpt>
      <trkpt lat="44.26122" lon="2.69269">
        <ele>818.6999512</ele>
        <time>2014-05-25T07:13:09Z</time>
      </trkpt>
      <trkpt lat="44.26137" lon="2.6928">
        <ele>817.7385254</ele>
        <time>2014-05-25T07:13:15Z</time>
      </trkpt>
      <trkpt lat="44.26147" lon="2.69288">
        <ele>816.7773438</ele>
        <time>2014-05-25T07:13:20Z</time>
      </trkpt>
      <trkpt lat="44.26147" lon="2.69287">
        <ele>818.2192383</ele>
        <time>2014-05-25T07:13:28Z</time>
      </trkpt>
      <trkpt lat="44.26151" lon="2.6929">
        <ele>819.1806641</ele>
        <time>2014-05-25T07:13:34Z</time>
      </trkpt>
      <trkpt lat="44.26154" lon="2.69294">
        <ele>819.661377</ele>
        <time>2014-05-25T07:13:39Z</time>
      </trkpt>
      <trkpt lat="44.26162" lon="2.69304">
        <ele>817.7385254</ele>
        <time>2014-05-25T07:13:48Z</time>
      </trkpt>
      <trkpt lat="44.26163" lon="2.69306">
        <ele>816.7773438</ele>
        <time>2014-05-25T07:13:57Z</time>
      </trkpt>
      <trkpt lat="44.26164" lon="2.69307">
        <ele>815.3354492</ele>
        <time>2014-05-25T07:14:09Z</time>
      </trkpt>
      <trkpt lat="44.26167" lon="2.69311">
        <ele>813.4128418</ele>
        <time>2014-05-25T07:14:18Z</time>
      </trkpt>
      <trkpt lat="44.26169" lon="2.69314">
        <ele>812.9321289</ele>
        <time>2014-05-25T07:14:24Z</time>
      </trkpt>
      <trkpt lat="44.26172" lon="2.69316">
        <ele>812.9321289</ele>
        <time>2014-05-25T07:14:27Z</time>
      </trkpt>
      <trkpt lat="44.26182" lon="2.69329">
        <ele>811.0092773</ele>
        <time>2014-05-25T07:14:33Z</time>
      </trkpt>
      <trkpt lat="44.26195" lon="2.69343">
        <ele>810.5285645</ele>
        <time>2014-05-25T07:14:39Z</time>
      </trkpt>
      <trkpt lat="44.26207" lon="2.69357">
        <ele>809.0866699</ele>
        <time>2014-05-25T07:14:44Z</time>
      </trkpt>
      <trkpt lat="44.26224" lon="2.6937">
        <ele>807.1640625</ele>
        <time>2014-05-25T07:14:50Z</time>
      </trkpt>
      <trkpt lat="44.26234" lon="2.6938">
        <ele>805.722168</ele>
        <time>2014-05-25T07:14:54Z</time>
      </trkpt>
      <trkpt lat="44.26244" lon="2.69392">
        <ele>802.8381348</ele>
        <time>2014-05-25T07:14:59Z</time>
      </trkpt>
      <trkpt lat="44.26258" lon="2.69411">
        <ele>799.4736328</ele>
        <time>2014-05-25T07:15:05Z</time>
      </trkpt>
      <trkpt lat="44.26262" lon="2.69425">
        <ele>797.5510254</ele>
        <time>2014-05-25T07:15:09Z</time>
      </trkpt>
      <trkpt lat="44.26266" lon="2.69445">
        <ele>794.1862793</ele>
        <time>2014-05-25T07:15:14Z</time>
      </trkpt>
      <trkpt lat="44.26266" lon="2.69449">
        <ele>793.7055664</ele>
        <time>2014-05-25T07:15:15Z</time>
      </trkpt>
      <trkpt lat="44.2627" lon="2.69457">
        <ele>792.7443848</ele>
        <time>2014-05-25T07:15:18Z</time>
      </trkpt>
      <trkpt lat="44.26282" lon="2.69477">
        <ele>790.8215332</ele>
        <time>2014-05-25T07:15:24Z</time>
      </trkpt>
      <trkpt lat="44.26293" lon="2.69489">
        <ele>790.8215332</ele>
        <time>2014-05-25T07:15:28Z</time>
      </trkpt>
      <trkpt lat="44.26304" lon="2.69501">
        <ele>789.3796387</ele>
        <time>2014-05-25T07:15:32Z</time>
      </trkpt>
      <trkpt lat="44.26317" lon="2.69518">
        <ele>786.4958496</ele>
        <time>2014-05-25T07:15:37Z</time>
      </trkpt>
      <trkpt lat="44.26328" lon="2.69532">
        <ele>784.5732422</ele>
        <time>2014-05-25T07:15:41Z</time>
      </trkpt>
      <trkpt lat="44.26336" lon="2.69545">
        <ele>783.1311035</ele>
        <time>2014-05-25T07:15:45Z</time>
      </trkpt>
      <trkpt lat="44.26347" lon="2.69561">
        <ele>781.689209</ele>
        <time>2014-05-25T07:15:50Z</time>
      </trkpt>
      <trkpt lat="44.26355" lon="2.69575">
        <ele>780.7280273</ele>
        <time>2014-05-25T07:15:54Z</time>
      </trkpt>
      <trkpt lat="44.26356" lon="2.69578">
        <ele>780.2473145</ele>
        <time>2014-05-25T07:15:55Z</time>
      </trkpt>
      <trkpt lat="44.26367" lon="2.69595">
        <ele>779.2856445</ele>
        <time>2014-05-25T07:16:01Z</time>
      </trkpt>
      <trkpt lat="44.26371" lon="2.69601">
        <ele>778.3244629</ele>
        <time>2014-05-25T07:16:03Z</time>
      </trkpt>
      <trkpt lat="44.26384" lon="2.69619">
        <ele>778.8051758</ele>
        <time>2014-05-25T07:16:09Z</time>
      </trkpt>
      <trkpt lat="44.26394" lon="2.69634">
        <ele>778.3244629</ele>
        <time>2014-05-25T07:16:14Z</time>
      </trkpt>
      <trkpt lat="44.26406" lon="2.69645">
        <ele>779.2856445</ele>
        <time>2014-05-25T07:16:19Z</time>
      </trkpt>
      <trkpt lat="44.26419" lon="2.69658">
        <ele>778.8051758</ele>
        <time>2014-05-25T07:16:25Z</time>
      </trkpt>
      <trkpt lat="44.26428" lon="2.69667">
        <ele>778.8051758</ele>
        <time>2014-05-25T07:16:29Z</time>
      </trkpt>
      <trkpt lat="44.26439" lon="2.69679">
        <ele>776.4018555</ele>
        <time>2014-05-25T07:16:34Z</time>
      </trkpt>
      <trkpt lat="44.2645" lon="2.69689">
        <ele>773.9985352</ele>
        <time>2014-05-25T07:16:39Z</time>
      </trkpt>
      <trkpt lat="44.26462" lon="2.697">
        <ele>771.1147461</ele>
        <time>2014-05-25T07:16:44Z</time>
      </trkpt>
      <trkpt lat="44.26479" lon="2.69716">
        <ele>767.2695313</ele>
        <time>2014-05-25T07:16:50Z</time>
      </trkpt>
      <trkpt lat="44.26495" lon="2.69728">
        <ele>764.8662109</ele>
        <time>2014-05-25T07:16:55Z</time>
      </trkpt>
      <trkpt lat="44.26502" lon="2.69731">
        <ele>763.904541</ele>
        <time>2014-05-25T07:16:57Z</time>
      </trkpt>
      <trkpt lat="44.2652" lon="2.6974">
        <ele>758.6174316</ele>
        <time>2014-05-25T07:17:04Z</time>
      </trkpt>
      <trkpt lat="44.26534" lon="2.69744">
        <ele>755.7336426</ele>
        <time>2014-05-25T07:17:09Z</time>
      </trkpt>
      <trkpt lat="44.26547" lon="2.6975">
        <ele>756.6948242</ele>
        <time>2014-05-25T07:17:13Z</time>
      </trkpt>
      <trkpt lat="44.26558" lon="2.69755">
        <ele>754.291748</ele>
        <time>2014-05-25T07:17:17Z</time>
      </trkpt>
      <trkpt lat="44.26568" lon="2.69762">
        <ele>753.3303223</ele>
        <time>2014-05-25T07:17:21Z</time>
      </trkpt>
      <trkpt lat="44.26584" lon="2.69771">
        <ele>753.3303223</ele>
        <time>2014-05-25T07:17:26Z</time>
      </trkpt>
      <trkpt lat="44.26596" lon="2.69782">
        <ele>750.927002</ele>
        <time>2014-05-25T07:17:31Z</time>
      </trkpt>
      <trkpt lat="44.2661" lon="2.69793">
        <ele>747.081543</ele>
        <time>2014-05-25T07:17:36Z</time>
      </trkpt>
      <trkpt lat="44.26623" lon="2.69803">
        <ele>744.6782227</ele>
        <time>2014-05-25T07:17:41Z</time>
      </trkpt>
      <trkpt lat="44.26636" lon="2.69814">
        <ele>744.1977539</ele>
        <time>2014-05-25T07:17:46Z</time>
      </trkpt>
      <trkpt lat="44.26651" lon="2.69821">
        <ele>745.1589355</ele>
        <time>2014-05-25T07:17:51Z</time>
      </trkpt>
      <trkpt lat="44.26668" lon="2.69836">
        <ele>747.081543</ele>
        <time>2014-05-25T07:17:57Z</time>
      </trkpt>
      <trkpt lat="44.26676" lon="2.69844">
        <ele>747.5622559</ele>
        <time>2014-05-25T07:18:01Z</time>
      </trkpt>
      <trkpt lat="44.26689" lon="2.69855">
        <ele>745.6396484</ele>
        <time>2014-05-25T07:18:06Z</time>
      </trkpt>
      <trkpt lat="44.267" lon="2.69867">
        <ele>743.717041</ele>
        <time>2014-05-25T07:18:10Z</time>
      </trkpt>
      <trkpt lat="44.26709" lon="2.69882">
        <ele>742.2751465</ele>
        <time>2014-05-25T07:18:15Z</time>
      </trkpt>
      <trkpt lat="44.26719" lon="2.69893">
        <ele>741.3137207</ele>
        <time>2014-05-25T07:18:19Z</time>
      </trkpt>
      <trkpt lat="44.26734" lon="2.69898">
        <ele>739.3911133</ele>
        <time>2014-05-25T07:18:24Z</time>
      </trkpt>
      <trkpt lat="44.26743" lon="2.69901">
        <ele>736.5073242</ele>
        <time>2014-05-25T07:18:28Z</time>
      </trkpt>
      <trkpt lat="44.26757" lon="2.69909">
        <ele>733.1425781</ele>
        <time>2014-05-25T07:18:33Z</time>
      </trkpt>
      <trkpt lat="44.26769" lon="2.69914">
        <ele>728.8166504</ele>
        <time>2014-05-25T07:18:38Z</time>
      </trkpt>
      <trkpt lat="44.26781" lon="2.69925">
        <ele>724.4907227</ele>
        <time>2014-05-25T07:18:43Z</time>
      </trkpt>
      <trkpt lat="44.26795" lon="2.69942">
        <ele>718.2421875</ele>
        <time>2014-05-25T07:18:49Z</time>
      </trkpt>
      <trkpt lat="44.26808" lon="2.69952">
        <ele>713.9160156</ele>
        <time>2014-05-25T07:18:53Z</time>
      </trkpt>
      <trkpt lat="44.26818" lon="2.69956">
        <ele>712.954834</ele>
        <time>2014-05-25T07:18:56Z</time>
      </trkpt>
      <trkpt lat="44.26833" lon="2.69962">
        <ele>709.590332</ele>
        <time>2014-05-25T07:19:02Z</time>
      </trkpt>
      <trkpt lat="44.26843" lon="2.69971">
        <ele>709.1096191</ele>
        <time>2014-05-25T07:19:06Z</time>
      </trkpt>
      <trkpt lat="44.26852" lon="2.69979">
        <ele>706.2255859</ele>
        <time>2014-05-25T07:19:10Z</time>
      </trkpt>
      <trkpt lat="44.26854" lon="2.6998">
        <ele>705.2644043</ele>
        <time>2014-05-25T07:19:11Z</time>
      </trkpt>
      <trkpt lat="44.26857" lon="2.69985">
        <ele>705.2644043</ele>
        <time>2014-05-25T07:19:13Z</time>
      </trkpt>
      <trkpt lat="44.2687" lon="2.69992">
        <ele>703.3417969</ele>
        <time>2014-05-25T07:19:18Z</time>
      </trkpt>
      <trkpt lat="44.26884" lon="2.69998">
        <ele>702.861084</ele>
        <time>2014-05-25T07:19:23Z</time>
      </trkpt>
      <trkpt lat="44.26892" lon="2.70003">
        <ele>699.015625</ele>
        <time>2014-05-25T07:19:27Z</time>
      </trkpt>
      <trkpt lat="44.26903" lon="2.70005">
        <ele>696.1318359</ele>
        <time>2014-05-25T07:19:31Z</time>
      </trkpt>
      <trkpt lat="44.26909" lon="2.70008">
        <ele>695.651123</ele>
        <time>2014-05-25T07:19:33Z</time>
      </trkpt>
      <trkpt lat="44.26928" lon="2.70015">
        <ele>689.8833008</ele>
        <time>2014-05-25T07:19:39Z</time>
      </trkpt>
      <trkpt lat="44.26942" lon="2.70015">
        <ele>687.9606934</ele>
        <time>2014-05-25T07:19:43Z</time>
      </trkpt>
      <trkpt lat="44.26951" lon="2.70012">
        <ele>684.5961914</ele>
        <time>2014-05-25T07:19:47Z</time>
      </trkpt>
      <trkpt lat="44.26963" lon="2.70004">
        <ele>681.2314453</ele>
        <time>2014-05-25T07:19:52Z</time>
      </trkpt>
      <trkpt lat="44.26973" lon="2.69998">
        <ele>676.9055176</ele>
        <time>2014-05-25T07:19:56Z</time>
      </trkpt>
      <trkpt lat="44.26983" lon="2.69982">
        <ele>675.9440918</ele>
        <time>2014-05-25T07:20:01Z</time>
      </trkpt>
      <trkpt lat="44.2699" lon="2.69966">
        <ele>674.9829102</ele>
        <time>2014-05-25T07:20:06Z</time>
      </trkpt>
      <trkpt lat="44.26996" lon="2.69954">
        <ele>673.0603027</ele>
        <time>2014-05-25T07:20:10Z</time>
      </trkpt>
      <trkpt lat="44.27001" lon="2.6994">
        <ele>670.6569824</ele>
        <time>2014-05-25T07:20:14Z</time>
      </trkpt>
      <trkpt lat="44.27008" lon="2.69929">
        <ele>670.1762695</ele>
        <time>2014-05-25T07:20:19Z</time>
      </trkpt>
      <trkpt lat="44.27011" lon="2.69928">
        <ele>669.2150879</ele>
        <time>2014-05-25T07:20:20Z</time>
      </trkpt>
      <trkpt lat="44.27027" lon="2.69926">
        <ele>666.3308105</ele>
        <time>2014-05-25T07:20:26Z</time>
      </trkpt>
      <trkpt lat="44.27035" lon="2.69926">
        <ele>664.4082031</ele>
        <time>2014-05-25T07:20:29Z</time>
      </trkpt>
      <trkpt lat="44.27051" lon="2.69923">
        <ele>663.4470215</ele>
        <time>2014-05-25T07:20:35Z</time>
      </trkpt>
      <trkpt lat="44.27052" lon="2.69923">
        <ele>662.9663086</ele>
        <time>2014-05-25T07:20:36Z</time>
      </trkpt>
      <trkpt lat="44.27051" lon="2.69926">
        <ele>661.0437012</ele>
        <time>2014-05-25T07:20:38Z</time>
      </trkpt>
      <trkpt lat="44.27036" lon="2.69933">
        <ele>661.0437012</ele>
        <time>2014-05-25T07:20:44Z</time>
      </trkpt>
      <trkpt lat="44.27027" lon="2.69939">
        <ele>661.5244141</ele>
        <time>2014-05-25T07:20:48Z</time>
      </trkpt>
      <trkpt lat="44.27015" lon="2.69957">
        <ele>660.5629883</ele>
        <time>2014-05-25T07:20:56Z</time>
      </trkpt>
      <trkpt lat="44.27015" lon="2.69959">
        <ele>660.0822754</ele>
        <time>2014-05-25T07:20:57Z</time>
      </trkpt>
      <trkpt lat="44.27017" lon="2.69962">
        <ele>659.1210938</ele>
        <time>2014-05-25T07:21:00Z</time>
      </trkpt>
      <trkpt lat="44.27027" lon="2.69954">
        <ele>656.7177734</ele>
        <time>2014-05-25T07:21:06Z</time>
      </trkpt>
      <trkpt lat="44.27036" lon="2.69951">
        <ele>655.2758789</ele>
        <time>2014-05-25T07:21:10Z</time>
      </trkpt>
      <trkpt lat="44.27047" lon="2.69955">
        <ele>653.8339844</ele>
        <time>2014-05-25T07:21:14Z</time>
      </trkpt>
      <trkpt lat="44.27045" lon="2.69959">
        <ele>650.949707</ele>
        <time>2014-05-25T07:21:17Z</time>
      </trkpt>
      <trkpt lat="44.27038" lon="2.69961">
        <ele>648.065918</ele>
        <time>2014-05-25T07:21:20Z</time>
      </trkpt>
      <trkpt lat="44.27024" lon="2.69976">
        <ele>644.7011719</ele>
        <time>2014-05-25T07:21:26Z</time>
      </trkpt>
      <trkpt lat="44.27021" lon="2.69989">
        <ele>645.6625977</ele>
        <time>2014-05-25T07:21:30Z</time>
      </trkpt>
      <trkpt lat="44.27021" lon="2.69996">
        <ele>648.5463867</ele>
        <time>2014-05-25T07:21:33Z</time>
      </trkpt>
      <trkpt lat="44.27029" lon="2.69992">
        <ele>650.4692383</ele>
        <time>2014-05-25T07:21:38Z</time>
      </trkpt>
      <trkpt lat="44.27031" lon="2.69991">
        <ele>649.9885254</ele>
        <time>2014-05-25T07:21:39Z</time>
      </trkpt>
      <trkpt lat="44.27039" lon="2.69991">
        <ele>642.7788086</ele>
        <time>2014-05-25T07:21:45Z</time>
      </trkpt>
      <trkpt lat="44.27042" lon="2.69988">
        <ele>642.7788086</ele>
        <time>2014-05-25T07:21:48Z</time>
      </trkpt>
      <trkpt lat="44.2705" lon="2.69993">
        <ele>640.3754883</ele>
        <time>2014-05-25T07:21:53Z</time>
      </trkpt>
      <trkpt lat="44.27055" lon="2.69997">
        <ele>638.9335938</ele>
        <time>2014-05-25T07:21:58Z</time>
      </trkpt>
      <trkpt lat="44.27066" lon="2.70008">
        <ele>636.0495605</ele>
        <time>2014-05-25T07:22:05Z</time>
      </trkpt>
      <trkpt lat="44.27075" lon="2.70018">
        <ele>636.5302734</ele>
        <time>2014-05-25T07:22:10Z</time>
      </trkpt>
      <trkpt lat="44.2708" lon="2.70024">
        <ele>637.972168</ele>
        <time>2014-05-25T07:22:13Z</time>
      </trkpt>
      <trkpt lat="44.27082" lon="2.70031">
        <ele>640.855957</ele>
        <time>2014-05-25T07:22:18Z</time>
      </trkpt>
      <trkpt lat="44.27084" lon="2.70033">
        <ele>640.3754883</ele>
        <time>2014-05-25T07:22:21Z</time>
      </trkpt>
      <trkpt lat="44.27094" lon="2.70041">
        <ele>642.7788086</ele>
        <time>2014-05-25T07:22:29Z</time>
      </trkpt>
      <trkpt lat="44.27098" lon="2.70042">
        <ele>640.3754883</ele>
        <time>2014-05-25T07:22:34Z</time>
      </trkpt>
      <trkpt lat="44.27104" lon="2.70041">
        <ele>646.6240234</ele>
        <time>2014-05-25T07:22:40Z</time>
      </trkpt>
      <trkpt lat="44.27111" lon="2.70043">
        <ele>648.065918</ele>
        <time>2014-05-25T07:22:45Z</time>
      </trkpt>
      <trkpt lat="44.27116" lon="2.70045">
        <ele>647.5852051</ele>
        <time>2014-05-25T07:22:50Z</time>
      </trkpt>
      <trkpt lat="44.27123" lon="2.70047">
        <ele>645.6625977</ele>
        <time>2014-05-25T07:22:56Z</time>
      </trkpt>
      <trkpt lat="44.27136" lon="2.70049">
        <ele>648.5463867</ele>
        <time>2014-05-25T07:23:03Z</time>
      </trkpt>
      <trkpt lat="44.27137" lon="2.70048">
        <ele>648.065918</ele>
        <time>2014-05-25T07:23:04Z</time>
      </trkpt>
      <trkpt lat="44.2715" lon="2.70047">
        <ele>650.949707</ele>
        <time>2014-05-25T07:23:11Z</time>
      </trkpt>
      <trkpt lat="44.27148" lon="2.70044">
        <ele>654.795166</ele>
        <time>2014-05-25T07:23:15Z</time>
      </trkpt>
      <trkpt lat="44.27142" lon="2.7004">
        <ele>652.8725586</ele>
        <time>2014-05-25T07:23:23Z</time>
      </trkpt>
      <trkpt lat="44.2714" lon="2.70038">
        <ele>653.8339844</ele>
        <time>2014-05-25T07:23:25Z</time>
      </trkpt>
      <trkpt lat="44.27138" lon="2.70034">
        <ele>654.795166</ele>
        <time>2014-05-25T07:23:28Z</time>
      </trkpt>
      <trkpt lat="44.27137" lon="2.7003">
        <ele>656.2370605</ele>
        <time>2014-05-25T07:23:31Z</time>
      </trkpt>
      <trkpt lat="44.27136" lon="2.70025">
        <ele>659.1210938</ele>
        <time>2014-05-25T07:23:34Z</time>
      </trkpt>
      <trkpt lat="44.27136" lon="2.70016">
        <ele>664.4082031</ele>
        <time>2014-05-25T07:23:40Z</time>
      </trkpt>
      <trkpt lat="44.27142" lon="2.7001">
        <ele>665.8503418</ele>
        <time>2014-05-25T07:23:48Z</time>
      </trkpt>
      <trkpt lat="44.27143" lon="2.7001">
        <ele>666.3308105</ele>
        <time>2014-05-25T07:23:49Z</time>
      </trkpt>
      <trkpt lat="44.27149" lon="2.70016">
        <ele>668.2536621</ele>
        <time>2014-05-25T07:23:57Z</time>
      </trkpt>
      <trkpt lat="44.27154" lon="2.70018">
        <ele>669.6958008</ele>
        <time>2014-05-25T07:24:04Z</time>
      </trkpt>
      <trkpt lat="44.27159" lon="2.7002">
        <ele>672.098877</ele>
        <time>2014-05-25T07:24:09Z</time>
      </trkpt>
      <trkpt lat="44.27163" lon="2.7002">
        <ele>673.0603027</ele>
        <time>2014-05-25T07:24:13Z</time>
      </trkpt>
      <trkpt lat="44.27172" lon="2.70022">
        <ele>672.5795898</ele>
        <time>2014-05-25T07:24:20Z</time>
      </trkpt>
      <trkpt lat="44.27176" lon="2.70021">
        <ele>673.5410156</ele>
        <time>2014-05-25T07:24:23Z</time>
      </trkpt>
      <trkpt lat="44.27179" lon="2.70012">
        <ele>673.5410156</ele>
        <time>2014-05-25T07:24:28Z</time>
      </trkpt>
      <trkpt lat="44.27182" lon="2.70007">
        <ele>674.0214844</ele>
        <time>2014-05-25T07:24:32Z</time>
      </trkpt>
      <trkpt lat="44.2719" lon="2.70006">
        <ele>675.4633789</ele>
        <time>2014-05-25T07:24:38Z</time>
      </trkpt>
      <trkpt lat="44.27191" lon="2.70008">
        <ele>676.4248047</ele>
        <time>2014-05-25T07:24:42Z</time>
      </trkpt>
      <trkpt lat="44.27199" lon="2.70011">
        <ele>679.3085938</ele>
        <time>2014-05-25T07:24:49Z</time>
      </trkpt>
      <trkpt lat="44.27204" lon="2.70013">
        <ele>680.2700195</ele>
        <time>2014-05-25T07:24:54Z</time>
      </trkpt>
      <trkpt lat="44.27205" lon="2.70013">
        <ele>681.2314453</ele>
        <time>2014-05-25T07:24:55Z</time>
      </trkpt>
      <trkpt lat="44.2721" lon="2.70016">
        <ele>683.6345215</ele>
        <time>2014-05-25T07:24:59Z</time>
      </trkpt>
      <trkpt lat="44.27212" lon="2.70015">
        <ele>684.5961914</ele>
        <time>2014-05-25T07:25:03Z</time>
      </trkpt>
      <trkpt lat="44.27218" lon="2.70007">
        <ele>682.6733398</ele>
        <time>2014-05-25T07:25:10Z</time>
      </trkpt>
      <trkpt lat="44.27219" lon="2.70004">
        <ele>684.5961914</ele>
        <time>2014-05-25T07:25:13Z</time>
      </trkpt>
      <trkpt lat="44.27222" lon="2.70001">
        <ele>687.4799805</ele>
        <time>2014-05-25T07:25:17Z</time>
      </trkpt>
      <trkpt lat="44.27224" lon="2.69991">
        <ele>688.4414063</ele>
        <time>2014-05-25T07:25:24Z</time>
      </trkpt>
      <trkpt lat="44.27227" lon="2.69989">
        <ele>689.8833008</ele>
        <time>2014-05-25T07:25:27Z</time>
      </trkpt>
      <trkpt lat="44.27235" lon="2.69988">
        <ele>693.2478027</ele>
        <time>2014-05-25T07:25:34Z</time>
      </trkpt>
      <trkpt lat="44.27236" lon="2.69986">
        <ele>694.2092285</ele>
        <time>2014-05-25T07:25:35Z</time>
      </trkpt>
      <trkpt lat="44.2724" lon="2.69979">
        <ele>696.6125488</ele>
        <time>2014-05-25T07:25:41Z</time>
      </trkpt>
      <trkpt lat="44.27248" lon="2.69972">
        <ele>698.0544434</ele>
        <time>2014-05-25T07:25:47Z</time>
      </trkpt>
      <trkpt lat="44.27257" lon="2.69964">
        <ele>698.0544434</ele>
        <time>2014-05-25T07:25:52Z</time>
      </trkpt>
      <trkpt lat="44.2726" lon="2.69958">
        <ele>697.5737305</ele>
        <time>2014-05-25T07:25:55Z</time>
      </trkpt>
      <trkpt lat="44.27263" lon="2.69943">
        <ele>699.9770508</ele>
        <time>2014-05-25T07:26:01Z</time>
      </trkpt>
      <trkpt lat="44.27265" lon="2.6993">
        <ele>701.8999023</ele>
        <time>2014-05-25T07:26:06Z</time>
      </trkpt>
      <trkpt lat="44.27266" lon="2.69927">
        <ele>701.8999023</ele>
        <time>2014-05-25T07:26:07Z</time>
      </trkpt>
      <trkpt lat="44.27271" lon="2.69908">
        <ele>705.2644043</ele>
        <time>2014-05-25T07:26:14Z</time>
      </trkpt>
      <trkpt lat="44.27278" lon="2.69897">
        <ele>704.3032227</ele>
        <time>2014-05-25T07:26:20Z</time>
      </trkpt>
      <trkpt lat="44.2728" lon="2.69884">
        <ele>705.7451172</ele>
        <time>2014-05-25T07:26:26Z</time>
      </trkpt>
      <trkpt lat="44.27284" lon="2.69874">
        <ele>707.1870117</ele>
        <time>2014-05-25T07:26:33Z</time>
      </trkpt>
      <trkpt lat="44.27285" lon="2.69872">
        <ele>707.1870117</ele>
        <time>2014-05-25T07:26:34Z</time>
      </trkpt>
      <trkpt lat="44.27288" lon="2.69862">
        <ele>707.1870117</ele>
        <time>2014-05-25T07:26:41Z</time>
      </trkpt>
      <trkpt lat="44.2729" lon="2.69846">
        <ele>708.1484375</ele>
        <time>2014-05-25T07:26:49Z</time>
      </trkpt>
      <trkpt lat="44.2729" lon="2.69825">
        <ele>711.9936523</ele>
        <time>2014-05-25T07:26:56Z</time>
      </trkpt>
      <trkpt lat="44.27289" lon="2.69808">
        <ele>715.3581543</ele>
        <time>2014-05-25T07:27:02Z</time>
      </trkpt>
      <trkpt lat="44.27286" lon="2.69793">
        <ele>716.3195801</ele>
        <time>2014-05-25T07:27:08Z</time>
      </trkpt>
      <trkpt lat="44.27285" lon="2.69778">
        <ele>716.3195801</ele>
        <time>2014-05-25T07:27:13Z</time>
      </trkpt>
      <trkpt lat="44.2729" lon="2.69768">
        <ele>718.2421875</ele>
        <time>2014-05-25T07:27:17Z</time>
      </trkpt>
      <trkpt lat="44.27301" lon="2.69763">
        <ele>717.7614746</ele>
        <time>2014-05-25T07:27:22Z</time>
      </trkpt>
      <trkpt lat="44.27315" lon="2.69765">
        <ele>715.3581543</ele>
        <time>2014-05-25T07:27:27Z</time>
      </trkpt>
      <trkpt lat="44.27318" lon="2.69765">
        <ele>714.8774414</ele>
        <time>2014-05-25T07:27:28Z</time>
      </trkpt>
      <trkpt lat="44.27328" lon="2.6976">
        <ele>714.3967285</ele>
        <time>2014-05-25T07:27:32Z</time>
      </trkpt>
      <trkpt lat="44.27337" lon="2.69745">
        <ele>713.9160156</ele>
        <time>2014-05-25T07:27:37Z</time>
      </trkpt>
      <trkpt lat="44.27343" lon="2.69732">
        <ele>711.9936523</ele>
        <time>2014-05-25T07:27:42Z</time>
      </trkpt>
      <trkpt lat="44.27352" lon="2.69714">
        <ele>713.4355469</ele>
        <time>2014-05-25T07:27:48Z</time>
      </trkpt>
      <trkpt lat="44.2736" lon="2.69709">
        <ele>711.9936523</ele>
        <time>2014-05-25T07:27:52Z</time>
      </trkpt>
      <trkpt lat="44.27373" lon="2.69708">
        <ele>711.0322266</ele>
        <time>2014-05-25T07:27:58Z</time>
      </trkpt>
      <trkpt lat="44.27384" lon="2.69708">
        <ele>711.5129395</ele>
        <time>2014-05-25T07:28:03Z</time>
      </trkpt>
      <trkpt lat="44.27397" lon="2.69707">
        <ele>711.0322266</ele>
        <time>2014-05-25T07:28:09Z</time>
      </trkpt>
      <trkpt lat="44.27407" lon="2.69707">
        <ele>712.4741211</ele>
        <time>2014-05-25T07:28:14Z</time>
      </trkpt>
      <trkpt lat="44.27414" lon="2.69696">
        <ele>712.4741211</ele>
        <time>2014-05-25T07:28:19Z</time>
      </trkpt>
      <trkpt lat="44.27418" lon="2.69682">
        <ele>711.5129395</ele>
        <time>2014-05-25T07:28:24Z</time>
      </trkpt>
      <trkpt lat="44.27424" lon="2.69666">
        <ele>712.954834</ele>
        <time>2014-05-25T07:28:29Z</time>
      </trkpt>
      <trkpt lat="44.27433" lon="2.69649">
        <ele>714.3967285</ele>
        <time>2014-05-25T07:28:35Z</time>
      </trkpt>
      <trkpt lat="44.27442" lon="2.69638">
        <ele>713.4355469</ele>
        <time>2014-05-25T07:28:40Z</time>
      </trkpt>
      <trkpt lat="44.27447" lon="2.69631">
        <ele>711.0322266</ele>
        <time>2014-05-25T07:28:45Z</time>
      </trkpt>
      <trkpt lat="44.27451" lon="2.69624">
        <ele>710.5515137</ele>
        <time>2014-05-25T07:28:51Z</time>
      </trkpt>
      <trkpt lat="44.27459" lon="2.69611">
        <ele>709.590332</ele>
        <time>2014-05-25T07:28:57Z</time>
      </trkpt>
      <trkpt lat="44.2746" lon="2.69609">
        <ele>708.6289063</ele>
        <time>2014-05-25T07:28:58Z</time>
      </trkpt>
      <trkpt lat="44.27466" lon="2.69594">
        <ele>708.6289063</ele>
        <time>2014-05-25T07:29:04Z</time>
      </trkpt>
      <trkpt lat="44.27473" lon="2.69581">
        <ele>707.6677246</ele>
        <time>2014-05-25T07:29:10Z</time>
      </trkpt>
      <trkpt lat="44.2748" lon="2.69573">
        <ele>704.7836914</ele>
        <time>2014-05-25T07:29:16Z</time>
      </trkpt>
      <trkpt lat="44.27482" lon="2.69571">
        <ele>704.7836914</ele>
        <time>2014-05-25T07:29:18Z</time>
      </trkpt>
      <trkpt lat="44.27486" lon="2.69563">
        <ele>702.3803711</ele>
        <time>2014-05-25T07:29:22Z</time>
      </trkpt>
      <trkpt lat="44.27492" lon="2.69551">
        <ele>702.3803711</ele>
        <time>2014-05-25T07:29:27Z</time>
      </trkpt>
      <trkpt lat="44.27497" lon="2.69537">
        <ele>702.861084</ele>
        <time>2014-05-25T07:29:32Z</time>
      </trkpt>
      <trkpt lat="44.27503" lon="2.69525">
        <ele>700.9384766</ele>
        <time>2014-05-25T07:29:37Z</time>
      </trkpt>
      <trkpt lat="44.27508" lon="2.69514">
        <ele>700.4580078</ele>
        <time>2014-05-25T07:29:42Z</time>
      </trkpt>
      <trkpt lat="44.27516" lon="2.69498">
        <ele>700.4580078</ele>
        <time>2014-05-25T07:29:48Z</time>
      </trkpt>
      <trkpt lat="44.2752" lon="2.69483">
        <ele>699.015625</ele>
        <time>2014-05-25T07:29:53Z</time>
      </trkpt>
      <trkpt lat="44.27522" lon="2.69477">
        <ele>699.015625</ele>
        <time>2014-05-25T07:29:55Z</time>
      </trkpt>
      <trkpt lat="44.27526" lon="2.69468">
        <ele>699.015625</ele>
        <time>2014-05-25T07:29:59Z</time>
      </trkpt>
      <trkpt lat="44.2753" lon="2.69456">
        <ele>697.5737305</ele>
        <time>2014-05-25T07:30:06Z</time>
      </trkpt>
      <trkpt lat="44.27535" lon="2.69446">
        <ele>700.4580078</ele>
        <time>2014-05-25T07:30:12Z</time>
      </trkpt>
      <trkpt lat="44.27541" lon="2.69434">
        <ele>700.9384766</ele>
        <time>2014-05-25T07:30:17Z</time>
      </trkpt>
      <trkpt lat="44.27552" lon="2.69421">
        <ele>701.4191895</ele>
        <time>2014-05-25T07:30:23Z</time>
      </trkpt>
      <trkpt lat="44.27556" lon="2.69415">
        <ele>701.8999023</ele>
        <time>2014-05-25T07:30:26Z</time>
      </trkpt>
      <trkpt lat="44.27564" lon="2.6941">
        <ele>703.3417969</ele>
        <time>2014-05-25T07:30:32Z</time>
      </trkpt>
      <trkpt lat="44.27569" lon="2.6941">
        <ele>702.3803711</ele>
        <time>2014-05-25T07:30:34Z</time>
      </trkpt>
      <trkpt lat="44.27584" lon="2.69406">
        <ele>699.9770508</ele>
        <time>2014-05-25T07:30:40Z</time>
      </trkpt>
      <trkpt lat="44.27587" lon="2.69405">
        <ele>698.5349121</ele>
        <time>2014-05-25T07:30:41Z</time>
      </trkpt>
      <trkpt lat="44.27597" lon="2.69395">
        <ele>697.5737305</ele>
        <time>2014-05-25T07:30:46Z</time>
      </trkpt>
      <trkpt lat="44.27609" lon="2.6938">
        <ele>698.0544434</ele>
        <time>2014-05-25T07:30:52Z</time>
      </trkpt>
      <trkpt lat="44.27621" lon="2.69371">
        <ele>697.5737305</ele>
        <time>2014-05-25T07:30:58Z</time>
      </trkpt>
      <trkpt lat="44.27633" lon="2.69358">
        <ele>695.651123</ele>
        <time>2014-05-25T07:31:03Z</time>
      </trkpt>
      <trkpt lat="44.2764" lon="2.69349">
        <ele>696.6125488</ele>
        <time>2014-05-25T07:31:07Z</time>
      </trkpt>
      <trkpt lat="44.27646" lon="2.6934">
        <ele>696.6125488</ele>
        <time>2014-05-25T07:31:11Z</time>
      </trkpt>
      <trkpt lat="44.27655" lon="2.69327">
        <ele>696.1318359</ele>
        <time>2014-05-25T07:31:16Z</time>
      </trkpt>
      <trkpt lat="44.27656" lon="2.69325">
        <ele>696.1318359</ele>
        <time>2014-05-25T07:31:17Z</time>
      </trkpt>
      <trkpt lat="44.2766" lon="2.69313">
        <ele>695.651123</ele>
        <time>2014-05-25T07:31:22Z</time>
      </trkpt>
      <trkpt lat="44.2766" lon="2.69308">
        <ele>694.6896973</ele>
        <time>2014-05-25T07:31:24Z</time>
      </trkpt>
      <trkpt lat="44.27661" lon="2.69297">
        <ele>691.8059082</ele>
        <time>2014-05-25T07:31:29Z</time>
      </trkpt>
      <trkpt lat="44.27662" lon="2.69291">
        <ele>688.4414063</ele>
        <time>2014-05-25T07:31:32Z</time>
      </trkpt>
      <trkpt lat="44.2766" lon="2.69278">
        <ele>691.3251953</ele>
        <time>2014-05-25T07:31:37Z</time>
      </trkpt>
      <trkpt lat="44.27659" lon="2.69275">
        <ele>692.767334</ele>
        <time>2014-05-25T07:31:38Z</time>
      </trkpt>
      <trkpt lat="44.27654" lon="2.69261">
        <ele>693.7285156</ele>
        <time>2014-05-25T07:31:44Z</time>
      </trkpt>
      <trkpt lat="44.2765" lon="2.69244">
        <ele>696.1318359</ele>
        <time>2014-05-25T07:31:49Z</time>
      </trkpt>
      <trkpt lat="44.27647" lon="2.69224">
        <ele>699.015625</ele>
        <time>2014-05-25T07:31:54Z</time>
      </trkpt>
      <trkpt lat="44.27648" lon="2.69218">
        <ele>698.0544434</ele>
        <time>2014-05-25T07:31:56Z</time>
      </trkpt>
      <trkpt lat="44.27646" lon="2.69199">
        <ele>694.2092285</ele>
        <time>2014-05-25T07:32:02Z</time>
      </trkpt>
      <trkpt lat="44.27645" lon="2.69197">
        <ele>691.8059082</ele>
        <time>2014-05-25T07:32:03Z</time>
      </trkpt>
      <trkpt lat="44.27644" lon="2.69182">
        <ele>686.0380859</ele>
        <time>2014-05-25T07:32:08Z</time>
      </trkpt>
      <trkpt lat="44.27642" lon="2.6917">
        <ele>682.6733398</ele>
        <time>2014-05-25T07:32:12Z</time>
      </trkpt>
      <trkpt lat="44.27637" lon="2.69157">
        <ele>677.3862305</ele>
        <time>2014-05-25T07:32:17Z</time>
      </trkpt>
      <trkpt lat="44.27635" lon="2.69153">
        <ele>674.5021973</ele>
        <time>2014-05-25T07:32:19Z</time>
      </trkpt>
      <trkpt lat="44.27629" lon="2.69141">
        <ele>674.9829102</ele>
        <time>2014-05-25T07:32:24Z</time>
      </trkpt>
      <trkpt lat="44.27628" lon="2.69137">
        <ele>674.0214844</ele>
        <time>2014-05-25T07:32:26Z</time>
      </trkpt>
      <trkpt lat="44.27622" lon="2.69123">
        <ele>671.1376953</ele>
        <time>2014-05-25T07:32:31Z</time>
      </trkpt>
      <trkpt lat="44.27616" lon="2.69124">
        <ele>667.7727051</ele>
        <time>2014-05-25T07:32:36Z</time>
      </trkpt>
      <trkpt lat="44.27613" lon="2.69136">
        <ele>664.4082031</ele>
        <time>2014-05-25T07:32:41Z</time>
      </trkpt>
      <trkpt lat="44.27614" lon="2.69147">
        <ele>658.6403809</ele>
        <time>2014-05-25T07:32:45Z</time>
      </trkpt>
      <trkpt lat="44.27607" lon="2.69148">
        <ele>655.2758789</ele>
        <time>2014-05-25T07:32:49Z</time>
      </trkpt>
      <trkpt lat="44.27606" lon="2.69146">
        <ele>654.3146973</ele>
        <time>2014-05-25T07:32:50Z</time>
      </trkpt>
      <trkpt lat="44.276" lon="2.69132">
        <ele>654.3146973</ele>
        <time>2014-05-25T07:32:54Z</time>
      </trkpt>
      <trkpt lat="44.27598" lon="2.69116">
        <ele>653.8339844</ele>
        <time>2014-05-25T07:32:59Z</time>
      </trkpt>
      <trkpt lat="44.27598" lon="2.69103">
        <ele>654.3146973</ele>
        <time>2014-05-25T07:33:03Z</time>
      </trkpt>
      <trkpt lat="44.27599" lon="2.69094">
        <ele>657.1984863</ele>
        <time>2014-05-25T07:33:05Z</time>
      </trkpt>
      <trkpt lat="44.27595" lon="2.69079">
        <ele>657.1984863</ele>
        <time>2014-05-25T07:33:11Z</time>
      </trkpt>
      <trkpt lat="44.27587" lon="2.69067">
        <ele>655.7565918</ele>
        <time>2014-05-25T07:33:17Z</time>
      </trkpt>
      <trkpt lat="44.27579" lon="2.69058">
        <ele>657.6791992</ele>
        <time>2014-05-25T07:33:23Z</time>
      </trkpt>
      <trkpt lat="44.27576" lon="2.69054">
        <ele>659.1210938</ele>
        <time>2014-05-25T07:33:25Z</time>
      </trkpt>
      <trkpt lat="44.27569" lon="2.69036">
        <ele>654.795166</ele>
        <time>2014-05-25T07:33:32Z</time>
      </trkpt>
      <trkpt lat="44.27565" lon="2.69015">
        <ele>652.8725586</ele>
        <time>2014-05-25T07:33:37Z</time>
      </trkpt>
      <trkpt lat="44.27559" lon="2.69001">
        <ele>649.5078125</ele>
        <time>2014-05-25T07:33:41Z</time>
      </trkpt>
      <trkpt lat="44.27555" lon="2.68992">
        <ele>647.1044922</ele>
        <time>2014-05-25T07:33:44Z</time>
      </trkpt>
      <trkpt lat="44.27553" lon="2.68986">
        <ele>648.065918</ele>
        <time>2014-05-25T07:33:47Z</time>
      </trkpt>
      <trkpt lat="44.27552" lon="2.68982">
        <ele>649.0270996</ele>
        <time>2014-05-25T07:33:50Z</time>
      </trkpt>
      <trkpt lat="44.27551" lon="2.68975">
        <ele>648.5463867</ele>
        <time>2014-05-25T07:33:55Z</time>
      </trkpt>
      <trkpt lat="44.27551" lon="2.68966">
        <ele>648.5463867</ele>
        <time>2014-05-25T07:34:01Z</time>
      </trkpt>
      <trkpt lat="44.27552" lon="2.68965">
        <ele>648.5463867</ele>
        <time>2014-05-25T07:34:02Z</time>
      </trkpt>
      <trkpt lat="44.27553" lon="2.68964">
        <ele>649.0270996</ele>
        <time>2014-05-25T07:34:04Z</time>
      </trkpt>
      <trkpt lat="44.27561" lon="2.68955">
        <ele>646.6240234</ele>
        <time>2014-05-25T07:34:10Z</time>
      </trkpt>
      <trkpt lat="44.27567" lon="2.68945">
        <ele>645.1818848</ele>
        <time>2014-05-25T07:34:15Z</time>
      </trkpt>
      <trkpt lat="44.27568" lon="2.68943">
        <ele>645.6625977</ele>
        <time>2014-05-25T07:34:16Z</time>
      </trkpt>
      <trkpt lat="44.27573" lon="2.68928">
        <ele>647.1044922</ele>
        <time>2014-05-25T07:34:22Z</time>
      </trkpt>
      <trkpt lat="44.27573" lon="2.68925">
        <ele>648.5463867</ele>
        <time>2014-05-25T07:34:23Z</time>
      </trkpt>
      <trkpt lat="44.2758" lon="2.68915">
        <ele>647.5852051</ele>
        <time>2014-05-25T07:34:28Z</time>
      </trkpt>
      <trkpt lat="44.27585" lon="2.68899">
        <ele>647.5852051</ele>
        <time>2014-05-25T07:34:34Z</time>
      </trkpt>
      <trkpt lat="44.27588" lon="2.68894">
        <ele>646.6240234</ele>
        <time>2014-05-25T07:34:36Z</time>
      </trkpt>
      <trkpt lat="44.27597" lon="2.6888">
        <ele>642.2980957</ele>
        <time>2014-05-25T07:34:42Z</time>
      </trkpt>
      <trkpt lat="44.27602" lon="2.68868">
        <ele>642.2980957</ele>
        <time>2014-05-25T07:34:47Z</time>
      </trkpt>
      <trkpt lat="44.27602" lon="2.68866">
        <ele>642.2980957</ele>
        <time>2014-05-25T07:34:52Z</time>
      </trkpt>
      <trkpt lat="44.27604" lon="2.68867">
        <ele>637.4914551</ele>
        <time>2014-05-25T07:35:01Z</time>
      </trkpt>
      <trkpt lat="44.27603" lon="2.68868">
        <ele>630.762207</ele>
        <time>2014-05-25T07:35:09Z</time>
      </trkpt>
      <trkpt lat="44.2759" lon="2.68875">
        <ele>620.668457</ele>
        <time>2014-05-25T07:35:16Z</time>
      </trkpt>
      <trkpt lat="44.27579" lon="2.68884">
        <ele>614.4196777</ele>
        <time>2014-05-25T07:35:21Z</time>
      </trkpt>
      <trkpt lat="44.27575" lon="2.68886">
        <ele>613.4584961</ele>
        <time>2014-05-25T07:35:23Z</time>
      </trkpt>
      <trkpt lat="44.27561" lon="2.68902">
        <ele>607.2099609</ele>
        <time>2014-05-25T07:35:30Z</time>
      </trkpt>
      <trkpt lat="44.27557" lon="2.68904">
        <ele>606.2485352</ele>
        <time>2014-05-25T07:35:32Z</time>
      </trkpt>
      <trkpt lat="44.27544" lon="2.6891">
        <ele>613.9389648</ele>
        <time>2014-05-25T07:35:38Z</time>
      </trkpt>
      <trkpt lat="44.2754" lon="2.6891">
        <ele>613.4584961</ele>
        <time>2014-05-25T07:35:42Z</time>
      </trkpt>
      <trkpt lat="44.27536" lon="2.68907">
        <ele>617.7841797</ele>
        <time>2014-05-25T07:35:46Z</time>
      </trkpt>
      <trkpt lat="44.27528" lon="2.68908">
        <ele>616.3422852</ele>
        <time>2014-05-25T07:35:51Z</time>
      </trkpt>
      <trkpt lat="44.27514" lon="2.68902">
        <ele>616.822998</ele>
        <time>2014-05-25T07:35:56Z</time>
      </trkpt>
      <trkpt lat="44.2751" lon="2.68894">
        <ele>616.822998</ele>
        <time>2014-05-25T07:36:01Z</time>
      </trkpt>
      <trkpt lat="44.27497" lon="2.68883">
        <ele>621.6296387</ele>
        <time>2014-05-25T07:36:07Z</time>
      </trkpt>
      <trkpt lat="44.27494" lon="2.68882">
        <ele>623.5524902</ele>
        <time>2014-05-25T07:36:08Z</time>
      </trkpt>
      <trkpt lat="44.27485" lon="2.6888">
        <ele>620.668457</ele>
        <time>2014-05-25T07:36:13Z</time>
      </trkpt>
      <trkpt lat="44.27479" lon="2.6888">
        <ele>618.7456055</ele>
        <time>2014-05-25T07:36:17Z</time>
      </trkpt>
      <trkpt lat="44.27476" lon="2.68879">
        <ele>618.7456055</ele>
        <time>2014-05-25T07:36:18Z</time>
      </trkpt>
      <trkpt lat="44.2747" lon="2.68869">
        <ele>620.1877441</ele>
        <time>2014-05-25T07:36:22Z</time>
      </trkpt>
      <trkpt lat="44.27467" lon="2.68861">
        <ele>619.7070313</ele>
        <time>2014-05-25T07:36:27Z</time>
      </trkpt>
      <trkpt lat="44.27466" lon="2.6886">
        <ele>619.7070313</ele>
        <time>2014-05-25T07:36:28Z</time>
      </trkpt>
      <trkpt lat="44.27464" lon="2.68848">
        <ele>617.3037109</ele>
        <time>2014-05-25T07:36:33Z</time>
      </trkpt>
      <trkpt lat="44.27461" lon="2.68833">
        <ele>616.822998</ele>
        <time>2014-05-25T07:36:38Z</time>
      </trkpt>
      <trkpt lat="44.27461" lon="2.68828">
        <ele>616.3422852</ele>
        <time>2014-05-25T07:36:40Z</time>
      </trkpt>
      <trkpt lat="44.27473" lon="2.68828">
        <ele>615.3811035</ele>
        <time>2014-05-25T07:36:47Z</time>
      </trkpt>
      <trkpt lat="44.27475" lon="2.68826">
        <ele>615.3811035</ele>
        <time>2014-05-25T07:36:49Z</time>
      </trkpt>
      <trkpt lat="44.27489" lon="2.68815">
        <ele>616.3422852</ele>
        <time>2014-05-25T07:36:56Z</time>
      </trkpt>
      <trkpt lat="44.27492" lon="2.68814">
        <ele>618.7456055</ele>
        <time>2014-05-25T07:36:57Z</time>
      </trkpt>
      <trkpt lat="44.27498" lon="2.68811">
        <ele>621.1491699</ele>
        <time>2014-05-25T07:37:01Z</time>
      </trkpt>
      <trkpt lat="44.27509" lon="2.68802">
        <ele>613.9389648</ele>
        <time>2014-05-25T07:37:07Z</time>
      </trkpt>
      <trkpt lat="44.27517" lon="2.68793">
        <ele>614.9003906</ele>
        <time>2014-05-25T07:37:12Z</time>
      </trkpt>
      <trkpt lat="44.27522" lon="2.68791">
        <ele>617.7841797</ele>
        <time>2014-05-25T07:37:14Z</time>
      </trkpt>
      <trkpt lat="44.27526" lon="2.6879">
        <ele>616.822998</ele>
        <time>2014-05-25T07:37:17Z</time>
      </trkpt>
      <trkpt lat="44.27534" lon="2.68782">
        <ele>615.8618164</ele>
        <time>2014-05-25T07:37:23Z</time>
      </trkpt>
      <trkpt lat="44.27542" lon="2.68774">
        <ele>617.3037109</ele>
        <time>2014-05-25T07:37:28Z</time>
      </trkpt>
      <trkpt lat="44.27544" lon="2.68773">
        <ele>616.822998</ele>
        <time>2014-05-25T07:37:30Z</time>
      </trkpt>
      <trkpt lat="44.27555" lon="2.68763">
        <ele>616.822998</ele>
        <time>2014-05-25T07:37:37Z</time>
      </trkpt>
      <trkpt lat="44.27559" lon="2.68759">
        <ele>617.3037109</ele>
        <time>2014-05-25T07:37:40Z</time>
      </trkpt>
      <trkpt lat="44.27564" lon="2.68752">
        <ele>620.668457</ele>
        <time>2014-05-25T07:37:45Z</time>
      </trkpt>
      <trkpt lat="44.27574" lon="2.68746">
        <ele>624.9943848</ele>
        <time>2014-05-25T07:37:51Z</time>
      </trkpt>
      <trkpt lat="44.2758" lon="2.68744">
        <ele>628.3588867</ele>
        <time>2014-05-25T07:37:56Z</time>
      </trkpt>
      <trkpt lat="44.27584" lon="2.68741">
        <ele>629.8007813</ele>
        <time>2014-05-25T07:37:59Z</time>
      </trkpt>
      <trkpt lat="44.27591" lon="2.68734">
        <ele>631.2429199</ele>
        <time>2014-05-25T07:38:03Z</time>
      </trkpt>
      <trkpt lat="44.27591" lon="2.68726">
        <ele>631.7233887</ele>
        <time>2014-05-25T07:38:07Z</time>
      </trkpt>
      <trkpt lat="44.27583" lon="2.68729">
        <ele>634.126709</ele>
        <time>2014-05-25T07:38:14Z</time>
      </trkpt>
      <trkpt lat="44.27574" lon="2.68733">
        <ele>635.5686035</ele>
        <time>2014-05-25T07:38:20Z</time>
      </trkpt>
      <trkpt lat="44.27562" lon="2.68737">
        <ele>638.9335938</ele>
        <time>2014-05-25T07:38:27Z</time>
      </trkpt>
      <trkpt lat="44.27551" lon="2.68742">
        <ele>640.3754883</ele>
        <time>2014-05-25T07:38:32Z</time>
      </trkpt>
      <trkpt lat="44.27541" lon="2.68746">
        <ele>640.855957</ele>
        <time>2014-05-25T07:38:37Z</time>
      </trkpt>
      <trkpt lat="44.27532" lon="2.68748">
        <ele>643.2592773</ele>
        <time>2014-05-25T07:38:42Z</time>
      </trkpt>
      <trkpt lat="44.27525" lon="2.68751">
        <ele>645.1818848</ele>
        <time>2014-05-25T07:38:47Z</time>
      </trkpt>
      <trkpt lat="44.27513" lon="2.68755">
        <ele>646.1433105</ele>
        <time>2014-05-25T07:38:53Z</time>
      </trkpt>
      <trkpt lat="44.27504" lon="2.68758">
        <ele>647.5852051</ele>
        <time>2014-05-25T07:38:58Z</time>
      </trkpt>
      <trkpt lat="44.27496" lon="2.68759">
        <ele>648.065918</ele>
        <time>2014-05-25T07:39:03Z</time>
      </trkpt>
      <trkpt lat="44.27483" lon="2.68757">
        <ele>649.5078125</ele>
        <time>2014-05-25T07:39:09Z</time>
      </trkpt>
      <trkpt lat="44.27471" lon="2.68751">
        <ele>650.949707</ele>
        <time>2014-05-25T07:39:16Z</time>
      </trkpt>
      <trkpt lat="44.27458" lon="2.68744">
        <ele>651.9111328</ele>
        <time>2014-05-25T07:39:23Z</time>
      </trkpt>
      <trkpt lat="44.27446" lon="2.6874">
        <ele>651.4304199</ele>
        <time>2014-05-25T07:39:30Z</time>
      </trkpt>
      <trkpt lat="44.27438" lon="2.68736">
        <ele>649.0270996</ele>
        <time>2014-05-25T07:39:36Z</time>
      </trkpt>
      <trkpt lat="44.27432" lon="2.68734">
        <ele>650.4692383</ele>
        <time>2014-05-25T07:39:41Z</time>
      </trkpt>
      <trkpt lat="44.27426" lon="2.68736">
        <ele>655.2758789</ele>
        <time>2014-05-25T07:39:47Z</time>
      </trkpt>
      <trkpt lat="44.27423" lon="2.68738">
        <ele>656.7177734</ele>
        <time>2014-05-25T07:39:50Z</time>
      </trkpt>
      <trkpt lat="44.27417" lon="2.68743">
        <ele>659.6018066</ele>
        <time>2014-05-25T07:39:56Z</time>
      </trkpt>
      <trkpt lat="44.27411" lon="2.68745">
        <ele>660.5629883</ele>
        <time>2014-05-25T07:40:01Z</time>
      </trkpt>
      <trkpt lat="44.27403" lon="2.68747">
        <ele>662.4855957</ele>
        <time>2014-05-25T07:40:08Z</time>
      </trkpt>
      <trkpt lat="44.27396" lon="2.68747">
        <ele>662.4855957</ele>
        <time>2014-05-25T07:40:14Z</time>
      </trkpt>
      <trkpt lat="44.2739" lon="2.68749">
        <ele>665.3696289</ele>
        <time>2014-05-25T07:40:20Z</time>
      </trkpt>
      <trkpt lat="44.27381" lon="2.68751">
        <ele>669.6958008</ele>
        <time>2014-05-25T07:40:28Z</time>
      </trkpt>
      <trkpt lat="44.27375" lon="2.68752">
        <ele>670.1762695</ele>
        <time>2014-05-25T07:40:34Z</time>
      </trkpt>
      <trkpt lat="44.27365" lon="2.68757">
        <ele>673.0603027</ele>
        <time>2014-05-25T07:40:42Z</time>
      </trkpt>
      <trkpt lat="44.27357" lon="2.68759">
        <ele>674.9829102</ele>
        <time>2014-05-25T07:40:50Z</time>
      </trkpt>
      <trkpt lat="44.27347" lon="2.6876">
        <ele>677.8666992</ele>
        <time>2014-05-25T07:40:59Z</time>
      </trkpt>
      <trkpt lat="44.27338" lon="2.68761">
        <ele>680.2700195</ele>
        <time>2014-05-25T07:41:06Z</time>
      </trkpt>
      <trkpt lat="44.27338" lon="2.6876">
        <ele>681.2314453</ele>
        <time>2014-05-25T07:41:07Z</time>
      </trkpt>
      <trkpt lat="44.27334" lon="2.68759">
        <ele>682.192627</ele>
        <time>2014-05-25T07:41:10Z</time>
      </trkpt>
      <trkpt lat="44.27326" lon="2.6876">
        <ele>687.9606934</ele>
        <time>2014-05-25T07:41:17Z</time>
      </trkpt>
      <trkpt lat="44.27324" lon="2.68759">
        <ele>689.4025879</ele>
        <time>2014-05-25T07:41:19Z</time>
      </trkpt>
      <trkpt lat="44.27316" lon="2.6876">
        <ele>689.8833008</ele>
        <time>2014-05-25T07:41:26Z</time>
      </trkpt>
      <trkpt lat="44.2731" lon="2.68759">
        <ele>690.3640137</ele>
        <time>2014-05-25T07:41:32Z</time>
      </trkpt>
      <trkpt lat="44.27305" lon="2.68762">
        <ele>690.3640137</ele>
        <time>2014-05-25T07:41:36Z</time>
      </trkpt>
      <trkpt lat="44.27297" lon="2.68766">
        <ele>690.3640137</ele>
        <time>2014-05-25T07:41:43Z</time>
      </trkpt>
      <trkpt lat="44.27292" lon="2.68768">
        <ele>691.8059082</ele>
        <time>2014-05-25T07:41:48Z</time>
      </trkpt>
      <trkpt lat="44.27287" lon="2.6877">
        <ele>693.7285156</ele>
        <time>2014-05-25T07:41:53Z</time>
      </trkpt>
      <trkpt lat="44.27286" lon="2.68769">
        <ele>694.6896973</ele>
        <time>2014-05-25T07:41:54Z</time>
      </trkpt>
      <trkpt lat="44.27282" lon="2.68765">
        <ele>699.9770508</ele>
        <time>2014-05-25T07:42:03Z</time>
      </trkpt>
      <trkpt lat="44.27278" lon="2.68762">
        <ele>706.2255859</ele>
        <time>2014-05-25T07:42:15Z</time>
      </trkpt>
      <trkpt lat="44.27278" lon="2.68761">
        <ele>708.6289063</ele>
        <time>2014-05-25T07:42:24Z</time>
      </trkpt>
      <trkpt lat="44.27284" lon="2.68756">
        <ele>704.3032227</ele>
        <time>2014-05-25T07:42:31Z</time>
      </trkpt>
      <trkpt lat="44.27286" lon="2.68754">
        <ele>703.3417969</ele>
        <time>2014-05-25T07:42:33Z</time>
      </trkpt>
      <trkpt lat="44.27295" lon="2.68753">
        <ele>699.015625</ele>
        <time>2014-05-25T07:42:38Z</time>
      </trkpt>
      <trkpt lat="44.27297" lon="2.68752">
        <ele>697.5737305</ele>
        <time>2014-05-25T07:42:39Z</time>
      </trkpt>
      <trkpt lat="44.27312" lon="2.68751">
        <ele>694.6896973</ele>
        <time>2014-05-25T07:42:45Z</time>
      </trkpt>
      <trkpt lat="44.2732" lon="2.68749">
        <ele>691.8059082</ele>
        <time>2014-05-25T07:42:48Z</time>
      </trkpt>
      <trkpt lat="44.27336" lon="2.68741">
        <ele>687.9606934</ele>
        <time>2014-05-25T07:42:54Z</time>
      </trkpt>
      <trkpt lat="44.27347" lon="2.68733">
        <ele>685.557373</ele>
        <time>2014-05-25T07:42:59Z</time>
      </trkpt>
      <trkpt lat="44.27358" lon="2.68725">
        <ele>685.0769043</ele>
        <time>2014-05-25T07:43:04Z</time>
      </trkpt>
      <trkpt lat="44.2737" lon="2.68715">
        <ele>682.6733398</ele>
        <time>2014-05-25T07:43:10Z</time>
      </trkpt>
      <trkpt lat="44.27383" lon="2.68708">
        <ele>682.192627</ele>
        <time>2014-05-25T07:43:15Z</time>
      </trkpt>
      <trkpt lat="44.27397" lon="2.68704">
        <ele>680.2700195</ele>
        <time>2014-05-25T07:43:20Z</time>
      </trkpt>
      <trkpt lat="44.27407" lon="2.68698">
        <ele>677.3862305</ele>
        <time>2014-05-25T07:43:24Z</time>
      </trkpt>
      <trkpt lat="44.27421" lon="2.68686">
        <ele>676.9055176</ele>
        <time>2014-05-25T07:43:30Z</time>
      </trkpt>
      <trkpt lat="44.27434" lon="2.6868">
        <ele>676.4248047</ele>
        <time>2014-05-25T07:43:35Z</time>
      </trkpt>
      <trkpt lat="44.27443" lon="2.68675">
        <ele>677.8666992</ele>
        <time>2014-05-25T07:43:39Z</time>
      </trkpt>
      <trkpt lat="44.27452" lon="2.68669">
        <ele>676.9055176</ele>
        <time>2014-05-25T07:43:43Z</time>
      </trkpt>
      <trkpt lat="44.27469" lon="2.68658">
        <ele>677.3862305</ele>
        <time>2014-05-25T07:43:50Z</time>
      </trkpt>
      <trkpt lat="44.27481" lon="2.68647">
        <ele>674.9829102</ele>
        <time>2014-05-25T07:43:54Z</time>
      </trkpt>
      <trkpt lat="44.2749" lon="2.68627">
        <ele>673.0603027</ele>
        <time>2014-05-25T07:43:59Z</time>
      </trkpt>
      <trkpt lat="44.27491" lon="2.68606">
        <ele>673.0603027</ele>
        <time>2014-05-25T07:44:04Z</time>
      </trkpt>
      <trkpt lat="44.27488" lon="2.68585">
        <ele>671.1376953</ele>
        <time>2014-05-25T07:44:09Z</time>
      </trkpt>
      <trkpt lat="44.27488" lon="2.68568">
        <ele>669.2150879</ele>
        <time>2014-05-25T07:44:13Z</time>
      </trkpt>
      <trkpt lat="44.27481" lon="2.68554">
        <ele>668.734375</ele>
        <time>2014-05-25T07:44:18Z</time>
      </trkpt>
      <trkpt lat="44.27477" lon="2.68542">
        <ele>667.7727051</ele>
        <time>2014-05-25T07:44:23Z</time>
      </trkpt>
      <trkpt lat="44.27477" lon="2.68539">
        <ele>667.7727051</ele>
        <time>2014-05-25T07:44:24Z</time>
      </trkpt>
      <trkpt lat="44.27477" lon="2.68534">
        <ele>668.734375</ele>
        <time>2014-05-25T07:44:27Z</time>
      </trkpt>
      <trkpt lat="44.27477" lon="2.68534">
        <ele>670.6569824</ele>
        <time>2014-05-25T07:44:37Z</time>
      </trkpt>
      <trkpt lat="44.27476" lon="2.68537">
        <ele>671.1376953</ele>
        <time>2014-05-25T07:44:39Z</time>
      </trkpt>
      <trkpt lat="44.27479" lon="2.68552">
        <ele>673.5410156</ele>
        <time>2014-05-25T07:44:45Z</time>
      </trkpt>
      <trkpt lat="44.2748" lon="2.68554">
        <ele>674.0214844</ele>
        <time>2014-05-25T07:44:46Z</time>
      </trkpt>
      <trkpt lat="44.2747" lon="2.68566">
        <ele>675.9440918</ele>
        <time>2014-05-25T07:44:51Z</time>
      </trkpt>
      <trkpt lat="44.27468" lon="2.68567">
        <ele>675.4633789</ele>
        <time>2014-05-25T07:44:52Z</time>
      </trkpt>
      <trkpt lat="44.27451" lon="2.68573">
        <ele>674.5021973</ele>
        <time>2014-05-25T07:44:58Z</time>
      </trkpt>
      <trkpt lat="44.27435" lon="2.68587">
        <ele>673.5410156</ele>
        <time>2014-05-25T07:45:04Z</time>
      </trkpt>
      <trkpt lat="44.27423" lon="2.68598">
        <ele>674.0214844</ele>
        <time>2014-05-25T07:45:09Z</time>
      </trkpt>
      <trkpt lat="44.27409" lon="2.68602">
        <ele>674.9829102</ele>
        <time>2014-05-25T07:45:14Z</time>
      </trkpt>
      <trkpt lat="44.27397" lon="2.68609">
        <ele>673.5410156</ele>
        <time>2014-05-25T07:45:19Z</time>
      </trkpt>
      <trkpt lat="44.27384" lon="2.6862">
        <ele>668.734375</ele>
        <time>2014-05-25T07:45:25Z</time>
      </trkpt>
      <trkpt lat="44.27376" lon="2.68626">
        <ele>665.8503418</ele>
        <time>2014-05-25T07:45:29Z</time>
      </trkpt>
      <trkpt lat="44.27364" lon="2.68635">
        <ele>663.4470215</ele>
        <time>2014-05-25T07:45:34Z</time>
      </trkpt>
      <trkpt lat="44.27348" lon="2.68646">
        <ele>661.0437012</ele>
        <time>2014-05-25T07:45:40Z</time>
      </trkpt>
      <trkpt lat="44.27336" lon="2.68654">
        <ele>660.5629883</ele>
        <time>2014-05-25T07:45:45Z</time>
      </trkpt>
      <trkpt lat="44.27323" lon="2.68662">
        <ele>659.6018066</ele>
        <time>2014-05-25T07:45:50Z</time>
      </trkpt>
      <trkpt lat="44.27309" lon="2.68666">
        <ele>659.1210938</ele>
        <time>2014-05-25T07:45:55Z</time>
      </trkpt>
      <trkpt lat="44.27298" lon="2.68666">
        <ele>658.1599121</ele>
        <time>2014-05-25T07:46:00Z</time>
      </trkpt>
      <trkpt lat="44.27293" lon="2.68658">
        <ele>658.1599121</ele>
        <time>2014-05-25T07:46:02Z</time>
      </trkpt>
      <trkpt lat="44.27298" lon="2.68644">
        <ele>655.2758789</ele>
        <time>2014-05-25T07:46:07Z</time>
      </trkpt>
      <trkpt lat="44.27313" lon="2.68631">
        <ele>654.795166</ele>
        <time>2014-05-25T07:46:13Z</time>
      </trkpt>
      <trkpt lat="44.27323" lon="2.68617">
        <ele>653.8339844</ele>
        <time>2014-05-25T07:46:18Z</time>
      </trkpt>
      <trkpt lat="44.27334" lon="2.68603">
        <ele>647.5852051</ele>
        <time>2014-05-25T07:46:23Z</time>
      </trkpt>
      <trkpt lat="44.27347" lon="2.68587">
        <ele>641.8173828</ele>
        <time>2014-05-25T07:46:29Z</time>
      </trkpt>
      <trkpt lat="44.27355" lon="2.68577">
        <ele>640.3754883</ele>
        <time>2014-05-25T07:46:33Z</time>
      </trkpt>
      <trkpt lat="44.2736" lon="2.68573">
        <ele>640.3754883</ele>
        <time>2014-05-25T07:46:37Z</time>
      </trkpt>
      <trkpt lat="44.27363" lon="2.68573">
        <ele>637.972168</ele>
        <time>2014-05-25T07:46:40Z</time>
      </trkpt>
      <trkpt lat="44.27351" lon="2.68578">
        <ele>641.3366699</ele>
        <time>2014-05-25T07:46:45Z</time>
      </trkpt>
      <trkpt lat="44.27349" lon="2.68579">
        <ele>641.3366699</ele>
        <time>2014-05-25T07:46:46Z</time>
      </trkpt>
      <trkpt lat="44.27336" lon="2.68584">
        <ele>634.6074219</ele>
        <time>2014-05-25T07:46:52Z</time>
      </trkpt>
      <trkpt lat="44.27332" lon="2.68587">
        <ele>633.1652832</ele>
        <time>2014-05-25T07:46:54Z</time>
      </trkpt>
      <trkpt lat="44.27318" lon="2.68591">
        <ele>629.3200684</ele>
        <time>2014-05-25T07:46:59Z</time>
      </trkpt>
      <trkpt lat="44.27308" lon="2.68596">
        <ele>630.2814941</ele>
        <time>2014-05-25T07:47:03Z</time>
      </trkpt>
      <trkpt lat="44.27295" lon="2.68602">
        <ele>633.1652832</ele>
        <time>2014-05-25T07:47:08Z</time>
      </trkpt>
      <trkpt lat="44.27284" lon="2.68607">
        <ele>635.0881348</ele>
        <time>2014-05-25T07:47:13Z</time>
      </trkpt>
      <trkpt lat="44.27275" lon="2.68608">
        <ele>635.0881348</ele>
        <time>2014-05-25T07:47:17Z</time>
      </trkpt>
      <trkpt lat="44.27265" lon="2.68609">
        <ele>638.4528809</ele>
        <time>2014-05-25T07:47:21Z</time>
      </trkpt>
      <trkpt lat="44.2725" lon="2.68608">
        <ele>640.3754883</ele>
        <time>2014-05-25T07:47:27Z</time>
      </trkpt>
      <trkpt lat="44.27237" lon="2.686">
        <ele>635.5686035</ele>
        <time>2014-05-25T07:47:32Z</time>
      </trkpt>
      <trkpt lat="44.27231" lon="2.68597">
        <ele>634.6074219</ele>
        <time>2014-05-25T07:47:34Z</time>
      </trkpt>
      <trkpt lat="44.27219" lon="2.68591">
        <ele>630.762207</ele>
        <time>2014-05-25T07:47:40Z</time>
      </trkpt>
      <trkpt lat="44.27212" lon="2.68582">
        <ele>629.3200684</ele>
        <time>2014-05-25T07:47:45Z</time>
      </trkpt>
      <trkpt lat="44.27199" lon="2.68568">
        <ele>629.8007813</ele>
        <time>2014-05-25T07:47:51Z</time>
      </trkpt>
      <trkpt lat="44.27197" lon="2.6856">
        <ele>632.6848145</ele>
        <time>2014-05-25T07:47:56Z</time>
      </trkpt>
      <trkpt lat="44.27196" lon="2.68556">
        <ele>629.3200684</ele>
        <time>2014-05-25T07:47:59Z</time>
      </trkpt>
      <trkpt lat="44.27187" lon="2.68538">
        <ele>626.4362793</ele>
        <time>2014-05-25T07:48:06Z</time>
      </trkpt>
      <trkpt lat="44.27184" lon="2.68525">
        <ele>629.3200684</ele>
        <time>2014-05-25T07:48:10Z</time>
      </trkpt>
      <trkpt lat="44.27176" lon="2.68507">
        <ele>633.6459961</ele>
        <time>2014-05-25T07:48:15Z</time>
      </trkpt>
      <trkpt lat="44.27169" lon="2.68493">
        <ele>632.2041016</ele>
        <time>2014-05-25T07:48:21Z</time>
      </trkpt>
      <trkpt lat="44.27168" lon="2.68488">
        <ele>631.2429199</ele>
        <time>2014-05-25T07:48:23Z</time>
      </trkpt>
      <trkpt lat="44.27164" lon="2.68476">
        <ele>623.0717773</ele>
        <time>2014-05-25T07:48:28Z</time>
      </trkpt>
      <trkpt lat="44.27163" lon="2.68474">
        <ele>621.6296387</ele>
        <time>2014-05-25T07:48:29Z</time>
      </trkpt>
      <trkpt lat="44.27163" lon="2.68469">
        <ele>618.2648926</ele>
        <time>2014-05-25T07:48:31Z</time>
      </trkpt>
      <trkpt lat="44.27161" lon="2.68464">
        <ele>616.3422852</ele>
        <time>2014-05-25T07:48:34Z</time>
      </trkpt>
      <trkpt lat="44.27162" lon="2.68457">
        <ele>615.8618164</ele>
        <time>2014-05-25T07:48:36Z</time>
      </trkpt>
      <trkpt lat="44.27165" lon="2.68445">
        <ele>620.1877441</ele>
        <time>2014-05-25T07:48:41Z</time>
      </trkpt>
      <trkpt lat="44.2717" lon="2.68429">
        <ele>623.5524902</ele>
        <time>2014-05-25T07:48:49Z</time>
      </trkpt>
      <trkpt lat="44.27171" lon="2.68427">
        <ele>624.5136719</ele>
        <time>2014-05-25T07:48:50Z</time>
      </trkpt>
      <trkpt lat="44.27173" lon="2.68425">
        <ele>624.032959</ele>
        <time>2014-05-25T07:48:52Z</time>
      </trkpt>
      <trkpt lat="44.27178" lon="2.68415">
        <ele>624.032959</ele>
        <time>2014-05-25T07:48:58Z</time>
      </trkpt>
      <trkpt lat="44.27182" lon="2.68407">
        <ele>628.8395996</ele>
        <time>2014-05-25T07:49:03Z</time>
      </trkpt>
      <trkpt lat="44.27184" lon="2.68399">
        <ele>629.3200684</ele>
        <time>2014-05-25T07:49:07Z</time>
      </trkpt>
      <trkpt lat="44.27186" lon="2.68384">
        <ele>629.8007813</ele>
        <time>2014-05-25T07:49:13Z</time>
      </trkpt>
      <trkpt lat="44.2719" lon="2.68369">
        <ele>628.3588867</ele>
        <time>2014-05-25T07:49:18Z</time>
      </trkpt>
      <trkpt lat="44.27196" lon="2.68352">
        <ele>627.3977051</ele>
        <time>2014-05-25T07:49:23Z</time>
      </trkpt>
      <trkpt lat="44.27202" lon="2.68338">
        <ele>629.3200684</ele>
        <time>2014-05-25T07:49:28Z</time>
      </trkpt>
      <trkpt lat="44.27204" lon="2.68332">
        <ele>628.3588867</ele>
        <time>2014-05-25T07:49:30Z</time>
      </trkpt>
      <trkpt lat="44.2721" lon="2.68324">
        <ele>625.4748535</ele>
        <time>2014-05-25T07:49:34Z</time>
      </trkpt>
      <trkpt lat="44.27221" lon="2.68306">
        <ele>626.4362793</ele>
        <time>2014-05-25T07:49:39Z</time>
      </trkpt>
      <trkpt lat="44.2723" lon="2.6829">
        <ele>626.9169922</ele>
        <time>2014-05-25T07:49:44Z</time>
      </trkpt>
      <trkpt lat="44.27234" lon="2.68272">
        <ele>626.4362793</ele>
        <time>2014-05-25T07:49:49Z</time>
      </trkpt>
      <trkpt lat="44.27246" lon="2.68269">
        <ele>625.9555664</ele>
        <time>2014-05-25T07:49:53Z</time>
      </trkpt>
      <trkpt lat="44.27255" lon="2.68277">
        <ele>624.5136719</ele>
        <time>2014-05-25T07:49:57Z</time>
      </trkpt>
      <trkpt lat="44.27268" lon="2.68286">
        <ele>624.5136719</ele>
        <time>2014-05-25T07:50:02Z</time>
      </trkpt>
      <trkpt lat="44.27278" lon="2.68296">
        <ele>621.6296387</ele>
        <time>2014-05-25T07:50:07Z</time>
      </trkpt>
      <trkpt lat="44.27281" lon="2.68303">
        <ele>620.1877441</ele>
        <time>2014-05-25T07:50:09Z</time>
      </trkpt>
      <trkpt lat="44.27277" lon="2.68318">
        <ele>616.822998</ele>
        <time>2014-05-25T07:50:14Z</time>
      </trkpt>
      <trkpt lat="44.27268" lon="2.6833">
        <ele>618.7456055</ele>
        <time>2014-05-25T07:50:19Z</time>
      </trkpt>
      <trkpt lat="44.27264" lon="2.68331">
        <ele>622.5910645</ele>
        <time>2014-05-25T07:50:22Z</time>
      </trkpt>
      <trkpt lat="44.27265" lon="2.68329">
        <ele>627.3977051</ele>
        <time>2014-05-25T07:50:28Z</time>
      </trkpt>
      <trkpt lat="44.27266" lon="2.68325">
        <ele>630.2814941</ele>
        <time>2014-05-25T07:50:33Z</time>
      </trkpt>
      <trkpt lat="44.27268" lon="2.6832">
        <ele>635.0881348</ele>
        <time>2014-05-25T07:50:37Z</time>
      </trkpt>
      <trkpt lat="44.2727" lon="2.68319">
        <ele>635.0881348</ele>
        <time>2014-05-25T07:50:39Z</time>
      </trkpt>
      <trkpt lat="44.27279" lon="2.68316">
        <ele>636.5302734</ele>
        <time>2014-05-25T07:50:46Z</time>
      </trkpt>
      <trkpt lat="44.27285" lon="2.68311">
        <ele>637.0107422</ele>
        <time>2014-05-25T07:50:52Z</time>
      </trkpt>
      <trkpt lat="44.27287" lon="2.68308">
        <ele>639.4140625</ele>
        <time>2014-05-25T07:50:55Z</time>
      </trkpt>
      <trkpt lat="44.27297" lon="2.68299">
        <ele>639.4140625</ele>
        <time>2014-05-25T07:51:05Z</time>
      </trkpt>
      <trkpt lat="44.273" lon="2.68297">
        <ele>638.9335938</ele>
        <time>2014-05-25T07:51:08Z</time>
      </trkpt>
      <trkpt lat="44.27309" lon="2.68295">
        <ele>636.0495605</ele>
        <time>2014-05-25T07:51:15Z</time>
      </trkpt>
      <trkpt lat="44.27311" lon="2.68293">
        <ele>636.0495605</ele>
        <time>2014-05-25T07:51:17Z</time>
      </trkpt>
      <trkpt lat="44.27316" lon="2.6829">
        <ele>636.0495605</ele>
        <time>2014-05-25T07:51:20Z</time>
      </trkpt>
      <trkpt lat="44.27322" lon="2.68284">
        <ele>636.0495605</ele>
        <time>2014-05-25T07:51:26Z</time>
      </trkpt>
      <trkpt lat="44.27328" lon="2.68278">
        <ele>637.4914551</ele>
        <time>2014-05-25T07:51:31Z</time>
      </trkpt>
      <trkpt lat="44.27332" lon="2.68274">
        <ele>637.972168</ele>
        <time>2014-05-25T07:51:35Z</time>
      </trkpt>
      <trkpt lat="44.27335" lon="2.68273">
        <ele>637.0107422</ele>
        <time>2014-05-25T07:51:37Z</time>
      </trkpt>
      <trkpt lat="44.2734" lon="2.6827">
        <ele>640.3754883</ele>
        <time>2014-05-25T07:51:44Z</time>
      </trkpt>
      <trkpt lat="44.27345" lon="2.68269">
        <ele>639.8947754</ele>
        <time>2014-05-25T07:51:49Z</time>
      </trkpt>
      <trkpt lat="44.2735" lon="2.68266">
        <ele>639.4140625</ele>
        <time>2014-05-25T07:51:54Z</time>
      </trkpt>
      <trkpt lat="44.27357" lon="2.68259">
        <ele>639.4140625</ele>
        <time>2014-05-25T07:52:00Z</time>
      </trkpt>
      <trkpt lat="44.27358" lon="2.68258">
        <ele>639.4140625</ele>
        <time>2014-05-25T07:52:01Z</time>
      </trkpt>
      <trkpt lat="44.27361" lon="2.68256">
        <ele>639.4140625</ele>
        <time>2014-05-25T07:52:05Z</time>
      </trkpt>
      <trkpt lat="44.27368" lon="2.6825">
        <ele>639.4140625</ele>
        <time>2014-05-25T07:52:12Z</time>
      </trkpt>
      <trkpt lat="44.27377" lon="2.68245">
        <ele>640.855957</ele>
        <time>2014-05-25T07:52:19Z</time>
      </trkpt>
      <trkpt lat="44.27381" lon="2.68244">
        <ele>640.3754883</ele>
        <time>2014-05-25T07:52:23Z</time>
      </trkpt>
      <trkpt lat="44.27385" lon="2.68241">
        <ele>640.855957</ele>
        <time>2014-05-25T07:52:28Z</time>
      </trkpt>
      <trkpt lat="44.27391" lon="2.68237">
        <ele>643.2592773</ele>
        <time>2014-05-25T07:52:35Z</time>
      </trkpt>
      <trkpt lat="44.27397" lon="2.6824">
        <ele>643.7399902</ele>
        <time>2014-05-25T07:52:41Z</time>
      </trkpt>
      <trkpt lat="44.27402" lon="2.68242">
        <ele>645.1818848</ele>
        <time>2014-05-25T07:52:47Z</time>
      </trkpt>
      <trkpt lat="44.27412" lon="2.68235">
        <ele>647.1044922</ele>
        <time>2014-05-25T07:52:54Z</time>
      </trkpt>
      <trkpt lat="44.27415" lon="2.68233">
        <ele>647.5852051</ele>
        <time>2014-05-25T07:52:57Z</time>
      </trkpt>
      <trkpt lat="44.2742" lon="2.68229">
        <ele>648.065918</ele>
        <time>2014-05-25T07:53:02Z</time>
      </trkpt>
      <trkpt lat="44.27422" lon="2.68229">
        <ele>649.0270996</ele>
        <time>2014-05-25T07:53:05Z</time>
      </trkpt>
      <trkpt lat="44.27427" lon="2.68224">
        <ele>650.4692383</ele>
        <time>2014-05-25T07:53:10Z</time>
      </trkpt>
      <trkpt lat="44.27434" lon="2.68222">
        <ele>650.4692383</ele>
        <time>2014-05-25T07:53:16Z</time>
      </trkpt>
      <trkpt lat="44.27437" lon="2.68219">
        <ele>650.949707</ele>
        <time>2014-05-25T07:53:20Z</time>
      </trkpt>
      <trkpt lat="44.27442" lon="2.68214">
        <ele>652.8725586</ele>
        <time>2014-05-25T07:53:27Z</time>
      </trkpt>
      <trkpt lat="44.2745" lon="2.6821">
        <ele>654.795166</ele>
        <time>2014-05-25T07:53:33Z</time>
      </trkpt>
      <trkpt lat="44.27457" lon="2.68205">
        <ele>653.3532715</ele>
        <time>2014-05-25T07:53:40Z</time>
      </trkpt>
      <trkpt lat="44.27464" lon="2.68203">
        <ele>653.3532715</ele>
        <time>2014-05-25T07:53:46Z</time>
      </trkpt>
      <trkpt lat="44.27466" lon="2.68203">
        <ele>653.3532715</ele>
        <time>2014-05-25T07:53:48Z</time>
      </trkpt>
      <trkpt lat="44.27474" lon="2.68206">
        <ele>657.1984863</ele>
        <time>2014-05-25T07:53:56Z</time>
      </trkpt>
      <trkpt lat="44.27481" lon="2.68208">
        <ele>658.1599121</ele>
        <time>2014-05-25T07:54:02Z</time>
      </trkpt>
      <trkpt lat="44.27485" lon="2.68207">
        <ele>659.6018066</ele>
        <time>2014-05-25T07:54:06Z</time>
      </trkpt>
      <trkpt lat="44.27487" lon="2.68206">
        <ele>659.6018066</ele>
        <time>2014-05-25T07:54:08Z</time>
      </trkpt>
      <trkpt lat="44.27493" lon="2.68197">
        <ele>661.0437012</ele>
        <time>2014-05-25T07:54:16Z</time>
      </trkpt>
      <trkpt lat="44.27494" lon="2.68193">
        <ele>662.005127</ele>
        <time>2014-05-25T07:54:19Z</time>
      </trkpt>
      <trkpt lat="44.27495" lon="2.68184">
        <ele>664.888916</ele>
        <time>2014-05-25T07:54:25Z</time>
      </trkpt>
      <trkpt lat="44.27496" lon="2.68182">
        <ele>665.3696289</ele>
        <time>2014-05-25T07:54:26Z</time>
      </trkpt>
      <trkpt lat="44.27497" lon="2.68172">
        <ele>667.7727051</ele>
        <time>2014-05-25T07:54:32Z</time>
      </trkpt>
      <trkpt lat="44.27501" lon="2.68165">
        <ele>669.2150879</ele>
        <time>2014-05-25T07:54:37Z</time>
      </trkpt>
      <trkpt lat="44.27512" lon="2.68157">
        <ele>670.1762695</ele>
        <time>2014-05-25T07:54:43Z</time>
      </trkpt>
      <trkpt lat="44.27515" lon="2.68143">
        <ele>670.1762695</ele>
        <time>2014-05-25T07:54:48Z</time>
      </trkpt>
      <trkpt lat="44.27518" lon="2.68129">
        <ele>671.1376953</ele>
        <time>2014-05-25T07:54:53Z</time>
      </trkpt>
      <trkpt lat="44.27519" lon="2.68115">
        <ele>671.6181641</ele>
        <time>2014-05-25T07:54:58Z</time>
      </trkpt>
      <trkpt lat="44.27523" lon="2.68102">
        <ele>672.5795898</ele>
        <time>2014-05-25T07:55:03Z</time>
      </trkpt>
      <trkpt lat="44.27527" lon="2.68084">
        <ele>674.5021973</ele>
        <time>2014-05-25T07:55:09Z</time>
      </trkpt>
      <trkpt lat="44.27529" lon="2.68066">
        <ele>677.3862305</ele>
        <time>2014-05-25T07:55:15Z</time>
      </trkpt>
      <trkpt lat="44.27532" lon="2.6805">
        <ele>679.3085938</ele>
        <time>2014-05-25T07:55:21Z</time>
      </trkpt>
      <trkpt lat="44.27536" lon="2.68032">
        <ele>681.2314453</ele>
        <time>2014-05-25T07:55:27Z</time>
      </trkpt>
      <trkpt lat="44.27544" lon="2.68022">
        <ele>681.7119141</ele>
        <time>2014-05-25T07:55:32Z</time>
      </trkpt>
      <trkpt lat="44.27553" lon="2.68017">
        <ele>683.1538086</ele>
        <time>2014-05-25T07:55:37Z</time>
      </trkpt>
      <trkpt lat="44.27567" lon="2.68016">
        <ele>686.0380859</ele>
        <time>2014-05-25T07:55:44Z</time>
      </trkpt>
      <trkpt lat="44.27582" lon="2.68016">
        <ele>686.9992676</ele>
        <time>2014-05-25T07:55:51Z</time>
      </trkpt>
      <trkpt lat="44.27594" lon="2.68015">
        <ele>688.4414063</ele>
        <time>2014-05-25T07:55:57Z</time>
      </trkpt>
      <trkpt lat="44.27606" lon="2.68012">
        <ele>689.4025879</ele>
        <time>2014-05-25T07:56:03Z</time>
      </trkpt>
      <trkpt lat="44.27619" lon="2.68011">
        <ele>687.4799805</ele>
        <time>2014-05-25T07:56:09Z</time>
      </trkpt>
      <trkpt lat="44.27627" lon="2.68011">
        <ele>686.9992676</ele>
        <time>2014-05-25T07:56:14Z</time>
      </trkpt>
      <trkpt lat="44.27639" lon="2.68007">
        <ele>687.9606934</ele>
        <time>2014-05-25T07:56:20Z</time>
      </trkpt>
      <trkpt lat="44.27648" lon="2.68004">
        <ele>688.9221191</ele>
        <time>2014-05-25T07:56:24Z</time>
      </trkpt>
      <trkpt lat="44.27656" lon="2.67999">
        <ele>691.3251953</ele>
        <time>2014-05-25T07:56:29Z</time>
      </trkpt>
      <trkpt lat="44.27662" lon="2.67996">
        <ele>693.2478027</ele>
        <time>2014-05-25T07:56:32Z</time>
      </trkpt>
      <trkpt lat="44.27663" lon="2.67993">
        <ele>693.2478027</ele>
        <time>2014-05-25T07:56:37Z</time>
      </trkpt>
      <trkpt lat="44.2765" lon="2.67999">
        <ele>694.2092285</ele>
        <time>2014-05-25T07:56:43Z</time>
      </trkpt>
      <trkpt lat="44.27647" lon="2.68001">
        <ele>693.7285156</ele>
        <time>2014-05-25T07:56:44Z</time>
      </trkpt>
      <trkpt lat="44.27634" lon="2.68011">
        <ele>692.2866211</ele>
        <time>2014-05-25T07:56:50Z</time>
      </trkpt>
      <trkpt lat="44.27626" lon="2.68022">
        <ele>690.8444824</ele>
        <time>2014-05-25T07:56:55Z</time>
      </trkpt>
      <trkpt lat="44.27621" lon="2.68031">
        <ele>687.9606934</ele>
        <time>2014-05-25T07:57:00Z</time>
      </trkpt>
      <trkpt lat="44.27614" lon="2.68039">
        <ele>686.9992676</ele>
        <time>2014-05-25T07:57:07Z</time>
      </trkpt>
      <trkpt lat="44.27611" lon="2.68041">
        <ele>688.4414063</ele>
        <time>2014-05-25T07:57:10Z</time>
      </trkpt>
      <trkpt lat="44.27605" lon="2.68048">
        <ele>690.3640137</ele>
        <time>2014-05-25T07:57:17Z</time>
      </trkpt>
      <trkpt lat="44.27598" lon="2.6805">
        <ele>692.2866211</ele>
        <time>2014-05-25T07:57:22Z</time>
      </trkpt>
      <trkpt lat="44.27596" lon="2.68051">
        <ele>692.2866211</ele>
        <time>2014-05-25T07:57:24Z</time>
      </trkpt>
      <trkpt lat="44.27593" lon="2.68054">
        <ele>690.8444824</ele>
        <time>2014-05-25T07:57:28Z</time>
      </trkpt>
      <trkpt lat="44.27586" lon="2.68064">
        <ele>688.9221191</ele>
        <time>2014-05-25T07:57:36Z</time>
      </trkpt>
      <trkpt lat="44.27584" lon="2.68066">
        <ele>689.8833008</ele>
        <time>2014-05-25T07:57:38Z</time>
      </trkpt>
      <trkpt lat="44.27579" lon="2.6808">
        <ele>692.2866211</ele>
        <time>2014-05-25T07:57:45Z</time>
      </trkpt>
      <trkpt lat="44.27579" lon="2.68095">
        <ele>693.2478027</ele>
        <time>2014-05-25T07:57:53Z</time>
      </trkpt>
      <trkpt lat="44.27579" lon="2.68099">
        <ele>693.2478027</ele>
        <time>2014-05-25T07:57:55Z</time>
      </trkpt>
      <trkpt lat="44.27581" lon="2.6811">
        <ele>695.1704102</ele>
        <time>2014-05-25T07:58:02Z</time>
      </trkpt>
      <trkpt lat="44.27586" lon="2.68122">
        <ele>698.0544434</ele>
        <time>2014-05-25T07:58:10Z</time>
      </trkpt>
      <trkpt lat="44.27594" lon="2.68129">
        <ele>701.8999023</ele>
        <time>2014-05-25T07:58:17Z</time>
      </trkpt>
      <trkpt lat="44.27601" lon="2.68132">
        <ele>705.7451172</ele>
        <time>2014-05-25T07:58:23Z</time>
      </trkpt>
      <trkpt lat="44.27608" lon="2.68135">
        <ele>709.590332</ele>
        <time>2014-05-25T07:58:29Z</time>
      </trkpt>
      <trkpt lat="44.27618" lon="2.68136">
        <ele>713.4355469</ele>
        <time>2014-05-25T07:58:37Z</time>
      </trkpt>
      <trkpt lat="44.27625" lon="2.68137">
        <ele>714.3967285</ele>
        <time>2014-05-25T07:58:43Z</time>
      </trkpt>
      <trkpt lat="44.27634" lon="2.68137">
        <ele>715.8388672</ele>
        <time>2014-05-25T07:58:50Z</time>
      </trkpt>
      <trkpt lat="44.27645" lon="2.68133">
        <ele>717.7614746</ele>
        <time>2014-05-25T07:58:57Z</time>
      </trkpt>
      <trkpt lat="44.27648" lon="2.68133">
        <ele>718.2421875</ele>
        <time>2014-05-25T07:59:00Z</time>
      </trkpt>
      <trkpt lat="44.27655" lon="2.68132">
        <ele>718.2421875</ele>
        <time>2014-05-25T07:59:06Z</time>
      </trkpt>
      <trkpt lat="44.27667" lon="2.68126">
        <ele>719.6843262</ele>
        <time>2014-05-25T07:59:15Z</time>
      </trkpt>
      <trkpt lat="44.27678" lon="2.68123">
        <ele>721.1262207</ele>
        <time>2014-05-25T07:59:22Z</time>
      </trkpt>
      <trkpt lat="44.27682" lon="2.68124">
        <ele>721.1262207</ele>
        <time>2014-05-25T07:59:25Z</time>
      </trkpt>
      <trkpt lat="44.27694" lon="2.68126">
        <ele>722.5681152</ele>
        <time>2014-05-25T07:59:34Z</time>
      </trkpt>
      <trkpt lat="44.27704" lon="2.68131">
        <ele>725.4519043</ele>
        <time>2014-05-25T07:59:42Z</time>
      </trkpt>
      <trkpt lat="44.27711" lon="2.68136">
        <ele>727.3747559</ele>
        <time>2014-05-25T07:59:48Z</time>
      </trkpt>
      <trkpt lat="44.27717" lon="2.68141">
        <ele>729.2971191</ele>
        <time>2014-05-25T07:59:54Z</time>
      </trkpt>
      <trkpt lat="44.27724" lon="2.68144">
        <ele>733.1425781</ele>
        <time>2014-05-25T08:00:00Z</time>
      </trkpt>
      <trkpt lat="44.27731" lon="2.68149">
        <ele>734.5847168</ele>
        <time>2014-05-25T08:00:06Z</time>
      </trkpt>
      <trkpt lat="44.27741" lon="2.68156">
        <ele>735.5458984</ele>
        <time>2014-05-25T08:00:15Z</time>
      </trkpt>
      <trkpt lat="44.2775" lon="2.68163">
        <ele>736.0266113</ele>
        <time>2014-05-25T08:00:23Z</time>
      </trkpt>
      <trkpt lat="44.27758" lon="2.6817">
        <ele>736.987793</ele>
        <time>2014-05-25T08:00:31Z</time>
      </trkpt>
      <trkpt lat="44.27766" lon="2.68176">
        <ele>737.9492188</ele>
        <time>2014-05-25T08:00:38Z</time>
      </trkpt>
      <trkpt lat="44.27776" lon="2.68184">
        <ele>738.9106445</ele>
        <time>2014-05-25T08:00:46Z</time>
      </trkpt>
      <trkpt lat="44.27783" lon="2.68189">
        <ele>739.3911133</ele>
        <time>2014-05-25T08:00:53Z</time>
      </trkpt>
      <trkpt lat="44.27789" lon="2.68192">
        <ele>739.3911133</ele>
        <time>2014-05-25T08:00:58Z</time>
      </trkpt>
      <trkpt lat="44.27796" lon="2.68195">
        <ele>739.3911133</ele>
        <time>2014-05-25T08:01:04Z</time>
      </trkpt>
      <trkpt lat="44.278" lon="2.68197">
        <ele>740.8330078</ele>
        <time>2014-05-25T08:01:08Z</time>
      </trkpt>
      <trkpt lat="44.27807" lon="2.68205">
        <ele>743.2363281</ele>
        <time>2014-05-25T08:01:15Z</time>
      </trkpt>
      <trkpt lat="44.27816" lon="2.68207">
        <ele>743.717041</ele>
        <time>2014-05-25T08:01:22Z</time>
      </trkpt>
      <trkpt lat="44.27823" lon="2.68212">
        <ele>742.7558594</ele>
        <time>2014-05-25T08:01:27Z</time>
      </trkpt>
      <trkpt lat="44.27831" lon="2.68217">
        <ele>740.3525391</ele>
        <time>2014-05-25T08:01:35Z</time>
      </trkpt>
      <trkpt lat="44.27836" lon="2.68222">
        <ele>742.2751465</ele>
        <time>2014-05-25T08:01:40Z</time>
      </trkpt>
      <trkpt lat="44.27839" lon="2.68225">
        <ele>742.2751465</ele>
        <time>2014-05-25T08:01:44Z</time>
      </trkpt>
      <trkpt lat="44.27851" lon="2.68231">
        <ele>744.1977539</ele>
        <time>2014-05-25T08:01:53Z</time>
      </trkpt>
      <trkpt lat="44.27865" lon="2.68237">
        <ele>746.6010742</ele>
        <time>2014-05-25T08:02:05Z</time>
      </trkpt>
      <trkpt lat="44.27872" lon="2.68239">
        <ele>748.0432129</ele>
        <time>2014-05-25T08:02:11Z</time>
      </trkpt>
      <trkpt lat="44.27883" lon="2.68241">
        <ele>749.9658203</ele>
        <time>2014-05-25T08:02:18Z</time>
      </trkpt>
      <trkpt lat="44.27886" lon="2.6824">
        <ele>749.9658203</ele>
        <time>2014-05-25T08:02:20Z</time>
      </trkpt>
      <trkpt lat="44.2789" lon="2.68237">
        <ele>751.4077148</ele>
        <time>2014-05-25T08:02:24Z</time>
      </trkpt>
      <trkpt lat="44.279" lon="2.68232">
        <ele>751.8884277</ele>
        <time>2014-05-25T08:02:31Z</time>
      </trkpt>
      <trkpt lat="44.27908" lon="2.6823">
        <ele>752.8496094</ele>
        <time>2014-05-25T08:02:37Z</time>
      </trkpt>
      <trkpt lat="44.2792" lon="2.68229">
        <ele>754.7722168</ele>
        <time>2014-05-25T08:02:46Z</time>
      </trkpt>
      <trkpt lat="44.27928" lon="2.68232">
        <ele>755.7336426</ele>
        <time>2014-05-25T08:02:52Z</time>
      </trkpt>
      <trkpt lat="44.27936" lon="2.68232">
        <ele>756.6948242</ele>
        <time>2014-05-25T08:02:57Z</time>
      </trkpt>
      <trkpt lat="44.27944" lon="2.68237">
        <ele>759.0981445</ele>
        <time>2014-05-25T08:03:03Z</time>
      </trkpt>
      <trkpt lat="44.27952" lon="2.68239">
        <ele>760.0593262</ele>
        <time>2014-05-25T08:03:09Z</time>
      </trkpt>
      <trkpt lat="44.2796" lon="2.68244">
        <ele>760.0593262</ele>
        <time>2014-05-25T08:03:15Z</time>
      </trkpt>
      <trkpt lat="44.27969" lon="2.68249">
        <ele>761.9821777</ele>
        <time>2014-05-25T08:03:21Z</time>
      </trkpt>
      <trkpt lat="44.27974" lon="2.68253">
        <ele>762.4626465</ele>
        <time>2014-05-25T08:03:25Z</time>
      </trkpt>
      <trkpt lat="44.27975" lon="2.68253">
        <ele>762.4626465</ele>
        <time>2014-05-25T08:03:26Z</time>
      </trkpt>
      <trkpt lat="44.27979" lon="2.68257">
        <ele>763.904541</ele>
        <time>2014-05-25T08:03:30Z</time>
      </trkpt>
      <trkpt lat="44.2799" lon="2.68263">
        <ele>765.3469238</ele>
        <time>2014-05-25T08:03:39Z</time>
      </trkpt>
      <trkpt lat="44.28001" lon="2.6827">
        <ele>769.1921387</ele>
        <time>2014-05-25T08:03:48Z</time>
      </trkpt>
      <trkpt lat="44.28012" lon="2.68278">
        <ele>773.0373535</ele>
        <time>2014-05-25T08:03:57Z</time>
      </trkpt>
      <trkpt lat="44.28021" lon="2.68286">
        <ele>776.4018555</ele>
        <time>2014-05-25T08:04:06Z</time>
      </trkpt>
      <trkpt lat="44.28023" lon="2.68288">
        <ele>776.8825684</ele>
        <time>2014-05-25T08:04:08Z</time>
      </trkpt>
      <trkpt lat="44.28027" lon="2.68292">
        <ele>777.3632813</ele>
        <time>2014-05-25T08:04:13Z</time>
      </trkpt>
      <trkpt lat="44.28035" lon="2.68297">
        <ele>778.3244629</ele>
        <time>2014-05-25T08:04:21Z</time>
      </trkpt>
      <trkpt lat="44.2804" lon="2.68302">
        <ele>776.8825684</ele>
        <time>2014-05-25T08:04:26Z</time>
      </trkpt>
      <trkpt lat="44.28047" lon="2.68306">
        <ele>776.4018555</ele>
        <time>2014-05-25T08:04:31Z</time>
      </trkpt>
      <trkpt lat="44.28054" lon="2.68309">
        <ele>777.3632813</ele>
        <time>2014-05-25T08:04:37Z</time>
      </trkpt>
      <trkpt lat="44.28062" lon="2.68311">
        <ele>778.8051758</ele>
        <time>2014-05-25T08:04:43Z</time>
      </trkpt>
      <trkpt lat="44.28071" lon="2.68312">
        <ele>779.7663574</ele>
        <time>2014-05-25T08:04:50Z</time>
      </trkpt>
      <trkpt lat="44.28079" lon="2.68307">
        <ele>781.2087402</ele>
        <time>2014-05-25T08:04:56Z</time>
      </trkpt>
      <trkpt lat="44.28085" lon="2.68303">
        <ele>781.2087402</ele>
        <time>2014-05-25T08:05:00Z</time>
      </trkpt>
      <trkpt lat="44.28096" lon="2.68296">
        <ele>780.7280273</ele>
        <time>2014-05-25T08:05:08Z</time>
      </trkpt>
      <trkpt lat="44.28108" lon="2.68294">
        <ele>779.7663574</ele>
        <time>2014-05-25T08:05:14Z</time>
      </trkpt>
      <trkpt lat="44.2812" lon="2.68297">
        <ele>780.2473145</ele>
        <time>2014-05-25T08:05:18Z</time>
      </trkpt>
      <trkpt lat="44.28136" lon="2.68306">
        <ele>781.689209</ele>
        <time>2014-05-25T08:05:24Z</time>
      </trkpt>
      <trkpt lat="44.28148" lon="2.68314">
        <ele>783.1311035</ele>
        <time>2014-05-25T08:05:29Z</time>
      </trkpt>
      <trkpt lat="44.2816" lon="2.68321">
        <ele>785.0539551</ele>
        <time>2014-05-25T08:05:34Z</time>
      </trkpt>
      <trkpt lat="44.28175" lon="2.6833">
        <ele>786.4958496</ele>
        <time>2014-05-25T08:05:40Z</time>
      </trkpt>
      <trkpt lat="44.28187" lon="2.68337">
        <ele>786.0151367</ele>
        <time>2014-05-25T08:05:45Z</time>
      </trkpt>
      <trkpt lat="44.28199" lon="2.68346">
        <ele>786.0151367</ele>
        <time>2014-05-25T08:05:50Z</time>
      </trkpt>
      <trkpt lat="44.2821" lon="2.68356">
        <ele>785.0539551</ele>
        <time>2014-05-25T08:05:55Z</time>
      </trkpt>
      <trkpt lat="44.28224" lon="2.68366">
        <ele>784.5732422</ele>
        <time>2014-05-25T08:06:01Z</time>
      </trkpt>
      <trkpt lat="44.28235" lon="2.68374">
        <ele>785.0539551</ele>
        <time>2014-05-25T08:06:06Z</time>
      </trkpt>
      <trkpt lat="44.2825" lon="2.68384">
        <ele>785.5344238</ele>
        <time>2014-05-25T08:06:12Z</time>
      </trkpt>
      <trkpt lat="44.28263" lon="2.68394">
        <ele>786.4958496</ele>
        <time>2014-05-25T08:06:18Z</time>
      </trkpt>
      <trkpt lat="44.28276" lon="2.68402">
        <ele>786.4958496</ele>
        <time>2014-05-25T08:06:24Z</time>
      </trkpt>
      <trkpt lat="44.28291" lon="2.68408">
        <ele>787.4570313</ele>
        <time>2014-05-25T08:06:30Z</time>
      </trkpt>
      <trkpt lat="44.28304" lon="2.68412">
        <ele>788.418457</ele>
        <time>2014-05-25T08:06:35Z</time>
      </trkpt>
      <trkpt lat="44.28321" lon="2.68416">
        <ele>788.8991699</ele>
        <time>2014-05-25T08:06:42Z</time>
      </trkpt>
      <trkpt lat="44.28334" lon="2.68419">
        <ele>788.8991699</ele>
        <time>2014-05-25T08:06:48Z</time>
      </trkpt>
      <trkpt lat="44.28336" lon="2.68419">
        <ele>788.8991699</ele>
        <time>2014-05-25T08:06:49Z</time>
      </trkpt>
      <trkpt lat="44.2834" lon="2.68402">
        <ele>788.8991699</ele>
        <time>2014-05-25T08:06:54Z</time>
      </trkpt>
      <trkpt lat="44.28344" lon="2.6838">
        <ele>786.9763184</ele>
        <time>2014-05-25T08:07:00Z</time>
      </trkpt>
      <trkpt lat="44.28346" lon="2.6836">
        <ele>785.5344238</ele>
        <time>2014-05-25T08:07:05Z</time>
      </trkpt>
      <trkpt lat="44.28346" lon="2.68339">
        <ele>784.5732422</ele>
        <time>2014-05-25T08:07:10Z</time>
      </trkpt>
      <trkpt lat="44.28347" lon="2.68318">
        <ele>782.1699219</ele>
        <time>2014-05-25T08:07:15Z</time>
      </trkpt>
      <trkpt lat="44.28349" lon="2.68299">
        <ele>780.2473145</ele>
        <time>2014-05-25T08:07:20Z</time>
      </trkpt>
      <trkpt lat="44.28349" lon="2.68282">
        <ele>779.7663574</ele>
        <time>2014-05-25T08:07:24Z</time>
      </trkpt>
      <trkpt lat="44.28352" lon="2.6826">
        <ele>777.3632813</ele>
        <time>2014-05-25T08:07:29Z</time>
      </trkpt>
      <trkpt lat="44.28353" lon="2.68235">
        <ele>776.4018555</ele>
        <time>2014-05-25T08:07:35Z</time>
      </trkpt>
      <trkpt lat="44.28356" lon="2.68216">
        <ele>775.9211426</ele>
        <time>2014-05-25T08:07:40Z</time>
      </trkpt>
      <trkpt lat="44.28358" lon="2.68193">
        <ele>774.479248</ele>
        <time>2014-05-25T08:07:46Z</time>
      </trkpt>
      <trkpt lat="44.2836" lon="2.68178">
        <ele>773.9985352</ele>
        <time>2014-05-25T08:07:50Z</time>
      </trkpt>
      <trkpt lat="44.2836" lon="2.68153">
        <ele>772.5566406</ele>
        <time>2014-05-25T08:07:57Z</time>
      </trkpt>
      <trkpt lat="44.28358" lon="2.68134">
        <ele>772.0759277</ele>
        <time>2014-05-25T08:08:02Z</time>
      </trkpt>
      <trkpt lat="44.28354" lon="2.68115">
        <ele>771.5952148</ele>
        <time>2014-05-25T08:08:07Z</time>
      </trkpt>
      <trkpt lat="44.28353" lon="2.68092">
        <ele>772.0759277</ele>
        <time>2014-05-25T08:08:13Z</time>
      </trkpt>
      <trkpt lat="44.28353" lon="2.68067">
        <ele>772.0759277</ele>
        <time>2014-05-25T08:08:19Z</time>
      </trkpt>
      <trkpt lat="44.28356" lon="2.68049">
        <ele>771.1147461</ele>
        <time>2014-05-25T08:08:24Z</time>
      </trkpt>
      <trkpt lat="44.28361" lon="2.68029">
        <ele>769.6728516</ele>
        <time>2014-05-25T08:08:30Z</time>
      </trkpt>
      <trkpt lat="44.28367" lon="2.68012">
        <ele>766.7888184</ele>
        <time>2014-05-25T08:08:35Z</time>
      </trkpt>
      <trkpt lat="44.28374" lon="2.6799">
        <ele>765.8276367</ele>
        <time>2014-05-25T08:08:41Z</time>
      </trkpt>
      <trkpt lat="44.28381" lon="2.67974">
        <ele>764.8662109</ele>
        <time>2014-05-25T08:08:46Z</time>
      </trkpt>
      <trkpt lat="44.28388" lon="2.67957">
        <ele>763.904541</ele>
        <time>2014-05-25T08:08:51Z</time>
      </trkpt>
      <trkpt lat="44.28395" lon="2.6794">
        <ele>761.9821777</ele>
        <time>2014-05-25T08:08:56Z</time>
      </trkpt>
      <trkpt lat="44.28403" lon="2.67919">
        <ele>759.5788574</ele>
        <time>2014-05-25T08:09:02Z</time>
      </trkpt>
      <trkpt lat="44.2841" lon="2.67899">
        <ele>760.0593262</ele>
        <time>2014-05-25T08:09:08Z</time>
      </trkpt>
      <trkpt lat="44.28419" lon="2.67877">
        <ele>760.0593262</ele>
        <time>2014-05-25T08:09:15Z</time>
      </trkpt>
      <trkpt lat="44.28424" lon="2.67859">
        <ele>760.5400391</ele>
        <time>2014-05-25T08:09:20Z</time>
      </trkpt>
      <trkpt lat="44.28423" lon="2.67841">
        <ele>760.0593262</ele>
        <time>2014-05-25T08:09:25Z</time>
      </trkpt>
      <trkpt lat="44.2842" lon="2.67826">
        <ele>760.0593262</ele>
        <time>2014-05-25T08:09:30Z</time>
      </trkpt>
      <trkpt lat="44.28417" lon="2.67806">
        <ele>761.5014648</ele>
        <time>2014-05-25T08:09:36Z</time>
      </trkpt>
      <trkpt lat="44.28409" lon="2.67784">
        <ele>763.4240723</ele>
        <time>2014-05-25T08:09:42Z</time>
      </trkpt>
      <trkpt lat="44.28398" lon="2.67765">
        <ele>762.9433594</ele>
        <time>2014-05-25T08:09:49Z</time>
      </trkpt>
      <trkpt lat="44.28389" lon="2.6775">
        <ele>762.4626465</ele>
        <time>2014-05-25T08:09:55Z</time>
      </trkpt>
      <trkpt lat="44.28383" lon="2.67735">
        <ele>762.4626465</ele>
        <time>2014-05-25T08:10:01Z</time>
      </trkpt>
      <trkpt lat="44.2838" lon="2.67726">
        <ele>763.904541</ele>
        <time>2014-05-25T08:10:05Z</time>
      </trkpt>
      <trkpt lat="44.28373" lon="2.67714">
        <ele>765.8276367</ele>
        <time>2014-05-25T08:10:11Z</time>
      </trkpt>
      <trkpt lat="44.28369" lon="2.67701">
        <ele>766.7888184</ele>
        <time>2014-05-25T08:10:17Z</time>
      </trkpt>
      <trkpt lat="44.28363" lon="2.6769">
        <ele>768.2307129</ele>
        <time>2014-05-25T08:10:21Z</time>
      </trkpt>
      <trkpt lat="44.28348" lon="2.6767">
        <ele>769.1921387</ele>
        <time>2014-05-25T08:10:29Z</time>
      </trkpt>
      <trkpt lat="44.28343" lon="2.67656">
        <ele>770.1533203</ele>
        <time>2014-05-25T08:10:34Z</time>
      </trkpt>
      <trkpt lat="44.28342" lon="2.67651">
        <ele>770.1533203</ele>
        <time>2014-05-25T08:10:36Z</time>
      </trkpt>
      <trkpt lat="44.28339" lon="2.67634">
        <ele>770.1533203</ele>
        <time>2014-05-25T08:10:42Z</time>
      </trkpt>
      <trkpt lat="44.28338" lon="2.67627">
        <ele>770.6340332</ele>
        <time>2014-05-25T08:10:45Z</time>
      </trkpt>
      <trkpt lat="44.28329" lon="2.67608">
        <ele>773.9985352</ele>
        <time>2014-05-25T08:10:51Z</time>
      </trkpt>
      <trkpt lat="44.28327" lon="2.67602">
        <ele>773.5180664</ele>
        <time>2014-05-25T08:10:53Z</time>
      </trkpt>
      <trkpt lat="44.28321" lon="2.67586">
        <ele>774.9599609</ele>
        <time>2014-05-25T08:10:59Z</time>
      </trkpt>
      <trkpt lat="44.28316" lon="2.67571">
        <ele>774.479248</ele>
        <time>2014-05-25T08:11:04Z</time>
      </trkpt>
      <trkpt lat="44.28315" lon="2.67558">
        <ele>771.5952148</ele>
        <time>2014-05-25T08:11:09Z</time>
      </trkpt>
      <trkpt lat="44.28313" lon="2.67541">
        <ele>769.6728516</ele>
        <time>2014-05-25T08:11:15Z</time>
      </trkpt>
      <trkpt lat="44.28312" lon="2.67535">
        <ele>768.2307129</ele>
        <time>2014-05-25T08:11:17Z</time>
      </trkpt>
      <trkpt lat="44.28309" lon="2.67514">
        <ele>770.1533203</ele>
        <time>2014-05-25T08:11:23Z</time>
      </trkpt>
      <trkpt lat="44.28306" lon="2.67497">
        <ele>769.1921387</ele>
        <time>2014-05-25T08:11:28Z</time>
      </trkpt>
      <trkpt lat="44.28302" lon="2.67485">
        <ele>770.1533203</ele>
        <time>2014-05-25T08:11:32Z</time>
      </trkpt>
      <trkpt lat="44.28296" lon="2.67467">
        <ele>771.5952148</ele>
        <time>2014-05-25T08:11:38Z</time>
      </trkpt>
      <trkpt lat="44.28293" lon="2.67452">
        <ele>773.0373535</ele>
        <time>2014-05-25T08:11:43Z</time>
      </trkpt>
      <trkpt lat="44.28291" lon="2.67435">
        <ele>775.9211426</ele>
        <time>2014-05-25T08:11:48Z</time>
      </trkpt>
      <trkpt lat="44.28291" lon="2.67433">
        <ele>776.4018555</ele>
        <time>2014-05-25T08:11:49Z</time>
      </trkpt>
      <trkpt lat="44.28292" lon="2.67423">
        <ele>777.3632813</ele>
        <time>2014-05-25T08:11:53Z</time>
      </trkpt>
      <trkpt lat="44.28292" lon="2.67409">
        <ele>777.3632813</ele>
        <time>2014-05-25T08:11:58Z</time>
      </trkpt>
      <trkpt lat="44.2829" lon="2.67388">
        <ele>779.2856445</ele>
        <time>2014-05-25T08:12:05Z</time>
      </trkpt>
      <trkpt lat="44.28287" lon="2.67369">
        <ele>782.1699219</ele>
        <time>2014-05-25T08:12:10Z</time>
      </trkpt>
      <trkpt lat="44.28284" lon="2.67354">
        <ele>782.1699219</ele>
        <time>2014-05-25T08:12:15Z</time>
      </trkpt>
      <trkpt lat="44.28283" lon="2.67351">
        <ele>782.1699219</ele>
        <time>2014-05-25T08:12:16Z</time>
      </trkpt>
      <trkpt lat="44.28282" lon="2.67338">
        <ele>783.1311035</ele>
        <time>2014-05-25T08:12:21Z</time>
      </trkpt>
      <trkpt lat="44.2828" lon="2.67323">
        <ele>783.1311035</ele>
        <time>2014-05-25T08:12:26Z</time>
      </trkpt>
      <trkpt lat="44.28278" lon="2.67311">
        <ele>784.0925293</ele>
        <time>2014-05-25T08:12:30Z</time>
      </trkpt>
      <trkpt lat="44.28276" lon="2.67299">
        <ele>784.5732422</ele>
        <time>2014-05-25T08:12:34Z</time>
      </trkpt>
      <trkpt lat="44.28273" lon="2.67278">
        <ele>782.6506348</ele>
        <time>2014-05-25T08:12:40Z</time>
      </trkpt>
      <trkpt lat="44.28273" lon="2.67265">
        <ele>780.2473145</ele>
        <time>2014-05-25T08:12:45Z</time>
      </trkpt>
      <trkpt lat="44.28271" lon="2.67248">
        <ele>779.7663574</ele>
        <time>2014-05-25T08:12:50Z</time>
      </trkpt>
      <trkpt lat="44.28271" lon="2.6723">
        <ele>779.7663574</ele>
        <time>2014-05-25T08:12:56Z</time>
      </trkpt>
      <trkpt lat="44.2827" lon="2.67213">
        <ele>779.7663574</ele>
        <time>2014-05-25T08:13:01Z</time>
      </trkpt>
      <trkpt lat="44.28268" lon="2.67192">
        <ele>780.2473145</ele>
        <time>2014-05-25T08:13:07Z</time>
      </trkpt>
      <trkpt lat="44.28265" lon="2.67172">
        <ele>779.2856445</ele>
        <time>2014-05-25T08:13:13Z</time>
      </trkpt>
      <trkpt lat="44.28261" lon="2.67154">
        <ele>779.7663574</ele>
        <time>2014-05-25T08:13:18Z</time>
      </trkpt>
      <trkpt lat="44.28258" lon="2.67137">
        <ele>780.2473145</ele>
        <time>2014-05-25T08:13:23Z</time>
      </trkpt>
      <trkpt lat="44.28256" lon="2.67124">
        <ele>779.7663574</ele>
        <time>2014-05-25T08:13:27Z</time>
      </trkpt>
      <trkpt lat="44.28264" lon="2.67112">
        <ele>778.8051758</ele>
        <time>2014-05-25T08:13:32Z</time>
      </trkpt>
      <trkpt lat="44.28276" lon="2.67106">
        <ele>778.8051758</ele>
        <time>2014-05-25T08:13:37Z</time>
      </trkpt>
      <trkpt lat="44.2829" lon="2.67101">
        <ele>778.8051758</ele>
        <time>2014-05-25T08:13:42Z</time>
      </trkpt>
      <trkpt lat="44.28302" lon="2.67096">
        <ele>778.3244629</ele>
        <time>2014-05-25T08:13:47Z</time>
      </trkpt>
      <trkpt lat="44.28318" lon="2.6709">
        <ele>778.3244629</ele>
        <time>2014-05-25T08:13:53Z</time>
      </trkpt>
      <trkpt lat="44.28328" lon="2.67084">
        <ele>778.3244629</ele>
        <time>2014-05-25T08:13:57Z</time>
      </trkpt>
      <trkpt lat="44.28345" lon="2.67068">
        <ele>776.4018555</ele>
        <time>2014-05-25T08:14:04Z</time>
      </trkpt>
      <trkpt lat="44.28355" lon="2.67053">
        <ele>775.9211426</ele>
        <time>2014-05-25T08:14:09Z</time>
      </trkpt>
      <trkpt lat="44.28362" lon="2.67037">
        <ele>774.9599609</ele>
        <time>2014-05-25T08:14:14Z</time>
      </trkpt>
      <trkpt lat="44.2837" lon="2.67022">
        <ele>773.9985352</ele>
        <time>2014-05-25T08:14:19Z</time>
      </trkpt>
      <trkpt lat="44.28378" lon="2.67008">
        <ele>773.5180664</ele>
        <time>2014-05-25T08:14:24Z</time>
      </trkpt>
      <trkpt lat="44.28385" lon="2.6699">
        <ele>772.5566406</ele>
        <time>2014-05-25T08:14:29Z</time>
      </trkpt>
      <trkpt lat="44.28394" lon="2.66973">
        <ele>771.1147461</ele>
        <time>2014-05-25T08:14:34Z</time>
      </trkpt>
      <trkpt lat="44.28401" lon="2.66956">
        <ele>769.6728516</ele>
        <time>2014-05-25T08:14:39Z</time>
      </trkpt>
      <trkpt lat="44.28412" lon="2.66935">
        <ele>767.2695313</ele>
        <time>2014-05-25T08:14:46Z</time>
      </trkpt>
      <trkpt lat="44.28423" lon="2.66924">
        <ele>766.3081055</ele>
        <time>2014-05-25T08:14:51Z</time>
      </trkpt>
      <trkpt lat="44.28428" lon="2.66912">
        <ele>764.8662109</ele>
        <time>2014-05-25T08:14:55Z</time>
      </trkpt>
      <trkpt lat="44.28437" lon="2.66899">
        <ele>763.904541</ele>
        <time>2014-05-25T08:15:00Z</time>
      </trkpt>
      <trkpt lat="44.28445" lon="2.66885">
        <ele>763.4240723</ele>
        <time>2014-05-25T08:15:05Z</time>
      </trkpt>
      <trkpt lat="44.28454" lon="2.66872">
        <ele>761.9821777</ele>
        <time>2014-05-25T08:15:10Z</time>
      </trkpt>
      <trkpt lat="44.28461" lon="2.66861">
        <ele>760.5400391</ele>
        <time>2014-05-25T08:15:15Z</time>
      </trkpt>
      <trkpt lat="44.28467" lon="2.6685">
        <ele>759.5788574</ele>
        <time>2014-05-25T08:15:21Z</time>
      </trkpt>
      <trkpt lat="44.28475" lon="2.66839">
        <ele>759.0981445</ele>
        <time>2014-05-25T08:15:26Z</time>
      </trkpt>
      <trkpt lat="44.28484" lon="2.66827">
        <ele>756.6948242</ele>
        <time>2014-05-25T08:15:31Z</time>
      </trkpt>
      <trkpt lat="44.28494" lon="2.6681">
        <ele>755.2529297</ele>
        <time>2014-05-25T08:15:37Z</time>
      </trkpt>
      <trkpt lat="44.28505" lon="2.668">
        <ele>751.8884277</ele>
        <time>2014-05-25T08:15:43Z</time>
      </trkpt>
      <trkpt lat="44.2852" lon="2.66791">
        <ele>749.0043945</ele>
        <time>2014-05-25T08:15:49Z</time>
      </trkpt>
      <trkpt lat="44.28528" lon="2.66786">
        <ele>747.081543</ele>
        <time>2014-05-25T08:15:53Z</time>
      </trkpt>
      <trkpt lat="44.28542" lon="2.66774">
        <ele>744.6782227</ele>
        <time>2014-05-25T08:15:58Z</time>
      </trkpt>
      <trkpt lat="44.28552" lon="2.66764">
        <ele>744.6782227</ele>
        <time>2014-05-25T08:16:03Z</time>
      </trkpt>
      <trkpt lat="44.28559" lon="2.66749">
        <ele>742.2751465</ele>
        <time>2014-05-25T08:16:08Z</time>
      </trkpt>
      <trkpt lat="44.28569" lon="2.66739">
        <ele>742.7558594</ele>
        <time>2014-05-25T08:16:13Z</time>
      </trkpt>
      <trkpt lat="44.28576" lon="2.66728">
        <ele>742.7558594</ele>
        <time>2014-05-25T08:16:18Z</time>
      </trkpt>
      <trkpt lat="44.2858" lon="2.66722">
        <ele>743.2363281</ele>
        <time>2014-05-25T08:16:21Z</time>
      </trkpt>
      <trkpt lat="44.28583" lon="2.66709">
        <ele>741.7944336</ele>
        <time>2014-05-25T08:16:26Z</time>
      </trkpt>
      <trkpt lat="44.28589" lon="2.66693">
        <ele>740.3525391</ele>
        <time>2014-05-25T08:16:31Z</time>
      </trkpt>
      <trkpt lat="44.28595" lon="2.6668">
        <ele>739.3911133</ele>
        <time>2014-05-25T08:16:35Z</time>
      </trkpt>
      <trkpt lat="44.286" lon="2.66662">
        <ele>738.9106445</ele>
        <time>2014-05-25T08:16:40Z</time>
      </trkpt>
      <trkpt lat="44.28608" lon="2.66648">
        <ele>738.4299316</ele>
        <time>2014-05-25T08:16:45Z</time>
      </trkpt>
      <trkpt lat="44.28618" lon="2.6663">
        <ele>736.0266113</ele>
        <time>2014-05-25T08:16:51Z</time>
      </trkpt>
      <trkpt lat="44.28618" lon="2.66627">
        <ele>736.5073242</ele>
        <time>2014-05-25T08:16:52Z</time>
      </trkpt>
      <trkpt lat="44.28622" lon="2.6661">
        <ele>734.1040039</ele>
        <time>2014-05-25T08:16:58Z</time>
      </trkpt>
      <trkpt lat="44.28628" lon="2.666">
        <ele>732.1813965</ele>
        <time>2014-05-25T08:17:02Z</time>
      </trkpt>
      <trkpt lat="44.28635" lon="2.6659">
        <ele>730.7392578</ele>
        <time>2014-05-25T08:17:06Z</time>
      </trkpt>
      <trkpt lat="44.28641" lon="2.6658">
        <ele>727.8552246</ele>
        <time>2014-05-25T08:17:10Z</time>
      </trkpt>
      <trkpt lat="44.2865" lon="2.66569">
        <ele>727.3747559</ele>
        <time>2014-05-25T08:17:15Z</time>
      </trkpt>
      <trkpt lat="44.28657" lon="2.66559">
        <ele>727.8552246</ele>
        <time>2014-05-25T08:17:19Z</time>
      </trkpt>
      <trkpt lat="44.28658" lon="2.66556">
        <ele>728.3359375</ele>
        <time>2014-05-25T08:17:20Z</time>
      </trkpt>
      <trkpt lat="44.28661" lon="2.66551">
        <ele>728.3359375</ele>
        <time>2014-05-25T08:17:23Z</time>
      </trkpt>
      <trkpt lat="44.28666" lon="2.66543">
        <ele>725.9326172</ele>
        <time>2014-05-25T08:17:27Z</time>
      </trkpt>
      <trkpt lat="44.28679" lon="2.6653">
        <ele>724.0100098</ele>
        <time>2014-05-25T08:17:34Z</time>
      </trkpt>
      <trkpt lat="44.28687" lon="2.66524">
        <ele>726.4133301</ele>
        <time>2014-05-25T08:17:38Z</time>
      </trkpt>
      <trkpt lat="44.28695" lon="2.66514">
        <ele>727.3747559</ele>
        <time>2014-05-25T08:17:44Z</time>
      </trkpt>
      <trkpt lat="44.28704" lon="2.66506">
        <ele>730.2585449</ele>
        <time>2014-05-25T08:17:49Z</time>
      </trkpt>
      <trkpt lat="44.28709" lon="2.66498">
        <ele>730.2585449</ele>
        <time>2014-05-25T08:17:52Z</time>
      </trkpt>
      <trkpt lat="44.28715" lon="2.66483">
        <ele>730.2585449</ele>
        <time>2014-05-25T08:17:58Z</time>
      </trkpt>
      <trkpt lat="44.28716" lon="2.66478">
        <ele>729.2971191</ele>
        <time>2014-05-25T08:18:00Z</time>
      </trkpt>
      <trkpt lat="44.2872" lon="2.66463">
        <ele>731.7004395</ele>
        <time>2014-05-25T08:18:05Z</time>
      </trkpt>
      <trkpt lat="44.28724" lon="2.66446">
        <ele>733.1425781</ele>
        <time>2014-05-25T08:18:11Z</time>
      </trkpt>
      <trkpt lat="44.28725" lon="2.66444">
        <ele>733.1425781</ele>
        <time>2014-05-25T08:18:12Z</time>
      </trkpt>
      <trkpt lat="44.28727" lon="2.66427">
        <ele>732.6621094</ele>
        <time>2014-05-25T08:18:19Z</time>
      </trkpt>
      <trkpt lat="44.28731" lon="2.66415">
        <ele>733.1425781</ele>
        <time>2014-05-25T08:18:24Z</time>
      </trkpt>
      <trkpt lat="44.28736" lon="2.66406">
        <ele>733.623291</ele>
        <time>2014-05-25T08:18:29Z</time>
      </trkpt>
      <trkpt lat="44.2874" lon="2.66395">
        <ele>736.0266113</ele>
        <time>2014-05-25T08:18:34Z</time>
      </trkpt>
      <trkpt lat="44.28744" lon="2.66381">
        <ele>737.4685059</ele>
        <time>2014-05-25T08:18:40Z</time>
      </trkpt>
      <trkpt lat="44.28747" lon="2.66377">
        <ele>736.5073242</ele>
        <time>2014-05-25T08:18:42Z</time>
      </trkpt>
      <trkpt lat="44.28751" lon="2.66364">
        <ele>736.5073242</ele>
        <time>2014-05-25T08:18:47Z</time>
      </trkpt>
      <trkpt lat="44.28754" lon="2.66354">
        <ele>735.5458984</ele>
        <time>2014-05-25T08:18:51Z</time>
      </trkpt>
      <trkpt lat="44.28758" lon="2.6634">
        <ele>735.0654297</ele>
        <time>2014-05-25T08:18:56Z</time>
      </trkpt>
      <trkpt lat="44.28762" lon="2.66325">
        <ele>736.987793</ele>
        <time>2014-05-25T08:19:01Z</time>
      </trkpt>
      <trkpt lat="44.28767" lon="2.66311">
        <ele>739.3911133</ele>
        <time>2014-05-25T08:19:06Z</time>
      </trkpt>
      <trkpt lat="44.28772" lon="2.663">
        <ele>742.2751465</ele>
        <time>2014-05-25T08:19:10Z</time>
      </trkpt>
      <trkpt lat="44.28774" lon="2.66288">
        <ele>743.2363281</ele>
        <time>2014-05-25T08:19:14Z</time>
      </trkpt>
      <trkpt lat="44.2878" lon="2.66272">
        <ele>744.1977539</ele>
        <time>2014-05-25T08:19:20Z</time>
      </trkpt>
      <trkpt lat="44.28785" lon="2.66255">
        <ele>744.6782227</ele>
        <time>2014-05-25T08:19:26Z</time>
      </trkpt>
      <trkpt lat="44.28789" lon="2.66239">
        <ele>744.6782227</ele>
        <time>2014-05-25T08:19:31Z</time>
      </trkpt>
      <trkpt lat="44.28792" lon="2.66223">
        <ele>745.1589355</ele>
        <time>2014-05-25T08:19:36Z</time>
      </trkpt>
      <trkpt lat="44.28801" lon="2.66211">
        <ele>746.6010742</ele>
        <time>2014-05-25T08:19:41Z</time>
      </trkpt>
      <trkpt lat="44.28805" lon="2.66206">
        <ele>747.081543</ele>
        <time>2014-05-25T08:19:44Z</time>
      </trkpt>
      <trkpt lat="44.28813" lon="2.66194">
        <ele>745.6396484</ele>
        <time>2014-05-25T08:19:49Z</time>
      </trkpt>
      <trkpt lat="44.28824" lon="2.66176">
        <ele>745.1589355</ele>
        <time>2014-05-25T08:19:56Z</time>
      </trkpt>
      <trkpt lat="44.28837" lon="2.66164">
        <ele>747.5622559</ele>
        <time>2014-05-25T08:20:03Z</time>
      </trkpt>
      <trkpt lat="44.28844" lon="2.66153">
        <ele>748.5236816</ele>
        <time>2014-05-25T08:20:08Z</time>
      </trkpt>
      <trkpt lat="44.28847" lon="2.6615">
        <ele>749.0043945</ele>
        <time>2014-05-25T08:20:10Z</time>
      </trkpt>
      <trkpt lat="44.28856" lon="2.66143">
        <ele>748.0432129</ele>
        <time>2014-05-25T08:20:15Z</time>
      </trkpt>
      <trkpt lat="44.28859" lon="2.66142">
        <ele>745.1589355</ele>
        <time>2014-05-25T08:20:18Z</time>
      </trkpt>
      <trkpt lat="44.28867" lon="2.66137">
        <ele>743.2363281</ele>
        <time>2014-05-25T08:20:23Z</time>
      </trkpt>
      <trkpt lat="44.28873" lon="2.66135">
        <ele>743.2363281</ele>
        <time>2014-05-25T08:20:25Z</time>
      </trkpt>
      <trkpt lat="44.28891" lon="2.66134">
        <ele>741.7944336</ele>
        <time>2014-05-25T08:20:31Z</time>
      </trkpt>
      <trkpt lat="44.28898" lon="2.66134">
        <ele>741.7944336</ele>
        <time>2014-05-25T08:20:33Z</time>
      </trkpt>
      <trkpt lat="44.28908" lon="2.66148">
        <ele>740.8330078</ele>
        <time>2014-05-25T08:20:38Z</time>
      </trkpt>
      <trkpt lat="44.28919" lon="2.66172">
        <ele>741.7944336</ele>
        <time>2014-05-25T08:20:45Z</time>
      </trkpt>
      <trkpt lat="44.28917" lon="2.66194">
        <ele>741.3137207</ele>
        <time>2014-05-25T08:20:51Z</time>
      </trkpt>
      <trkpt lat="44.28911" lon="2.66211">
        <ele>739.8718262</ele>
        <time>2014-05-25T08:20:56Z</time>
      </trkpt>
      <trkpt lat="44.28903" lon="2.66229">
        <ele>738.9106445</ele>
        <time>2014-05-25T08:21:01Z</time>
      </trkpt>
      <trkpt lat="44.28896" lon="2.66247">
        <ele>738.4299316</ele>
        <time>2014-05-25T08:21:06Z</time>
      </trkpt>
      <trkpt lat="44.28886" lon="2.66259">
        <ele>734.1040039</ele>
        <time>2014-05-25T08:21:11Z</time>
      </trkpt>
      <trkpt lat="44.28874" lon="2.66267">
        <ele>730.2585449</ele>
        <time>2014-05-25T08:21:16Z</time>
      </trkpt>
      <trkpt lat="44.28871" lon="2.66282">
        <ele>727.3747559</ele>
        <time>2014-05-25T08:21:21Z</time>
      </trkpt>
      <trkpt lat="44.28883" lon="2.66305">
        <ele>721.6066895</ele>
        <time>2014-05-25T08:21:28Z</time>
      </trkpt>
      <trkpt lat="44.28892" lon="2.66322">
        <ele>720.1647949</ele>
        <time>2014-05-25T08:21:33Z</time>
      </trkpt>
      <trkpt lat="44.28904" lon="2.6634">
        <ele>720.1647949</ele>
        <time>2014-05-25T08:21:39Z</time>
      </trkpt>
      <trkpt lat="44.28916" lon="2.66352">
        <ele>719.2036133</ele>
        <time>2014-05-25T08:21:44Z</time>
      </trkpt>
      <trkpt lat="44.28926" lon="2.66361">
        <ele>717.7614746</ele>
        <time>2014-05-25T08:21:48Z</time>
      </trkpt>
      <trkpt lat="44.2894" lon="2.66371">
        <ele>716.3195801</ele>
        <time>2014-05-25T08:21:53Z</time>
      </trkpt>
      <trkpt lat="44.28956" lon="2.66384">
        <ele>714.3967285</ele>
        <time>2014-05-25T08:21:58Z</time>
      </trkpt>
      <trkpt lat="44.28965" lon="2.66396">
        <ele>713.4355469</ele>
        <time>2014-05-25T08:22:02Z</time>
      </trkpt>
      <trkpt lat="44.28988" lon="2.66407">
        <ele>712.4741211</ele>
        <time>2014-05-25T08:22:08Z</time>
      </trkpt>
      <trkpt lat="44.29007" lon="2.66415">
        <ele>709.590332</ele>
        <time>2014-05-25T08:22:14Z</time>
      </trkpt>
      <trkpt lat="44.29024" lon="2.66414">
        <ele>708.1484375</ele>
        <time>2014-05-25T08:22:19Z</time>
      </trkpt>
      <trkpt lat="44.29034" lon="2.6641">
        <ele>706.7062988</ele>
        <time>2014-05-25T08:22:22Z</time>
      </trkpt>
      <trkpt lat="44.2905" lon="2.66398">
        <ele>703.3417969</ele>
        <time>2014-05-25T08:22:28Z</time>
      </trkpt>
      <trkpt lat="44.29063" lon="2.66392">
        <ele>701.8999023</ele>
        <time>2014-05-25T08:22:32Z</time>
      </trkpt>
      <trkpt lat="44.29074" lon="2.66384">
        <ele>699.4963379</ele>
        <time>2014-05-25T08:22:37Z</time>
      </trkpt>
      <trkpt lat="44.29088" lon="2.66377">
        <ele>698.5349121</ele>
        <time>2014-05-25T08:22:43Z</time>
      </trkpt>
      <trkpt lat="44.29093" lon="2.66373">
        <ele>698.0544434</ele>
        <time>2014-05-25T08:22:45Z</time>
      </trkpt>
      <trkpt lat="44.291" lon="2.66354">
        <ele>697.5737305</ele>
        <time>2014-05-25T08:22:51Z</time>
      </trkpt>
      <trkpt lat="44.29106" lon="2.66344">
        <ele>698.5349121</ele>
        <time>2014-05-25T08:22:55Z</time>
      </trkpt>
      <trkpt lat="44.29111" lon="2.66333">
        <ele>701.4191895</ele>
        <time>2014-05-25T08:23:00Z</time>
      </trkpt>
      <trkpt lat="44.29116" lon="2.66322">
        <ele>700.4580078</ele>
        <time>2014-05-25T08:23:04Z</time>
      </trkpt>
      <trkpt lat="44.29121" lon="2.66305">
        <ele>701.8999023</ele>
        <time>2014-05-25T08:23:10Z</time>
      </trkpt>
      <trkpt lat="44.29127" lon="2.66291">
        <ele>702.3803711</ele>
        <time>2014-05-25T08:23:16Z</time>
      </trkpt>
      <trkpt lat="44.2913" lon="2.66281">
        <ele>702.3803711</ele>
        <time>2014-05-25T08:23:20Z</time>
      </trkpt>
      <trkpt lat="44.29133" lon="2.66271">
        <ele>702.3803711</ele>
        <time>2014-05-25T08:23:25Z</time>
      </trkpt>
      <trkpt lat="44.29137" lon="2.66263">
        <ele>704.3032227</ele>
        <time>2014-05-25T08:23:29Z</time>
      </trkpt>
      <trkpt lat="44.29144" lon="2.66247">
        <ele>703.8225098</ele>
        <time>2014-05-25T08:23:36Z</time>
      </trkpt>
      <trkpt lat="44.2915" lon="2.66237">
        <ele>704.3032227</ele>
        <time>2014-05-25T08:23:41Z</time>
      </trkpt>
      <trkpt lat="44.29161" lon="2.66227">
        <ele>702.861084</ele>
        <time>2014-05-25T08:23:48Z</time>
      </trkpt>
      <trkpt lat="44.29166" lon="2.66221">
        <ele>703.8225098</ele>
        <time>2014-05-25T08:23:52Z</time>
      </trkpt>
      <trkpt lat="44.29176" lon="2.66211">
        <ele>706.2255859</ele>
        <time>2014-05-25T08:23:58Z</time>
      </trkpt>
      <trkpt lat="44.29185" lon="2.66203">
        <ele>708.1484375</ele>
        <time>2014-05-25T08:24:03Z</time>
      </trkpt>
      <trkpt lat="44.29195" lon="2.66194">
        <ele>712.954834</ele>
        <time>2014-05-25T08:24:09Z</time>
      </trkpt>
      <trkpt lat="44.29202" lon="2.66188">
        <ele>715.3581543</ele>
        <time>2014-05-25T08:24:13Z</time>
      </trkpt>
      <trkpt lat="44.29208" lon="2.66167">
        <ele>718.2421875</ele>
        <time>2014-05-25T08:24:21Z</time>
      </trkpt>
      <trkpt lat="44.2921" lon="2.66154">
        <ele>719.6843262</ele>
        <time>2014-05-25T08:24:26Z</time>
      </trkpt>
      <trkpt lat="44.29214" lon="2.66145">
        <ele>717.2810059</ele>
        <time>2014-05-25T08:24:30Z</time>
      </trkpt>
      <trkpt lat="44.29219" lon="2.66134">
        <ele>717.7614746</ele>
        <time>2014-05-25T08:24:35Z</time>
      </trkpt>
      <trkpt lat="44.29222" lon="2.66128">
        <ele>717.7614746</ele>
        <time>2014-05-25T08:24:38Z</time>
      </trkpt>
      <trkpt lat="44.29225" lon="2.66114">
        <ele>716.3195801</ele>
        <time>2014-05-25T08:24:43Z</time>
      </trkpt>
      <trkpt lat="44.29224" lon="2.66094">
        <ele>714.8774414</ele>
        <time>2014-05-25T08:24:49Z</time>
      </trkpt>
      <trkpt lat="44.29222" lon="2.66083">
        <ele>715.8388672</ele>
        <time>2014-05-25T08:24:53Z</time>
      </trkpt>
      <trkpt lat="44.29221" lon="2.6607">
        <ele>717.2810059</ele>
        <time>2014-05-25T08:24:58Z</time>
      </trkpt>
      <trkpt lat="44.2922" lon="2.66063">
        <ele>717.2810059</ele>
        <time>2014-05-25T08:25:00Z</time>
      </trkpt>
      <trkpt lat="44.29226" lon="2.66052">
        <ele>716.800293</ele>
        <time>2014-05-25T08:25:05Z</time>
      </trkpt>
      <trkpt lat="44.2923" lon="2.6604">
        <ele>719.2036133</ele>
        <time>2014-05-25T08:25:10Z</time>
      </trkpt>
      <trkpt lat="44.29235" lon="2.66027">
        <ele>720.6455078</ele>
        <time>2014-05-25T08:25:15Z</time>
      </trkpt>
      <trkpt lat="44.29238" lon="2.66019">
        <ele>719.6843262</ele>
        <time>2014-05-25T08:25:18Z</time>
      </trkpt>
      <trkpt lat="44.29244" lon="2.66003">
        <ele>718.2421875</ele>
        <time>2014-05-25T08:25:24Z</time>
      </trkpt>
      <trkpt lat="44.29248" lon="2.65991">
        <ele>718.7229004</ele>
        <time>2014-05-25T08:25:29Z</time>
      </trkpt>
      <trkpt lat="44.29254" lon="2.65978">
        <ele>720.1647949</ele>
        <time>2014-05-25T08:25:34Z</time>
      </trkpt>
      <trkpt lat="44.29256" lon="2.65974">
        <ele>720.6455078</ele>
        <time>2014-05-25T08:25:36Z</time>
      </trkpt>
      <trkpt lat="44.29264" lon="2.65959">
        <ele>721.1262207</ele>
        <time>2014-05-25T08:25:41Z</time>
      </trkpt>
      <trkpt lat="44.29275" lon="2.65943">
        <ele>723.529541</ele>
        <time>2014-05-25T08:25:48Z</time>
      </trkpt>
      <trkpt lat="44.29284" lon="2.65928">
        <ele>718.7229004</ele>
        <time>2014-05-25T08:25:54Z</time>
      </trkpt>
      <trkpt lat="44.2929" lon="2.6592">
        <ele>717.2810059</ele>
        <time>2014-05-25T08:25:58Z</time>
      </trkpt>
      <trkpt lat="44.29298" lon="2.65911">
        <ele>718.2421875</ele>
        <time>2014-05-25T08:26:02Z</time>
      </trkpt>
      <trkpt lat="44.29311" lon="2.659">
        <ele>719.2036133</ele>
        <time>2014-05-25T08:26:09Z</time>
      </trkpt>
      <trkpt lat="44.29319" lon="2.659">
        <ele>719.2036133</ele>
        <time>2014-05-25T08:26:12Z</time>
      </trkpt>
      <trkpt lat="44.29333" lon="2.659">
        <ele>719.2036133</ele>
        <time>2014-05-25T08:26:18Z</time>
      </trkpt>
      <trkpt lat="44.29341" lon="2.65901">
        <ele>719.6843262</ele>
        <time>2014-05-25T08:26:21Z</time>
      </trkpt>
      <trkpt lat="44.29351" lon="2.65899">
        <ele>720.6455078</ele>
        <time>2014-05-25T08:26:25Z</time>
      </trkpt>
      <trkpt lat="44.29365" lon="2.65896">
        <ele>720.1647949</ele>
        <time>2014-05-25T08:26:31Z</time>
      </trkpt>
      <trkpt lat="44.29374" lon="2.65893">
        <ele>720.6455078</ele>
        <time>2014-05-25T08:26:36Z</time>
      </trkpt>
      <trkpt lat="44.29383" lon="2.65892">
        <ele>720.1647949</ele>
        <time>2014-05-25T08:26:40Z</time>
      </trkpt>
      <trkpt lat="44.29396" lon="2.65888">
        <ele>719.6843262</ele>
        <time>2014-05-25T08:26:46Z</time>
      </trkpt>
      <trkpt lat="44.29408" lon="2.65882">
        <ele>720.6455078</ele>
        <time>2014-05-25T08:26:51Z</time>
      </trkpt>
      <trkpt lat="44.29413" lon="2.65876">
        <ele>719.6843262</ele>
        <time>2014-05-25T08:26:54Z</time>
      </trkpt>
      <trkpt lat="44.29417" lon="2.65872">
        <ele>718.2421875</ele>
        <time>2014-05-25T08:26:56Z</time>
      </trkpt>
      <trkpt lat="44.29426" lon="2.65861">
        <ele>716.800293</ele>
        <time>2014-05-25T08:27:01Z</time>
      </trkpt>
      <trkpt lat="44.29436" lon="2.65846">
        <ele>717.2810059</ele>
        <time>2014-05-25T08:27:07Z</time>
      </trkpt>
      <trkpt lat="44.29438" lon="2.65843">
        <ele>717.2810059</ele>
        <time>2014-05-25T08:27:08Z</time>
      </trkpt>
      <trkpt lat="44.29447" lon="2.65833">
        <ele>716.3195801</ele>
        <time>2014-05-25T08:27:13Z</time>
      </trkpt>
      <trkpt lat="44.2946" lon="2.65819">
        <ele>715.8388672</ele>
        <time>2014-05-25T08:27:20Z</time>
      </trkpt>
      <trkpt lat="44.29471" lon="2.65812">
        <ele>714.8774414</ele>
        <time>2014-05-25T08:27:26Z</time>
      </trkpt>
      <trkpt lat="44.29486" lon="2.65807">
        <ele>717.2810059</ele>
        <time>2014-05-25T08:27:33Z</time>
      </trkpt>
      <trkpt lat="44.29501" lon="2.65802">
        <ele>717.7614746</ele>
        <time>2014-05-25T08:27:40Z</time>
      </trkpt>
      <trkpt lat="44.29511" lon="2.65799">
        <ele>718.7229004</ele>
        <time>2014-05-25T08:27:44Z</time>
      </trkpt>
      <trkpt lat="44.2952" lon="2.65795">
        <ele>718.7229004</ele>
        <time>2014-05-25T08:27:48Z</time>
      </trkpt>
      <trkpt lat="44.29531" lon="2.6579">
        <ele>722.0874023</ele>
        <time>2014-05-25T08:27:53Z</time>
      </trkpt>
      <trkpt lat="44.29534" lon="2.65787">
        <ele>723.529541</ele>
        <time>2014-05-25T08:27:57Z</time>
      </trkpt>
      <trkpt lat="44.29534" lon="2.65785">
        <ele>725.9326172</ele>
        <time>2014-05-25T08:28:06Z</time>
      </trkpt>
      <trkpt lat="44.29532" lon="2.65783">
        <ele>728.3359375</ele>
        <time>2014-05-25T08:28:29Z</time>
      </trkpt>
      <trkpt lat="44.29535" lon="2.65782">
        <ele>728.8166504</ele>
        <time>2014-05-25T08:28:39Z</time>
      </trkpt>
      <trkpt lat="44.29545" lon="2.6578">
        <ele>727.8552246</ele>
        <time>2014-05-25T08:28:44Z</time>
      </trkpt>
      <trkpt lat="44.29556" lon="2.65776">
        <ele>726.4133301</ele>
        <time>2014-05-25T08:28:50Z</time>
      </trkpt>
      <trkpt lat="44.29568" lon="2.6577">
        <ele>725.9326172</ele>
        <time>2014-05-25T08:28:56Z</time>
      </trkpt>
      <trkpt lat="44.2957" lon="2.6577">
        <ele>725.9326172</ele>
        <time>2014-05-25T08:28:57Z</time>
      </trkpt>
      <trkpt lat="44.29574" lon="2.6577">
        <ele>725.9326172</ele>
        <time>2014-05-25T08:29:00Z</time>
      </trkpt>
      <trkpt lat="44.29581" lon="2.65764">
        <ele>723.529541</ele>
        <time>2014-05-25T08:29:07Z</time>
      </trkpt>
      <trkpt lat="44.29589" lon="2.65757">
        <ele>723.0488281</ele>
        <time>2014-05-25T08:29:11Z</time>
      </trkpt>
      <trkpt lat="44.29605" lon="2.65746">
        <ele>724.0100098</ele>
        <time>2014-05-25T08:29:18Z</time>
      </trkpt>
      <trkpt lat="44.29619" lon="2.65734">
        <ele>723.529541</ele>
        <time>2014-05-25T08:29:24Z</time>
      </trkpt>
      <trkpt lat="44.29625" lon="2.65727">
        <ele>723.529541</ele>
        <time>2014-05-25T08:29:27Z</time>
      </trkpt>
      <trkpt lat="44.29636" lon="2.65718">
        <ele>723.0488281</ele>
        <time>2014-05-25T08:29:32Z</time>
      </trkpt>
      <trkpt lat="44.29643" lon="2.65718">
        <ele>723.529541</ele>
        <time>2014-05-25T08:29:35Z</time>
      </trkpt>
      <trkpt lat="44.29651" lon="2.65724">
        <ele>723.0488281</ele>
        <time>2014-05-25T08:29:38Z</time>
      </trkpt>
      <trkpt lat="44.29665" lon="2.65728">
        <ele>722.5681152</ele>
        <time>2014-05-25T08:29:43Z</time>
      </trkpt>
      <trkpt lat="44.29675" lon="2.65726">
        <ele>721.1262207</ele>
        <time>2014-05-25T08:29:47Z</time>
      </trkpt>
      <trkpt lat="44.29678" lon="2.65726">
        <ele>720.6455078</ele>
        <time>2014-05-25T08:29:48Z</time>
      </trkpt>
      <trkpt lat="44.29688" lon="2.65712">
        <ele>719.6843262</ele>
        <time>2014-05-25T08:29:54Z</time>
      </trkpt>
      <trkpt lat="44.29698" lon="2.65698">
        <ele>716.800293</ele>
        <time>2014-05-25T08:30:00Z</time>
      </trkpt>
      <trkpt lat="44.29704" lon="2.65684">
        <ele>713.9160156</ele>
        <time>2014-05-25T08:30:04Z</time>
      </trkpt>
      <trkpt lat="44.29711" lon="2.65674">
        <ele>711.5129395</ele>
        <time>2014-05-25T08:30:08Z</time>
      </trkpt>
      <trkpt lat="44.29721" lon="2.65663">
        <ele>708.1484375</ele>
        <time>2014-05-25T08:30:13Z</time>
      </trkpt>
      <trkpt lat="44.29735" lon="2.65656">
        <ele>705.7451172</ele>
        <time>2014-05-25T08:30:19Z</time>
      </trkpt>
      <trkpt lat="44.29748" lon="2.65655">
        <ele>703.3417969</ele>
        <time>2014-05-25T08:30:24Z</time>
      </trkpt>
      <trkpt lat="44.29764" lon="2.65652">
        <ele>699.4963379</ele>
        <time>2014-05-25T08:30:30Z</time>
      </trkpt>
      <trkpt lat="44.29776" lon="2.65648">
        <ele>697.0930176</ele>
        <time>2014-05-25T08:30:34Z</time>
      </trkpt>
      <trkpt lat="44.29789" lon="2.65641">
        <ele>695.1704102</ele>
        <time>2014-05-25T08:30:39Z</time>
      </trkpt>
      <trkpt lat="44.29804" lon="2.65631">
        <ele>692.2866211</ele>
        <time>2014-05-25T08:30:45Z</time>
      </trkpt>
      <trkpt lat="44.29811" lon="2.65623">
        <ele>689.8833008</ele>
        <time>2014-05-25T08:30:49Z</time>
      </trkpt>
      <trkpt lat="44.29823" lon="2.65614">
        <ele>688.9221191</ele>
        <time>2014-05-25T08:30:54Z</time>
      </trkpt>
      <trkpt lat="44.29833" lon="2.65602">
        <ele>687.4799805</ele>
        <time>2014-05-25T08:30:59Z</time>
      </trkpt>
      <trkpt lat="44.29842" lon="2.65592">
        <ele>685.0769043</ele>
        <time>2014-05-25T08:31:04Z</time>
      </trkpt>
      <trkpt lat="44.29853" lon="2.65582">
        <ele>683.1538086</ele>
        <time>2014-05-25T08:31:09Z</time>
      </trkpt>
      <trkpt lat="44.29866" lon="2.65572">
        <ele>683.1538086</ele>
        <time>2014-05-25T08:31:14Z</time>
      </trkpt>
      <trkpt lat="44.29879" lon="2.65564">
        <ele>684.5961914</ele>
        <time>2014-05-25T08:31:19Z</time>
      </trkpt>
      <trkpt lat="44.29893" lon="2.65552">
        <ele>683.6345215</ele>
        <time>2014-05-25T08:31:25Z</time>
      </trkpt>
      <trkpt lat="44.29904" lon="2.65547">
        <ele>683.6345215</ele>
        <time>2014-05-25T08:31:29Z</time>
      </trkpt>
      <trkpt lat="44.29912" lon="2.65537">
        <ele>682.6733398</ele>
        <time>2014-05-25T08:31:33Z</time>
      </trkpt>
      <trkpt lat="44.29923" lon="2.65527">
        <ele>683.6345215</ele>
        <time>2014-05-25T08:31:38Z</time>
      </trkpt>
      <trkpt lat="44.29932" lon="2.65513">
        <ele>683.1538086</ele>
        <time>2014-05-25T08:31:43Z</time>
      </trkpt>
      <trkpt lat="44.29939" lon="2.655">
        <ele>682.6733398</ele>
        <time>2014-05-25T08:31:47Z</time>
      </trkpt>
      <trkpt lat="44.29948" lon="2.65482">
        <ele>682.6733398</ele>
        <time>2014-05-25T08:31:53Z</time>
      </trkpt>
      <trkpt lat="44.29955" lon="2.65467">
        <ele>682.6733398</ele>
        <time>2014-05-25T08:31:58Z</time>
      </trkpt>
      <trkpt lat="44.29959" lon="2.65453">
        <ele>681.2314453</ele>
        <time>2014-05-25T08:32:02Z</time>
      </trkpt>
      <trkpt lat="44.29966" lon="2.65432">
        <ele>680.2700195</ele>
        <time>2014-05-25T08:32:08Z</time>
      </trkpt>
      <trkpt lat="44.29972" lon="2.65411">
        <ele>679.3085938</ele>
        <time>2014-05-25T08:32:14Z</time>
      </trkpt>
      <trkpt lat="44.29979" lon="2.6539">
        <ele>677.8666992</ele>
        <time>2014-05-25T08:32:20Z</time>
      </trkpt>
      <trkpt lat="44.29985" lon="2.65368">
        <ele>675.9440918</ele>
        <time>2014-05-25T08:32:26Z</time>
      </trkpt>
      <trkpt lat="44.29989" lon="2.65354">
        <ele>674.0214844</ele>
        <time>2014-05-25T08:32:30Z</time>
      </trkpt>
      <trkpt lat="44.29991" lon="2.65339">
        <ele>673.0603027</ele>
        <time>2014-05-25T08:32:34Z</time>
      </trkpt>
      <trkpt lat="44.29995" lon="2.6532">
        <ele>672.098877</ele>
        <time>2014-05-25T08:32:39Z</time>
      </trkpt>
      <trkpt lat="44.30002" lon="2.65305">
        <ele>671.6181641</ele>
        <time>2014-05-25T08:32:44Z</time>
      </trkpt>
      <trkpt lat="44.30015" lon="2.65311">
        <ele>671.6181641</ele>
        <time>2014-05-25T08:32:49Z</time>
      </trkpt>
      <trkpt lat="44.30026" lon="2.65322">
        <ele>670.6569824</ele>
        <time>2014-05-25T08:32:54Z</time>
      </trkpt>
      <trkpt lat="44.30038" lon="2.65339">
        <ele>669.6958008</ele>
        <time>2014-05-25T08:33:00Z</time>
      </trkpt>
      <trkpt lat="44.30049" lon="2.65354">
        <ele>670.1762695</ele>
        <time>2014-05-25T08:33:06Z</time>
      </trkpt>
      <trkpt lat="44.30059" lon="2.65367">
        <ele>669.6958008</ele>
        <time>2014-05-25T08:33:11Z</time>
      </trkpt>
      <trkpt lat="44.30077" lon="2.65387">
        <ele>668.734375</ele>
        <time>2014-05-25T08:33:19Z</time>
      </trkpt>
      <trkpt lat="44.30089" lon="2.65397">
        <ele>666.8115234</ele>
        <time>2014-05-25T08:33:24Z</time>
      </trkpt>
      <trkpt lat="44.30105" lon="2.65402">
        <ele>666.8115234</ele>
        <time>2014-05-25T08:33:30Z</time>
      </trkpt>
      <trkpt lat="44.30117" lon="2.65404">
        <ele>668.2536621</ele>
        <time>2014-05-25T08:33:34Z</time>
      </trkpt>
      <trkpt lat="44.3013" lon="2.65403">
        <ele>669.6958008</ele>
        <time>2014-05-25T08:33:39Z</time>
      </trkpt>
      <trkpt lat="44.30145" lon="2.65406">
        <ele>671.1376953</ele>
        <time>2014-05-25T08:33:45Z</time>
      </trkpt>
      <trkpt lat="44.30157" lon="2.65409">
        <ele>671.1376953</ele>
        <time>2014-05-25T08:33:50Z</time>
      </trkpt>
      <trkpt lat="44.30168" lon="2.65415">
        <ele>670.6569824</ele>
        <time>2014-05-25T08:33:55Z</time>
      </trkpt>
      <trkpt lat="44.30183" lon="2.65428">
        <ele>669.6958008</ele>
        <time>2014-05-25T08:34:02Z</time>
      </trkpt>
      <trkpt lat="44.30193" lon="2.65437">
        <ele>668.734375</ele>
        <time>2014-05-25T08:34:07Z</time>
      </trkpt>
      <trkpt lat="44.30204" lon="2.65446">
        <ele>668.2536621</ele>
        <time>2014-05-25T08:34:12Z</time>
      </trkpt>
      <trkpt lat="44.30218" lon="2.65458">
        <ele>667.2922363</ele>
        <time>2014-05-25T08:34:18Z</time>
      </trkpt>
      <trkpt lat="44.30227" lon="2.65467">
        <ele>666.8115234</ele>
        <time>2014-05-25T08:34:22Z</time>
      </trkpt>
      <trkpt lat="44.3024" lon="2.65477">
        <ele>663.9274902</ele>
        <time>2014-05-25T08:34:28Z</time>
      </trkpt>
      <trkpt lat="44.30254" lon="2.65485">
        <ele>663.4470215</ele>
        <time>2014-05-25T08:34:33Z</time>
      </trkpt>
      <trkpt lat="44.30263" lon="2.65493">
        <ele>662.4855957</ele>
        <time>2014-05-25T08:34:37Z</time>
      </trkpt>
      <trkpt lat="44.30273" lon="2.655">
        <ele>661.5244141</ele>
        <time>2014-05-25T08:34:41Z</time>
      </trkpt>
      <trkpt lat="44.30284" lon="2.65506">
        <ele>658.6403809</ele>
        <time>2014-05-25T08:34:46Z</time>
      </trkpt>
      <trkpt lat="44.30293" lon="2.65512">
        <ele>657.1984863</ele>
        <time>2014-05-25T08:34:50Z</time>
      </trkpt>
      <trkpt lat="44.30305" lon="2.65519">
        <ele>656.7177734</ele>
        <time>2014-05-25T08:34:55Z</time>
      </trkpt>
      <trkpt lat="44.30317" lon="2.65525">
        <ele>657.1984863</ele>
        <time>2014-05-25T08:35:00Z</time>
      </trkpt>
      <trkpt lat="44.30326" lon="2.65528">
        <ele>657.1984863</ele>
        <time>2014-05-25T08:35:04Z</time>
      </trkpt>
      <trkpt lat="44.30341" lon="2.65536">
        <ele>655.2758789</ele>
        <time>2014-05-25T08:35:11Z</time>
      </trkpt>
      <trkpt lat="44.30353" lon="2.65545">
        <ele>654.3146973</ele>
        <time>2014-05-25T08:35:16Z</time>
      </trkpt>
      <trkpt lat="44.30366" lon="2.65556">
        <ele>652.8725586</ele>
        <time>2014-05-25T08:35:22Z</time>
      </trkpt>
      <trkpt lat="44.3038" lon="2.65567">
        <ele>650.949707</ele>
        <time>2014-05-25T08:35:28Z</time>
      </trkpt>
      <trkpt lat="44.3039" lon="2.65577">
        <ele>649.9885254</ele>
        <time>2014-05-25T08:35:32Z</time>
      </trkpt>
      <trkpt lat="44.304" lon="2.65583">
        <ele>649.0270996</ele>
        <time>2014-05-25T08:35:36Z</time>
      </trkpt>
      <trkpt lat="44.30414" lon="2.6559">
        <ele>647.1044922</ele>
        <time>2014-05-25T08:35:42Z</time>
      </trkpt>
      <trkpt lat="44.30424" lon="2.65595">
        <ele>646.6240234</ele>
        <time>2014-05-25T08:35:46Z</time>
      </trkpt>
      <trkpt lat="44.30439" lon="2.65597">
        <ele>644.7011719</ele>
        <time>2014-05-25T08:35:52Z</time>
      </trkpt>
      <trkpt lat="44.30454" lon="2.65593">
        <ele>644.2207031</ele>
        <time>2014-05-25T08:35:57Z</time>
      </trkpt>
      <trkpt lat="44.30466" lon="2.65589">
        <ele>643.7399902</ele>
        <time>2014-05-25T08:36:02Z</time>
      </trkpt>
      <trkpt lat="44.30483" lon="2.65584">
        <ele>643.7399902</ele>
        <time>2014-05-25T08:36:08Z</time>
      </trkpt>
      <trkpt lat="44.305" lon="2.65585">
        <ele>643.7399902</ele>
        <time>2014-05-25T08:36:14Z</time>
      </trkpt>
      <trkpt lat="44.30513" lon="2.65589">
        <ele>644.2207031</ele>
        <time>2014-05-25T08:36:19Z</time>
      </trkpt>
      <trkpt lat="44.30528" lon="2.65594">
        <ele>644.7011719</ele>
        <time>2014-05-25T08:36:25Z</time>
      </trkpt>
      <trkpt lat="44.30542" lon="2.656">
        <ele>644.2207031</ele>
        <time>2014-05-25T08:36:31Z</time>
      </trkpt>
      <trkpt lat="44.30552" lon="2.65603">
        <ele>643.2592773</ele>
        <time>2014-05-25T08:36:35Z</time>
      </trkpt>
      <trkpt lat="44.30564" lon="2.65606">
        <ele>641.8173828</ele>
        <time>2014-05-25T08:36:40Z</time>
      </trkpt>
      <trkpt lat="44.30583" lon="2.65606">
        <ele>640.855957</ele>
        <time>2014-05-25T08:36:47Z</time>
      </trkpt>
      <trkpt lat="44.30595" lon="2.65603">
        <ele>640.3754883</ele>
        <time>2014-05-25T08:36:52Z</time>
      </trkpt>
      <trkpt lat="44.30609" lon="2.65597">
        <ele>638.9335938</ele>
        <time>2014-05-25T08:36:57Z</time>
      </trkpt>
      <trkpt lat="44.30621" lon="2.65592">
        <ele>637.972168</ele>
        <time>2014-05-25T08:37:02Z</time>
      </trkpt>
      <trkpt lat="44.30634" lon="2.65583">
        <ele>635.0881348</ele>
        <time>2014-05-25T08:37:08Z</time>
      </trkpt>
      <trkpt lat="44.30649" lon="2.65576">
        <ele>633.6459961</ele>
        <time>2014-05-25T08:37:14Z</time>
      </trkpt>
      <trkpt lat="44.30663" lon="2.65571">
        <ele>633.1652832</ele>
        <time>2014-05-25T08:37:19Z</time>
      </trkpt>
      <trkpt lat="44.30677" lon="2.65576">
        <ele>633.6459961</ele>
        <time>2014-05-25T08:37:24Z</time>
      </trkpt>
      <trkpt lat="44.30687" lon="2.65587">
        <ele>632.6848145</ele>
        <time>2014-05-25T08:37:29Z</time>
      </trkpt>
      <trkpt lat="44.30698" lon="2.656">
        <ele>633.1652832</ele>
        <time>2014-05-25T08:37:35Z</time>
      </trkpt>
      <trkpt lat="44.30709" lon="2.65599">
        <ele>633.1652832</ele>
        <time>2014-05-25T08:37:40Z</time>
      </trkpt>
      <trkpt lat="44.30722" lon="2.65587">
        <ele>633.1652832</ele>
        <time>2014-05-25T08:37:46Z</time>
      </trkpt>
      <trkpt lat="44.30729" lon="2.65576">
        <ele>633.1652832</ele>
        <time>2014-05-25T08:37:50Z</time>
      </trkpt>
      <trkpt lat="44.30735" lon="2.65566">
        <ele>633.1652832</ele>
        <time>2014-05-25T08:37:54Z</time>
      </trkpt>
      <trkpt lat="44.30744" lon="2.65554">
        <ele>631.7233887</ele>
        <time>2014-05-25T08:37:59Z</time>
      </trkpt>
      <trkpt lat="44.30754" lon="2.65555">
        <ele>630.2814941</ele>
        <time>2014-05-25T08:38:03Z</time>
      </trkpt>
      <trkpt lat="44.30769" lon="2.65548">
        <ele>628.8395996</ele>
        <time>2014-05-25T08:38:09Z</time>
      </trkpt>
      <trkpt lat="44.30781" lon="2.65537">
        <ele>628.3588867</ele>
        <time>2014-05-25T08:38:15Z</time>
      </trkpt>
      <trkpt lat="44.3079" lon="2.65531">
        <ele>628.3588867</ele>
        <time>2014-05-25T08:38:19Z</time>
      </trkpt>
      <trkpt lat="44.30803" lon="2.65528">
        <ele>629.3200684</ele>
        <time>2014-05-25T08:38:24Z</time>
      </trkpt>
      <trkpt lat="44.3081" lon="2.65526">
        <ele>628.8395996</ele>
        <time>2014-05-25T08:38:27Z</time>
      </trkpt>
      <trkpt lat="44.30824" lon="2.6552">
        <ele>629.3200684</ele>
        <time>2014-05-25T08:38:33Z</time>
      </trkpt>
      <trkpt lat="44.30835" lon="2.65514">
        <ele>630.762207</ele>
        <time>2014-05-25T08:38:38Z</time>
      </trkpt>
      <trkpt lat="44.30846" lon="2.65511">
        <ele>630.2814941</ele>
        <time>2014-05-25T08:38:43Z</time>
      </trkpt>
      <trkpt lat="44.30861" lon="2.6551">
        <ele>633.6459961</ele>
        <time>2014-05-25T08:38:49Z</time>
      </trkpt>
      <trkpt lat="44.30875" lon="2.65507">
        <ele>635.0881348</ele>
        <time>2014-05-25T08:38:54Z</time>
      </trkpt>
      <trkpt lat="44.30878" lon="2.65506">
        <ele>636.0495605</ele>
        <time>2014-05-25T08:38:55Z</time>
      </trkpt>
      <trkpt lat="44.30892" lon="2.65498">
        <ele>638.4528809</ele>
        <time>2014-05-25T08:39:01Z</time>
      </trkpt>
      <trkpt lat="44.30905" lon="2.65486">
        <ele>640.3754883</ele>
        <time>2014-05-25T08:39:07Z</time>
      </trkpt>
      <trkpt lat="44.30913" lon="2.65472">
        <ele>637.4914551</ele>
        <time>2014-05-25T08:39:12Z</time>
      </trkpt>
      <trkpt lat="44.30919" lon="2.65456">
        <ele>634.126709</ele>
        <time>2014-05-25T08:39:17Z</time>
      </trkpt>
      <trkpt lat="44.3093" lon="2.65445">
        <ele>630.762207</ele>
        <time>2014-05-25T08:39:22Z</time>
      </trkpt>
      <trkpt lat="44.30939" lon="2.65442">
        <ele>629.3200684</ele>
        <time>2014-05-25T08:39:27Z</time>
      </trkpt>
      <trkpt lat="44.30948" lon="2.65436">
        <ele>628.8395996</ele>
        <time>2014-05-25T08:39:32Z</time>
      </trkpt>
      <trkpt lat="44.30959" lon="2.6543">
        <ele>633.6459961</ele>
        <time>2014-05-25T08:39:39Z</time>
      </trkpt>
      <trkpt lat="44.30967" lon="2.65425">
        <ele>636.0495605</ele>
        <time>2014-05-25T08:39:46Z</time>
      </trkpt>
      <trkpt lat="44.30972" lon="2.65422">
        <ele>635.5686035</ele>
        <time>2014-05-25T08:39:51Z</time>
      </trkpt>
      <trkpt lat="44.30982" lon="2.65419">
        <ele>642.7788086</ele>
        <time>2014-05-25T08:39:59Z</time>
      </trkpt>
      <trkpt lat="44.30987" lon="2.65416">
        <ele>643.2592773</ele>
        <time>2014-05-25T08:40:04Z</time>
      </trkpt>
      <trkpt lat="44.30993" lon="2.65411">
        <ele>644.2207031</ele>
        <time>2014-05-25T08:40:10Z</time>
      </trkpt>
      <trkpt lat="44.30998" lon="2.65406">
        <ele>646.1433105</ele>
        <time>2014-05-25T08:40:15Z</time>
      </trkpt>
      <trkpt lat="44.31005" lon="2.65402">
        <ele>646.6240234</ele>
        <time>2014-05-25T08:40:22Z</time>
      </trkpt>
      <trkpt lat="44.31008" lon="2.65398">
        <ele>645.6625977</ele>
        <time>2014-05-25T08:40:26Z</time>
      </trkpt>
      <trkpt lat="44.31019" lon="2.65394">
        <ele>648.065918</ele>
        <time>2014-05-25T08:40:34Z</time>
      </trkpt>
      <trkpt lat="44.31024" lon="2.6539">
        <ele>648.065918</ele>
        <time>2014-05-25T08:40:38Z</time>
      </trkpt>
      <trkpt lat="44.31031" lon="2.65386">
        <ele>648.065918</ele>
        <time>2014-05-25T08:40:45Z</time>
      </trkpt>
      <trkpt lat="44.3104" lon="2.6538">
        <ele>649.5078125</ele>
        <time>2014-05-25T08:40:52Z</time>
      </trkpt>
      <trkpt lat="44.31044" lon="2.65376">
        <ele>649.0270996</ele>
        <time>2014-05-25T08:40:56Z</time>
      </trkpt>
      <trkpt lat="44.31051" lon="2.65373">
        <ele>649.9885254</ele>
        <time>2014-05-25T08:41:02Z</time>
      </trkpt>
      <trkpt lat="44.31057" lon="2.6537">
        <ele>649.9885254</ele>
        <time>2014-05-25T08:41:07Z</time>
      </trkpt>
      <trkpt lat="44.31065" lon="2.65366">
        <ele>648.5463867</ele>
        <time>2014-05-25T08:41:15Z</time>
      </trkpt>
      <trkpt lat="44.3107" lon="2.65363">
        <ele>648.5463867</ele>
        <time>2014-05-25T08:41:19Z</time>
      </trkpt>
      <trkpt lat="44.31079" lon="2.65359">
        <ele>651.4304199</ele>
        <time>2014-05-25T08:41:26Z</time>
      </trkpt>
      <trkpt lat="44.31087" lon="2.65359">
        <ele>651.4304199</ele>
        <time>2014-05-25T08:41:31Z</time>
      </trkpt>
      <trkpt lat="44.31089" lon="2.65358">
        <ele>651.9111328</ele>
        <time>2014-05-25T08:41:32Z</time>
      </trkpt>
      <trkpt lat="44.31095" lon="2.65357">
        <ele>651.9111328</ele>
        <time>2014-05-25T08:41:35Z</time>
      </trkpt>
      <trkpt lat="44.31109" lon="2.65362">
        <ele>658.6403809</ele>
        <time>2014-05-25T08:41:42Z</time>
      </trkpt>
      <trkpt lat="44.31116" lon="2.65363">
        <ele>657.6791992</ele>
        <time>2014-05-25T08:41:47Z</time>
      </trkpt>
      <trkpt lat="44.31118" lon="2.65364">
        <ele>659.1210938</ele>
        <time>2014-05-25T08:41:49Z</time>
      </trkpt>
      <trkpt lat="44.31125" lon="2.65369">
        <ele>660.0822754</ele>
        <time>2014-05-25T08:41:55Z</time>
      </trkpt>
      <trkpt lat="44.31128" lon="2.65372">
        <ele>659.6018066</ele>
        <time>2014-05-25T08:41:59Z</time>
      </trkpt>
      <trkpt lat="44.3113" lon="2.65374">
        <ele>660.0822754</ele>
        <time>2014-05-25T08:42:02Z</time>
      </trkpt>
      <trkpt lat="44.31133" lon="2.65375">
        <ele>661.5244141</ele>
        <time>2014-05-25T08:42:05Z</time>
      </trkpt>
      <trkpt lat="44.31138" lon="2.65376">
        <ele>662.9663086</ele>
        <time>2014-05-25T08:42:09Z</time>
      </trkpt>
      <trkpt lat="44.31148" lon="2.65374">
        <ele>667.2922363</ele>
        <time>2014-05-25T08:42:15Z</time>
      </trkpt>
      <trkpt lat="44.31159" lon="2.65373">
        <ele>669.6958008</ele>
        <time>2014-05-25T08:42:23Z</time>
      </trkpt>
      <trkpt lat="44.31168" lon="2.6537">
        <ele>672.098877</ele>
        <time>2014-05-25T08:42:30Z</time>
      </trkpt>
      <trkpt lat="44.31176" lon="2.6537">
        <ele>674.0214844</ele>
        <time>2014-05-25T08:42:36Z</time>
      </trkpt>
      <trkpt lat="44.31182" lon="2.65366">
        <ele>674.9829102</ele>
        <time>2014-05-25T08:42:42Z</time>
      </trkpt>
      <trkpt lat="44.31183" lon="2.65365">
        <ele>674.9829102</ele>
        <time>2014-05-25T08:42:43Z</time>
      </trkpt>
      <trkpt lat="44.31192" lon="2.65358">
        <ele>676.4248047</ele>
        <time>2014-05-25T08:42:51Z</time>
      </trkpt>
      <trkpt lat="44.31201" lon="2.65349">
        <ele>677.3862305</ele>
        <time>2014-05-25T08:42:59Z</time>
      </trkpt>
      <trkpt lat="44.31207" lon="2.65344">
        <ele>676.9055176</ele>
        <time>2014-05-25T08:43:05Z</time>
      </trkpt>
      <trkpt lat="44.31217" lon="2.65332">
        <ele>677.8666992</ele>
        <time>2014-05-25T08:43:15Z</time>
      </trkpt>
      <trkpt lat="44.31225" lon="2.65322">
        <ele>679.3085938</ele>
        <time>2014-05-25T08:43:24Z</time>
      </trkpt>
      <trkpt lat="44.31232" lon="2.65315">
        <ele>680.2700195</ele>
        <time>2014-05-25T08:43:32Z</time>
      </trkpt>
      <trkpt lat="44.31241" lon="2.65307">
        <ele>681.7119141</ele>
        <time>2014-05-25T08:43:42Z</time>
      </trkpt>
      <trkpt lat="44.31248" lon="2.65299">
        <ele>682.6733398</ele>
        <time>2014-05-25T08:43:51Z</time>
      </trkpt>
      <trkpt lat="44.31256" lon="2.65291">
        <ele>683.6345215</ele>
        <time>2014-05-25T08:44:00Z</time>
      </trkpt>
      <trkpt lat="44.31259" lon="2.65287">
        <ele>684.5961914</ele>
        <time>2014-05-25T08:44:07Z</time>
      </trkpt>
      <trkpt lat="44.31257" lon="2.6529">
        <ele>684.1154785</ele>
        <time>2014-05-25T08:44:13Z</time>
      </trkpt>
      <trkpt lat="44.31257" lon="2.65289">
        <ele>684.1154785</ele>
        <time>2014-05-25T08:44:20Z</time>
      </trkpt>
      <trkpt lat="44.31259" lon="2.65285">
        <ele>684.1154785</ele>
        <time>2014-05-25T08:44:28Z</time>
      </trkpt>
      <trkpt lat="44.31261" lon="2.65284">
        <ele>684.1154785</ele>
        <time>2014-05-25T08:44:34Z</time>
      </trkpt>
      <trkpt lat="44.31268" lon="2.65277">
        <ele>685.557373</ele>
        <time>2014-05-25T08:44:42Z</time>
      </trkpt>
      <trkpt lat="44.31271" lon="2.65272">
        <ele>686.5187988</ele>
        <time>2014-05-25T08:44:47Z</time>
      </trkpt>
      <trkpt lat="44.31277" lon="2.65265">
        <ele>687.9606934</ele>
        <time>2014-05-25T08:44:55Z</time>
      </trkpt>
      <trkpt lat="44.3128" lon="2.65261">
        <ele>688.4414063</ele>
        <time>2014-05-25T08:45:02Z</time>
      </trkpt>
      <trkpt lat="44.31285" lon="2.65255">
        <ele>689.4025879</ele>
        <time>2014-05-25T08:45:09Z</time>
      </trkpt>
      <trkpt lat="44.31289" lon="2.65249">
        <ele>689.8833008</ele>
        <time>2014-05-25T08:45:15Z</time>
      </trkpt>
      <trkpt lat="44.31295" lon="2.65242">
        <ele>691.8059082</ele>
        <time>2014-05-25T08:45:22Z</time>
      </trkpt>
      <trkpt lat="44.31297" lon="2.6524">
        <ele>692.2866211</ele>
        <time>2014-05-25T08:45:24Z</time>
      </trkpt>
      <trkpt lat="44.31305" lon="2.65231">
        <ele>691.8059082</ele>
        <time>2014-05-25T08:45:31Z</time>
      </trkpt>
      <trkpt lat="44.31317" lon="2.65218">
        <ele>691.3251953</ele>
        <time>2014-05-25T08:45:37Z</time>
      </trkpt>
      <trkpt lat="44.31327" lon="2.65207">
        <ele>690.3640137</ele>
        <time>2014-05-25T08:45:42Z</time>
      </trkpt>
      <trkpt lat="44.31337" lon="2.65196">
        <ele>690.8444824</ele>
        <time>2014-05-25T08:45:47Z</time>
      </trkpt>
      <trkpt lat="44.31345" lon="2.65186">
        <ele>689.4025879</ele>
        <time>2014-05-25T08:45:52Z</time>
      </trkpt>
      <trkpt lat="44.31353" lon="2.65174">
        <ele>688.4414063</ele>
        <time>2014-05-25T08:45:57Z</time>
      </trkpt>
      <trkpt lat="44.3136" lon="2.65163">
        <ele>688.4414063</ele>
        <time>2014-05-25T08:46:02Z</time>
      </trkpt>
      <trkpt lat="44.31364" lon="2.65156">
        <ele>687.4799805</ele>
        <time>2014-05-25T08:46:10Z</time>
      </trkpt>
      <trkpt lat="44.31365" lon="2.65155">
        <ele>688.9221191</ele>
        <time>2014-05-25T08:46:18Z</time>
      </trkpt>
      <trkpt lat="44.31365" lon="2.65155">
        <ele>690.8444824</ele>
        <time>2014-05-25T08:46:30Z</time>
      </trkpt>
      <trkpt lat="44.31367" lon="2.65152">
        <ele>691.3251953</ele>
        <time>2014-05-25T08:46:39Z</time>
      </trkpt>
      <trkpt lat="44.31367" lon="2.65152">
        <ele>691.8059082</ele>
        <time>2014-05-25T08:46:46Z</time>
      </trkpt>
      <trkpt lat="44.31368" lon="2.65151">
        <ele>690.8444824</ele>
        <time>2014-05-25T08:46:56Z</time>
      </trkpt>
      <trkpt lat="44.3137" lon="2.65149">
        <ele>691.8059082</ele>
        <time>2014-05-25T08:46:59Z</time>
      </trkpt>
      <trkpt lat="44.3138" lon="2.65139">
        <ele>692.767334</ele>
        <time>2014-05-25T08:47:05Z</time>
      </trkpt>
      <trkpt lat="44.3139" lon="2.65124">
        <ele>692.767334</ele>
        <time>2014-05-25T08:47:11Z</time>
      </trkpt>
      <trkpt lat="44.314" lon="2.65114">
        <ele>693.7285156</ele>
        <time>2014-05-25T08:47:16Z</time>
      </trkpt>
      <trkpt lat="44.31412" lon="2.65101">
        <ele>691.8059082</ele>
        <time>2014-05-25T08:47:22Z</time>
      </trkpt>
      <trkpt lat="44.31421" lon="2.65092">
        <ele>689.4025879</ele>
        <time>2014-05-25T08:47:26Z</time>
      </trkpt>
      <trkpt lat="44.31428" lon="2.65089">
        <ele>688.9221191</ele>
        <time>2014-05-25T08:47:30Z</time>
      </trkpt>
      <trkpt lat="44.31437" lon="2.65082">
        <ele>688.4414063</ele>
        <time>2014-05-25T08:47:35Z</time>
      </trkpt>
      <trkpt lat="44.3145" lon="2.65078">
        <ele>689.4025879</ele>
        <time>2014-05-25T08:47:41Z</time>
      </trkpt>
      <trkpt lat="44.31464" lon="2.65067">
        <ele>688.4414063</ele>
        <time>2014-05-25T08:47:46Z</time>
      </trkpt>
      <trkpt lat="44.31477" lon="2.65061">
        <ele>686.0380859</ele>
        <time>2014-05-25T08:47:50Z</time>
      </trkpt>
      <trkpt lat="44.31493" lon="2.65057">
        <ele>686.0380859</ele>
        <time>2014-05-25T08:47:55Z</time>
      </trkpt>
      <trkpt lat="44.31511" lon="2.6505">
        <ele>684.5961914</ele>
        <time>2014-05-25T08:48:01Z</time>
      </trkpt>
      <trkpt lat="44.31514" lon="2.65048">
        <ele>684.5961914</ele>
        <time>2014-05-25T08:48:02Z</time>
      </trkpt>
      <trkpt lat="44.31529" lon="2.65042">
        <ele>683.6345215</ele>
        <time>2014-05-25T08:48:07Z</time>
      </trkpt>
      <trkpt lat="44.3154" lon="2.65037">
        <ele>683.6345215</ele>
        <time>2014-05-25T08:48:11Z</time>
      </trkpt>
      <trkpt lat="44.31555" lon="2.65023">
        <ele>684.1154785</ele>
        <time>2014-05-25T08:48:17Z</time>
      </trkpt>
      <trkpt lat="44.31566" lon="2.65008">
        <ele>683.1538086</ele>
        <time>2014-05-25T08:48:22Z</time>
      </trkpt>
      <trkpt lat="44.31571" lon="2.64994">
        <ele>682.6733398</ele>
        <time>2014-05-25T08:48:26Z</time>
      </trkpt>
      <trkpt lat="44.31576" lon="2.6498">
        <ele>681.7119141</ele>
        <time>2014-05-25T08:48:30Z</time>
      </trkpt>
      <trkpt lat="44.31576" lon="2.64955">
        <ele>681.2314453</ele>
        <time>2014-05-25T08:48:36Z</time>
      </trkpt>
      <trkpt lat="44.31577" lon="2.64933">
        <ele>680.2700195</ele>
        <time>2014-05-25T08:48:41Z</time>
      </trkpt>
      <trkpt lat="44.31576" lon="2.64904">
        <ele>677.3862305</ele>
        <time>2014-05-25T08:48:47Z</time>
      </trkpt>
      <trkpt lat="44.31571" lon="2.64878">
        <ele>674.9829102</ele>
        <time>2014-05-25T08:48:53Z</time>
      </trkpt>
      <trkpt lat="44.31568" lon="2.64861">
        <ele>672.098877</ele>
        <time>2014-05-25T08:48:57Z</time>
      </trkpt>
      <trkpt lat="44.31567" lon="2.64834">
        <ele>667.2922363</ele>
        <time>2014-05-25T08:49:03Z</time>
      </trkpt>
      <trkpt lat="44.31566" lon="2.64815">
        <ele>665.3696289</ele>
        <time>2014-05-25T08:49:07Z</time>
      </trkpt>
      <trkpt lat="44.31563" lon="2.64788">
        <ele>661.0437012</ele>
        <time>2014-05-25T08:49:13Z</time>
      </trkpt>
      <trkpt lat="44.31561" lon="2.64763">
        <ele>658.6403809</ele>
        <time>2014-05-25T08:49:19Z</time>
      </trkpt>
      <trkpt lat="44.31561" lon="2.64743">
        <ele>657.1984863</ele>
        <time>2014-05-25T08:49:24Z</time>
      </trkpt>
      <trkpt lat="44.31562" lon="2.64732">
        <ele>655.7565918</ele>
        <time>2014-05-25T08:49:27Z</time>
      </trkpt>
      <trkpt lat="44.3155" lon="2.64719">
        <ele>653.3532715</ele>
        <time>2014-05-25T08:49:32Z</time>
      </trkpt>
      <trkpt lat="44.31548" lon="2.64716">
        <ele>652.8725586</ele>
        <time>2014-05-25T08:49:33Z</time>
      </trkpt>
      <trkpt lat="44.31544" lon="2.64695">
        <ele>651.4304199</ele>
        <time>2014-05-25T08:49:38Z</time>
      </trkpt>
      <trkpt lat="44.31547" lon="2.64681">
        <ele>649.5078125</ele>
        <time>2014-05-25T08:49:42Z</time>
      </trkpt>
      <trkpt lat="44.31556" lon="2.64665">
        <ele>647.1044922</ele>
        <time>2014-05-25T08:49:47Z</time>
      </trkpt>
      <trkpt lat="44.31564" lon="2.64653">
        <ele>643.7399902</ele>
        <time>2014-05-25T08:49:51Z</time>
      </trkpt>
      <trkpt lat="44.31569" lon="2.64635">
        <ele>641.3366699</ele>
        <time>2014-05-25T08:49:56Z</time>
      </trkpt>
      <trkpt lat="44.31572" lon="2.64617">
        <ele>639.8947754</ele>
        <time>2014-05-25T08:50:00Z</time>
      </trkpt>
      <trkpt lat="44.31571" lon="2.64601">
        <ele>637.972168</ele>
        <time>2014-05-25T08:50:04Z</time>
      </trkpt>
      <trkpt lat="44.31569" lon="2.64583">
        <ele>637.0107422</ele>
        <time>2014-05-25T08:50:08Z</time>
      </trkpt>
      <trkpt lat="44.31574" lon="2.64567">
        <ele>636.0495605</ele>
        <time>2014-05-25T08:50:12Z</time>
      </trkpt>
      <trkpt lat="44.31584" lon="2.64557">
        <ele>634.6074219</ele>
        <time>2014-05-25T08:50:17Z</time>
      </trkpt>
      <trkpt lat="44.31595" lon="2.64547">
        <ele>635.0881348</ele>
        <time>2014-05-25T08:50:22Z</time>
      </trkpt>
      <trkpt lat="44.31604" lon="2.64531">
        <ele>635.0881348</ele>
        <time>2014-05-25T08:50:28Z</time>
      </trkpt>
      <trkpt lat="44.31612" lon="2.64518">
        <ele>635.5686035</ele>
        <time>2014-05-25T08:50:33Z</time>
      </trkpt>
      <trkpt lat="44.3162" lon="2.64506">
        <ele>637.972168</ele>
        <time>2014-05-25T08:50:38Z</time>
      </trkpt>
      <trkpt lat="44.31628" lon="2.6449">
        <ele>640.855957</ele>
        <time>2014-05-25T08:50:44Z</time>
      </trkpt>
      <trkpt lat="44.31635" lon="2.64481">
        <ele>642.2980957</ele>
        <time>2014-05-25T08:50:48Z</time>
      </trkpt>
      <trkpt lat="44.31646" lon="2.64482">
        <ele>643.7399902</ele>
        <time>2014-05-25T08:50:54Z</time>
      </trkpt>
      <trkpt lat="44.31654" lon="2.64491">
        <ele>645.6625977</ele>
        <time>2014-05-25T08:50:59Z</time>
      </trkpt>
      <trkpt lat="44.31665" lon="2.64502">
        <ele>646.1433105</ele>
        <time>2014-05-25T08:51:06Z</time>
      </trkpt>
      <trkpt lat="44.31674" lon="2.64507">
        <ele>646.6240234</ele>
        <time>2014-05-25T08:51:11Z</time>
      </trkpt>
      <trkpt lat="44.31681" lon="2.6451">
        <ele>646.1433105</ele>
        <time>2014-05-25T08:51:17Z</time>
      </trkpt>
      <trkpt lat="44.31691" lon="2.64511">
        <ele>647.1044922</ele>
        <time>2014-05-25T08:51:24Z</time>
      </trkpt>
      <trkpt lat="44.31692" lon="2.64511">
        <ele>647.1044922</ele>
        <time>2014-05-25T08:51:25Z</time>
      </trkpt>
      <trkpt lat="44.31697" lon="2.6451">
        <ele>648.065918</ele>
        <time>2014-05-25T08:51:29Z</time>
      </trkpt>
      <trkpt lat="44.31704" lon="2.6451">
        <ele>649.9885254</ele>
        <time>2014-05-25T08:51:34Z</time>
      </trkpt>
      <trkpt lat="44.31713" lon="2.6451">
        <ele>651.9111328</ele>
        <time>2014-05-25T08:51:42Z</time>
      </trkpt>
      <trkpt lat="44.3172" lon="2.6451">
        <ele>653.8339844</ele>
        <time>2014-05-25T08:51:46Z</time>
      </trkpt>
      <trkpt lat="44.31725" lon="2.6451">
        <ele>654.3146973</ele>
        <time>2014-05-25T08:51:49Z</time>
      </trkpt>
      <trkpt lat="44.31735" lon="2.64512">
        <ele>654.795166</ele>
        <time>2014-05-25T08:51:55Z</time>
      </trkpt>
      <trkpt lat="44.3174" lon="2.64512">
        <ele>655.7565918</ele>
        <time>2014-05-25T08:51:57Z</time>
      </trkpt>
      <trkpt lat="44.31755" lon="2.64512">
        <ele>656.2370605</ele>
        <time>2014-05-25T08:52:03Z</time>
      </trkpt>
      <trkpt lat="44.31771" lon="2.64515">
        <ele>658.6403809</ele>
        <time>2014-05-25T08:52:09Z</time>
      </trkpt>
      <trkpt lat="44.31785" lon="2.64521">
        <ele>659.6018066</ele>
        <time>2014-05-25T08:52:15Z</time>
      </trkpt>
      <trkpt lat="44.31795" lon="2.64523">
        <ele>659.6018066</ele>
        <time>2014-05-25T08:52:19Z</time>
      </trkpt>
      <trkpt lat="44.31811" lon="2.64536">
        <ele>660.0822754</ele>
        <time>2014-05-25T08:52:27Z</time>
      </trkpt>
      <trkpt lat="44.31824" lon="2.6455">
        <ele>659.6018066</ele>
        <time>2014-05-25T08:52:34Z</time>
      </trkpt>
      <trkpt lat="44.31829" lon="2.64557">
        <ele>658.6403809</ele>
        <time>2014-05-25T08:52:37Z</time>
      </trkpt>
      <trkpt lat="44.31837" lon="2.64565">
        <ele>658.6403809</ele>
        <time>2014-05-25T08:52:41Z</time>
      </trkpt>
      <trkpt lat="44.31846" lon="2.6458">
        <ele>658.6403809</ele>
        <time>2014-05-25T08:52:47Z</time>
      </trkpt>
      <trkpt lat="44.31854" lon="2.64591">
        <ele>658.1599121</ele>
        <time>2014-05-25T08:52:52Z</time>
      </trkpt>
      <trkpt lat="44.31863" lon="2.64601">
        <ele>657.6791992</ele>
        <time>2014-05-25T08:52:57Z</time>
      </trkpt>
      <trkpt lat="44.31875" lon="2.64609">
        <ele>657.1984863</ele>
        <time>2014-05-25T08:53:02Z</time>
      </trkpt>
      <trkpt lat="44.31889" lon="2.6461">
        <ele>657.1984863</ele>
        <time>2014-05-25T08:53:08Z</time>
      </trkpt>
      <trkpt lat="44.31903" lon="2.64609">
        <ele>659.6018066</ele>
        <time>2014-05-25T08:53:14Z</time>
      </trkpt>
      <trkpt lat="44.31919" lon="2.64605">
        <ele>662.005127</ele>
        <time>2014-05-25T08:53:21Z</time>
      </trkpt>
      <trkpt lat="44.31934" lon="2.64604">
        <ele>663.9274902</ele>
        <time>2014-05-25T08:53:28Z</time>
      </trkpt>
      <trkpt lat="44.31944" lon="2.64606">
        <ele>664.888916</ele>
        <time>2014-05-25T08:53:33Z</time>
      </trkpt>
      <trkpt lat="44.31957" lon="2.64609">
        <ele>666.3308105</ele>
        <time>2014-05-25T08:53:39Z</time>
      </trkpt>
      <trkpt lat="44.31963" lon="2.64611">
        <ele>667.2922363</ele>
        <time>2014-05-25T08:53:42Z</time>
      </trkpt>
      <trkpt lat="44.31978" lon="2.64614">
        <ele>669.2150879</ele>
        <time>2014-05-25T08:53:49Z</time>
      </trkpt>
      <trkpt lat="44.31993" lon="2.64617">
        <ele>670.1762695</ele>
        <time>2014-05-25T08:53:56Z</time>
      </trkpt>
      <trkpt lat="44.31999" lon="2.6462">
        <ele>671.1376953</ele>
        <time>2014-05-25T08:53:59Z</time>
      </trkpt>
      <trkpt lat="44.3201" lon="2.6462">
        <ele>672.098877</ele>
        <time>2014-05-25T08:54:04Z</time>
      </trkpt>
      <trkpt lat="44.3202" lon="2.6462">
        <ele>673.5410156</ele>
        <time>2014-05-25T08:54:09Z</time>
      </trkpt>
      <trkpt lat="44.32021" lon="2.6462">
        <ele>673.5410156</ele>
        <time>2014-05-25T08:54:13Z</time>
      </trkpt>
      <trkpt lat="44.3203" lon="2.6462">
        <ele>674.5021973</ele>
        <time>2014-05-25T08:54:18Z</time>
      </trkpt>
      <trkpt lat="44.32046" lon="2.64623">
        <ele>675.4633789</ele>
        <time>2014-05-25T08:54:25Z</time>
      </trkpt>
      <trkpt lat="44.32058" lon="2.64626">
        <ele>675.9440918</ele>
        <time>2014-05-25T08:54:31Z</time>
      </trkpt>
      <trkpt lat="44.32073" lon="2.64629">
        <ele>676.9055176</ele>
        <time>2014-05-25T08:54:38Z</time>
      </trkpt>
      <trkpt lat="44.32091" lon="2.64632">
        <ele>677.8666992</ele>
        <time>2014-05-25T08:54:46Z</time>
      </trkpt>
      <trkpt lat="44.32105" lon="2.64635">
        <ele>679.3085938</ele>
        <time>2014-05-25T08:54:52Z</time>
      </trkpt>
      <trkpt lat="44.32118" lon="2.64638">
        <ele>680.7507324</ele>
        <time>2014-05-25T08:54:58Z</time>
      </trkpt>
      <trkpt lat="44.3213" lon="2.64639">
        <ele>681.2314453</ele>
        <time>2014-05-25T08:55:03Z</time>
      </trkpt>
      <trkpt lat="44.32143" lon="2.6464">
        <ele>681.7119141</ele>
        <time>2014-05-25T08:55:08Z</time>
      </trkpt>
      <trkpt lat="44.32157" lon="2.64645">
        <ele>683.6345215</ele>
        <time>2014-05-25T08:55:14Z</time>
      </trkpt>
      <trkpt lat="44.32168" lon="2.64647">
        <ele>683.6345215</ele>
        <time>2014-05-25T08:55:18Z</time>
      </trkpt>
      <trkpt lat="44.32186" lon="2.64651">
        <ele>683.6345215</ele>
        <time>2014-05-25T08:55:24Z</time>
      </trkpt>
      <trkpt lat="44.32203" lon="2.64655">
        <ele>684.1154785</ele>
        <time>2014-05-25T08:55:30Z</time>
      </trkpt>
      <trkpt lat="44.32214" lon="2.6466">
        <ele>684.5961914</ele>
        <time>2014-05-25T08:55:34Z</time>
      </trkpt>
      <trkpt lat="44.3223" lon="2.64668">
        <ele>682.6733398</ele>
        <time>2014-05-25T08:55:40Z</time>
      </trkpt>
      <trkpt lat="44.32242" lon="2.64676">
        <ele>680.7507324</ele>
        <time>2014-05-25T08:55:44Z</time>
      </trkpt>
      <trkpt lat="44.32256" lon="2.64688">
        <ele>679.3085938</ele>
        <time>2014-05-25T08:55:50Z</time>
      </trkpt>
      <trkpt lat="44.32266" lon="2.64706">
        <ele>676.9055176</ele>
        <time>2014-05-25T08:55:56Z</time>
      </trkpt>
      <trkpt lat="44.32271" lon="2.64724">
        <ele>675.4633789</ele>
        <time>2014-05-25T08:56:01Z</time>
      </trkpt>
      <trkpt lat="44.32276" lon="2.64745">
        <ele>674.0214844</ele>
        <time>2014-05-25T08:56:07Z</time>
      </trkpt>
      <trkpt lat="44.3228" lon="2.64762">
        <ele>672.098877</ele>
        <time>2014-05-25T08:56:12Z</time>
      </trkpt>
      <trkpt lat="44.32285" lon="2.64779">
        <ele>670.6569824</ele>
        <time>2014-05-25T08:56:17Z</time>
      </trkpt>
      <trkpt lat="44.32291" lon="2.64798">
        <ele>669.6958008</ele>
        <time>2014-05-25T08:56:23Z</time>
      </trkpt>
      <trkpt lat="44.32298" lon="2.64813">
        <ele>668.734375</ele>
        <time>2014-05-25T08:56:29Z</time>
      </trkpt>
      <trkpt lat="44.32301" lon="2.64819">
        <ele>667.2922363</ele>
        <time>2014-05-25T08:56:33Z</time>
      </trkpt>
      <trkpt lat="44.32305" lon="2.64817">
        <ele>667.2922363</ele>
        <time>2014-05-25T08:56:38Z</time>
      </trkpt>
      <trkpt lat="44.32309" lon="2.6481">
        <ele>667.7727051</ele>
        <time>2014-05-25T08:56:46Z</time>
      </trkpt>
      <trkpt lat="44.3231" lon="2.64808">
        <ele>667.7727051</ele>
        <time>2014-05-25T08:56:52Z</time>
      </trkpt>
      <trkpt lat="44.32309" lon="2.64807">
        <ele>668.2536621</ele>
        <time>2014-05-25T08:57:03Z</time>
      </trkpt>
      <trkpt lat="44.32309" lon="2.64807">
        <ele>668.734375</ele>
        <time>2014-05-25T08:57:14Z</time>
      </trkpt>
      <trkpt lat="44.32309" lon="2.64807">
        <ele>668.2536621</ele>
        <time>2014-05-25T08:57:23Z</time>
      </trkpt>
      <trkpt lat="44.32309" lon="2.64806">
        <ele>668.734375</ele>
        <time>2014-05-25T08:57:30Z</time>
      </trkpt>
      <trkpt lat="44.32308" lon="2.64806">
        <ele>668.734375</ele>
        <time>2014-05-25T08:57:36Z</time>
      </trkpt>
      <trkpt lat="44.32308" lon="2.64806">
        <ele>670.1762695</ele>
        <time>2014-05-25T08:57:44Z</time>
      </trkpt>
      <trkpt lat="44.32308" lon="2.64806">
        <ele>670.1762695</ele>
        <time>2014-05-25T08:57:57Z</time>
      </trkpt>
      <trkpt lat="44.32309" lon="2.64806">
        <ele>670.1762695</ele>
        <time>2014-05-25T08:58:08Z</time>
      </trkpt>
      <trkpt lat="44.32309" lon="2.64807">
        <ele>671.1376953</ele>
        <time>2014-05-25T08:58:22Z</time>
      </trkpt>
      <trkpt lat="44.3231" lon="2.64801">
        <ele>674.0214844</ele>
        <time>2014-05-25T08:58:33Z</time>
      </trkpt>
      <trkpt lat="44.32314" lon="2.64793">
        <ele>674.5021973</ele>
        <time>2014-05-25T08:58:40Z</time>
      </trkpt>
      <trkpt lat="44.32323" lon="2.64776">
        <ele>672.5795898</ele>
        <time>2014-05-25T08:58:48Z</time>
      </trkpt>
      <trkpt lat="44.32333" lon="2.6476">
        <ele>671.1376953</ele>
        <time>2014-05-25T08:58:55Z</time>
      </trkpt>
      <trkpt lat="44.3235" lon="2.64745">
        <ele>669.2150879</ele>
        <time>2014-05-25T08:59:03Z</time>
      </trkpt>
      <trkpt lat="44.32367" lon="2.64741">
        <ele>667.7727051</ele>
        <time>2014-05-25T08:59:09Z</time>
      </trkpt>
      <trkpt lat="44.32385" lon="2.64743">
        <ele>666.8115234</ele>
        <time>2014-05-25T08:59:15Z</time>
      </trkpt>
      <trkpt lat="44.324" lon="2.64748">
        <ele>666.3308105</ele>
        <time>2014-05-25T08:59:20Z</time>
      </trkpt>
      <trkpt lat="44.32419" lon="2.6476">
        <ele>665.3696289</ele>
        <time>2014-05-25T08:59:27Z</time>
      </trkpt>
      <trkpt lat="44.32437" lon="2.64768">
        <ele>662.9663086</ele>
        <time>2014-05-25T08:59:33Z</time>
      </trkpt>
      <trkpt lat="44.3245" lon="2.64773">
        <ele>662.005127</ele>
        <time>2014-05-25T08:59:37Z</time>
      </trkpt>
      <trkpt lat="44.32468" lon="2.64783">
        <ele>659.6018066</ele>
        <time>2014-05-25T08:59:43Z</time>
      </trkpt>
      <trkpt lat="44.32483" lon="2.64792">
        <ele>657.6791992</ele>
        <time>2014-05-25T08:59:48Z</time>
      </trkpt>
      <trkpt lat="44.32495" lon="2.64795">
        <ele>655.7565918</ele>
        <time>2014-05-25T08:59:52Z</time>
      </trkpt>
      <trkpt lat="44.32512" lon="2.64798">
        <ele>653.3532715</ele>
        <time>2014-05-25T08:59:57Z</time>
      </trkpt>
      <trkpt lat="44.32526" lon="2.64802">
        <ele>651.4304199</ele>
        <time>2014-05-25T09:00:01Z</time>
      </trkpt>
      <trkpt lat="44.32545" lon="2.64803">
        <ele>649.5078125</ele>
        <time>2014-05-25T09:00:07Z</time>
      </trkpt>
      <trkpt lat="44.32564" lon="2.64802">
        <ele>648.5463867</ele>
        <time>2014-05-25T09:00:13Z</time>
      </trkpt>
      <trkpt lat="44.32576" lon="2.64803">
        <ele>648.065918</ele>
        <time>2014-05-25T09:00:17Z</time>
      </trkpt>
      <trkpt lat="44.32591" lon="2.64799">
        <ele>648.065918</ele>
        <time>2014-05-25T09:00:22Z</time>
      </trkpt>
      <trkpt lat="44.32609" lon="2.64798">
        <ele>645.1818848</ele>
        <time>2014-05-25T09:00:28Z</time>
      </trkpt>
      <trkpt lat="44.32621" lon="2.64794">
        <ele>644.2207031</ele>
        <time>2014-05-25T09:00:32Z</time>
      </trkpt>
      <trkpt lat="44.32634" lon="2.64786">
        <ele>644.2207031</ele>
        <time>2014-05-25T09:00:37Z</time>
      </trkpt>
      <trkpt lat="44.32648" lon="2.64783">
        <ele>642.7788086</ele>
        <time>2014-05-25T09:00:42Z</time>
      </trkpt>
      <trkpt lat="44.32662" lon="2.64781">
        <ele>642.7788086</ele>
        <time>2014-05-25T09:00:47Z</time>
      </trkpt>
      <trkpt lat="44.32676" lon="2.64782">
        <ele>643.2592773</ele>
        <time>2014-05-25T09:00:52Z</time>
      </trkpt>
      <trkpt lat="44.32691" lon="2.64781">
        <ele>644.7011719</ele>
        <time>2014-05-25T09:00:58Z</time>
      </trkpt>
      <trkpt lat="44.32706" lon="2.64781">
        <ele>645.6625977</ele>
        <time>2014-05-25T09:01:03Z</time>
      </trkpt>
      <trkpt lat="44.32719" lon="2.64786">
        <ele>645.6625977</ele>
        <time>2014-05-25T09:01:08Z</time>
      </trkpt>
      <trkpt lat="44.32734" lon="2.64783">
        <ele>646.6240234</ele>
        <time>2014-05-25T09:01:14Z</time>
      </trkpt>
      <trkpt lat="44.32746" lon="2.64786">
        <ele>647.5852051</ele>
        <time>2014-05-25T09:01:19Z</time>
      </trkpt>
      <trkpt lat="44.32764" lon="2.64787">
        <ele>648.065918</ele>
        <time>2014-05-25T09:01:27Z</time>
      </trkpt>
      <trkpt lat="44.32775" lon="2.64788">
        <ele>649.9885254</ele>
        <time>2014-05-25T09:01:33Z</time>
      </trkpt>
      <trkpt lat="44.32789" lon="2.6479">
        <ele>651.9111328</ele>
        <time>2014-05-25T09:01:39Z</time>
      </trkpt>
      <trkpt lat="44.32803" lon="2.64792">
        <ele>653.3532715</ele>
        <time>2014-05-25T09:01:45Z</time>
      </trkpt>
      <trkpt lat="44.32824" lon="2.64797">
        <ele>655.2758789</ele>
        <time>2014-05-25T09:01:54Z</time>
      </trkpt>
      <trkpt lat="44.32843" lon="2.648">
        <ele>655.7565918</ele>
        <time>2014-05-25T09:02:02Z</time>
      </trkpt>
      <trkpt lat="44.3286" lon="2.64801">
        <ele>657.1984863</ele>
        <time>2014-05-25T09:02:09Z</time>
      </trkpt>
      <trkpt lat="44.32875" lon="2.64803">
        <ele>658.6403809</ele>
        <time>2014-05-25T09:02:15Z</time>
      </trkpt>
      <trkpt lat="44.32889" lon="2.64806">
        <ele>659.6018066</ele>
        <time>2014-05-25T09:02:21Z</time>
      </trkpt>
      <trkpt lat="44.32904" lon="2.64809">
        <ele>660.5629883</ele>
        <time>2014-05-25T09:02:27Z</time>
      </trkpt>
      <trkpt lat="44.32919" lon="2.64813">
        <ele>661.5244141</ele>
        <time>2014-05-25T09:02:33Z</time>
      </trkpt>
      <trkpt lat="44.32937" lon="2.64816">
        <ele>661.5244141</ele>
        <time>2014-05-25T09:02:40Z</time>
      </trkpt>
      <trkpt lat="44.32955" lon="2.6482">
        <ele>662.005127</ele>
        <time>2014-05-25T09:02:47Z</time>
      </trkpt>
      <trkpt lat="44.32972" lon="2.64824">
        <ele>662.9663086</ele>
        <time>2014-05-25T09:02:54Z</time>
      </trkpt>
      <trkpt lat="44.32985" lon="2.64828">
        <ele>662.005127</ele>
        <time>2014-05-25T09:03:00Z</time>
      </trkpt>
      <trkpt lat="44.33001" lon="2.64833">
        <ele>662.005127</ele>
        <time>2014-05-25T09:03:07Z</time>
      </trkpt>
      <trkpt lat="44.33015" lon="2.64837">
        <ele>662.9663086</ele>
        <time>2014-05-25T09:03:13Z</time>
      </trkpt>
      <trkpt lat="44.33031" lon="2.64841">
        <ele>664.888916</ele>
        <time>2014-05-25T09:03:20Z</time>
      </trkpt>
      <trkpt lat="44.33044" lon="2.64842">
        <ele>666.3308105</ele>
        <time>2014-05-25T09:03:25Z</time>
      </trkpt>
      <trkpt lat="44.3306" lon="2.64843">
        <ele>666.3308105</ele>
        <time>2014-05-25T09:03:31Z</time>
      </trkpt>
      <trkpt lat="44.33068" lon="2.64834">
        <ele>667.2922363</ele>
        <time>2014-05-25T09:03:35Z</time>
      </trkpt>
      <trkpt lat="44.33071" lon="2.64818">
        <ele>668.734375</ele>
        <time>2014-05-25T09:03:40Z</time>
      </trkpt>
      <trkpt lat="44.33072" lon="2.64797">
        <ele>670.1762695</ele>
        <time>2014-05-25T09:03:46Z</time>
      </trkpt>
      <trkpt lat="44.33074" lon="2.64777">
        <ele>670.6569824</ele>
        <time>2014-05-25T09:03:52Z</time>
      </trkpt>
      <trkpt lat="44.33075" lon="2.64759">
        <ele>671.6181641</ele>
        <time>2014-05-25T09:03:57Z</time>
      </trkpt>
      <trkpt lat="44.33078" lon="2.64739">
        <ele>672.5795898</ele>
        <time>2014-05-25T09:04:03Z</time>
      </trkpt>
      <trkpt lat="44.33085" lon="2.64716">
        <ele>674.0214844</ele>
        <time>2014-05-25T09:04:10Z</time>
      </trkpt>
      <trkpt lat="44.33089" lon="2.64699">
        <ele>674.5021973</ele>
        <time>2014-05-25T09:04:15Z</time>
      </trkpt>
      <trkpt lat="44.33093" lon="2.64682">
        <ele>674.5021973</ele>
        <time>2014-05-25T09:04:20Z</time>
      </trkpt>
      <trkpt lat="44.33096" lon="2.6466">
        <ele>675.4633789</ele>
        <time>2014-05-25T09:04:26Z</time>
      </trkpt>
      <trkpt lat="44.33101" lon="2.64636">
        <ele>676.4248047</ele>
        <time>2014-05-25T09:04:33Z</time>
      </trkpt>
      <trkpt lat="44.33104" lon="2.64613">
        <ele>677.3862305</ele>
        <time>2014-05-25T09:04:40Z</time>
      </trkpt>
      <trkpt lat="44.33105" lon="2.64588">
        <ele>678.3474121</ele>
        <time>2014-05-25T09:04:47Z</time>
      </trkpt>
      <trkpt lat="44.33113" lon="2.64571">
        <ele>678.3474121</ele>
        <time>2014-05-25T09:04:53Z</time>
      </trkpt>
      <trkpt lat="44.33119" lon="2.64558">
        <ele>678.3474121</ele>
        <time>2014-05-25T09:04:57Z</time>
      </trkpt>
      <trkpt lat="44.33128" lon="2.64538">
        <ele>677.3862305</ele>
        <time>2014-05-25T09:05:03Z</time>
      </trkpt>
      <trkpt lat="44.33133" lon="2.6452">
        <ele>676.4248047</ele>
        <time>2014-05-25T09:05:08Z</time>
      </trkpt>
      <trkpt lat="44.33141" lon="2.645">
        <ele>675.9440918</ele>
        <time>2014-05-25T09:05:14Z</time>
      </trkpt>
      <trkpt lat="44.33147" lon="2.64486">
        <ele>675.4633789</ele>
        <time>2014-05-25T09:05:18Z</time>
      </trkpt>
      <trkpt lat="44.33154" lon="2.64468">
        <ele>674.9829102</ele>
        <time>2014-05-25T09:05:23Z</time>
      </trkpt>
      <trkpt lat="44.33159" lon="2.6445">
        <ele>674.9829102</ele>
        <time>2014-05-25T09:05:28Z</time>
      </trkpt>
      <trkpt lat="44.33164" lon="2.64428">
        <ele>674.0214844</ele>
        <time>2014-05-25T09:05:34Z</time>
      </trkpt>
      <trkpt lat="44.33169" lon="2.64406">
        <ele>672.5795898</ele>
        <time>2014-05-25T09:05:40Z</time>
      </trkpt>
      <trkpt lat="44.33173" lon="2.64388">
        <ele>672.5795898</ele>
        <time>2014-05-25T09:05:45Z</time>
      </trkpt>
      <trkpt lat="44.33181" lon="2.64367">
        <ele>671.6181641</ele>
        <time>2014-05-25T09:05:51Z</time>
      </trkpt>
      <trkpt lat="44.33186" lon="2.64353">
        <ele>671.6181641</ele>
        <time>2014-05-25T09:05:55Z</time>
      </trkpt>
      <trkpt lat="44.33197" lon="2.64325">
        <ele>671.1376953</ele>
        <time>2014-05-25T09:06:04Z</time>
      </trkpt>
      <trkpt lat="44.33204" lon="2.64309">
        <ele>671.6181641</ele>
        <time>2014-05-25T09:06:09Z</time>
      </trkpt>
      <trkpt lat="44.3321" lon="2.64292">
        <ele>672.098877</ele>
        <time>2014-05-25T09:06:14Z</time>
      </trkpt>
      <trkpt lat="44.33219" lon="2.64272">
        <ele>671.1376953</ele>
        <time>2014-05-25T09:06:20Z</time>
      </trkpt>
      <trkpt lat="44.33226" lon="2.64254">
        <ele>671.1376953</ele>
        <time>2014-05-25T09:06:25Z</time>
      </trkpt>
      <trkpt lat="44.33232" lon="2.64235">
        <ele>671.6181641</ele>
        <time>2014-05-25T09:06:30Z</time>
      </trkpt>
      <trkpt lat="44.33237" lon="2.64216">
        <ele>672.098877</ele>
        <time>2014-05-25T09:06:35Z</time>
      </trkpt>
      <trkpt lat="44.33243" lon="2.64199">
        <ele>672.5795898</ele>
        <time>2014-05-25T09:06:40Z</time>
      </trkpt>
      <trkpt lat="44.33249" lon="2.64184">
        <ele>673.0603027</ele>
        <time>2014-05-25T09:06:45Z</time>
      </trkpt>
      <trkpt lat="44.33255" lon="2.64162">
        <ele>673.0603027</ele>
        <time>2014-05-25T09:06:51Z</time>
      </trkpt>
      <trkpt lat="44.33257" lon="2.64147">
        <ele>673.5410156</ele>
        <time>2014-05-25T09:06:55Z</time>
      </trkpt>
      <trkpt lat="44.33261" lon="2.64129">
        <ele>673.0603027</ele>
        <time>2014-05-25T09:07:00Z</time>
      </trkpt>
      <trkpt lat="44.33264" lon="2.6411">
        <ele>673.5410156</ele>
        <time>2014-05-25T09:07:05Z</time>
      </trkpt>
      <trkpt lat="44.33269" lon="2.64092">
        <ele>673.0603027</ele>
        <time>2014-05-25T09:07:10Z</time>
      </trkpt>
      <trkpt lat="44.33272" lon="2.64077">
        <ele>672.5795898</ele>
        <time>2014-05-25T09:07:14Z</time>
      </trkpt>
      <trkpt lat="44.33275" lon="2.64058">
        <ele>671.6181641</ele>
        <time>2014-05-25T09:07:19Z</time>
      </trkpt>
      <trkpt lat="44.33277" lon="2.64036">
        <ele>669.6958008</ele>
        <time>2014-05-25T09:07:25Z</time>
      </trkpt>
      <trkpt lat="44.3328" lon="2.64017">
        <ele>669.6958008</ele>
        <time>2014-05-25T09:07:30Z</time>
      </trkpt>
      <trkpt lat="44.33285" lon="2.64001">
        <ele>669.2150879</ele>
        <time>2014-05-25T09:07:35Z</time>
      </trkpt>
      <trkpt lat="44.33289" lon="2.63983">
        <ele>668.2536621</ele>
        <time>2014-05-25T09:07:40Z</time>
      </trkpt>
      <trkpt lat="44.33292" lon="2.63961">
        <ele>667.2922363</ele>
        <time>2014-05-25T09:07:46Z</time>
      </trkpt>
      <trkpt lat="44.33295" lon="2.63935">
        <ele>665.3696289</ele>
        <time>2014-05-25T09:07:53Z</time>
      </trkpt>
      <trkpt lat="44.333" lon="2.63913">
        <ele>664.4082031</ele>
        <time>2014-05-25T09:07:59Z</time>
      </trkpt>
      <trkpt lat="44.33304" lon="2.63897">
        <ele>663.4470215</ele>
        <time>2014-05-25T09:08:03Z</time>
      </trkpt>
      <trkpt lat="44.33309" lon="2.63877">
        <ele>661.5244141</ele>
        <time>2014-05-25T09:08:09Z</time>
      </trkpt>
      <trkpt lat="44.33316" lon="2.63853">
        <ele>658.6403809</ele>
        <time>2014-05-25T09:08:16Z</time>
      </trkpt>
      <trkpt lat="44.33321" lon="2.63833">
        <ele>656.7177734</ele>
        <time>2014-05-25T09:08:22Z</time>
      </trkpt>
      <trkpt lat="44.33324" lon="2.63816">
        <ele>654.795166</ele>
        <time>2014-05-25T09:08:27Z</time>
      </trkpt>
      <trkpt lat="44.3333" lon="2.63794">
        <ele>653.8339844</ele>
        <time>2014-05-25T09:08:33Z</time>
      </trkpt>
      <trkpt lat="44.33336" lon="2.63776">
        <ele>652.3918457</ele>
        <time>2014-05-25T09:08:38Z</time>
      </trkpt>
      <trkpt lat="44.33342" lon="2.63755">
        <ele>650.4692383</ele>
        <time>2014-05-25T09:08:43Z</time>
      </trkpt>
      <trkpt lat="44.33348" lon="2.63732">
        <ele>649.0270996</ele>
        <time>2014-05-25T09:08:48Z</time>
      </trkpt>
      <trkpt lat="44.33352" lon="2.63712">
        <ele>647.5852051</ele>
        <time>2014-05-25T09:08:53Z</time>
      </trkpt>
      <trkpt lat="44.33358" lon="2.63691">
        <ele>645.6625977</ele>
        <time>2014-05-25T09:08:58Z</time>
      </trkpt>
      <trkpt lat="44.33365" lon="2.63676">
        <ele>644.2207031</ele>
        <time>2014-05-25T09:09:02Z</time>
      </trkpt>
      <trkpt lat="44.33376" lon="2.63657">
        <ele>642.2980957</ele>
        <time>2014-05-25T09:09:08Z</time>
      </trkpt>
      <trkpt lat="44.33386" lon="2.63639">
        <ele>638.9335938</ele>
        <time>2014-05-25T09:09:13Z</time>
      </trkpt>
      <trkpt lat="44.33396" lon="2.63624">
        <ele>635.0881348</ele>
        <time>2014-05-25T09:09:18Z</time>
      </trkpt>
      <trkpt lat="44.33408" lon="2.63608">
        <ele>631.7233887</ele>
        <time>2014-05-25T09:09:23Z</time>
      </trkpt>
      <trkpt lat="44.33418" lon="2.63597">
        <ele>629.8007813</ele>
        <time>2014-05-25T09:09:27Z</time>
      </trkpt>
      <trkpt lat="44.33431" lon="2.63583">
        <ele>628.8395996</ele>
        <time>2014-05-25T09:09:33Z</time>
      </trkpt>
      <trkpt lat="44.3344" lon="2.63569">
        <ele>627.8781738</ele>
        <time>2014-05-25T09:09:38Z</time>
      </trkpt>
      <trkpt lat="44.33446" lon="2.63551">
        <ele>626.9169922</ele>
        <time>2014-05-25T09:09:43Z</time>
      </trkpt>
      <trkpt lat="44.33447" lon="2.6353">
        <ele>627.8781738</ele>
        <time>2014-05-25T09:09:49Z</time>
      </trkpt>
      <trkpt lat="44.33449" lon="2.63515">
        <ele>628.3588867</ele>
        <time>2014-05-25T09:09:54Z</time>
      </trkpt>
      <trkpt lat="44.33454" lon="2.63496">
        <ele>629.3200684</ele>
        <time>2014-05-25T09:10:00Z</time>
      </trkpt>
      <trkpt lat="44.33458" lon="2.63482">
        <ele>630.762207</ele>
        <time>2014-05-25T09:10:05Z</time>
      </trkpt>
      <trkpt lat="44.33462" lon="2.63475">
        <ele>630.762207</ele>
        <time>2014-05-25T09:10:10Z</time>
      </trkpt>
      <trkpt lat="44.33465" lon="2.63466">
        <ele>630.762207</ele>
        <time>2014-05-25T09:10:13Z</time>
      </trkpt>
      <trkpt lat="44.33472" lon="2.63444">
        <ele>632.6848145</ele>
        <time>2014-05-25T09:10:20Z</time>
      </trkpt>
      <trkpt lat="44.33476" lon="2.63429">
        <ele>634.6074219</ele>
        <time>2014-05-25T09:10:25Z</time>
      </trkpt>
      <trkpt lat="44.33477" lon="2.63416">
        <ele>635.5686035</ele>
        <time>2014-05-25T09:10:29Z</time>
      </trkpt>
      <trkpt lat="44.33478" lon="2.63399">
        <ele>636.5302734</ele>
        <time>2014-05-25T09:10:34Z</time>
      </trkpt>
      <trkpt lat="44.33479" lon="2.63376">
        <ele>637.0107422</ele>
        <time>2014-05-25T09:10:41Z</time>
      </trkpt>
      <trkpt lat="44.3348" lon="2.63359">
        <ele>637.0107422</ele>
        <time>2014-05-25T09:10:46Z</time>
      </trkpt>
      <trkpt lat="44.33484" lon="2.63342">
        <ele>637.0107422</ele>
        <time>2014-05-25T09:10:51Z</time>
      </trkpt>
      <trkpt lat="44.33486" lon="2.63326">
        <ele>636.5302734</ele>
        <time>2014-05-25T09:10:56Z</time>
      </trkpt>
      <trkpt lat="44.33492" lon="2.63306">
        <ele>636.5302734</ele>
        <time>2014-05-25T09:11:03Z</time>
      </trkpt>
      <trkpt lat="44.33496" lon="2.63289">
        <ele>636.5302734</ele>
        <time>2014-05-25T09:11:08Z</time>
      </trkpt>
      <trkpt lat="44.335" lon="2.63271">
        <ele>636.0495605</ele>
        <time>2014-05-25T09:11:13Z</time>
      </trkpt>
      <trkpt lat="44.33506" lon="2.63256">
        <ele>637.0107422</ele>
        <time>2014-05-25T09:11:18Z</time>
      </trkpt>
      <trkpt lat="44.33512" lon="2.63236">
        <ele>640.3754883</ele>
        <time>2014-05-25T09:11:24Z</time>
      </trkpt>
      <trkpt lat="44.33515" lon="2.63221">
        <ele>641.3366699</ele>
        <time>2014-05-25T09:11:28Z</time>
      </trkpt>
      <trkpt lat="44.33519" lon="2.63208">
        <ele>641.3366699</ele>
        <time>2014-05-25T09:11:32Z</time>
      </trkpt>
      <trkpt lat="44.33523" lon="2.63188">
        <ele>642.7788086</ele>
        <time>2014-05-25T09:11:38Z</time>
      </trkpt>
      <trkpt lat="44.33526" lon="2.6317">
        <ele>643.7399902</ele>
        <time>2014-05-25T09:11:43Z</time>
      </trkpt>
      <trkpt lat="44.33533" lon="2.63151">
        <ele>643.2592773</ele>
        <time>2014-05-25T09:11:49Z</time>
      </trkpt>
      <trkpt lat="44.33541" lon="2.63133">
        <ele>643.7399902</ele>
        <time>2014-05-25T09:11:55Z</time>
      </trkpt>
      <trkpt lat="44.33549" lon="2.63115">
        <ele>643.7399902</ele>
        <time>2014-05-25T09:12:01Z</time>
      </trkpt>
      <trkpt lat="44.33554" lon="2.63097">
        <ele>644.7011719</ele>
        <time>2014-05-25T09:12:07Z</time>
      </trkpt>
      <trkpt lat="44.33556" lon="2.63082">
        <ele>645.1818848</ele>
        <time>2014-05-25T09:12:12Z</time>
      </trkpt>
      <trkpt lat="44.33557" lon="2.63066">
        <ele>646.6240234</ele>
        <time>2014-05-25T09:12:17Z</time>
      </trkpt>
      <trkpt lat="44.33559" lon="2.6305">
        <ele>647.1044922</ele>
        <time>2014-05-25T09:12:23Z</time>
      </trkpt>
      <trkpt lat="44.33559" lon="2.63041">
        <ele>647.1044922</ele>
        <time>2014-05-25T09:12:26Z</time>
      </trkpt>
      <trkpt lat="44.33566" lon="2.63033">
        <ele>647.5852051</ele>
        <time>2014-05-25T09:12:31Z</time>
      </trkpt>
      <trkpt lat="44.3357" lon="2.63025">
        <ele>648.065918</ele>
        <time>2014-05-25T09:12:38Z</time>
      </trkpt>
      <trkpt lat="44.33569" lon="2.63023">
        <ele>648.065918</ele>
        <time>2014-05-25T09:12:39Z</time>
      </trkpt>
      <trkpt lat="44.33567" lon="2.63001">
        <ele>648.5463867</ele>
        <time>2014-05-25T09:12:45Z</time>
      </trkpt>
      <trkpt lat="44.33568" lon="2.62982">
        <ele>649.5078125</ele>
        <time>2014-05-25T09:12:50Z</time>
      </trkpt>
      <trkpt lat="44.33569" lon="2.62967">
        <ele>649.5078125</ele>
        <time>2014-05-25T09:12:54Z</time>
      </trkpt>
      <trkpt lat="44.33568" lon="2.62949">
        <ele>650.4692383</ele>
        <time>2014-05-25T09:12:59Z</time>
      </trkpt>
      <trkpt lat="44.33566" lon="2.62932">
        <ele>651.4304199</ele>
        <time>2014-05-25T09:13:04Z</time>
      </trkpt>
      <trkpt lat="44.33565" lon="2.62926">
        <ele>651.9111328</ele>
        <time>2014-05-25T09:13:06Z</time>
      </trkpt>
      <trkpt lat="44.33566" lon="2.62921">
        <ele>651.4304199</ele>
        <time>2014-05-25T09:13:12Z</time>
      </trkpt>
      <trkpt lat="44.33571" lon="2.62921">
        <ele>649.9885254</ele>
        <time>2014-05-25T09:13:17Z</time>
      </trkpt>
      <trkpt lat="44.33573" lon="2.62921">
        <ele>649.9885254</ele>
        <time>2014-05-25T09:13:21Z</time>
      </trkpt>
      <trkpt lat="44.33573" lon="2.62922">
        <ele>650.4692383</ele>
        <time>2014-05-25T09:13:23Z</time>
      </trkpt>
      <trkpt lat="44.33585" lon="2.62896">
        <ele>624.9943848</ele>
        <time>2014-05-25T09:15:15Z</time>
      </trkpt>
      <trkpt lat="44.33585" lon="2.62896">
        <ele>624.9943848</ele>
        <time>2014-05-25T09:15:16Z</time>
      </trkpt>
      <trkpt lat="44.33585" lon="2.62897">
        <ele>624.9943848</ele>
        <time>2014-05-25T09:15:17Z</time>
      </trkpt>
    </trkseg>
  </trk>
</gpx>